SondeTracker

Meteorological Radiosondes Database

Operations
Statistics for the Launch Site: Kümmersbruck (DE)

8605

42

38667.00 m / 32631.00 m / 34345.00 m

4.66 m/s / 4.68 m/s

8.45 m/s / 8.14 m/s

3381

313

155

Radiosondes Table with Launch Site: Kümmersbruck (DE) (8606)
<
Number Type Last Frame [UTC] φ λ Course Speed Altitude Climbing Frequency Nearest City Distance from QTH Status
U3420208 RS41 2024-07-18 01:02:11 49.3853 12.3992 102 ° 69 km/h 9428 m -8.3 m/s 402.700 MHz 0.00 km UNKNOWN
U3410978 RS41 2024-07-17 13:07:32 49.9172 12.4625 61 ° 15 km/h 938 m -4.3 m/s 402.700 MHz Mariánské Lázně (CZ) 0.00 km UNKNOWN
U3420210 RS41 2024-07-17 01:23:42 50.0295 12.6155 94 ° 28 km/h 1056 m -6.5 m/s 402.700 MHz Mariánské Lázně (CZ) 0.00 km UNKNOWN
U3260668 RS41 2024-07-16 12:58:02 50.1894 12.3401 62 ° 28 km/h 1589 m -13.9 m/s 402.700 MHz Františkovy Lázně (CZ) 0.00 km FOUND
U3260732 RS41 2024-07-16 01:29:31 50.0822 12.1207 91 ° 39 km/h 859 m -11.9 m/s 402.700 MHz Aš (CZ) 0.00 km FOUND
U3260669 RS41 2024-07-15 12:58:01 49.7669 12.4958 27 ° 19 km/h 900 m -12.0 m/s 402.700 MHz Tachov (CZ) 0.00 km UNKNOWN
U3270658 RS41 2024-07-15 01:08:44 49.765 12.7622 22 ° 17 km/h 928 m -14.8 m/s 402.700 MHz Tachov (CZ) 0.00 km UNKNOWN
U3260673 RS41 2024-07-14 12:55:57 49.8391 12.9169 39 ° 22 km/h 1108 m -12.5 m/s 402.700 MHz Stříbro (CZ) 0.00 km UNKNOWN
U3420209 RS41 2024-07-14 01:22:44 50.2986 12.5756 64 ° 11 km/h 1321 m -6.7 m/s 402.700 MHz Kraslice (CZ) 0.00 km UNKNOWN
U3260095 RS41 2024-07-13 12:55:36 50.2756 12.4622 82 ° 22 km/h 1372 m -14.4 m/s 402.700 MHz Kraslice (CZ) 0.00 km UNKNOWN
U3410975 RS41 2024-07-13 01:41:23 50.3785 12.0739 76 ° 4 km/h 878 m -3.1 m/s 402.700 MHz Hof (DE) 0.00 km UNKNOWN
U3260667 RS41 2024-07-12 13:22:01 50.2644 12.2127 50 ° 26 km/h 1000 m -6.3 m/s 402.700 MHz Aš (CZ) 0.00 km UNKNOWN
U3260731 RS41 2024-07-12 01:41:49 49.9408 12.7734 344 ° 15 km/h 1090 m -5.7 m/s 402.700 MHz Mariánské Lázně (CZ) 0.00 km UNKNOWN
U3420213 RS41 2024-07-11 01:12:18 49.8541 12.4242 76 ° 19 km/h 1093 m -11.0 m/s 402.70 MHz Tachov (CZ) 0.00 km FOUND
U3260675 RS41 2024-07-10 12:59:53 49.8415 12.0209 85 ° 19 km/h 668 m -9.3 m/s 402.701 MHz Weiden in der Oberpfalz (DE) 0.00 km FOUND
U3260729 RS41 2024-07-10 01:28:10 49.9122 12.0833 51 ° 13 km/h 868 m -7.1 m/s 402.700 MHz Weiden in der Oberpfalz (DE) 0.00 km FOUND
U3260730 RS41 2024-07-09 13:01:20 49.7917 12.1719 319 ° 11 km/h 654 m -8.4 m/s 402.700 MHz Weiden in der Oberpfalz (DE) 0.00 km FOUND
U3371017 RS41 2024-07-09 01:33:48 49.8901 12.5347 352 ° 17 km/h 1372 m -6.0 m/s 402.700 MHz Tachov (CZ) 0.00 km UNKNOWN
U3371018 RS41 2024-07-08 12:58:48 49.7283 12.856 330 ° 11 km/h 775 m -13.9 m/s 402.700 MHz Stříbro (CZ) 0.00 km FOUND
U3141320 RS41 2024-07-08 01:52:45 50.179 13.0219 98 ° 9 km/h 1508 m -4.5 m/s 402.700 MHz Karlovy Vary (CZ) 0.00 km UNKNOWN
U3240971 RS41 2024-07-07 13:05:33 50.1898 12.4374 67 ° 11 km/h 1414 m -11.4 m/s 402.700 MHz Františkovy Lázně (CZ) 0.00 km UNKNOWN
D21063642 DFM17 2024-07-07 10:29:30 50.0079 12.7897 49 ° 17 km/h 1405 m -10.4 m/s 403.250 MHz Mariánské Lázně (CZ) 0.00 km UNKNOWN
U3420190 RS41 2024-07-07 01:28:48 50.3146 12.7648 122 ° 37 km/h 1121 m -6.7 m/s 402.700 MHz Nejdek (CZ) 0.00 km UNKNOWN
U3350473 RS41 2024-07-06 13:08:12 50.1085 12.7835 35 ° 39 km/h 1785 m -13.6 m/s 402.700 MHz Horní Slavkov (CZ) 0.00 km UNKNOWN
U3420187 RS41 2024-07-06 01:33:07 49.7692 13.1156 339 ° 11 km/h 624 m -7.6 m/s 402.700 MHz Stříbro (CZ) 0.00 km FOUND
U3420188 RS41 2024-07-05 13:11:24 49.4472 13.5381 78 ° 39 km/h 699 m -6.8 m/s 402.700 MHz Horažďovice (CZ) 0.00 km UNKNOWN
U3350470 RS41 2024-07-05 01:14:43 49.2149 13.4277 93 ° 37 km/h 1005 m -10.1 m/s 402.700 MHz Sušice (CZ) 0.00 km UNKNOWN
U3340649 RS41 2024-07-04 13:01:56 49.2609 13.1082 108 ° 6 km/h 852 m -11.1 m/s 402.700 MHz Kdyně (CZ) 0.00 km UNKNOWN
U3340651 RS41 2024-07-04 01:09:26 48.9575 12.2888 89 ° 31 km/h 690 m -13.3 m/s 402.700 MHz Regensburg (DE) 0.00 km FOUND
U3340650 RS41 2024-07-03 13:08:30 49.3124 12.2851 97 ° 9 km/h 525 m -7.4 m/s 402.700 MHz Schwandorf (DE) 0.00 km FOUND
U3340654 RS41 2024-07-03 01:36:48 49.673 12.1507 67 ° 11 km/h 592 m -5.6 m/s 402.700 MHz Weiden in der Oberpfalz (DE) 0.00 km UNKNOWN
U3340653 RS41 2024-07-02 12:58:22 49.2599 12.3017 79 ° 13 km/h 728 m -12.1 m/s 402.700 MHz Schwandorf (DE) 0.00 km NEED ATTENTION
U3340646 RS41 2024-07-02 01:39:28 49.163 12.5565 133 ° 17 km/h 846 m -11.0 m/s 402.700 MHz Straubing (DE) 0.00 km UNKNOWN
U3340645 RS41 2024-07-01 13:02:08 49.7949 12.5159 84 ° 37 km/h 1114 m -14.8 m/s 402.700 MHz Tachov (CZ) 0.00 km UNKNOWN
U3340640 RS41 2024-07-01 01:27:24 49.8741 12.5087 114 ° 26 km/h 1335 m -7.3 m/s 402.700 MHz Tachov (CZ) 0.00 km UNKNOWN
U3420252 RS41 2024-06-30 13:11:58 49.9951 12.314 61 ° 57 km/h 1855 m -10.3 m/s 402.700 MHz Cheb (CZ) 0.00 km UNKNOWN
U3340644 RS41 2024-06-30 07:25:53 50.3714 12.6501 75 ° 17 km/h 1043 m -5.5 m/s 402.700 MHz Nejdek (CZ) 0.00 km FOUND
U3350614 RS41 2024-06-30 01:17:07 49.9316 11.8064 343 ° 39 km/h 871 m -7.0 m/s 402.700 MHz Bayreuth (DE) 0.00 km FOUND
U3260682 RS41 2024-06-29 13:01:59 49.6416 12.4918 317 ° 9 km/h 1171 m -11.8 m/s 402.700 MHz Tachov (CZ) 0.00 km UNKNOWN
U3350613 RS41 2024-06-29 01:18:31 49.5078 12.4717 94 ° 9 km/h 1083 m -13.2 m/s 402.700 MHz Weiden in der Oberpfalz (DE) 0.00 km UNKNOWN
U3350605 RS41 2024-06-28 13:23:31 49.5356 12.4805 53 ° 20 km/h 1313 m -5.3 m/s 402.700 MHz Weiden in der Oberpfalz (DE) 0.00 km UNKNOWN
U3420191 RS41 2024-06-28 01:35:37 49.465 12.0697 30 ° 7 km/h 618 m -6.7 m/s 402.700 MHz Amberg (DE) 0.00 km FOUND
U3350601 RS41 2024-06-27 13:33:31 49.5344 11.6554 88 ° 19 km/h 1068 m -11.8 m/s 402.700 MHz Sulzbach-Rosenberg (DE) 0.00 km FOUND
U3350602 RS41 2024-06-27 01:27:40 49.4786 11.2424 99 ° 11 km/h 476 m -12.2 m/s 402.700 MHz Lauf an der Pegnitz (DE) 0.00 km FOUND
U3350579 RS41 2024-06-26 12:55:38 49.5494 11.168 314 ° 15 km/h 578 m -11.5 m/s 402.70 MHz Lauf an der Pegnitz (DE) 0.00 km FOUND
U3350630 RS41 2024-06-26 01:09:38 49.4746 10.7825 309 ° 26 km/h 861 m -12.1 m/s 402.700 MHz Herzogenaurach (DE) 0.00 km FOUND
U3350582 RS41 2024-06-25 13:20:23 49.4305 10.7652 251 ° 20 km/h 513 m -4.1 m/s 402.700 MHz Zirndorf (DE) 0.00 km FOUND
U3350627 RS41 2024-06-25 01:13:47 49.3246 10.7406 275 ° 33 km/h 673 m -10.2 m/s 402.700 MHz Ansbach (DE) 0.00 km FOUND
U3350618 RS41 2024-06-24 13:09:45 49.3227 10.9503 281 ° 2 km/h 630 m -5.1 m/s 402.700 MHz Schwabach (DE) 0.00 km FOUND
U3350580 RS41 2024-06-24 01:15:45 49.0719 10.6456 243 ° 31 km/h 696 m -7.8 m/s 402.700 MHz Ansbach (DE) 0.00 km UNKNOWN
U3350615 RS41 2024-06-23 13:21:30 49.174 11.2586 167 ° 7 km/h 1074 m -4.5 m/s 402.700 MHz Roth bei Nürnberg (DE) 0.00 km FOUND
U3350629 RS41 2024-06-23 01:21:14 49.5081 11.5939 123 ° 22 km/h 842 m -11.1 m/s 402.700 MHz Sulzbach-Rosenberg (DE) 0.00 km FOUND
U3350625 RS41 2024-06-22 13:00:56 49.813 12.1643 98 ° 6 km/h 569 m -12.6 m/s 402.700 MHz Weiden in der Oberpfalz (DE) 0.00 km FOUND
U3350604 RS41 2024-06-22 02:03:25 50.4351 12.17 60 ° 35 km/h 856 m -9.3 m/s 402.700 MHz Plauen (DE) 0.00 km FOUND
U3350578 RS41 2024-06-21 13:14:53 50.3112 12.4368 53 ° 63 km/h 1133 m -5.0 m/s 402.700 MHz Kraslice (CZ) 0.00 km UNKNOWN
U3350626 RS41 2024-06-21 06:29:33 50.1945 13.1396 346 ° 19 km/h 1129 m -3.6 m/s 402.700 MHz Ostrov (CZ) 0.00 km UNKNOWN
U3340643 RS41 2024-06-21 01:13:22 49.984 12.6395 37 ° 22 km/h 1046 m -10.0 m/s 402.700 MHz Mariánské Lázně (CZ) 0.00 km UNKNOWN
U3350616 RS41 2024-06-20 18:20:09 49.9916 13.2462 343 ° 20 km/h 1227 m -7.9 m/s 402.700 MHz Třemošná (CZ) 0.00 km UNKNOWN
U3340641 RS41 2024-06-20 13:25:06 49.8949 12.8168 305 ° 15 km/h 838 m -5.6 m/s 402.700 MHz Planá (CZ) 0.00 km LOST
U3420204 RS41 2024-06-20 01:21:28 49.4701 12.954 210 ° 15 km/h 566 m -11.4 m/s 402.700 MHz Domažlice (CZ) 0.00 km UNKNOWN
U3420205 RS41 2024-06-19 13:00:59 49.8315 13.1098 111 ° 11 km/h 569 m -10.7 m/s 402.700 MHz Stříbro (CZ) 0.00 km FOUND
U3260696 RS41 2024-06-19 01:26:15 49.8283 13.0914 67 ° 6 km/h 635 m -5.0 m/s 402.700 MHz Stříbro (CZ) 0.00 km FOUND
U3420192 RS41 2024-06-18 18:46:01 49.6507 13.1644 31 ° 17 km/h 638 m -8.3 m/s 402.700 MHz Nýřany (CZ) 0.00 km UNKNOWN
U3420203 RS41 2024-06-18 13:06:39 49.7262 12.9277 338 ° 11 km/h 645 m -14.3 m/s 402.700 MHz Stříbro (CZ) 0.00 km FOUND
U3420249 RS41 2024-06-18 01:30:01 49.6136 12.7311 51 ° 35 km/h 1013 m -5.8 m/s 402.700 MHz Tachov (CZ) 0.00 km UNKNOWN
U3420248 RS41 2024-06-17 12:58:46 49.8184 12.7112 63 ° 33 km/h 1722 m -14.0 m/s 402.700 MHz Planá (CZ) 0.00 km FOUND
U3420251 RS41 2024-06-17 01:20:59 49.7644 12.6335 74 ° 26 km/h 923 m -6.4 m/s 402.700 MHz Tachov (CZ) 0.00 km FOUND
U3270041 RS41 2024-06-16 13:15:50 49.9057 12.509 32 ° 20 km/h 1247 m -5.5 m/s 402.700 MHz Tachov (CZ) 0.00 km UNKNOWN
U3260683 RS41 2024-06-16 01:19:47 50 12.1783 54 ° 15 km/h 723 m -10.9 m/s 402.700 MHz Cheb (CZ) 0.00 km UNKNOWN
U3340664 RS41 2024-06-15 13:09:00 50.1966 12.5536 65 ° 30 km/h 1394 m -6.1 m/s 402.700 MHz Sokolov (CZ) 0.00 km UNKNOWN
U3420250 RS41 2024-06-15 01:08:32 49.7251 12.6738 63 ° 41 km/h 1494 m -12.6 m/s 402.700 MHz Tachov (CZ) 0.00 km FOUND
U3260684 RS41 2024-06-14 13:08:22 49.7154 12.7507 45 ° 56 km/h 1364 m -6.8 m/s 404.900 MHz Tachov (CZ) 0.00 km FOUND
U3260695 RS41 2024-06-14 01:04:35 49.2875 12.3122 357 ° 26 km/h 974 m -15.4 m/s 402.700 MHz Schwandorf (DE) 0.00 km UNKNOWN
U3420168 RS41 2024-06-13 13:02:44 49.2946 12.0893 140 ° 15 km/h 1063 m -11.1 m/s 402.700 MHz Schwandorf (DE) 0.00 km UNKNOWN
U3260705 RS41 2024-06-13 01:34:53 50.0191 12.5763 73 ° 9 km/h 1363 m -4.9 m/s 402.700 MHz Mariánské Lázně (CZ) 0.00 km UNKNOWN
U3420247 RS41 2024-06-12 13:01:42 49.9743 12.7097 62 ° 15 km/h 1107 m -5.5 m/s 402.700 MHz Mariánské Lázně (CZ) 0.00 km UNKNOWN
U3420152 RS41 2024-06-12 01:19:44 50.1635 12.9249 117 ° 9 km/h 1057 m -6.7 m/s 402.700 MHz Karlovy Vary (CZ) 0.00 km UNKNOWN
U3260691 RS41 2024-06-11 13:08:19 50.1229 13.2333 88 ° 22 km/h 1448 m -11.6 m/s 402.700 MHz Podbořany (CZ) 0.00 km UNKNOWN
U3420167 RS41 2024-06-11 01:15:27 50.1025 12.9793 81 ° 63 km/h 1414 m -12.3 m/s 402.700 MHz Horní Slavkov (CZ) 0.00 km UNKNOWN
U3420151 RS41 2024-06-10 12:51:59 49.888 12.7603 64 ° 28 km/h 1678 m -12.3 m/s 402.700 MHz Planá (CZ) 0.00 km FOUND
U3270037 RS41 2024-06-10 01:07:02 49.8449 12.8229 124 ° 17 km/h 1380 m -12.2 m/s 402.70 MHz Planá (CZ) 0.00 km NEED ATTENTION
U3270032 RS41 2024-06-09 12:43:47 49.7718 12.9025 37 ° 22 km/h 1232 m -13.2 m/s 402.700 MHz Stříbro (CZ) 0.00 km FOUND
U3260681 RS41 2024-06-09 01:37:05 49.6517 13.615 81 ° 24 km/h 769 m -5.1 m/s 402.700 MHz Rokycany (CZ) 0.00 km UNKNOWN
U3420149 RS41 2024-06-08 12:59:31 49.5271 13.3607 38 ° 11 km/h 564 m -10.5 m/s 402.700 MHz Přeštice (CZ) 0.00 km FOUND
U3410920 RS41 2024-06-08 01:25:48 49.3914 13.6087 30 ° 7 km/h 890 m -10.3 m/s 402.700 MHz Horažďovice (CZ) 0.00 km UNKNOWN
U3260680 RS41 2024-06-07 13:06:17 49.578 13.1485 90 ° 28 km/h 810 m -14.1 m/s 402.700 MHz Holýšov (CZ) 0.00 km FOUND
U3410921 RS41 2024-06-07 01:15:27 49.666 13.3087 51 ° 13 km/h 492 m -8.1 m/s 402.70 MHz Dobřany (CZ) 0.00 km FOUND
U3270039 RS41 2024-06-06 13:21:43 49.855 13.259 101 ° 15 km/h 583 m -5.7 m/s 402.701 MHz Třemošná (CZ) 0.00 km UNKNOWN
U3410911 RS41 2024-06-06 01:35:17 49.7493 13.4445 76 ° 9 km/h 547 m -8.4 m/s 402.700 MHz Plzeň (CZ) 0.00 km FOUND
U3270042 RS41 2024-06-05 12:55:04 49.5912 12.611 71 ° 28 km/h 1093 m -10.0 m/s 402.700 MHz Tachov (CZ) 0.00 km UNKNOWN
U3420147 RS41 2024-06-05 01:22:26 49.4741 12.2431 21 ° 17 km/h 643 m -10.6 m/s 402.700 MHz Schwandorf (DE) 0.00 km FOUND
U3270036 RS41 2024-06-04 12:59:55 49.6067 11.9221 140 ° 7 km/h 693 m -6.5 m/s 402.700 MHz Sulzbach-Rosenberg (DE) 0.00 km FOUND
U3410917 RS41 2024-06-04 01:16:48 49.3592 11.7139 169 ° 13 km/h 946 m -9.9 m/s 402.700 MHz Amberg (DE) 0.00 km FOUND
U3410916 RS41 2024-06-03 13:05:55 49.3962 11.4836 135 ° 15 km/h 893 m -6.3 m/s 402.700 MHz Neumarkt in der Oberpfalz (DE) 0.00 km FOUND
U3350619 RS41 2024-06-03 01:27:53 49.3735 11.3202 220 ° 15 km/h 727 m -4.6 m/s 402.700 MHz Neumarkt in der Oberpfalz (DE) 0.00 km FOUND
U3350486 RS41 2024-06-02 13:25:57 49.3469 11.4719 147 ° 4 km/h 934 m -7.8 m/s 402.700 MHz Neumarkt in der Oberpfalz (DE) 0.00 km FOUND
U3340475 RS41 2024-06-02 01:19:44 49.1626 11.6893 167 ° 30 km/h 1170 m -9.6 m/s 402.700 MHz Neumarkt in der Oberpfalz (DE) 0.00 km NEED ATTENTION
U3350483 RS41 2024-06-01 13:10:05 49.305 11.3578 152 ° 33 km/h 799 m -5.2 m/s 402.700 MHz Neumarkt in der Oberpfalz (DE) 0.00 km FOUND
U3240756 RS41 2024-06-01 01:53:02 49.516 11.0908 150 ° 41 km/h 546 m -9.2 m/s 402.700 MHz Nürnberg (DE) 0.00 km FOUND
U3340492 RS41 2024-05-31 13:25:00 49.7538 11.2892 212 ° 28 km/h 722 m -4.4 m/s 402.700 MHz Lauf an der Pegnitz (DE) 0.00 km UNKNOWN
U3240863 RS41 2024-05-31 01:46:18 49.8049 12.0365 170 ° 9 km/h 749 m -5.7 m/s 402.700 MHz Weiden in der Oberpfalz (DE) 0.00 km FOUND
U3240862 RS41 2024-05-30 13:07:42 49.6292 12.3679 19 ° 17 km/h 732 m -11.7 m/s 402.700 MHz Weiden in der Oberpfalz (DE) 0.00 km FOUND
U3340480 RS41 2024-05-30 01:25:04 49.4783 12.4702 48 ° 11 km/h 1063 m -3.5 m/s 402.70 MHz Schwandorf (DE) 0.00 km UNKNOWN
U3240859 RS41 2024-05-29 13:02:17 49.512 12.2328 18 ° 7 km/h 654 m -12.6 m/s 402.700 MHz Weiden in der Oberpfalz (DE) 0.00 km FOUND
U3240864 RS41 2024-05-29 01:15:18 49.3323 12.2213 302 ° 17 km/h 482 m -14.2 m/s 402.700 MHz Schwandorf (DE) 0.00 km UNKNOWN
U3340487 RS41 2024-05-28 13:01:09 49.7624 12.2732 84 ° 15 km/h 625 m -9.7 m/s 402.700 MHz Weiden in der Oberpfalz (DE) 0.00 km FOUND
U3340482 RS41 2024-05-28 01:30:08 49.8358 12.0142 113 ° 17 km/h 727 m -8.4 m/s 402.700 MHz Weiden in der Oberpfalz (DE) 0.00 km FOUND
U3340477 RS41 2024-05-27 13:20:17 49.7905 12.1366 64 ° 17 km/h 624 m -13.6 m/s 402.700 MHz Weiden in der Oberpfalz (DE) 0.00 km FOUND
U3350603 RS41 2024-05-27 01:28:04 49.4945 12.1592 3 ° 11 km/h 664 m -6.3 m/s 402.700 MHz Schwandorf (DE) 0.00 km FOUND
U3340491 RS41 2024-05-26 13:08:28 49.4394 12.1288 53 ° 7 km/h 508 m -6.1 m/s 404.900 MHz Schwandorf (DE) 0.00 km FOUND
U3350617 RS41 2024-05-26 01:24:43 49.5878 11.783 327 ° 2 km/h 837 m -10.9 m/s 402.700 MHz Sulzbach-Rosenberg (DE) 0.00 km FOUND
U3340484 RS41 2024-05-25 13:19:05 49.6825 11.5812 121 ° 7 km/h 955 m -6.2 m/s 402.700 MHz Sulzbach-Rosenberg (DE) 0.00 km FOUND
U3340488 RS41 2024-05-25 01:16:20 49.6983 11.755 61 ° 13 km/h 867 m -6.3 m/s 402.700 MHz Sulzbach-Rosenberg (DE) 0.00 km UNKNOWN
U3240861 RS41 2024-05-24 13:08:32 49.8299 11.3078 308 ° 6 km/h 904 m -9.7 m/s 402.700 MHz Bayreuth (DE) 0.00 km FOUND
U3240747 RS41 2024-05-24 01:58:48 49.8549 11.2677 276 ° 11 km/h 891 m -6.6 m/s 402.700 MHz Bayreuth (DE) 0.00 km FOUND
U3230740 RS41 2024-05-23 12:52:34 49.7737 11.8833 276 ° 6 km/h 801 m -12.7 m/s 402.700 MHz Weiden in der Oberpfalz (DE) 0.00 km FOUND
U3350606 RS41 2024-05-23 01:20:53 49.6846 12.098 102 ° 26 km/h 687 m -4.7 m/s 402.700 MHz Weiden in der Oberpfalz (DE) 0.00 km FOUND
U3240866 RS41 2024-05-22 13:14:29 49.7941 11.8875 121 ° 35 km/h 611 m -6.5 m/s 402.700 MHz Weiden in der Oberpfalz (DE) 0.00 km FOUND
U3340476 RS41 2024-05-22 01:14:30 49.9658 11.8146 87 ° 39 km/h 947 m -7.6 m/s 402.700 MHz Bayreuth (DE) 0.00 km FOUND
U3240860 RS41 2024-05-21 12:53:46 49.9605 12.0248 267 ° 30 km/h 977 m -4.8 m/s 404.901 MHz Cheb (CZ) 0.00 km FOUND
U3240734 RS41 2024-05-21 01:39:03 49.8891 12.6794 263 ° 26 km/h 691 m -6.3 m/s 402.70 MHz Planá (CZ) 0.00 km UNKNOWN
U3240733 RS41 2024-05-18 01:34:44 49.5653 12.7712 38 ° 31 km/h 734 m -11.2 m/s 402.700 MHz Domažlice (CZ) 0.00 km UNKNOWN
U3230755 RS41 2024-05-17 13:18:40 49.6617 11.618 34 ° 30 km/h 874 m -3.7 m/s 402.700 MHz Sulzbach-Rosenberg (DE) 0.00 km FOUND
U3230753 RS41 2024-05-17 01:08:15 49.8387 11.9125 286 ° 56 km/h 884 m -12.3 m/s 402.700 MHz Weiden in der Oberpfalz (DE) 0.00 km FOUND
U3230754 RS41 2024-05-16 13:09:50 49.9377 11.8649 257 ° 31 km/h 785 m -6.4 m/s 402.701 MHz Bayreuth (DE) 0.00 km FOUND
U3240737 RS41 2024-05-16 01:11:17 49.6872 11.7238 315 ° 43 km/h 994 m -13.4 m/s 402.700 MHz Sulzbach-Rosenberg (DE) 0.00 km UNKNOWN
U3240736 RS41 2024-05-15 12:52:47 49.5465 11.8971 302 ° 20 km/h 795 m -11.7 m/s 402.700 MHz Sulzbach-Rosenberg (DE) 0.00 km FOUND
U3240735 RS41 2024-05-15 01:17:38 49.4009 11.836 285 ° 39 km/h 715 m -7.0 m/s 402.700 MHz Amberg (DE) 0.00 km FOUND
U3230756 RS41 2024-05-14 12:52:04 49.3063 11.7869 269 ° 31 km/h 972 m -13.9 m/s 402.700 MHz Amberg (DE) 0.00 km FOUND
U3240754 RS41 2024-05-14 01:15:04 48.9848 11.6493 299 ° 19 km/h 1247 m -6.0 m/s 402.700 MHz Ingolstadt (DE) 0.00 km FOUND
U3240749 RS41 2024-05-13 12:57:01 49.1654 11.8422 288 ° 7 km/h 893 m -11.5 m/s 402.70 MHz Regensburg (DE) 0.00 km FOUND
U3240745 RS41 2024-05-13 01:32:40 49.0534 12.1758 320 ° 30 km/h 801 m -5.6 m/s 402.700 MHz Regensburg (DE) 0.00 km UNKNOWN
U3240738 RS41 2024-05-12 13:19:46 48.9176 12.3671 256 ° 13 km/h 1079 m -5.1 m/s 402.700 MHz Straubing (DE) 0.00 km UNKNOWN
U3340675 RS41 2024-05-12 01:35:50 48.6605 12.4595 287 ° 19 km/h 1439 m -6.8 m/s 402.700 MHz Straubing (DE) 0.00 km UNKNOWN
U3350600 RS41 2024-05-11 13:12:56 48.8461 12.3622 289 ° 7 km/h 1365 m -12.2 m/s 402.700 MHz Straubing (DE) 0.00 km FOUND
U3340680 RS41 2024-05-11 01:30:51 48.7438 11.8098 316 ° 28 km/h 616 m -7.4 m/s 402.700 MHz Ingolstadt (DE) 0.00 km UNKNOWN
U3340676 RS41 2024-05-10 13:02:06 48.8368 11.8885 291 ° 7 km/h 1152 m -13.0 m/s 402.700 MHz Regensburg (DE) 0.00 km LOST
U3340678 RS41 2024-05-10 01:25:12 48.8584 12.0819 248 ° 7 km/h 789 m -11.9 m/s 402.700 MHz Regensburg (DE) 0.00 km UNKNOWN
U3340681 RS41 2024-05-09 13:18:25 48.9072 11.7178 301 ° 13 km/h 1417 m -9.6 m/s 402.700 MHz Ingolstadt (DE) 0.00 km FOUND
U3340679 RS41 2024-05-09 01:37:42 48.9876 12.2531 247 ° 22 km/h 896 m -5.3 m/s 402.700 MHz Regensburg (DE) 0.00 km UNKNOWN
U3340347 RS41 2024-05-08 13:23:20 49.3165 12.3579 231 ° 15 km/h 671 m -10.0 m/s 402.700 MHz Schwandorf (DE) 0.00 km FOUND
U3230971 RS41 2024-05-08 01:36:50 49.3002 12.2129 215 ° 20 km/h 576 m -4.4 m/s 402.700 MHz Schwandorf (DE) 0.00 km FOUND
U3340669 RS41 2024-05-07 13:27:51 49.5093 12.451 235 ° 28 km/h 985 m -4.3 m/s 402.701 MHz Weiden in der Oberpfalz (DE) 0.00 km UNKNOWN
U3340673 RS41 2024-05-07 01:40:43 49.5813 12.6483 97 ° 37 km/h 912 m -4.5 m/s 402.70 MHz Tachov (CZ) 0.00 km UNKNOWN
U3340288 RS41 2024-05-06 13:35:54 49.6563 13.2194 128 ° 15 km/h 518 m -6.5 m/s 402.70 MHz Dobřany (CZ) 0.00 km FOUND
U3350622 RS41 2024-05-06 01:27:34 49.364 13.3349 16 ° 4 km/h 587 m -6.8 m/s 402.700 MHz Klatovy (CZ) 0.00 km UNKNOWN
U3340674 RS41 2024-05-05 13:14:38 49.5569 13.2259 47 ° 41 km/h 587 m -11.9 m/s 402.700 MHz Přeštice (CZ) 0.00 km UNKNOWN
U3230991 RS41 2024-05-05 01:33:41 49.3472 12.9305 357 ° 7 km/h 613 m -13.1 m/s 402.700 MHz Kdyně (CZ) 0.00 km UNKNOWN
U3230968 RS41 2024-05-04 13:08:23 49.7711 12.0441 350 ° 6 km/h 609 m -13.4 m/s 402.700 MHz Weiden in der Oberpfalz (DE) 0.00 km FOUND
U3340691 RS41 2024-05-04 01:31:52 49.483 11.705 130 ° 19 km/h 785 m -6.6 m/s 402.700 MHz Sulzbach-Rosenberg (DE) 0.00 km FOUND
U3340684 RS41 2024-05-03 13:22:55 49.4603 11.6256 101 ° 30 km/h 902 m -5.5 m/s 402.700 MHz Sulzbach-Rosenberg (DE) 0.00 km FOUND
U3241013 RS41 2024-05-03 00:59:09 49.5247 11.5267 74 ° 35 km/h 1061 m -12.0 m/s 402.700 MHz Sulzbach-Rosenberg (DE) 0.00 km FOUND
U3231171 RS41-SGP 2024-05-02 13:12:57 49.5817 11.1102 317 ° 28 km/h 404 m -4.7 m/s 402.700 MHz Erlangen (DE) 0.00 km NEED ATTENTION
U3340677 RS41 2024-05-02 01:42:15 49.5756 11.3151 264 ° 33 km/h 555 m -3.7 m/s 402.700 MHz Lauf an der Pegnitz (DE) 0.00 km FOUND
U3340672 RS41 2024-05-01 13:03:31 49.5742 11.5151 261 ° 20 km/h 803 m -13.7 m/s 402.700 MHz Lauf an der Pegnitz (DE) 0.00 km UNKNOWN
U3230996 RS41 2024-05-01 00:53:34 49.6861 11.9189 280 ° 28 km/h 698 m -10.4 m/s 402.700 MHz Weiden in der Oberpfalz (DE) 0.00 km UNKNOWN
U3230994 RS41 2024-04-30 12:58:56 49.8577 12.1255 324 ° 19 km/h 607 m -10.3 m/s 402.700 MHz Weiden in der Oberpfalz (DE) 0.00 km FOUND
U3230993 RS41 2024-04-30 01:19:51 49.8277 12.2823 287 ° 26 km/h 679 m -5.9 m/s 402.700 MHz Weiden in der Oberpfalz (DE) 0.00 km UNKNOWN
U3230970 RS41 2024-04-29 13:08:01 49.9714 12.511 329 ° 17 km/h 998 m -12.7 m/s 402.700 MHz Mariánské Lázně (CZ) 0.00 km UNKNOWN
U3340671 RS41 2024-04-29 01:25:34 50.0094 12.8038 156 ° 19 km/h 838 m -10.9 m/s 402.700 MHz Mariánské Lázně (CZ) 0.00 km FOUND
U3340286 RS41 2024-04-28 13:09:58 49.983 12.9275 343 ° 15 km/h 800 m -9.1 m/s 402.70 MHz Mariánské Lázně (CZ) 0.00 km FOUND
U3340667 RS41 2024-04-28 01:27:56 49.9033 12.8859 268 ° 15 km/h 718 m -6.9 m/s 402.700 MHz Planá (CZ) 0.00 km FOUND
U3340668 RS41 2024-04-27 13:07:33 49.8185 12.6671 316 ° 19 km/h 613 m -5.1 m/s 402.70 MHz Tachov (CZ) 0.00 km FOUND
U3241011 RS41 2024-04-27 01:19:26 49.8599 12.5445 85 ° 2 km/h 793 m -5.1 m/s 402.700 MHz Tachov (CZ) 0.00 km UNKNOWN
U3230992 RS41 2024-04-26 13:21:25 50.0264 12.5594 360 ° 17 km/h 702 m -11.9 m/s 402.70 MHz Mariánské Lázně (CZ) 0.00 km FOUND
U3231000 RS41 2024-04-26 01:44:54 49.847 12.9586 200 ° 2 km/h 589 m -8.1 m/s 402.70 MHz Stříbro (CZ) 0.00 km FOUND
U3230999 RS41 2024-04-25 13:14:52 49.6363 12.7823 44 ° 17 km/h 580 m -6.0 m/s 402.700 MHz Stříbro (CZ) 0.00 km UNKNOWN
U3241014 RS41 2024-04-25 01:05:42 49.5932 12.572 82 ° 31 km/h 936 m -11.7 m/s 402.70 MHz Tachov (CZ) 0.00 km FOUND
U3230995 RS41 2024-04-24 13:10:19 49.7851 12.5851 92 ° 24 km/h 705 m -9.2 m/s 402.700 MHz Tachov (CZ) 0.00 km FOUND
U3241012 RS41 2024-04-24 01:00:46 49.6069 12.3612 97 ° 13 km/h 718 m -11.9 m/s 402.700 MHz Weiden in der Oberpfalz (DE) 0.00 km FOUND
U3231231 RS41 2024-04-23 13:17:56 49.765 11.9903 280 ° 17 km/h 607 m -5.5 m/s 402.701 MHz Weiden in der Oberpfalz (DE) 0.00 km FOUND
U3230998 RS41 2024-04-23 01:16:31 49.8105 12.0681 255 ° 9 km/h 674 m -6.5 m/s 402.70 MHz Weiden in der Oberpfalz (DE) 0.00 km FOUND
U3230969 RS41 2024-04-22 13:03:17 49.7223 12.2717 162 ° 11 km/h 557 m -7.6 m/s 402.701 MHz Weiden in der Oberpfalz (DE) 0.00 km UNKNOWN
U3241010 RS41 2024-04-22 01:04:34 49.5219 12.2092 243 ° 24 km/h 714 m -14.3 m/s 402.700 MHz Weiden in der Oberpfalz (DE) 0.00 km UNKNOWN
U3230997 RS41 2024-04-21 13:21:51 49.6136 12.2459 252 ° 35 km/h 576 m -6.1 m/s 404.90 MHz Weiden in der Oberpfalz (DE) 0.00 km FOUND
U3350460 RS41 2024-04-21 01:23:58 49.3034 12.6814 29 ° 13 km/h 698 m -8.4 m/s 402.700 MHz Domažlice (CZ) 0.00 km UNKNOWN
U3350554 RS41 2024-04-20 13:09:46 49.1682 12.5959 129 ° 7 km/h 959 m -12.3 m/s 402.700 MHz Straubing (DE) 0.00 km UNKNOWN
U3350556 RS41 2024-04-20 01:27:31 49.1544 13.3721 95 ° 41 km/h 1187 m -5.7 m/s 402.700 MHz Sušice (CZ) 0.00 km UNKNOWN
U3350549 RS41 2024-04-19 13:04:25 49.1204 13.4763 52 ° 46 km/h 1143 m -13.6 m/s 402.700 MHz Sušice (CZ) 0.00 km UNKNOWN
U3350535 RS41 2024-04-19 01:01:47 49.0219 12.9263 111 ° 31 km/h 1448 m -10.9 m/s 402.700 MHz Deggendorf (DE) 0.00 km UNKNOWN
U3350624 RS41 2024-04-18 13:09:33 49.2915 12.7049 9 ° 4 km/h 585 m -7.2 m/s 402.70 MHz Domažlice (CZ) 0.00 km UNKNOWN
U3350583 RS41 2024-04-18 01:21:03 49.4835 13.0859 15 ° 4 km/h 582 m -6.4 m/s 402.700 MHz Kdyně (CZ) 0.00 km UNKNOWN
U3350482 RS41 2024-04-17 13:05:12 49.4794 13.0111 80 ° 6 km/h 566 m -8.2 m/s 402.700 MHz Domažlice (CZ) 0.00 km FOUND
U3420194 RS41 2024-04-17 01:28:18 49.36 13.4055 81 ° 11 km/h 775 m -4.9 m/s 402.70 MHz Klatovy (CZ) 0.00 km UNKNOWN
U3420197 RS41 2024-04-16 13:12:42 49.7508 14.0121 74 ° 35 km/h 603 m -6.4 m/s 402.700 MHz Příbram (CZ) 0.00 km FOUND
U3350537 RS41 2024-04-16 01:00:20 49.7427 14.4174 76 ° 30 km/h 537 m -9.2 m/s 402.700 MHz Sedlčany (CZ) 0.00 km FOUND
U3350536 RS41 2024-04-15 13:16:32 50.017 14.8864 57 ° 13 km/h 417 m -5.2 m/s 402.700 MHz Český Brod (CZ) 0.00 km FOUND
U3270048 RS41 2024-04-15 01:16:53 49.5086 14.6562 41 ° 17 km/h 839 m -13.7 m/s 402.700 MHz Tábor (CZ) 0.00 km UNKNOWN
U3270043 RS41 2024-04-14 13:19:21 49.2459 14.5903 104 ° 52 km/h 1151 m -7.7 m/s 402.70 MHz Soběslav (CZ) 0.00 km UNKNOWN
U3350557 RS41 2024-04-14 01:28:50 48.8915 13.9332 61 ° 43 km/h 1156 m -4.2 m/s 402.70 MHz Prachatice (CZ) 0.00 km UNKNOWN
U3350505 RS41 2024-04-13 12:59:16 48.6536 13.0185 80 ° 9 km/h 647 m -15.4 m/s 402.700 MHz Deggendorf (DE) 0.00 km FOUND
U3350466 RS41 2024-04-13 01:33:16 48.4692 13.1901 90 ° 24 km/h 641 m -7.2 m/s 402.700 MHz Schärding (AT) 0.00 km FOUND
U3350528 RS41 2024-04-12 13:01:00 48.7631 12.6749 158 ° 6 km/h 869 m -4.8 m/s 402.700 MHz Straubing (DE) 0.00 km FOUND
U3350525 RS41 2024-04-12 01:15:30 48.9151 12.7223 183 ° 11 km/h 1506 m -8.2 m/s 402.700 MHz Straubing (DE) 0.00 km UNKNOWN
D18051402 DFM09 2024-04-11 13:28:23 49.3814 12.709 69 ° 19 km/h 686 m -3.0 m/s 402.011 MHz Domažlice (CZ) 0.00 km FOUND
U3350598 RS41 2024-04-11 13:27:52 49.3819 12.7073 121 ° 11 km/h 790 m -3.4 m/s 402.70 MHz Domažlice (CZ) 0.00 km FOUND
U3350553 RS41 2024-04-11 01:11:38 49.5 12.6227 203 ° 4 km/h 862 m -15.2 m/s 402.70 MHz Domažlice (CZ) 0.00 km UNKNOWN
U3350522 RS41 2024-04-10 13:13:13 50.069 12.6641 97 ° 13 km/h 1001 m -9.6 m/s 402.70 MHz Mariánské Lázně (CZ) 0.00 km UNKNOWN
U3350457 RS41 2024-04-10 01:05:28 50.1782 12.5584 81 ° 30 km/h 728 m -10.4 m/s 402.70 MHz Sokolov (CZ) 0.00 km UNKNOWN
U3350490 RS41 2024-04-09 13:14:11 50.1676 12.7566 95 ° 35 km/h 1000 m -13.4 m/s 402.70 MHz Horní Slavkov (CZ) 0.00 km FOUND
U3350458 RS41 2024-04-09 01:21:16 49.8291 12.7738 282 ° 9 km/h 624 m -9.3 m/s 402.70 MHz Planá (CZ) 0.00 km NEED ATTENTION
U3350518 RS41 2024-04-08 13:08:22 49.8125 12.9139 348 ° 13 km/h 618 m -11.8 m/s 402.70 MHz Stříbro (CZ) 0.00 km FOUND
U3350621 RS41 2024-04-08 00:48:57 49.7702 12.983 322 ° 19 km/h 636 m -9.4 m/s 402.70 MHz Stříbro (CZ) 0.00 km LOST
U3350478 RS41 2024-04-07 13:05:28 49.672 13.3549 103 ° 30 km/h 482 m -6.1 m/s 402.700 MHz Dobřany (CZ) 0.00 km FOUND
U3350540 RS41 2024-04-07 01:22:11 49.5203 13.1313 358 ° 9 km/h 573 m -8.5 m/s 404.90 MHz Holýšov (CZ) 0.00 km FOUND
U3350595 RS41 2024-04-07 00:05:15 49.4734 12.9253 9 ° 24 km/h 615 m -12.5 m/s 402.700 MHz Domažlice (CZ) 0.00 km FOUND
U3350459 RS41 2024-04-06 12:57:13 49.1077 12.9301 56 ° 13 km/h 1228 m -11.3 m/s 402.700 MHz Deggendorf (DE) 0.00 km FOUND
U3350539 RS41 2024-04-06 01:19:03 48.9282 13.8673 76 ° 33 km/h 1220 m -4.0 m/s 402.700 MHz Prachatice (CZ) 0.00 km UNKNOWN
U3350527 RS41 2024-04-05 13:28:18 49.2373 13.7746 66 ° 15 km/h 918 m -10.2 m/s 402.700 MHz Strakonice (CZ) 0.00 km UNKNOWN
U3350538 RS41 2024-04-05 01:25:31 48.973 13.7458 87 ° 39 km/h 1298 m -5.5 m/s 402.700 MHz Vimperk (CZ) 0.00 km UNKNOWN
U3340500 RS41-SGP 2024-04-04 13:05:13 49.5565 13.4392 46 ° 33 km/h 660 m -6.7 m/s 402.70 MHz Přeštice (CZ) 0.00 km UNKNOWN
U3350558 RS41 2024-04-04 01:08:18 49.1724 13.3025 89 ° 28 km/h 1145 m -11.4 m/s 402.700 MHz Sušice (CZ) 0.00 km UNKNOWN
U3350519 RS41 2024-04-03 13:00:12 49.5838 13.1702 63 ° 20 km/h 547 m -10.2 m/s 402.70 MHz Holýšov (CZ) 0.00 km FOUND
U3350547 RS41 2024-04-03 01:25:05 48.6556 14.2017 65 ° 20 km/h 1038 m -4.7 m/s 402.70 MHz Vorderweissenbach (AT) 0.00 km UNKNOWN
U3350511 RS41 2024-04-02 13:26:28 49.2892 13.4937 81 ° 43 km/h 1009 m -8.6 m/s 404.900 MHz Sušice (CZ) 0.00 km UNKNOWN
U3350529 RS41 2024-04-02 01:26:30 49.7417 13.0088 83 ° 33 km/h 611 m -13.1 m/s 402.700 MHz Stříbro (CZ) 0.00 km FOUND
U3350493 RS41 2024-04-01 13:05:29 50.444 13.1147 53 ° 39 km/h 1074 m -7.3 m/s 402.700 MHz Klášterec nad Ohří (CZ) 0.00 km UNKNOWN
U3420202 RS41 2024-04-01 01:22:47 50.0437 13.3875 287 ° 13 km/h 610 m -14.8 m/s 402.700 MHz Podbořany (CZ) 0.00 km UNKNOWN
U3420199 RS41 2024-03-31 13:11:04 50.0385 12.5881 10 ° 9 km/h 872 m -4.7 m/s 402.700 MHz Mariánské Lázně (CZ) 0.00 km NEED ATTENTION
U3420206 RS41 2024-03-31 01:18:19 50.0438 12.6288 23 ° 19 km/h 975 m -4.4 m/s 402.700 MHz Mariánské Lázně (CZ) 0.00 km FOUND
U3420198 RS41 2024-03-30 12:59:41 50.1853 12.5159 335 ° 13 km/h 716 m -10.6 m/s 402.700 MHz Sokolov (CZ) 0.00 km UNKNOWN
U3420200 RS41 2024-03-30 01:33:56 50.1952 13.3375 131 ° 9 km/h 498 m -5.8 m/s 402.70 MHz Podbořany (CZ) 0.00 km UNKNOWN
U3420186 RS41 2024-03-29 13:14:08 50.0069 14.1849 10 ° 11 km/h 536 m -9.8 m/s 402.700 MHz Rudná (CZ) 0.00 km UNKNOWN
U3420201 RS41 2024-03-29 01:02:45 49.6329 14.2093 83 ° 50 km/h 1209 m -10.0 m/s 402.700 MHz Příbram (CZ) 0.00 km FOUND
U3420196 RS41 2024-03-28 13:21:32 50.2704 13.7224 50 ° 44 km/h 393 m -5.5 m/s 402.700 MHz Louny (CZ) 0.00 km UNKNOWN
U3340317 RS41 2024-03-28 01:31:11 50.6131 12.1786 42 ° 54 km/h 556 m -1.9 m/s 402.700 MHz Greiz (DE) 0.00 km NEED ATTENTION
U3340369 RS41 2024-03-27 13:08:27 50.4294 12.6594 318 ° 26 km/h 1003 m -11.5 m/s 402.700 MHz Nejdek (CZ) 0.00 km FOUND
U3260961 RS41 2024-03-27 01:15:12 50.248 12.9612 296 ° 13 km/h 846 m -12.1 m/s 402.700 MHz Karlovy Vary (CZ) 0.00 km FOUND
U3410926 RS41 2024-03-26 13:29:00 50.1762 12.745 262 ° 22 km/h 970 m -3.9 m/s 402.700 MHz Horní Slavkov (CZ) 0.00 km UNKNOWN
U3260964 RS41 2024-03-26 01:14:24 49.5854 13.2752 295 ° 17 km/h 501 m -12.0 m/s 402.700 MHz Přeštice (CZ) 0.00 km UNKNOWN
U3410941 RS41 2024-03-25 13:00:17 49.135 13.6036 72 ° 19 km/h 1131 m -13.5 m/s 402.700 MHz Sušice (CZ) 0.00 km UNKNOWN
U3260965 RS41 2024-03-25 01:22:31 49.2532 13.5325 86 ° 59 km/h 945 m -7.5 m/s 402.700 MHz Sušice (CZ) 0.00 km UNKNOWN
U3410928 RS41 2024-03-24 13:08:56 49.713 13.4036 53 ° 31 km/h 370 m -11.9 m/s 402.700 MHz Plzeň (CZ) 0.00 km UNKNOWN
U3410942 RS41 2024-03-24 01:28:10 49.7087 13.5778 81 ° 17 km/h 533 m -5.6 m/s 402.700 MHz Rokycany (CZ) 0.00 km FOUND
U3270717 RS41 2024-03-23 13:18:18 50.4196 14.0518 110 ° 57 km/h 329 m -3.6 m/s 402.700 MHz Lovosice (CZ) 0.00 km FOUND
U3270716 RS41 2024-03-23 01:08:25 49.7844 13.3727 69 ° 11 km/h 445 m -14.5 m/s 402.700 MHz Třemošná (CZ) 0.00 km UNKNOWN
U3270074 RS41 2024-03-22 12:59:34 49.1829 12.4608 66 ° 19 km/h 860 m -12.7 m/s 402.700 MHz Schwandorf (DE) 0.00 km FOUND
U3410201 RS41 2024-03-22 00:56:09 48.7215 11.8738 92 ° 9 km/h 904 m -12.7 m/s 402.700 MHz Landshut (DE) 0.00 km UNKNOWN
U3420195 RS41 2024-03-21 12:54:18 49.1567 12.7428 121 ° 28 km/h 1318 m -11.1 m/s 402.700 MHz Straubing (DE) 0.00 km UNKNOWN
U3410033 RS41 2024-03-21 00:50:55 49.1517 12.8529 119 ° 9 km/h 1513 m -13.3 m/s 402.700 MHz Kdyně (CZ) 0.00 km UNKNOWN
U3260571 RS41 2024-03-20 13:09:57 48.8294 12.7237 106 ° 11 km/h 1473 m -12.0 m/s 402.700 MHz Straubing (DE) 0.00 km UNKNOWN
U3410930 RS41 2024-03-20 01:28:05 48.6423 12.732 300 ° 7 km/h 858 m -5.1 m/s 402.700 MHz Deggendorf (DE) 0.00 km FOUND
U3410927 RS41 2024-03-19 13:08:54 48.6879 12.6604 114 ° 4 km/h 1135 m -4.0 m/s 402.700 MHz Straubing (DE) 0.00 km FOUND
U3410925 RS41 2024-03-19 01:18:10 48.6391 12.7403 112 ° 13 km/h 1191 m -4.5 m/s 402.700 MHz Deggendorf (DE) 0.00 km FOUND
U3410924 RS41 2024-03-18 13:23:23 48.8723 13.1218 75 ° 6 km/h 1211 m -5.4 m/s 402.700 MHz Deggendorf (DE) 0.00 km UNKNOWN
U3270075 RS41 2024-03-18 01:00:19 48.8013 13.1649 116 ° 33 km/h 1921 m -12.6 m/s 402.700 MHz Deggendorf (DE) 0.00 km UNKNOWN
U3270076 RS41 2024-03-17 12:53:21 48.8832 13.0398 110 ° 35 km/h 1759 m -6.1 m/s 402.700 MHz Deggendorf (DE) 0.00 km NEED ATTENTION
U3270090 RS41 2024-03-17 01:14:27 48.5867 13.3688 110 ° 26 km/h 606 m -7.9 m/s 402.700 MHz Passau (DE) 0.00 km UNKNOWN
U3270088 RS41 2024-03-16 12:59:28 49.0855 13.2414 77 ° 35 km/h 1370 m -8.6 m/s 402.700 MHz Sušice (CZ) 0.00 km UNKNOWN
U3270719 RS41 2024-03-16 01:06:56 49.4575 13.2053 43 ° 17 km/h 675 m -7.3 m/s 402.700 MHz Klatovy (CZ) 0.00 km UNKNOWN
U3250109 RS41 2024-03-15 12:53:43 49.3827 12.996 28 ° 20 km/h 617 m -12.5 m/s 402.700 MHz Kdyně (CZ) 0.00 km UNKNOWN
U3250059 RS41 2024-03-15 01:15:33 49.1434 12.9992 36 ° 26 km/h 1130 m -5.3 m/s 402.700 MHz Kdyně (CZ) 0.00 km UNKNOWN
U3270045 RS41 2024-03-14 12:47:56 48.8029 12.7237 135 ° 4 km/h 899 m -10.9 m/s 402.700 MHz Straubing (DE) 0.00 km FOUND
U3410202 RS41 2024-03-14 00:43:44 48.7329 12.8568 124 ° 26 km/h 2259 m -14.5 m/s 402.700 MHz Deggendorf (DE) 0.00 km LOST
U3410046 RS41 2024-03-13 12:49:20 48.8138 12.9137 41 ° 19 km/h 1764 m -12.3 m/s 402.701 MHz Deggendorf (DE) 0.00 km UNKNOWN
U3410063 RS41 2024-03-13 00:57:09 49.3043 13.2492 90 ° 22 km/h 649 m -9.5 m/s 402.700 MHz Klatovy (CZ) 0.00 km UNKNOWN
U3410064 RS41 2024-03-12 13:00:37 49.4611 13.3251 91 ° 13 km/h 539 m -13.4 m/s 402.70 MHz Klatovy (CZ) 0.00 km UNKNOWN
U3270047 RS41 2024-03-12 01:09:08 49.5639 13.2279 123 ° 24 km/h 550 m -5.6 m/s 402.700 MHz Přeštice (CZ) 0.00 km UNKNOWN
U3410051 RS41 2024-03-11 12:54:53 50.1417 13.5799 43 ° 6 km/h 470 m -7.1 m/s 402.70 MHz Rakovník (CZ) 0.00 km UNKNOWN
U3410062 RS41 2024-03-11 01:08:18 50.3237 13.2087 82 ° 4 km/h 793 m -5.3 m/s 402.700 MHz Klášterec nad Ohří (CZ) 0.00 km UNKNOWN
U3410035 RS41 2024-03-10 12:50:26 50.0819 13.8448 277 ° 24 km/h 522 m -8.1 m/s 402.70 MHz Rakovník (CZ) 0.00 km UNKNOWN
U3340367 RS41 2024-03-10 00:52:45 49.8368 14.0773 251 ° 13 km/h 527 m -7.5 m/s 402.700 MHz Dobříš (CZ) 0.00 km UNKNOWN
U3340315 RS41 2024-03-09 12:54:47 49.9183 13.6263 285 ° 15 km/h 490 m -14.2 m/s 402.700 MHz Rokycany (CZ) 0.00 km UNKNOWN
U3340324 RS41 2024-03-09 01:11:19 49.9092 13.6909 291 ° 19 km/h 524 m -6.6 m/s 402.700 MHz Hořovice (CZ) 0.00 km UNKNOWN
U3340313 RS41 2024-03-08 13:03:17 49.6731 13.1475 298 ° 31 km/h 459 m -10.8 m/s 402.700 MHz Nýřany (CZ) 0.00 km FOUND
U3250058 RS41 2024-03-08 01:09:44 49.2198 12.6973 260 ° 26 km/h 782 m -4.1 m/s 402.700 MHz Domažlice (CZ) 0.00 km UNKNOWN
U3250055 RS41 2024-03-07 13:05:58 49.2736 13.2634 290 ° 9 km/h 749 m -8.2 m/s 402.700 MHz Klatovy (CZ) 0.00 km UNKNOWN
U3240818 RS41 2024-03-07 00:55:11 49.2163 12.7156 236 ° 35 km/h 748 m -3.3 m/s 402.700 MHz Domažlice (CZ) 0.00 km UNKNOWN
U3240822 RS41 2024-03-06 12:50:25 49.4501 12.7883 213 ° 20 km/h 689 m -12.6 m/s 402.700 MHz Domažlice (CZ) 0.00 km UNKNOWN
U3240759 RS41 2024-03-06 01:09:04 49.5459 13.0297 232 ° 13 km/h 586 m -3.4 m/s 402.700 MHz Holýšov (CZ) 0.00 km FOUND
U3240760 RS41 2024-03-05 13:27:34 49.5331 13.2831 80 ° 13 km/h 463 m -5.0 m/s 402.700 MHz Přeštice (CZ) 0.00 km UNKNOWN
U3250107 RS41 2024-03-05 01:06:43 49.3368 12.8845 53 ° 11 km/h 506 m -11.7 m/s 402.700 MHz Domažlice (CZ) 0.00 km UNKNOWN
U3240732 RS41 2024-03-04 12:58:33 49.4194 12.5545 68 ° 13 km/h 1047 m -13.3 m/s 402.70 MHz Domažlice (CZ) 0.00 km UNKNOWN
U3250114 RS41 2024-03-04 01:12:47 49.5747 12.3794 285 ° 20 km/h 842 m -8.2 m/s 402.700 MHz Weiden in der Oberpfalz (DE) 0.00 km NEED ATTENTION
U3250113 RS41 2024-03-03 13:22:11 49.7249 12.7155 312 ° 15 km/h 564 m -4.1 m/s 402.700 MHz Tachov (CZ) 0.00 km FOUND
U3250111 RS41 2024-03-03 01:29:20 49.5988 12.4303 271 ° 26 km/h 967 m -4.4 m/s 402.700 MHz Weiden in der Oberpfalz (DE) 0.00 km FOUND
U3250108 RS41 2024-03-02 13:16:14 49.6286 12.239 283 ° 9 km/h 596 m -7.5 m/s 402.700 MHz Weiden in der Oberpfalz (DE) 0.00 km FOUND
U1320499 RS41 2024-03-02 01:28:28 49.4285 12.0998 4 ° 4 km/h 502 m -4.0 m/s 402.700 MHz Schwandorf (DE) 0.00 km FOUND
U3270044 RS41 2024-03-01 13:11:49 49.384 12.1338 72 ° 6 km/h 411 m -6.3 m/s 402.700 MHz Schwandorf (DE) 0.00 km FOUND
U3270059 RS41 2024-03-01 01:09:13 49.2992 12.0466 265 ° 6 km/h 512 m -7.3 m/s 402.700 MHz Schwandorf (DE) 0.00 km FOUND
U3260967 RS41 2024-02-29 13:16:56 49.0034 12.2452 285 ° 15 km/h 796 m -7.2 m/s 402.700 MHz Regensburg (DE) 0.00 km FOUND
U3270611 RS41 2024-02-29 01:03:18 48.8132 12.5189 220 ° 2 km/h 1491 m -6.9 m/s 402.700 MHz Straubing (DE) 0.00 km FOUND
U3420153 RS41 2024-02-28 12:56:06 48.9935 12.8284 180 ° 4 km/h 1309 m -5.9 m/s 402.700 MHz Deggendorf (DE) 0.00 km LOST
U3260576 RS41 2024-02-28 01:26:14 49.1208 12.8712 147 ° 9 km/h 1273 m -3.6 m/s 402.700 MHz Deggendorf (DE) 0.00 km UNKNOWN
U3260574 RS41 2024-02-27 13:03:16 49.5139 13.3202 187 ° 11 km/h 435 m -5.8 m/s 402.70 MHz Přeštice (CZ) 0.00 km FOUND
U3420170 RS41 2024-02-27 00:33:30 49.8386 13.0222 222 ° 6 km/h 563 m -4.9 m/s 402.700 MHz Stříbro (CZ) 0.00 km FOUND
U3260572 RS41 2024-02-26 13:13:12 50.0837 14.4223 44 ° 4 km/h 305 m -4.9 m/s 402.700 MHz Prague (CZ) 0.00 km UNKNOWN
U3270607 RS41 2024-02-26 00:59:57 49.7394 14.347 273 ° 6 km/h 604 m -11.0 m/s 402.700 MHz Sedlčany (CZ) 0.00 km UNKNOWN
U3270060 RS41 2024-02-25 13:08:27 49.9531 14.6629 3 ° 6 km/h 472 m -6.4 m/s 402.700 MHz Říčany (CZ) 0.00 km FOUND
U3270609 RS41 2024-02-25 01:32:02 50.7129 14.3623 313 ° 9 km/h 584 m -3.6 m/s 402.700 MHz Česká Kamenice (CZ) 0.00 km UNKNOWN
U3250057 RS41 2024-02-24 12:50:04 50.8199 14.6116 44 ° 46 km/h 1691 m -12.3 m/s 402.700 MHz Nový Bor (CZ) 0.00 km UNKNOWN
U3270612 RS41 2024-02-24 00:55:46 51.0349 14.4856 106 ° 6 km/h 2178 m -13.1 m/s 402.700 MHz Šluknov (CZ) 0.00 km FOUND
U3250056 RS41 2024-02-23 13:09:11 51.0091 14.0303 32 ° 28 km/h 424 m -4.4 m/s 402.70 MHz Pirna (DE) 0.00 km FOUND
U3270608 RS41 2024-02-23 00:54:55 50.5986 14.2084 29 ° 39 km/h 622 m -4.7 m/s 402.700 MHz Litoměřice (CZ) 0.00 km UNKNOWN
U3270610 RS41 2024-02-22 13:18:00 49.3969 14.8897 36 ° 43 km/h 897 m -3.9 m/s 402.700 MHz Sezimovo Ústí (CZ) 0.00 km UNKNOWN
U3420171 RS41 2024-02-22 00:39:12 49.007 13.5083 57 ° 50 km/h 1464 m -7.3 m/s 402.700 MHz Vimperk (CZ) 0.00 km UNKNOWN
U3420154 RS41 2024-02-21 13:19:34 48.5841 13.8279 54 ° 13 km/h 866 m -4.3 m/s 402.700 MHz Sarleinsbach (AT) 0.00 km UNKNOWN
U3410964 RS41 2024-02-21 01:08:37 48.6057 13.1118 103 ° 39 km/h 680 m -3.2 m/s 402.700 MHz Passau (DE) 0.00 km LOST
U3270046 RS41 2024-02-20 13:15:30 48.2903 12.9579 99 ° 22 km/h 578 m -8.9 m/s 402.700 MHz Braunau am Inn (AT) 0.00 km FOUND
U3260876 RS41 2024-02-20 01:16:59 48.8951 13.5042 94 ° 28 km/h 1254 m -5.3 m/s 402.70 MHz Vimperk (CZ) 0.00 km UNKNOWN
U3410965 RS41 2024-02-19 13:05:07 48.6593 13.6896 103 ° 50 km/h 1045 m -5.1 m/s 402.700 MHz Esternberg (AT) 0.00 km UNKNOWN
U3270049 RS41 2024-02-19 00:45:13 49.2713 13.4047 78 ° 39 km/h 953 m -7.5 m/s 402.700 MHz Sušice (CZ) 0.00 km UNKNOWN
U3270017 RS41 2024-02-18 12:54:46 48.7202 12.9498 79 ° 24 km/h 2024 m -8.3 m/s 402.700 MHz Deggendorf (DE) 0.00 km FOUND
U3250106 RS41 2024-02-18 01:03:18 48.8705 13.3468 173 ° 15 km/h 1243 m -14.1 m/s 404.900 MHz Deggendorf (DE) 0.00 km FOUND
U3410065 RS41 2024-02-17 12:54:22 48.6978 12.9897 133 ° 31 km/h 664 m -12.0 m/s 402.700 MHz Deggendorf (DE) 0.00 km FOUND
U3340319 RS41 2024-02-17 01:09:16 49.2411 13.1706 54 ° 11 km/h 823 m -3.3 m/s 402.700 MHz Kdyně (CZ) 0.00 km UNKNOWN
U3340372 RS41 2024-02-16 13:29:54 49.2642 13.2896 164 ° 7 km/h 839 m -6.7 m/s 402.700 MHz Klatovy (CZ) 0.00 km UNKNOWN
U3340326 RS41 2024-02-16 01:09:13 49.0406 13.0676 348 ° 9 km/h 1214 m -10.5 m/s 402.700 MHz Deggendorf (DE) 0.00 km UNKNOWN
U3340336 RS41 2024-02-15 13:06:23 48.922 13.2888 57 ° 6 km/h 1232 m -5.9 m/s 402.700 MHz Deggendorf (DE) 0.00 km UNKNOWN
U3340353 RS41 2024-02-15 01:06:45 48.3925 13.3479 192 ° 2 km/h 399 m -5.5 m/s 402.700 MHz Schärding (AT) 0.00 km FOUND
U3340354 RS41 2024-02-14 12:49:39 48.9286 13.2628 104 ° 54 km/h 1365 m -12.0 m/s 402.700 MHz Deggendorf (DE) 0.00 km UNKNOWN
U3340370 RS41 2024-02-14 01:04:39 48.8488 13.5146 67 ° 26 km/h 1136 m -5.8 m/s 402.700 MHz Vimperk (CZ) 0.00 km UNKNOWN
U3340328 RS41 2024-02-13 13:26:46 48.5819 13.8319 86 ° 26 km/h 866 m -6.1 m/s 402.700 MHz Sarleinsbach (AT) 0.00 km UNKNOWN
U3340307 RS41 2024-02-13 01:09:17 49.0349 13.6323 106 ° 37 km/h 1560 m -5.2 m/s 402.700 MHz Vimperk (CZ) 0.00 km UNKNOWN
U3340308 RS41 2024-02-12 13:24:17 49.3321 13.8513 102 ° 37 km/h 1167 m -3.8 m/s 402.700 MHz Strakonice (CZ) 0.00 km FOUND
U3240728 RS41 2024-02-12 01:28:10 49.3332 14.0042 93 ° 52 km/h 977 m -12.5 m/s 402.700 MHz Písek (CZ) 0.00 km FOUND
U3340378 RS41 2024-02-11 13:10:00 49.4941 13.9226 91 ° 59 km/h 978 m -8.9 m/s 404.900 MHz Blatná (CZ) 0.00 km FOUND
U3340368 RS41 2024-02-11 00:52:27 49.8011 12.8796 238 ° 17 km/h 631 m -5.3 m/s 404.900 MHz Stříbro (CZ) 0.00 km FOUND
U3340320 RS41 2024-02-10 13:24:16 50.0788 15.4129 261 ° 20 km/h 366 m -4.3 m/s 402.700 MHz Chlumec nad Cidlinou (CZ) 0.00 km FOUND
U3340346 RS41 2024-02-10 00:55:50 49.7483 14.4185 233 ° 11 km/h 506 m -6.2 m/s 402.700 MHz Sedlčany (CZ) 0.00 km UNKNOWN
U3340310 RS41 2024-02-09 13:13:14 49.7151 16.4806 93 ° 65 km/h 3036 m -8.5 m/s 402.70 MHz Svitavy (CZ) 0.00 km FOUND
U3340351 RS41 2024-02-09 00:41:04 49.1776 14.8467 66 ° 26 km/h 705 m -6.2 m/s 402.700 MHz Veselí nad Lužnicí (CZ) 0.00 km UNKNOWN
U3340309 RS41 2024-02-08 13:12:07 48.9967 16.2523 344 ° 13 km/h 353 m -4.4 m/s 402.700 MHz Moravský Krumlov (CZ) 0.00 km UNKNOWN
U3240731 RS41 2024-02-08 00:56:52 48.9851 15.6043 236 ° 4 km/h 612 m -9.4 m/s 402.700 MHz Dačice (CZ) 0.00 km UNKNOWN
U3240730 RS41 2024-02-07 13:07:59 48.8261 15.8654 89 ° 48 km/h 537 m -6.5 m/s 402.700 MHz Retz (AT) 0.00 km FOUND
U3240757 RS41 2024-02-07 01:06:29 48.9065 15.9778 79 ° 48 km/h 650 m -15.1 m/s 402.700 MHz Znojmo (CZ) 0.00 km FOUND
U3240758 RS41 2024-02-06 13:09:25 48.9239 16.0847 129 ° 26 km/h 424 m -6.3 m/s 402.700 MHz Znojmo (CZ) 0.00 km UNKNOWN
U3240808 RS41 2024-02-06 00:49:36 48.7764 15.1058 94 ° 28 km/h 634 m -7.1 m/s 402.700 MHz Schrems (AT) 0.00 km FOUND
U3240821 RS41 2024-02-05 13:01:40 48.5811 15.5431 83 ° 41 km/h 693 m -10.0 m/s 402.700 MHz Gföhl (AT) 0.00 km FOUND
U3340330 RS41 2024-02-05 00:27:23 48.2282 14.1169 101 ° 19 km/h 372 m -3.6 m/s 402.700 MHz Marchtrenk (AT) 0.00 km FOUND
U3340371 RS41 2024-02-04 13:05:38 48.0686 14.9363 88 ° 37 km/h 404 m -3.2 m/s 402.700 MHz Euratsfeld (AT) 0.00 km LOST
U3340329 RS41 2024-02-04 01:05:40 48.3573 15.0175 88 ° 35 km/h 989 m -1.7 m/s 402.700 MHz Waldhausen im Strudengau (AT) 0.00 km UNKNOWN
U3340327 RS41 2024-02-03 13:10:18 48.3977 14.4384 90 ° 20 km/h 579 m -11.2 m/s 402.700 MHz Alberndorf in der Riedmark (AT) 0.00 km FOUND
U3230742 RS41 2024-02-03 01:22:40 47.8506 13.6803 86 ° 33 km/h 851 m -5.3 m/s 402.700 MHz Ebensee (AT) 0.00 km UNKNOWN
U3240819 RS41 2024-02-02 12:44:55 47.971 12.3369 94 ° 44 km/h 1202 m -8.3 m/s 402.700 MHz Traunreut (DE) 0.00 km UNKNOWN
U3230743 RS41 2024-02-02 01:09:03 47.71 12.7243 104 ° 30 km/h 1563 m -10.3 m/s 402.700 MHz Grossgmain (AT) 0.00 km UNKNOWN
U3240820 RS41 2024-02-01 12:55:32 48.592 12.9771 131 ° 54 km/h 1382 m -11.6 m/s 402.700 MHz Deggendorf (DE) 0.00 km FOUND
U3240851 RS41 2024-02-01 00:44:58 48.7139 12.6537 88 ° 72 km/h 1762 m -10.6 m/s 402.700 MHz Straubing (DE) 0.00 km FOUND
U3240809 RS41 2024-01-31 12:50:37 48.7926 12.8037 93 ° 48 km/h 2491 m -12.6 m/s 402.700 MHz Deggendorf (DE) 0.00 km FOUND
U3240810 RS41 2024-01-31 01:20:32 49.2412 13.2847 78 ° 28 km/h 947 m -4.2 m/s 402.70 MHz Sušice (CZ) 0.00 km UNKNOWN
U3240817 RS41 2024-01-30 12:54:03 49.1756 12.6545 58 ° 17 km/h 901 m -8.4 m/s 402.700 MHz Straubing (DE) 0.00 km UNKNOWN
U3340350 RS41 2024-01-30 00:59:58 48.9071 12.4971 286 ° 2 km/h 1262 m -9.3 m/s 402.700 MHz Straubing (DE) 0.00 km LOST
U3340486 RS41 2024-01-29 12:44:37 48.912 12.4131 70 ° 19 km/h 1900 m -8.1 m/s 402.700 MHz Straubing (DE) 0.00 km FOUND
U3340335 RS41 2024-01-29 00:58:00 48.5986 12.4051 318 ° 35 km/h 919 m -7.1 m/s 402.700 MHz Landshut (DE) 0.00 km UNKNOWN
U3340321 RS41 2024-01-28 13:02:00 48.4204 12.6138 302 ° 19 km/h 712 m -10.7 m/s 402.700 MHz Waldkraiburg (DE) 0.00 km FOUND
U3340338 RS41 2024-01-28 01:05:08 48.1007 12.7992 339 ° 19 km/h 611 m -8.2 m/s 402.700 MHz Ostermiething (AT) 0.00 km UNKNOWN
U3340485 RS41 2024-01-27 13:03:48 48.2788 13.0604 99 ° 6 km/h 393 m -1.6 m/s 402.700 MHz Braunau am Inn (AT) 0.00 km FOUND
U3340494 RS41 2024-01-27 01:08:22 48.2347 14.3291 83 ° 31 km/h 362 m -12.1 m/s 402.700 MHz Ansfelden (AT) 0.00 km FOUND
U3340355 RS41 2024-01-26 12:55:32 48.5043 14.3649 71 ° 35 km/h 843 m -5.0 m/s 402.700 MHz Hellmonsödt (AT) 0.00 km UNKNOWN
U3340493 RS41 2024-01-26 00:56:14 48.0141 14.1127 108 ° 20 km/h 550 m -6.5 m/s 402.700 MHz Wartberg an der Krems (AT) 0.00 km UNKNOWN
U3340293 RS41 2024-01-25 12:55:22 47.9752 14.1239 102 ° 31 km/h 551 m -4.6 m/s 402.700 MHz Wartberg an der Krems (AT) 0.00 km UNKNOWN
U3340356 RS41 2024-01-25 01:11:38 47.7032 15.5161 123 ° 57 km/h 1470 m -5.2 m/s 402.700 MHz Neuberg an der Mürz (AT) 0.00 km UNKNOWN
U3340365 RS41 2024-01-24 14:34:37 48.1562 15.7284 32 ° 4 km/h 427 m -2.2 m/s 404.90 MHz Pyhra (AT) 0.00 km FOUND
U3350550 RS41 2024-01-24 12:47:26 48.268 15.4375 115 ° 24 km/h 461 m -10.3 m/s 402.700 MHz Loosdorf (AT) 0.00 km FOUND
U3340364 RS41 2024-01-24 01:09:38 48.1535 14.4805 74 ° 15 km/h 333 m -3.1 m/s 402.700 MHz Kronstorf (AT) 0.00 km UNKNOWN
U3340361 RS41 2024-01-23 12:58:44 48.0588 14.5807 109 ° 35 km/h 486 m -8.7 m/s 402.701 MHz Weistrach (AT) 0.00 km UNKNOWN
U3340331 RS41 2024-01-23 00:50:28 49.5875 14.6214 82 ° 35 km/h 730 m -11.5 m/s 402.700 MHz Sedlčany (CZ) 0.00 km UNKNOWN
U3340282 RS41 2024-01-22 13:05:12 49.6672 14.9223 44 ° 54 km/h 854 m -9.2 m/s 402.700 MHz Vlašim (CZ) 0.00 km UNKNOWN
U3340504 RS41 2024-01-22 01:01:26 48.9583 13.8458 67 ° 61 km/h 1342 m -8.8 m/s 402.700 MHz Vimperk (CZ) 0.00 km UNKNOWN
U3340358 RS41 2024-01-21 13:11:13 49.624 14.4385 351 ° 17 km/h 584 m -5.2 m/s 402.700 MHz Sedlčany (CZ) 0.00 km UNKNOWN
U3340334 RS41 2024-01-21 00:52:18 49.1306 13.6567 84 ° 2 km/h 1134 m -8.1 m/s 402.700 MHz Vimperk (CZ) 0.00 km UNKNOWN
U3340333 RS41 2024-01-20 13:06:23 48.5322 13.8259 89 ° 17 km/h 948 m -9.8 m/s 402.70 MHz Sarleinsbach (AT) 0.00 km FOUND
U3340332 RS41 2024-01-20 01:05:38 48.4189 14.0329 100 ° 13 km/h 620 m -5.6 m/s 402.701 MHz Sankt Martin im Mühlkreis (AT) 0.00 km FOUND
U3340357 RS41 2024-01-19 12:42:06 49.1993 14.5842 124 ° 24 km/h 1163 m -9.1 m/s 402.700 MHz Veselí nad Lužnicí (CZ) 0.00 km UNKNOWN
U3340366 RS41 2024-01-19 00:53:14 49.645 15.4253 159 ° 31 km/h 970 m -12.8 m/s 402.700 MHz Světlá nad Sázavou (CZ) 0.00 km FOUND
U3340349 RS41 2024-01-18 12:54:22 49.5806 15.2776 36 ° 31 km/h 997 m -6.0 m/s 402.700 MHz Humpolec (CZ) 0.00 km FOUND
U3340339 RS41 2024-01-18 01:05:31 49.8877 15.6999 21 ° 61 km/h 607 m -5.0 m/s 402.700 MHz Chrudim (CZ) 0.00 km UNKNOWN
U3340337 RS41 2024-01-17 13:01:11 49.4695 15.9832 338 ° 31 km/h 858 m -4.6 m/s 402.700 MHz Žďár nad Sázavou (CZ) 0.00 km UNKNOWN
U3340294 RS41 2024-01-17 01:17:21 48.691 16.7611 336 ° 17 km/h 284 m -3.9 m/s 402.700 MHz Poysdorf (AT) 0.00 km FOUND
U3340496 RS41 2024-01-16 12:45:32 48.7261 15.4186 78 ° 28 km/h 694 m -7.4 m/s 402.700 MHz Groß-Siegharts (AT) 0.00 km FOUND
U3340503 RS41 2024-01-16 00:55:45 48.5994 15.614 101 ° 39 km/h 525 m -6.6 m/s 402.700 MHz Gars am Kamp (AT) 0.00 km LOST
U3340501 RS41 2024-01-15 13:13:48 49.2044 17.5049 77 ° 41 km/h 625 m -8.2 m/s 402.700 MHz Otrokovice (CZ) 0.00 km UNKNOWN
U3340502 RS41 2024-01-15 01:17:17 48.7778 16.4021 53 ° 24 km/h 338 m -4.0 m/s 402.700 MHz Laa an der Thaya (AT) 0.00 km UNKNOWN
U3340498 RS41 2024-01-14 12:33:55 48.4449 14.7212 97 ° 26 km/h 851 m -11.0 m/s 402.700 MHz Unterweissenbach (AT) 0.00 km UNKNOWN
U1310585 RS41 2024-01-14 00:40:19 48.393 14.7354 96 ° 17 km/h 746 m -9.3 m/s 402.700 MHz Unterweissenbach (AT) 0.00 km UNKNOWN
U1310551 RS41 2024-01-13 12:57:22 48.5678 14.746 46 ° 19 km/h 975 m -7.9 m/s 402.700 MHz Sankt Oswald bei Freistadt (AT) 0.00 km UNKNOWN
U1320174 RS41 2024-01-13 00:59:34 48.339 13.1561 74 ° 6 km/h 530 m -9.2 m/s 402.700 MHz Sankt Peter (AT) 0.00 km FOUND
U1320183 RS41 2024-01-12 13:15:20 47.9807 12.7483 123 ° 11 km/h 772 m -5.4 m/s 402.700 MHz Ostermiething (AT) 0.00 km UNKNOWN
U1330592 RS41 2024-01-12 01:20:13 47.7684 12.4465 297 ° 9 km/h 939 m -5.0 m/s 402.700 MHz Kössen (AT) 0.00 km FOUND
U1330490 RS41 2024-01-11 12:46:41 48.4238 12.065 220 ° 6 km/h 689 m -10.2 m/s 404.900 MHz Landshut (DE) 0.00 km UNKNOWN
U1330472 RS41 2024-01-11 00:46:14 48.865 12.5047 238 ° 7 km/h 1574 m -12.9 m/s 402.700 MHz Straubing (DE) 0.00 km UNKNOWN
U1330492 RS41 2024-01-10 13:04:41 49.1674 13.0519 311 ° 9 km/h 1103 m -11.0 m/s 402.700 MHz Kdyně (CZ) 0.00 km UNKNOWN
U1340637 RS41 2024-01-10 01:15:36 49.1706 12.5658 245 ° 37 km/h 750 m -6.1 m/s 402.700 MHz Straubing (DE) 0.00 km UNKNOWN
U1340638 RS41 2024-01-09 13:06:47 49.135 12.1756 243 ° 39 km/h 652 m -5.9 m/s 402.700 MHz Regensburg (DE) 0.00 km UNKNOWN
U1310714 RS41 2024-01-09 01:05:05 48.9398 12.6722 268 ° 41 km/h 1172 m -8.9 m/s 402.700 MHz Straubing (DE) 0.00 km FOUND
U1330483 RS41 2024-01-08 12:54:41 49.151 12.159 235 ° 13 km/h 606 m -9.3 m/s 402.700 MHz Regensburg (DE) 0.00 km FOUND
U3340623 RS41 2024-01-08 01:12:55 49.0652 12.7917 225 ° 20 km/h 1140 m -6.5 m/s 402.700 MHz Straubing (DE) 0.00 km UNKNOWN
U3340631 RS41 2024-01-07 13:19:37 49.2074 12.8774 230 ° 31 km/h 1065 m -5.1 m/s 402.700 MHz Kdyně (CZ) 0.00 km UNKNOWN
U1330486 RS41 2024-01-07 01:04:55 49.3798 12.8805 210 ° 33 km/h 718 m -5.5 m/s 402.700 MHz Domažlice (CZ) 0.00 km UNKNOWN
U3340549 RS41 2024-01-06 13:05:16 49.5822 13.6423 170 ° 13 km/h 684 m -11.2 m/s 402.700 MHz Starý Plzenec (CZ) 0.00 km UNKNOWN
U1330594 RS41 2024-01-06 01:10:50 49.6005 14.0315 157 ° 6 km/h 1126 m -7.5 m/s 402.700 MHz Příbram (CZ) 0.00 km UNKNOWN
U1330590 RS41 2024-01-05 13:26:01 49.3999 14.907 348 ° 15 km/h 796 m -7.9 m/s 402.700 MHz Sezimovo Ústí (CZ) 0.00 km UNKNOWN
U1320346 RS41 2024-01-05 01:02:49 48.9198 14.4796 92 ° 30 km/h 1074 m -11.7 m/s 402.700 MHz České Budějovice (CZ) 0.00 km UNKNOWN
U1320344 RS41 2024-01-04 13:14:10 48.7006 14.8985 89 ° 43 km/h 655 m -9.7 m/s 402.700 MHz Weitra (AT) 0.00 km FOUND
U1320184 RS41 2024-01-04 01:31:24 48.7442 15.0554 81 ° 31 km/h 642 m -4.7 m/s 402.700 MHz Schrems (AT) 0.00 km FOUND
U1320342 RS41 2024-01-03 13:11:41 48.6623 15.2273 76 ° 31 km/h 702 m -8.0 m/s 402.700 MHz Zwettl (AT) 0.00 km FOUND
U1320494 RS41 2024-01-03 01:29:21 48.6432 15.6902 59 ° 26 km/h 364 m -4.2 m/s 402.700 MHz Horn (AT) 0.00 km FOUND
U1330482 RS41 2024-01-02 13:02:22 47.8908 14.9746 54 ° 9 km/h 1079 m -4.9 m/s 402.700 MHz Ybbsitz (AT) 0.00 km UNKNOWN
U1320493 RS41 2023-12-31 00:43:28 49.4384 14.1897 39 ° 9 km/h 906 m -10.2 m/s 402.700 MHz Milevsko (CZ) 0.00 km UNKNOWN
U1330491 RS41 2023-12-30 13:15:48 49.2451 16.6502 95 ° 19 km/h 367 m -4.1 m/s 402.700 MHz Líšeň (CZ) 0.00 km FOUND
U3340551 RS41 2023-12-30 00:55:25 49.3517 15.7262 78 ° 43 km/h 838 m -7.2 m/s 402.700 MHz Jihlava (CZ) 0.00 km UNKNOWN
U3340547 RS41 2023-12-29 13:04:02 49.2384 16.2986 83 ° 22 km/h 597 m -11.7 m/s 402.700 MHz Velká Bíteš (CZ) 0.00 km UNKNOWN
U3340634 RS41 2023-12-29 01:05:28 49.3565 15.702 72 ° 39 km/h 851 m -4.0 m/s 402.700 MHz Jihlava (CZ) 0.00 km UNKNOWN
U3340622 RS41 2023-12-28 13:23:59 49.865 16.6317 70 ° 22 km/h 890 m -3.2 m/s 402.700 MHz Lanškroun (CZ) 0.00 km UNKNOWN
U3340620 RS41 2023-12-28 00:31:24 49.5897 14.597 67 ° 52 km/h 1180 m -13.3 m/s 402.700 MHz Sedlčany (CZ) 0.00 km UNKNOWN
U3340621 RS41 2023-12-27 13:24:11 48.9193 16.4861 265 ° 11 km/h 270 m -4.5 m/s 402.700 MHz Pohořelice (CZ) 0.00 km FOUND
U3340550 RS41 2023-12-24 00:38:13 47.7012 14.6399 90 ° 26 km/h 1019 m -6.5 m/s 402.700 MHz Landl (AT) 0.00 km UNKNOWN
U3340395 RS41 2023-12-23 14:24:56 47.5281 17.0777 21 ° 30 km/h 172 m -4.0 m/s 404.900 MHz Beled (HU) 0.00 km FOUND
U3340548 RS41 2023-12-23 13:10:32 46.9973 15.4882 321 ° 7 km/h 518 m -2.5 m/s 402.700 MHz Gössendorf (AT) 0.00 km FOUND
U3340507 RS41 2023-12-23 01:17:11 46.6818 16.6796 230 ° 19 km/h 270 m -7.5 m/s 402.700 MHz Lenti (HU) 0.00 km LOST
U3340527 RS41 2023-12-22 13:02:00 47.6843 16.8055 117 ° 46 km/h 164 m -8.7 m/s 402.700 MHz Illmitz (AT) 0.00 km UNKNOWN
U3340552 RS41 2023-12-22 00:40:31 48.048 15.1472 95 ° 48 km/h 558 m -4.3 m/s 402.700 MHz Scheibbs (AT) 0.00 km UNKNOWN
U3340393 RS41 2023-12-21 13:08:14 48.6948 16.4676 64 ° 56 km/h 420 m -10.3 m/s 402.700 MHz Laa an der Thaya (AT) 0.00 km NEED ATTENTION
U3340528 RS41 2023-12-21 00:45:18 48.7019 14.6337 54 ° 52 km/h 966 m -9.3 m/s 402.700 MHz Kaplice (CZ) 0.00 km UNKNOWN
U3340540 RS41 2023-12-20 13:00:17 49.276 16.0052 100 ° 39 km/h 724 m -8.9 m/s 402.700 MHz Velké Meziříčí (CZ) 0.00 km UNKNOWN
U3340616 RS41 2023-12-20 00:50:20 49.7555 14.8723 83 ° 39 km/h 668 m -9.5 m/s 402.700 MHz Vlašim (CZ) 0.00 km UNKNOWN
U3340614 RS41 2023-12-19 13:00:45 49.6084 15.1868 72 ° 50 km/h 998 m -11.4 m/s 402.700 MHz Humpolec (CZ) 0.00 km FOUND
U3340633 RS41 2023-12-19 01:06:56 49.1901 14.3302 88 ° 37 km/h 1099 m -6.4 m/s 402.700 MHz Týn nad Vltavou (CZ) 0.00 km FOUND
U3340630 RS41 2023-12-18 13:31:12 49.0048 14.4377 88 ° 35 km/h 950 m -4.6 m/s 402.700 MHz České Budějovice (CZ) 0.00 km UNKNOWN
U3340628 RS41 2023-12-18 01:08:59 48.9914 13.9676 116 ° 33 km/h 1272 m -6.6 m/s 402.700 MHz Prachatice (CZ) 0.00 km FOUND
U3340618 RS41 2023-12-17 12:55:19 48.8225 13.5665 112 ° 17 km/h 1000 m -10.2 m/s 402.700 MHz Vimperk (CZ) 0.00 km UNKNOWN
U3340506 RS41 2023-12-17 00:58:41 48.7309 13.3238 106 ° 33 km/h 1088 m -6.0 m/s 402.700 MHz Passau (DE) 0.00 km UNKNOWN
U3340619 RS41 2023-12-16 12:55:33 48.5399 12.7255 90 ° 22 km/h 1096 m -11.7 m/s 402.700 MHz Deggendorf (DE) 0.00 km FOUND
U3340632 RS41 2023-12-16 01:13:30 48.0604 12.6462 78 ° 13 km/h 637 m -8.0 m/s 402.700 MHz Traunreut (DE) 0.00 km FOUND
U3340627 RS41 2023-12-15 13:17:43 48.3258 13.5714 80 ° 19 km/h 506 m -4.0 m/s 402.700 MHz Andorf (AT) 0.00 km FOUND
U3340505 RS41 2023-12-15 01:19:13 48.5353 13.7253 129 ° 22 km/h 714 m -1.9 m/s 402.700 MHz Esternberg (AT) 0.00 km UNKNOWN
U3340629 RS41 2023-12-14 13:27:18 48.6608 14.3633 92 ° 22 km/h 710 m -5.2 m/s 402.701 MHz Kaplice (CZ) 0.00 km UNKNOWN
U3340613 RS41 2023-12-14 00:56:23 49.2923 13.5227 131 ° 19 km/h 817 m -3.8 m/s 402.700 MHz Sušice (CZ) 0.00 km UNKNOWN
U3340617 RS41 2023-12-13 13:04:36 49.4549 15.7389 115 ° 26 km/h 1706 m -10.2 m/s 402.700 MHz Polná (CZ) 0.00 km UNKNOWN
U3340625 RS41 2023-12-13 00:34:48 49.4882 14.6461 16 ° 22 km/h 764 m -5.3 m/s 402.700 MHz Tábor (CZ) 0.00 km UNKNOWN
U3340572 RS41 2023-12-12 13:16:52 48.946 16.7936 12 ° 9 km/h 395 m -6.9 m/s 402.700 MHz Hustopeče (CZ) 0.00 km FOUND
U3340608 RS41 2023-12-12 01:17:35 48.5777 16.5929 80 ° 22 km/h 294 m -5.0 m/s 402.700 MHz Mistelbach (AT) 0.00 km FOUND
U3340571 RS41 2023-12-11 13:08:47 49.124 17.258 24 ° 37 km/h 656 m -11.1 m/s 402.700 MHz Staré Město (CZ) 0.00 km FOUND
U3340636 RS41 2023-12-11 01:11:05 49.1216 16.9182 347 ° 37 km/h 353 m -8.9 m/s 402.700 MHz Slavkov u Brna (CZ) 0.00 km UNKNOWN
U3340609 RS41 2023-12-10 13:01:42 48.7108 15.6372 88 ° 54 km/h 644 m -8.7 m/s 402.700 MHz Horn (AT) 0.00 km FOUND
U3340626 RS41 2023-12-10 01:34:08 49.3841 15.5456 342 ° 35 km/h 824 m -3.4 m/s 402.700 MHz Jihlava (CZ) 0.00 km UNKNOWN
U3340607 RS41 2023-12-09 13:10:12 48.6446 15.198 339 ° 13 km/h 706 m -6.0 m/s 402.700 MHz Zwettl (AT) 0.00 km UNKNOWN
U1330591 RS41 2023-12-09 00:30:31 49.7657 13.4453 29 ° 4 km/h 433 m -11.0 m/s 402.700 MHz Plzeň (CZ) 0.00 km UNKNOWN
U1330489 RS41 2023-12-08 12:50:29 49.5946 14.3333 332 ° 17 km/h 834 m -10.5 m/s 402.700 MHz Sedlčany (CZ) 0.00 km UNKNOWN
U1330488 RS41 2023-12-08 01:13:09 48.6584 14.7264 323 ° 37 km/h 1020 m -2.2 m/s 402.700 MHz Weitra (AT) 0.00 km UNKNOWN
U1330485 RS41 2023-12-07 13:16:15 48.516 14.1269 109 ° 13 km/h 849 m -4.9 m/s 402.700 MHz Vorderweissenbach (AT) 0.00 km FOUND
U1320008 RS41 2023-12-07 01:18:21 49.0014 14.4148 135 ° 41 km/h 1145 m -6.5 m/s 402.700 MHz České Budějovice (CZ) 0.00 km UNKNOWN
U1330484 RS41 2023-12-06 13:19:21 49.3944 14.3638 100 ° 31 km/h 867 m -3.3 m/s 402.700 MHz Milevsko (CZ) 0.00 km UNKNOWN
U1320340 RS41 2023-12-06 01:13:27 49.6097 14.0945 35 ° 26 km/h 718 m -3.6 m/s 402.700 MHz Příbram (CZ) 0.00 km UNKNOWN
U1320192 RS41 2023-12-05 13:01:30 49.696 14.2256 3 ° 19 km/h 725 m -8.8 m/s 402.700 MHz Dobříš (CZ) 0.00 km UNKNOWN
U1330487 RS41 2023-12-05 01:24:58 49.6367 14.5534 319 ° 20 km/h 639 m -3.9 m/s 402.700 MHz Sedlčany (CZ) 0.00 km UNKNOWN
U1320182 RS41 2023-12-04 13:20:17 49.5149 14.8615 309 ° 30 km/h 841 m -5.7 m/s 402.700 MHz Tábor (CZ) 0.00 km FOUND
U1320345 RS41 2023-12-04 01:14:45 48.9327 14.7144 334 ° 9 km/h 713 m -6.6 m/s 402.700 MHz Třeboň (CZ) 0.00 km UNKNOWN
U1330589 RS41 2023-12-03 13:25:33 49.4114 14.8602 84 ° 35 km/h 997 m -4.7 m/s 402.70 MHz Sezimovo Ústí (CZ) 0.00 km FOUND
U1320496 RS41 2023-12-03 00:53:52 49.3432 13.9654 115 ° 43 km/h 1081 m -6.5 m/s 402.700 MHz Strakonice (CZ) 0.00 km FOUND
U1320185 RS41 2023-12-02 13:22:09 50.0795 14.635 136 ° 22 km/h 327 m -6.4 m/s 402.700 MHz Úvaly (CZ) 0.00 km FOUND
U1320009 RS41 2023-12-02 00:48:24 50.0388 14.3436 194 ° 17 km/h 443 m -11.1 m/s 402.700 MHz Břevnov (CZ) 0.00 km UNKNOWN
U3270585 RS41 2023-12-01 13:11:29 49.844 15.7892 250 ° 7 km/h 706 m -7.6 m/s 402.700 MHz Chrudim (CZ) 0.00 km FOUND
U1320186 RS41 2023-12-01 00:56:18 49.5457 15.4969 77 ° 9 km/h 1013 m -11.1 m/s 402.700 MHz Havlíčkŭv Brod (CZ) 0.00 km UNKNOWN
U3270621 RS41 2023-11-30 13:27:59 49.5066 15.8274 311 ° 30 km/h 813 m -8.4 m/s 402.700 MHz Polná (CZ) 0.00 km UNKNOWN
U3270590 RS41 2023-11-30 01:34:08 49.1076 15.8535 50 ° 2 km/h 529 m -3.7 m/s 402.700 MHz Moravské Budějovice (CZ) 0.00 km UNKNOWN
U3270622 RS41 2023-11-29 12:58:02 49.1093 14.397 87 ° 56 km/h 1400 m -9.2 m/s 402.700 MHz Hluboká nad Vltavou (CZ) 0.00 km FOUND
U3270584 RS41 2023-11-29 01:03:48 49.0228 14.179 98 ° 30 km/h 1407 m -8.3 m/s 402.700 MHz Prachatice (CZ) 0.00 km UNKNOWN
U3270583 RS41 2023-11-28 13:10:20 48.8228 13.9287 108 ° 33 km/h 1121 m -8.5 m/s 402.700 MHz Ulrichsberg (AT) 0.00 km UNKNOWN
U3270715 RS41 2023-11-28 00:59:11 49.0443 14.3871 82 ° 46 km/h 1143 m -7.4 m/s 402.700 MHz Hluboká nad Vltavou (CZ) 0.00 km UNKNOWN
U3260971 RS41 2023-11-27 13:43:01 48.3123 15.494 11 ° 6 km/h 522 m -4.0 m/s 402.700 MHz Paudorf (AT) 0.00 km UNKNOWN
U3270623 RS41 2023-11-27 01:14:55 48.0719 14.6805 108 ° 20 km/h 401 m -3.8 m/s 402.700 MHz Seitenstetten Markt (AT) 0.00 km UNKNOWN
U3270692 RS41 2023-11-26 01:11:12 48.2948 14.1956 96 ° 13 km/h 372 m -3.4 m/s 402.700 MHz Wilhering (AT) 0.00 km FOUND
U3260970 RS41 2023-11-25 13:02:17 48.4783 14.0401 112 ° 41 km/h 728 m -14.2 m/s 402.700 MHz Altenfelden (AT) 0.00 km FOUND
U3260968 RS41 2023-11-25 00:58:58 48.5956 14.4157 110 ° 35 km/h 803 m -2.4 m/s 402.700 MHz Rainbach im Mühlkreis (AT) 0.00 km UNKNOWN
U3270694 RS41 2023-11-24 13:08:31 48.534 15.073 88 ° 39 km/h 855 m -4.9 m/s 402.70 MHz Grossgerungs (AT) 0.00 km UNKNOWN
U3260969 RS41 2023-11-24 01:14:52 48.4815 15.2481 85 ° 50 km/h 884 m -5.9 m/s 402.700 MHz Zwettl (AT) 0.00 km UNKNOWN
U3270620 RS41 2023-11-23 13:10:22 48.37 13.6737 106 ° 26 km/h 565 m -9.3 m/s 402.700 MHz Raab (AT) 0.00 km UNKNOWN
U3270693 RS41 2023-11-23 01:09:13 48.0082 12.1211 80 ° 26 km/h 943 m -8.5 m/s 402.700 MHz Rosenheim (DE) 0.00 km UNKNOWN
U3270691 RS41 2023-11-22 13:20:08 47.9915 12.0539 193 ° 7 km/h 599 m -12.0 m/s 402.70 MHz Rosenheim (DE) 0.00 km FOUND
U3270742 RS41 2023-11-22 01:16:52 48.4813 13.1784 186 ° 19 km/h 721 m -3.8 m/s 402.700 MHz Schärding (AT) 0.00 km FOUND
D18080362 DFM09 2023-11-21 14:00:53 48.9455 11.9847 178 ° 22 km/h 1230 m -3.6 m/s 403.869 MHz Regensburg (DE) 0.00 km FOUND
U3270739 RS41 2023-11-21 12:42:54 48.8442 12.6038 132 ° 17 km/h 2463 m -6.1 m/s 402.70 MHz Straubing (DE) 0.00 km UNKNOWN
U3270085 RS41 2023-11-21 01:06:25 49.2644 14.8629 94 ° 37 km/h 817 m -7.6 m/s 402.700 MHz Soběslav (CZ) 0.00 km UNKNOWN
U3270186 RS41 2023-11-20 13:13:31 48.9239 15.617 85 ° 30 km/h 546 m -7.4 m/s 402.70 MHz Raabs an der Thaya (AT) 0.00 km UNKNOWN
U3270735 RS41 2023-11-20 01:27:24 48.4548 16.1689 46 ° 26 km/h 252 m -3.8 m/s 402.70 MHz Sierndorf (AT) 0.00 km UNKNOWN
U3270750 RS41 2023-11-19 12:54:00 48.6616 15.6608 121 ° 4 km/h 398 m -11.6 m/s 402.70 MHz Horn (AT) 0.00 km UNKNOWN
U3270078 RS41 2023-11-19 00:53:37 48.1761 14.5566 277 ° 13 km/h 389 m -8.2 m/s 402.70 MHz Sankt Valentin (AT) 0.00 km UNKNOWN
U3270718 RS41 2023-11-18 12:55:40 48.0829 14.1454 77 ° 15 km/h 488 m -11.1 m/s 402.70 MHz Kremsmünster (AT) 0.00 km UNKNOWN
U3260972 RS41 2023-11-18 01:30:12 47.6859 14.5317 129 ° 17 km/h 1284 m -6.4 m/s 402.700 MHz Admont (AT) 0.00 km UNKNOWN
U3270591 RS41 2023-11-17 13:00:25 48.8338 13.8543 119 ° 39 km/h 1384 m -9.6 m/s 402.70 MHz Ulrichsberg (AT) 0.00 km UNKNOWN
U3270592 RS41 2023-11-17 01:34:32 48.9464 14.7364 176 ° 11 km/h 695 m -5.3 m/s 402.70 MHz Třeboň (CZ) 0.00 km UNKNOWN
U1320198 RS41 2023-11-16 13:11:25 48.9921 15.147 47 ° 20 km/h 763 m -6.3 m/s 402.70 MHz Litschau (AT) 0.00 km UNKNOWN
U3270589 RS41 2023-11-16 01:37:38 48.3492 15.4128 87 ° 17 km/h 585 m -6.5 m/s 402.700 MHz Melk (AT) 0.00 km UNKNOWN
U3270749 RS41 2023-11-15 13:04:45 48.8472 14.5233 98 ° 54 km/h 849 m -6.8 m/s 402.70 MHz Trhové Sviny (CZ) 0.00 km UNKNOWN
U3270736 RS41 2023-11-15 01:19:57 48.8339 15.9471 85 ° 43 km/h 586 m -7.6 m/s 402.700 MHz Znojmo (CZ) 0.00 km UNKNOWN
U3270737 RS41 2023-11-14 13:18:50 48.9977 15.4699 79 ° 33 km/h 689 m -11.9 m/s 402.70 MHz Dačice (CZ) 0.00 km UNKNOWN
U1320181 RS41 2023-11-14 01:14:02 48.4642 16.1231 49 ° 43 km/h 362 m -9.5 m/s 402.700 MHz Göllersdorf (AT) 0.00 km FOUND
U1320188 RS41 2023-11-13 13:39:37 48.2937 16.158 68 ° 30 km/h 443 m -6.6 m/s 402.70 MHz Tulbing (AT) 0.00 km NEED ATTENTION
U1320011 RS41 2023-11-13 01:07:16 48.4298 15.0972 63 ° 7 km/h 967 m -7.6 m/s 404.900 MHz Pöggstall (AT) 0.00 km UNKNOWN
U1320010 RS41 2023-11-12 12:52:02 48.7485 14.4514 31 ° 9 km/h 900 m -9.7 m/s 402.700 MHz Kaplice (CZ) 0.00 km UNKNOWN
U1320191 RS41 2023-11-12 01:04:12 48.631 14.9036 87 ° 28 km/h 887 m -3.4 m/s 402.700 MHz Grossgerungs (AT) 0.00 km UNKNOWN
U1320190 RS41 2023-11-11 13:11:12 49.0353 15.0588 104 ° 30 km/h 718 m -5.2 m/s 402.700 MHz Litschau (AT) 0.00 km UNKNOWN
U1320175 RS41 2023-11-11 01:21:06 49.5587 15.1495 89 ° 26 km/h 776 m -7.4 m/s 402.700 MHz Pelhřimov (CZ) 0.00 km FOUND
U1320173 RS41 2023-11-10 13:10:32 49.8973 14.9763 56 ° 19 km/h 562 m -6.7 m/s 402.700 MHz Český Brod (CZ) 0.00 km UNKNOWN
U3270087 RS41 2023-11-10 01:20:15 50.1394 15.0565 349 ° 20 km/h 292 m -8.0 m/s 402.700 MHz Poděbrady (CZ) 0.00 km UNKNOWN
U3270077 RS41 2023-11-09 01:45:09 48.5708 15.3128 8 ° 15 km/h 671 m -5.7 m/s 402.700 MHz Zwettl (AT) 0.00 km FOUND
U3270073 RS41 2023-11-08 13:03:04 48.6921 14.4943 73 ° 31 km/h 921 m -12.4 m/s 402.700 MHz Kaplice (CZ) 0.00 km UNKNOWN
U3270594 RS41 2023-11-08 01:24:42 49.1657 14.7535 99 ° 50 km/h 1157 m -3.2 m/s 402.700 MHz Veselí nad Lužnicí (CZ) 0.00 km UNKNOWN
U3270089 RS41 2023-11-07 13:06:21 49.6538 14.6067 26 ° 22 km/h 670 m -12.6 m/s 402.700 MHz Sedlčany (CZ) 0.00 km FOUND
U1320017 RS41 2023-11-07 00:59:26 49.6042 14.7308 74 ° 54 km/h 810 m -11.2 m/s 402.700 MHz Vlašim (CZ) 0.00 km UNKNOWN
U1320171 RS41 2023-11-06 13:11:54 49.2656 15.0018 71 ° 33 km/h 1274 m -10.3 m/s 402.700 MHz Jindřichŭv Hradec (CZ) 0.00 km UNKNOWN
U1320199 RS41 2023-11-06 01:14:48 48.9824 15.324 96 ° 20 km/h 627 m -6.0 m/s 402.700 MHz Dačice (CZ) 0.00 km UNKNOWN
U1320197 RS41 2023-11-05 13:13:38 49.3377 15.3025 68 ° 57 km/h 783 m -8.9 m/s 402.700 MHz Pelhřimov (CZ) 0.00 km UNKNOWN
U3270167 RS41 2023-11-05 01:23:01 49.6303 15.6113 21 ° 57 km/h 860 m -8.7 m/s 402.700 MHz Havlíčkŭv Brod (CZ) 0.00 km UNKNOWN
U3270142 RS41 2023-11-04 13:12:00 48.7675 14.8197 318 ° 24 km/h 638 m -9.8 m/s 402.700 MHz Weitra (AT) 0.00 km FOUND
U1320202 RS41 2023-11-04 01:11:20 49.3463 13.5872 76 ° 22 km/h 684 m -3.6 m/s 402.700 MHz Horažďovice (CZ) 0.00 km UNKNOWN
U1320187 RS41 2023-11-03 13:14:40 50.0345 13.236 105 ° 17 km/h 719 m -7.2 m/s 402.700 MHz Podbořany (CZ) 0.00 km UNKNOWN
U3270165 RS41 2023-11-03 01:08:11 50.5318 13.8031 82 ° 37 km/h 1524 m -12.2 m/s 402.700 MHz Bílina (CZ) 0.00 km UNKNOWN
U3260416 RS41 2023-11-02 13:08:48 50.0654 13.9747 335 ° 43 km/h 1070 m -14.6 m/s 402.700 MHz Stochov (CZ) 0.00 km UNKNOWN
U1310505 RS41 2023-11-02 01:03:57 50.0138 13.6292 30 ° 15 km/h 569 m -12.2 m/s 402.70 MHz Rakovník (CZ) 0.00 km UNKNOWN
U1320134 RS41 2023-11-01 13:09:12 49.7529 13.8961 350 ° 17 km/h 795 m -10.9 m/s 402.700 MHz Hořovice (CZ) 0.00 km UNKNOWN
U1310510 RS41 2023-11-01 01:16:38 49.3836 14.2735 99 ° 46 km/h 1309 m -4.5 m/s 402.700 MHz Milevsko (CZ) 0.00 km UNKNOWN
U3270593 RS41 2023-10-31 12:58:49 50.1051 13.2741 67 ° 41 km/h 830 m -11.4 m/s 402.70 MHz Podbořany (CZ) 0.00 km UNKNOWN
U1220259 RS41 2023-10-31 00:41:48 50.4642 13.126 49 ° 24 km/h 1029 m -12.2 m/s 402.700 MHz Klášterec nad Ohří (CZ) 0.00 km UNKNOWN
U1230037 RS41 2023-10-30 12:53:53 50.0417 13.7349 310 ° 22 km/h 584 m -12.5 m/s 402.70 MHz Rakovník (CZ) 0.00 km UNKNOWN
U3270139 RS41 2023-10-30 00:48:04 49.9278 13.7642 57 ° 26 km/h 610 m -12.1 m/s 402.700 MHz Hořovice (CZ) 0.00 km UNKNOWN
T3010368 RS41 2023-10-29 13:15:34 49.9493 14.1624 54 ° 28 km/h 1135 m -5.3 m/s 402.700 MHz Beroun (CZ) 0.00 km FOUND
U1320133 RS41 2023-10-29 01:05:50 49.4994 13.8604 30 ° 35 km/h 880 m -6.6 m/s 402.700 MHz Blatná (CZ) 0.00 km UNKNOWN
U1320132 RS41 2023-10-28 12:58:11 49.5739 13.7279 76 ° 28 km/h 815 m -10.3 m/s 402.700 MHz Blatná (CZ) 0.00 km UNKNOWN
U1320193 RS41 2023-10-28 01:03:37 49.6596 13.5986 23 ° 9 km/h 528 m -12.5 m/s 402.700 MHz Rokycany (CZ) 0.00 km UNKNOWN
U1310509 RS41 2023-10-27 13:13:54 49.8708 13.8805 79 ° 52 km/h 826 m -7.0 m/s 404.900 MHz Hořovice (CZ) 0.00 km UNKNOWN
U1220264 RS41 2023-10-27 01:07:02 49.6562 14.2272 69 ° 13 km/h 1308 m -11.8 m/s 402.700 MHz Sedlčany (CZ) 0.00 km UNKNOWN
U1310525 RS41 2023-10-26 13:05:27 49.212 14.4801 75 ° 35 km/h 1346 m -8.2 m/s 402.701 MHz Týn nad Vltavou (CZ) 0.00 km FOUND
U1320200 RS41 2023-10-26 00:50:16 49.5096 14.207 71 ° 72 km/h 1241 m -2.4 m/s 402.700 MHz Milevsko (CZ) 0.00 km UNKNOWN
U1310517 RS41 2023-10-25 12:54:35 49.5462 13.8301 1 ° 9 km/h 950 m -14.6 m/s 402.700 MHz Blatná (CZ) 0.00 km FOUND
U1320203 RS41 2023-10-25 00:59:57 49.5517 14.0098 117 ° 41 km/h 1001 m -7.5 m/s 402.700 MHz Příbram (CZ) 0.00 km FOUND
U1320195 RS41 2023-10-24 13:07:37 50.1447 14.36 225 ° 4 km/h 448 m -6.5 m/s 402.70 MHz Roztoky (CZ) 0.00 km UNKNOWN
U1310520 RS41 2023-10-24 01:15:37 49.957 15.0314 346 ° 37 km/h 767 m -5.3 m/s 402.700 MHz Kolín (CZ) 0.00 km UNKNOWN
U1320189 RS41 2023-10-23 12:59:39 49.7883 14.615 282 ° 11 km/h 853 m -15.1 m/s 402.701 MHz Benešov (CZ) 0.00 km UNKNOWN
U1320196 RS41 2023-10-23 01:33:56 49.9192 15.1213 105 ° 17 km/h 1649 m -4.1 m/s 402.700 MHz Kutná Hora (CZ) 0.00 km UNKNOWN
U1310526 RS41 2023-10-22 13:13:03 49.9112 13.9757 67 ° 39 km/h 522 m -3.4 m/s 402.700 MHz Králŭv Dvŭr (CZ) 0.00 km UNKNOWN
U1310586 RS41 2023-10-22 01:21:20 50.3596 13.7801 136 ° 26 km/h 904 m -11.1 m/s 402.700 MHz Louny (CZ) 0.00 km UNKNOWN
U1320172 RS41 2023-10-21 13:08:33 50.448 13.8316 46 ° 31 km/h 1195 m -6.8 m/s 402.700 MHz Louny (CZ) 0.00 km UNKNOWN
U1320012 RS41 2023-10-21 01:29:33 50.729 14.1581 57 ° 56 km/h 1223 m -7.3 m/s 404.900 MHz Jílové (CZ) 0.00 km UNKNOWN
U1320176 RS41 2023-10-21 01:09:04 50.7087 13.8969 71 ° 54 km/h 1462 m -6.9 m/s 402.700 MHz Krupka (CZ) 0.00 km UNKNOWN
U1320169 RS41 2023-10-20 13:04:54 50.3371 14.4296 292 ° 35 km/h 606 m -7.8 m/s 402.700 MHz Mělník (CZ) 0.00 km FOUND
U1320131 RS41 2023-10-20 01:16:26 49.6976 14.8272 311 ° 19 km/h 842 m -11.4 m/s 402.700 MHz Vlašim (CZ) 0.00 km UNKNOWN
U1310516 RS41 2023-10-19 13:27:54 49.9951 14.5206 356 ° 6 km/h 619 m -7.2 m/s 402.701 MHz Jesenice (CZ) 0.00 km UNKNOWN
U1320170 RS41 2023-10-19 01:55:35 49.2698 15.0375 309 ° 30 km/h 773 m -4.6 m/s 402.700 MHz Jindřichŭv Hradec (CZ) 0.00 km UNKNOWN
U1310515 RS41 2023-10-18 12:57:22 49.374 13.971 275 ° 33 km/h 886 m -11.5 m/s 402.701 MHz Blatná (CZ) 0.00 km FOUND
U3270141 RS41 2023-10-18 01:33:04 48.7097 14.3984 279 ° 11 km/h 880 m -4.2 m/s 402.700 MHz Kaplice (CZ) 0.00 km UNKNOWN
U3270168 RS41 2023-10-17 12:57:35 49.113 14.3777 277 ° 20 km/h 1165 m -12.2 m/s 402.701 MHz Hluboká nad Vltavou (CZ) 0.00 km FOUND
U3410985 RS41 2023-10-17 00:53:25 49.3685 14.2793 328 ° 7 km/h 1711 m -8.0 m/s 402.700 MHz Milevsko (CZ) 0.00 km FOUND
U3270175 RS41 2023-10-16 13:01:44 49.2152 14.2452 119 ° 22 km/h 2543 m -6.0 m/s 402.700 MHz Vodňany (CZ) 0.00 km FOUND
U3270176 RS41 2023-10-16 01:20:40 48.7552 14.9518 104 ° 17 km/h 564 m -5.1 m/s 402.70 MHz Weitra (AT) 0.00 km FOUND
U3270177 RS41 2023-10-15 12:53:32 49.5578 14.7688 123 ° 39 km/h 1816 m -9.6 m/s 402.700 MHz Tábor (CZ) 0.00 km UNKNOWN
U3270140 RS41 2023-10-15 01:11:43 49.8836 15.5854 111 ° 50 km/h 1582 m -10.4 m/s 402.700 MHz Čáslav (CZ) 0.00 km UNKNOWN
U3270144 RS41 2023-10-14 13:29:14 50.1437 15.5208 96 ° 52 km/h 1345 m -4.6 m/s 402.700 MHz Chlumec nad Cidlinou (CZ) 0.00 km FOUND
U3420077 RS41 2023-10-14 01:23:05 50.1178 14.966 45 ° 30 km/h 315 m -5.2 m/s 402.700 MHz Český Brod (CZ) 0.00 km UNKNOWN
U3270179 RS41 2023-10-13 13:11:14 49.5079 14.0946 71 ° 30 km/h 1217 m -6.8 m/s 402.700 MHz Blatná (CZ) 0.00 km FOUND
U3420076 RS41 2023-10-13 01:00:34 48.9558 14.4965 106 ° 52 km/h 1264 m -7.0 m/s 402.700 MHz České Budějovice (CZ) 0.00 km UNKNOWN
U3420074 RS41 2023-10-12 13:11:42 49.3738 14.8944 90 ° 30 km/h 1087 m -8.3 m/s 402.700 MHz Sezimovo Ústí (CZ) 0.00 km UNKNOWN
U3270180 RS41 2023-10-12 00:54:14 49.433 13.8715 83 ° 56 km/h 1171 m -14.5 m/s 402.700 MHz Blatná (CZ) 0.00 km FOUND
U3420078 RS41 2023-10-11 12:58:12 49.3379 13.6233 78 ° 26 km/h 807 m -13.5 m/s 402.700 MHz Horažďovice (CZ) 0.00 km UNKNOWN
U1220405 RS41 2023-10-11 01:12:21 48.9341 13.19 74 ° 30 km/h 1306 m -4.5 m/s 402.700 MHz Deggendorf (DE) 0.00 km UNKNOWN
U3420068 RS41-SGP 2023-10-10 13:16:17 48.458 13.5008 146 ° 6 km/h 552 m -8.0 m/s 402.700 MHz Schärding (AT) 0.00 km UNKNOWN
U3420073 RS41 2023-10-10 01:03:44 48.4358 13.6784 35 ° 7 km/h 657 m -12.7 m/s 402.700 MHz Sankt Florian am Inn (AT) 0.00 km UNKNOWN
U3260379 RS41 2023-10-09 13:21:50 48.4491 14.3681 109 ° 28 km/h 780 m -11.1 m/s 402.700 MHz Hellmonsödt (AT) 0.00 km LOST
U3410995 RS41 2023-10-09 01:03:17 48.4712 14.0563 160 ° 4 km/h 690 m -13.6 m/s 402.700 MHz Herzogsdorf (AT) 0.00 km FOUND
U3260816 RS41 2023-10-08 13:08:26 48.4041 14.255 144 ° 7 km/h 913 m -10.1 m/s 402.700 MHz Hellmonsödt (AT) 0.00 km NEED ATTENTION
U3410996 RS41 2023-10-08 01:21:35 48.4768 14.4734 93 ° 46 km/h 752 m -7.8 m/s 402.700 MHz Freistadt (AT) 0.00 km UNKNOWN
U3410992 RS41 2023-10-07 13:12:45 48.8318 13.8962 84 ° 44 km/h 1148 m -7.0 m/s 402.700 MHz Ulrichsberg (AT) 0.00 km UNKNOWN
U3270173 RS41 2023-10-07 01:29:11 48.5823 14.0511 81 ° 19 km/h 836 m -3.6 m/s 402.700 MHz Haslach an der Mühl (AT) 0.00 km UNKNOWN
U3270706 RS41 2023-10-06 13:24:28 48.4774 13.8928 85 ° 11 km/h 656 m -5.4 m/s 402.700 MHz Altenfelden (AT) 0.00 km UNKNOWN
U3270172 RS41 2023-10-06 01:17:35 48.5596 14.2555 27 ° 4 km/h 1076 m -8.1 m/s 402.70 MHz Vorderweissenbach (AT) 0.00 km UNKNOWN
U3410994 RS41 2023-10-05 13:00:22 48.7061 14.1634 89 ° 30 km/h 1100 m -12.1 m/s 402.700 MHz Český Krumlov (CZ) 0.00 km UNKNOWN
U3270183 RS41 2023-10-05 01:36:49 48.6902 14.2464 46 ° 19 km/h 1024 m -3.6 m/s 402.700 MHz Český Krumlov (CZ) 0.00 km UNKNOWN
U3270164 RS41 2023-10-04 13:11:04 49.0125 14.117 141 ° 15 km/h 1096 m -11.5 m/s 402.700 MHz Prachatice (CZ) 0.00 km FOUND
U3410981 RS41 2023-10-04 01:09:26 49.3951 14.6271 117 ° 43 km/h 1137 m -12.4 m/s 402.700 MHz Tábor (CZ) 0.00 km UNKNOWN
U3270163 RS41 2023-10-03 13:16:23 49.474 14.0602 57 ° 35 km/h 1094 m -5.8 m/s 402.700 MHz Blatná (CZ) 0.00 km FOUND
U3270169 RS41 2023-10-03 01:24:00 48.9949 13.6524 20 ° 33 km/h 1308 m -5.2 m/s 402.700 MHz Vimperk (CZ) 0.00 km UNKNOWN
U3270170 RS41 2023-10-02 13:10:15 48.9613 13.3988 1 ° 11 km/h 1192 m -5.9 m/s 402.700 MHz Vimperk (CZ) 0.00 km UNKNOWN
U3270174 RS41 2023-10-02 01:02:09 48.7887 13.2093 31 ° 4 km/h 829 m -6.4 m/s 404.900 MHz Deggendorf (DE) 0.00 km UNKNOWN
U1220261 RS41 2023-10-01 13:07:13 48.6799 13.347 105 ° 15 km/h 956 m -11.0 m/s 402.700 MHz Passau (DE) 0.00 km UNKNOWN
U3410988 RS41 2023-10-01 01:16:15 48.6073 13.3151 111 ° 20 km/h 899 m -8.5 m/s 402.700 MHz Passau (DE) 0.00 km FOUND
U3410983 RS41 2023-09-30 12:59:50 48.6614 13.1987 87 ° 13 km/h 767 m -9.4 m/s 402.700 MHz Passau (DE) 0.00 km LOST
U3270166 RS41 2023-09-30 01:03:41 49.2173 13.3464 98 ° 24 km/h 1041 m -5.7 m/s 402.700 MHz Sušice (CZ) 0.00 km UNKNOWN
U3270182 RS41 2023-09-29 13:14:52 49.334 12.9047 45 ° 22 km/h 493 m -6.5 m/s 402.700 MHz Kdyně (CZ) 0.00 km UNKNOWN
U1210135 RS41 2023-09-29 01:07:46 49.1533 12.3745 24 ° 11 km/h 780 m -8.5 m/s 402.700 MHz Regensburg (DE) 0.00 km FOUND
U3260417 RS41 2023-09-28 13:17:44 49.4396 12.4656 97 ° 15 km/h 933 m -4.9 m/s 402.700 MHz Schwandorf (DE) 0.00 km UNKNOWN
T3010417 RS41 2023-09-28 01:10:19 49.3939 12.246 349 ° 2 km/h 573 m -6.9 m/s 402.70 MHz Schwandorf (DE) 0.00 km FOUND
T2950564 RS41 2023-09-27 13:16:36 49.523 12.2504 341 ° 11 km/h 757 m -8.5 m/s 402.700 MHz Weiden in der Oberpfalz (DE) 0.00 km FOUND
U1230021 RS41 2023-09-27 01:24:07 49.6104 12.426 268 ° 17 km/h 871 m -5.4 m/s 402.700 MHz Weiden in der Oberpfalz (DE) 0.00 km FOUND
U1220712 RS41 2023-09-26 13:08:57 49.566 12.3161 238 ° 11 km/h 725 m -7.1 m/s 402.701 MHz Weiden in der Oberpfalz (DE) 0.00 km LOST
T2951064 RS41 2023-09-26 01:00:57 49.4304 12.3432 216 ° 9 km/h 619 m -13.3 m/s 402.700 MHz Schwandorf (DE) 0.00 km UNKNOWN
T2950996 RS41 2023-09-25 13:10:38 49.3267 12.1148 288 ° 11 km/h 498 m -7.0 m/s 402.701 MHz Schwandorf (DE) 0.00 km FOUND
U1320051 RS41 2023-09-25 00:57:20 48.8392 11.7432 275 ° 28 km/h 1567 m -14.1 m/s 402.700 MHz Ingolstadt (DE) 0.00 km UNKNOWN
U1220592 RS41 2023-09-24 13:10:31 48.6811 12.0294 229 ° 9 km/h 713 m -4.9 m/s 402.700 MHz Landshut (DE) 0.00 km UNKNOWN
U1220593 RS41 2023-09-24 01:06:14 49.3845 12.7377 133 ° 26 km/h 933 m -12.3 m/s 402.700 MHz Domažlice (CZ) 0.00 km UNKNOWN
U1230040 RS41 2023-09-23 13:09:44 50.1836 12.8929 87 ° 22 km/h 1074 m -8.6 m/s 402.700 MHz Karlovy Vary (CZ) 0.00 km FOUND
U1230014 RS41 2023-09-23 01:39:04 50.765 13.471 66 ° 30 km/h 910 m -8.7 m/s 402.700 MHz Freiberg (DE) 0.00 km FOUND
U1220594 RS41 2023-09-22 13:07:17 50.4568 13.1446 18 ° 7 km/h 1031 m -13.3 m/s 402.700 MHz Klášterec nad Ohří (CZ) 0.00 km UNKNOWN
U1230051 RS41 2023-09-22 01:04:52 50.222 12.9477 77 ° 33 km/h 1525 m -10.2 m/s 402.700 MHz Karlovy Vary (CZ) 0.00 km UNKNOWN
U1220710 RS41 2023-09-21 12:58:14 49.8932 12.5466 304 ° 22 km/h 871 m -9.3 m/s 402.701 MHz Tachov (CZ) 0.00 km FOUND
U1220403 RS41 2023-09-21 01:00:50 49.7744 12.545 358 ° 19 km/h 789 m -14.8 m/s 402.700 MHz Tachov (CZ) 0.00 km UNKNOWN
U1230039 RS41 2023-09-20 13:05:36 49.6549 12.5159 19 ° 17 km/h 943 m -10.0 m/s 402.70 MHz Tachov (CZ) 0.00 km FOUND
U1230019 RS41-SGP 2023-09-20 01:13:42 49.406 12.9293 49 ° 26 km/h 596 m -8.0 m/s 402.700 MHz Domažlice (CZ) 0.00 km UNKNOWN
U1310423 RS41 2023-09-19 13:13:08 49.3156 13.0788 62 ° 26 km/h 744 m -4.0 m/s 402.700 MHz Kdyně (CZ) 0.00 km UNKNOWN
U1340666 RS41 2023-09-19 01:03:58 49.8422 13.084 77 ° 37 km/h 822 m -13.6 m/s 402.700 MHz Stříbro (CZ) 0.00 km LOST
U1310343 RS41 2023-09-18 13:06:47 49.8659 13.0107 97 ° 30 km/h 707 m -8.6 m/s 402.701 MHz Stříbro (CZ) 0.00 km FOUND
U1340659 RS41 2023-09-18 00:53:39 49.5121 13.0184 266 ° 9 km/h 568 m -11.3 m/s 402.700 MHz Domažlice (CZ) 0.00 km FOUND
U1340656 RS41 2023-09-17 12:57:05 49.4178 13.1896 331 ° 2 km/h 728 m -15.0 m/s 402.70 MHz Klatovy (CZ) 0.00 km FOUND
U1340658 RS41 2023-09-17 01:12:08 49.5627 12.7592 298 ° 2 km/h 879 m -7.1 m/s 402.700 MHz Domažlice (CZ) 0.00 km UNKNOWN
U1340667 RS41 2023-09-16 13:11:48 49.4353 12.7786 270 ° 4 km/h 890 m -7.7 m/s 402.700 MHz Domažlice (CZ) 0.00 km FOUND
U1340661 RS41 2023-09-16 01:05:58 49.5574 12.4363 269 ° 22 km/h 962 m -11.7 m/s 402.70 MHz Weiden in der Oberpfalz (DE) 0.00 km UNKNOWN
U1340669 RS41 2023-09-15 13:13:24 49.6595 12.2177 271 ° 13 km/h 714 m -8.1 m/s 402.700 MHz Weiden in der Oberpfalz (DE) 0.00 km NEED ATTENTION
T2951069 RS41 2023-09-15 01:16:34 49.4916 12.3502 335 ° 24 km/h 995 m -7.5 m/s 402.700 MHz Weiden in der Oberpfalz (DE) 0.00 km FOUND
U1340640 RS41 2023-09-14 13:13:51 49.3575 12.4207 223 ° 9 km/h 1163 m -5.7 m/s 402.701 MHz Schwandorf (DE) 0.00 km UNKNOWN
T2950994 RS41 2023-09-14 01:14:18 49.3963 12.7421 196 ° 15 km/h 1005 m -12.4 m/s 402.700 MHz Domažlice (CZ) 0.00 km UNKNOWN
T2950969 RS41 2023-09-13 13:15:17 49.7377 13.0608 67 ° 19 km/h 587 m -12.0 m/s 402.700 MHz Stříbro (CZ) 0.00 km FOUND
T2951053 RS41 2023-09-13 01:08:00 49.6798 12.869 49 ° 26 km/h 689 m -13.6 m/s 402.700 MHz Stříbro (CZ) 0.00 km LOST
T2951055 RS41 2023-09-12 13:08:44 49.6854 12.6849 84 ° 13 km/h 786 m -11.2 m/s 402.701 MHz Tachov (CZ) 0.00 km FOUND
U1330106 RS41 2023-09-12 01:12:13 49.5487 12.5703 43 ° 22 km/h 924 m -11.7 m/s 402.700 MHz Tachov (CZ) 0.00 km UNKNOWN
U1340672 RS41 2023-09-11 12:58:02 49.5392 12.5125 64 ° 20 km/h 956 m -11.8 m/s 402.700 MHz Tachov (CZ) 0.00 km FOUND
U1340668 RS41 2023-09-11 01:04:18 49.431 12.4398 26 ° 13 km/h 841 m -12.9 m/s 402.700 MHz Schwandorf (DE) 0.00 km LOST
U1320497 RS41 2023-09-10 12:54:05 49.4791 12.3479 104 ° 11 km/h 866 m -9.8 m/s 402.70 MHz Schwandorf (DE) 0.00 km FOUND
U1310709 RS41 2023-09-10 01:26:20 49.3521 12.2369 27 ° 2 km/h 509 m -10.6 m/s 404.900 MHz Schwandorf (DE) 0.00 km FOUND
U1320500 RS41 2023-09-09 13:10:32 49.3604 12.0459 9 ° 6 km/h 529 m -7.3 m/s 402.70 MHz Schwandorf (DE) 0.00 km FOUND
U1340663 RS41 2023-09-09 01:13:17 49.2446 12.031 292 ° 15 km/h 603 m -7.7 m/s 402.700 MHz Schwandorf (DE) 0.00 km FOUND
U1340662 RS41 2023-09-08 13:11:15 49.2713 11.7269 290 ° 15 km/h 1088 m -7.1 m/s 402.700 MHz Neumarkt in der Oberpfalz (DE) 0.00 km LOST
U1310702 RS41 2023-09-08 01:10:24 49.1417 11.654 312 ° 26 km/h 1184 m -7.5 m/s 402.70 MHz Neumarkt in der Oberpfalz (DE) 0.00 km FOUND
U1340664 RS41 2023-09-07 12:55:51 49.2475 11.702 245 ° 22 km/h 1013 m -17.5 m/s 402.700 MHz Neumarkt in der Oberpfalz (DE) 0.00 km NEED ATTENTION
U1320067 RS41 2023-09-07 01:19:59 49.1793 11.6395 289 ° 30 km/h 848 m -8.9 m/s 402.700 MHz Neumarkt in der Oberpfalz (DE) 0.00 km FOUND
U1320052 RS41 2023-09-06 13:27:36 49.1177 11.5357 271 ° 26 km/h 1505 m -7.9 m/s 402.700 MHz Neumarkt in der Oberpfalz (DE) 0.00 km FOUND
T2951054 RS41 2023-09-06 01:22:54 49.0083 11.5845 279 ° 31 km/h 1544 m -8.2 m/s 402.70 MHz Ingolstadt (DE) 0.00 km FOUND
T3010367 RS41 2023-09-05 13:23:02 49.1108 11.5725 302 ° 33 km/h 1403 m -13.7 m/s 402.700 MHz Neumarkt in der Oberpfalz (DE) 0.00 km FOUND
T3010418 RS41 2023-09-05 01:10:27 48.9805 11.2837 283 ° 48 km/h 1349 m -12.8 m/s 402.700 MHz Ingolstadt (DE) 0.00 km FOUND
T3010415 RS41 2023-09-04 13:21:43 48.7399 11.1366 280 ° 17 km/h 1108 m -5.5 m/s 402.700 MHz Neuburg an der Donau (DE) 0.00 km NEED ATTENTION
T2950563 RS41 2023-09-04 01:04:50 48.5982 11.4997 269 ° 11 km/h 1100 m -11.2 m/s 402.700 MHz Pfaffenhofen an der Ilm (DE) 0.00 km UNKNOWN
T3010371 RS41 2023-09-03 13:09:06 48.4637 11.5804 131 ° 17 km/h 1680 m -8.4 m/s 402.700 MHz Pfaffenhofen an der Ilm (DE) 0.00 km NEED ATTENTION
T3010370 RS41 2023-09-03 01:34:05 48.6973 12.4496 109 ° 6 km/h 664 m -5.2 m/s 402.700 MHz Straubing (DE) 0.00 km UNKNOWN
T3010369 RS41 2023-09-02 13:09:10 49.2979 12.8083 72 ° 9 km/h 746 m -9.1 m/s 402.700 MHz Domažlice (CZ) 0.00 km FOUND
T3010372 RS41 2023-09-02 01:23:31 49.3917 12.9897 49 ° 24 km/h 557 m -15.5 m/s 402.700 MHz Kdyně (CZ) 0.00 km UNKNOWN
T3010424 RS41 2023-09-01 13:08:15 49.4686 13.1782 48 ° 28 km/h 591 m -11.6 m/s 404.900 MHz Klatovy (CZ) 0.00 km FOUND
T2950562 RS41 2023-09-01 01:33:55 49.2312 13.572 80 ° 20 km/h 954 m -6.6 m/s 402.700 MHz Sušice (CZ) 0.00 km UNKNOWN
T2951074 RS41 2023-08-31 13:13:55 49.4835 13.2086 81 ° 19 km/h 565 m -10.5 m/s 402.700 MHz Klatovy (CZ) 0.00 km UNKNOWN
U1320083 RS41 2023-08-31 01:11:38 49.9092 12.5365 74 ° 31 km/h 932 m -14.9 m/s 402.700 MHz Mariánské Lázně (CZ) 0.00 km FOUND
U1320084 RS41 2023-08-30 13:21:58 49.917 12.2541 83 ° 13 km/h 622 m -3.7 m/s 402.701 MHz Cheb (CZ) 0.00 km FOUND
T3010416 RS41 2023-08-30 01:46:58 49.8511 11.9797 113 ° 9 km/h 724 m -5.2 m/s 402.700 MHz Weiden in der Oberpfalz (DE) 0.00 km FOUND
T3010420 RS41 2023-08-29 13:14:58 49.9646 11.6599 166 ° 22 km/h 753 m -7.4 m/s 402.700 MHz Bayreuth (DE) 0.00 km FOUND
T2950970 RS41 2023-08-29 01:02:36 50.0054 11.5129 155 ° 17 km/h 434 m -10.2 m/s 402.700 MHz Bayreuth (DE) 0.00 km FOUND
T3010421 RS41 2023-08-28 13:20:56 50.4473 12.1283 204 ° 17 km/h 942 m -8.5 m/s 402.701 MHz Plauen (DE) 0.00 km FOUND
T2951063 RS41 2023-08-28 01:11:06 50.0857 13.0373 101 ° 26 km/h 1414 m -10.1 m/s 402.700 MHz Horní Slavkov (CZ) 0.00 km UNKNOWN
T2951071 RS41 2023-08-27 13:11:45 50.3471 13.0654 40 ° 26 km/h 1859 m -8.0 m/s 402.70 MHz Klášterec nad Ohří (CZ) 0.00 km UNKNOWN
T2950589 RS41 2023-08-27 01:15:49 50.2468 13.1777 63 ° 26 km/h 1095 m -13.1 m/s 402.700 MHz Klášterec nad Ohří (CZ) 0.00 km UNKNOWN
T2950991 RS41 2023-08-26 12:51:09 50.2043 13.1582 73 ° 24 km/h 1221 m -16.7 m/s 402.700 MHz Podbořany (CZ) 0.00 km UNKNOWN
T3010419 RS41 2023-08-26 01:13:40 49.9896 12.9648 44 ° 35 km/h 1174 m -11.8 m/s 402.700 MHz Mariánské Lázně (CZ) 0.00 km UNKNOWN
T2950995 RS41 2023-08-25 13:16:13 49.8124 13.0394 54 ° 17 km/h 729 m -9.9 m/s 402.700 MHz Stříbro (CZ) 0.00 km FOUND
U1320049 RS41 2023-08-25 00:55:28 49.5234 12.82 45 ° 56 km/h 957 m -10.2 m/s 402.700 MHz Domažlice (CZ) 0.00 km FOUND
T2950591 RS41 2023-08-24 13:08:47 49.3076 12.9174 116 ° 2 km/h 503 m -11.4 m/s 402.701 MHz Kdyně (CZ) 0.00 km FOUND
T2951073 RS41 2023-08-24 01:28:16 49.0257 13.161 111 ° 22 km/h 1536 m -6.6 m/s 402.700 MHz Deggendorf (DE) 0.00 km UNKNOWN
T2950993 RS41 2023-08-23 13:02:10 49.293 12.9199 84 ° 20 km/h 529 m -5.6 m/s 402.701 MHz Kdyně (CZ) 0.00 km FOUND
U1320058 RS41 2023-08-23 01:14:30 49.2877 12.8861 201 ° 9 km/h 521 m -6.5 m/s 402.700 MHz Kdyně (CZ) 0.00 km FOUND
T3010409 RS41 2023-08-22 13:00:51 49.478 12.8451 88 ° 15 km/h 637 m -10.7 m/s 402.700 MHz Domažlice (CZ) 0.00 km UNKNOWN
T2950593 RS41 2023-08-22 01:04:44 49.3058 12.6023 269 ° 7 km/h 766 m -12.2 m/s 402.700 MHz Domažlice (CZ) 0.00 km UNKNOWN
T2950592 RS41 2023-08-21 12:54:17 49.3855 12.5621 36 ° 9 km/h 876 m -14.2 m/s 402.700 MHz Domažlice (CZ) 0.00 km LOST
T2950594 RS41 2023-08-21 01:11:55 49.172 12.373 357 ° 11 km/h 712 m -9.7 m/s 402.70 MHz Schwandorf (DE) 0.00 km FOUND
T2950590 RS41 2023-08-20 13:09:24 49.1675 12.3378 5 ° 11 km/h 808 m -7.4 m/s 402.700 MHz Schwandorf (DE) 0.00 km UNKNOWN
U1320081 RS41 2023-08-20 01:25:30 49.1371 12.231 348 ° 15 km/h 621 m -3.7 m/s 402.700 MHz Regensburg (DE) 0.00 km UNKNOWN
U1320073 RS41 2023-08-19 13:13:07 49.1959 11.9157 350 ° 9 km/h 800 m -7.3 m/s 402.700 MHz Schwandorf (DE) 0.00 km LOST
U1330464 RS41 2023-08-19 01:15:58 49.2157 11.6994 319 ° 11 km/h 1027 m -11.1 m/s 402.700 MHz Neumarkt in der Oberpfalz (DE) 0.00 km FOUND
U1330144 RS41 2023-08-18 13:07:06 49.5616 11.8602 3 ° 9 km/h 893 m -9.2 m/s 402.700 MHz Sulzbach-Rosenberg (DE) 0.00 km FOUND
U1320090 RS41 2023-08-18 01:19:11 49.685 11.7075 312 ° 11 km/h 847 m -6.4 m/s 402.700 MHz Sulzbach-Rosenberg (DE) 0.00 km UNKNOWN
U1320059 RS41 2023-08-17 13:14:07 49.7615 11.8928 32 ° 7 km/h 643 m -12.5 m/s 402.700 MHz Weiden in der Oberpfalz (DE) 0.00 km FOUND
U1320102 RS41 2023-08-17 01:14:20 49.6779 11.924 292 ° 24 km/h 679 m -7.1 m/s 402.700 MHz Weiden in der Oberpfalz (DE) 0.00 km UNKNOWN
U1320085 RS41 2023-08-16 12:55:44 49.6587 12.0284 246 ° 4 km/h 821 m -8.9 m/s 402.700 MHz Weiden in der Oberpfalz (DE) 0.00 km FOUND
U1320114 RS41 2023-08-16 01:08:17 49.8086 12.0959 88 ° 7 km/h 650 m -6.2 m/s 402.700 MHz Weiden in der Oberpfalz (DE) 0.00 km FOUND
U1310654 RS41 2023-08-15 13:10:16 49.9477 11.9849 59 ° 28 km/h 984 m -9.5 m/s 402.700 MHz Bayreuth (DE) 0.00 km FOUND
U1330287 RS41 2023-08-15 01:34:15 49.9812 12.2577 245 ° 7 km/h 629 m -9.8 m/s 402.700 MHz Cheb (CZ) 0.00 km LOST
U1320075 RS41 2023-08-14 12:50:12 49.8332 12.3037 356 ° 7 km/h 659 m -10.9 m/s 402.700 MHz Weiden in der Oberpfalz (DE) 0.00 km FOUND
U1320089 RS41 2023-08-14 01:13:54 49.7161 12.6594 8 ° 7 km/h 739 m -8.9 m/s 402.70 MHz Tachov (CZ) 0.00 km FOUND
U1320076 RS41 2023-08-13 13:11:30 49.7027 12.6715 70 ° 11 km/h 780 m -9.7 m/s 402.700 MHz Tachov (CZ) 0.00 km FOUND
U1320082 RS41 2023-08-13 01:21:28 49.5755 12.5082 80 ° 30 km/h 937 m -5.8 m/s 402.700 MHz Tachov (CZ) 0.00 km FOUND
U1320077 RS41 2023-08-12 13:18:17 49.8218 12.3882 28 ° 20 km/h 880 m -5.3 m/s 402.701 MHz Tachov (CZ) 0.00 km FOUND
U1330253 RS41 2023-08-12 01:21:09 49.2621 12.1284 291 ° 4 km/h 437 m -5.9 m/s 402.700 MHz Schwandorf (DE) 0.00 km FOUND
U1320086 RS41 2023-08-11 13:16:00 49.0788 12.1181 326 ° 13 km/h 718 m -5.5 m/s 402.700 MHz Regensburg (DE) 0.00 km FOUND
U1320087 RS41 2023-08-11 01:17:33 48.959 12.0771 19 ° 11 km/h 938 m -6.1 m/s 402.700 MHz Regensburg (DE) 0.00 km FOUND
U1310687 RS41 2023-08-10 13:05:39 48.9674 12.1532 65 ° 6 km/h 755 m -8.1 m/s 402.70 MHz Regensburg (DE) 0.00 km UNKNOWN
U1320078 RS41 2023-08-10 01:03:33 48.5037 12.1259 147 ° 13 km/h 807 m -13.7 m/s 402.700 MHz Landshut (DE) 0.00 km NEED ATTENTION
U1320080 RS41 2023-08-09 12:57:53 48.8098 12.465 91 ° 37 km/h 1023 m -12.8 m/s 402.700 MHz Straubing (DE) 0.00 km UNKNOWN
U1320122 RS41 2023-08-09 01:21:04 49.1581 12.8428 94 ° 41 km/h 1376 m -10.7 m/s 402.700 MHz Kdyně (CZ) 0.00 km UNKNOWN
U1320079 RS41 2023-08-08 13:19:05 49.1745 12.8675 71 ° 37 km/h 1443 m -6.5 m/s 402.701 MHz Kdyně (CZ) 0.00 km UNKNOWN
U1330283 RS41 2023-08-08 01:23:06 49.0498 12.5423 97 ° 50 km/h 1078 m -9.3 m/s 402.700 MHz Straubing (DE) 0.00 km UNKNOWN
U1330258 RS41 2023-08-07 13:04:35 49.4447 11.9997 91 ° 26 km/h 604 m -4.9 m/s 402.70 MHz Amberg (DE) 0.00 km FOUND
U1330285 RS41 2023-08-07 02:23:48 49.379 11.9893 99 ° 31 km/h 522 m -2.7 m/s 402.700 MHz Schwandorf (DE) 0.00 km FOUND
U1330284 RS41 2023-08-06 12:55:10 49.7969 11.6943 60 ° 28 km/h 701 m -11.9 m/s 402.700 MHz Bayreuth (DE) 0.00 km FOUND
U1330348 RS41 2023-08-06 01:18:57 50.0245 11.5767 47 ° 11 km/h 968 m -7.0 m/s 402.700 MHz Bayreuth (DE) 0.00 km FOUND
U1330300 RS41 2023-08-05 13:07:21 50.1375 11.7829 208 ° 7 km/h 1491 m -9.5 m/s 402.700 MHz Hof (DE) 0.00 km FOUND
U1330257 RS41 2023-08-05 01:06:52 50.1547 11.995 219 ° 13 km/h 1439 m -10.7 m/s 402.700 MHz Aš (CZ) 0.00 km FOUND
U1330254 RS41 2023-08-04 12:52:52 50.4197 12.5993 134 ° 13 km/h 1080 m -14.0 m/s 402.700 MHz Kraslice (CZ) 0.00 km FOUND
U1330256 RS41 2023-08-04 01:11:48 50.4755 13.0865 84 ° 41 km/h 1128 m -9.8 m/s 402.700 MHz Klášterec nad Ohří (CZ) 0.00 km UNKNOWN
U1330163 RS41 2023-08-03 12:51:30 50.1414 13.2048 64 ° 54 km/h 1175 m -16.3 m/s 402.701 MHz Podbořany (CZ) 0.00 km UNKNOWN
U1330166 RS41 2023-08-03 01:18:07 50.2862 14.0044 79 ° 67 km/h 872 m -7.2 m/s 404.900 MHz Slaný (CZ) 0.00 km UNKNOWN
U1330151 RS41 2023-08-02 13:00:14 49.4852 13.2594 328 ° 13 km/h 502 m -6.4 m/s 402.70 MHz Klatovy (CZ) 0.00 km UNKNOWN
U1330165 RS41 2023-08-02 01:00:58 48.9325 12.9924 100 ° 48 km/h 1415 m -12.5 m/s 402.700 MHz Deggendorf (DE) 0.00 km UNKNOWN
U1330164 RS41 2023-08-01 13:15:35 49.8209 12.958 72 ° 44 km/h 658 m -13.4 m/s 402.701 MHz Stříbro (CZ) 0.00 km FOUND
U1330162 RS41 2023-08-01 01:26:17 49.4887 13.1009 52 ° 26 km/h 666 m -6.1 m/s 402.700 MHz Holýšov (CZ) 0.00 km FOUND
U1330158 RS41 2023-07-31 13:12:06 49.1165 12.9645 26 ° 24 km/h 1244 m -6.7 m/s 402.700 MHz Deggendorf (DE) 0.00 km UNKNOWN
U1330160 RS41 2023-07-31 01:35:58 49.266 12.7075 47 ° 17 km/h 612 m -5.8 m/s 402.700 MHz Domažlice (CZ) 0.00 km UNKNOWN
U1330157 RS41 2023-07-30 13:08:00 49.5628 12.6059 79 ° 24 km/h 798 m -11.6 m/s 402.700 MHz Tachov (CZ) 0.00 km FOUND
U1330161 RS41 2023-07-30 01:24:15 49.6862 12.9916 34 ° 26 km/h 575 m -5.8 m/s 402.700 MHz Stříbro (CZ) 0.00 km FOUND
U1310686 RS41 2023-07-29 13:13:35 49.729 13.132 48 ° 30 km/h 467 m -10.5 m/s 402.70 MHz Nýřany (CZ) 0.00 km FOUND
U1330152 RS41 2023-07-29 01:14:19 49.3906 12.4116 93 ° 26 km/h 847 m -13.9 m/s 402.700 MHz Schwandorf (DE) 0.00 km UNKNOWN
U1310683 RS41 2023-07-28 13:04:25 49.4906 13.0142 79 ° 30 km/h 609 m -10.4 m/s 402.700 MHz Domažlice (CZ) 0.00 km FOUND
U1330154 RS41 2023-07-28 01:28:05 49.4673 13.1261 56 ° 39 km/h 650 m -9.2 m/s 402.700 MHz Kdyně (CZ) 0.00 km UNKNOWN
U1310567 RS41 2023-07-27 13:06:06 49.0073 12.993 13 ° 30 km/h 1136 m -13.9 m/s 402.701 MHz Deggendorf (DE) 0.00 km UNKNOWN
U1330140 RS41 2023-07-27 03:13:44 48.5503 13.0886 98 ° 24 km/h 911 m -4.5 m/s 404.901 MHz Passau (DE) 0.00 km FOUND
U1310699 RS41 2023-07-27 01:56:20 48.0841 14.3366 104 ° 13 km/h 452 m -1.8 m/s 402.700 MHz Sierning (AT) 0.00 km UNKNOWN
U1310689 RS41 2023-07-26 13:02:24 49.4891 12.4123 108 ° 20 km/h 782 m -11.7 m/s 402.701 MHz Weiden in der Oberpfalz (DE) 0.00 km FOUND
U1330156 RS41 2023-07-26 01:25:43 49.7273 12.4617 136 ° 11 km/h 789 m -10.5 m/s 402.700 MHz Tachov (CZ) 0.00 km UNKNOWN
U1330143 RS41 2023-07-25 13:21:57 50.0421 12.6813 11 ° 19 km/h 975 m -5.6 m/s 402.701 MHz Mariánské Lázně (CZ) 0.00 km UNKNOWN
U1330277 RS41 2023-07-25 00:55:44 49.9286 13.0333 73 ° 70 km/h 5397 m -14.0 m/s 402.701 MHz Stříbro (CZ) 0.00 km UNKNOWN
U1310569 RS41 2023-07-24 13:13:08 49.9846 13.1317 54 ° 41 km/h 759 m -12.3 m/s 402.700 MHz Třemošná (CZ) 0.00 km UNKNOWN
U1310682 RS41 2023-07-24 01:15:37 49.6062 13.2339 8 ° 2 km/h 471 m -10.7 m/s 402.700 MHz Dobřany (CZ) 0.00 km UNKNOWN
U1310566 RS41 2023-07-23 12:53:34 49.5708 12.9351 68 ° 31 km/h 654 m -13.6 m/s 402.700 MHz Holýšov (CZ) 0.00 km FOUND
U1320074 RS41 2023-07-23 01:02:48 49.3872 12.7877 47 ° 17 km/h 988 m -15.2 m/s 402.700 MHz Domažlice (CZ) 0.00 km UNKNOWN
U1330351 RS41 2023-07-22 13:25:49 49.6956 12.86 98 ° 30 km/h 1092 m -10.0 m/s 402.700 MHz Stříbro (CZ) 0.00 km FOUND
U1330141 RS41 2023-07-22 01:35:28 49.7412 13.5043 59 ° 22 km/h 516 m -5.2 m/s 402.700 MHz Starý Plzenec (CZ) 0.00 km UNKNOWN
U1310700 RS41 2023-07-21 13:04:43 49.9068 13.047 83 ° 22 km/h 631 m -11.0 m/s 402.700 MHz Stříbro (CZ) 0.00 km UNKNOWN
U1330352 RS41 2023-07-21 01:21:33 49.7013 13.2504 256 ° 4 km/h 415 m -6.0 m/s 402.700 MHz Nýřany (CZ) 0.00 km UNKNOWN
U1330353 RS41 2023-07-20 13:09:26 49.3976 13.2347 81 ° 28 km/h 907 m -7.7 m/s 402.700 MHz Klatovy (CZ) 0.00 km UNKNOWN
U1310697 RS41 2023-07-20 01:14:19 49.5811 13.4129 141 ° 30 km/h 1651 m -17.0 m/s 402.700 MHz Přeštice (CZ) 0.00 km UNKNOWN
U1240403 RS41 2023-07-19 13:22:09 49.5443 13.7531 80 ° 26 km/h 814 m -5.1 m/s 402.70 MHz Blatná (CZ) 0.00 km UNKNOWN
U1330153 RS41 2023-07-19 01:07:59 49.4274 13.4228 46 ° 11 km/h 575 m -16.1 m/s 402.700 MHz Klatovy (CZ) 0.00 km UNKNOWN
U1330155 RS41 2023-07-18 13:17:08 49.5116 13.8391 73 ° 17 km/h 922 m -9.7 m/s 402.701 MHz Blatná (CZ) 0.00 km FOUND
U1330142 RS41 2023-07-18 01:00:43 49.3986 13.6003 133 ° 26 km/h 853 m -7.4 m/s 402.700 MHz Horažďovice (CZ) 0.00 km UNKNOWN
U1310680 RS41 2023-07-17 13:04:16 49.918 13.4539 70 ° 33 km/h 530 m -12.5 m/s 402.700 MHz Třemošná (CZ) 0.00 km UNKNOWN
U1310570 RS41 2023-07-17 01:32:38 50.2059 13.5002 104 ° 13 km/h 734 m -4.4 m/s 402.700 MHz Podbořany (CZ) 0.00 km UNKNOWN
U1310568 RS41 2023-07-16 12:57:27 50.071 12.9917 54 ° 26 km/h 888 m -5.1 m/s 402.700 MHz Horní Slavkov (CZ) 0.00 km UNKNOWN
U1310565 RS41 2023-07-16 01:32:00 50.031 13.0469 110 ° 56 km/h 963 m -3.7 m/s 402.700 MHz Horní Slavkov (CZ) 0.00 km UNKNOWN
U1310690 RS41 2023-07-15 12:53:40 49.7402 12.4955 13 ° 20 km/h 866 m -9.3 m/s 402.70 MHz Tachov (CZ) 0.00 km FOUND
T2950327 RS41 2023-07-15 01:24:37 49.4996 13.1363 56 ° 6 km/h 633 m -9.5 m/s 402.70 MHz Holýšov (CZ) 0.00 km FOUND
T2940645 RS41 2023-07-14 13:26:21 49.5507 12.8902 305 ° 13 km/h 723 m -4.5 m/s 402.700 MHz Domažlice (CZ) 0.00 km LOST
T3010705 RS41 2023-07-14 01:12:14 49.3661 12.8402 114 ° 17 km/h 693 m -11.9 m/s 402.700 MHz Domažlice (CZ) 0.00 km FOUND
T3010699 RS41 2023-07-13 13:31:13 49.8954 12.9573 109 ° 26 km/h 716 m -7.3 m/s 402.700 MHz Planá (CZ) 0.00 km FOUND
T2950728 RS41 2023-07-13 01:27:36 50.0775 13.0096 79 ° 30 km/h 1038 m -6.6 m/s 402.700 MHz Horní Slavkov (CZ) 0.00 km UNKNOWN
T3010498 RS41 2023-07-12 13:14:39 49.8764 12.9722 109 ° 30 km/h 744 m -11.1 m/s 402.70 MHz Stříbro (CZ) 0.00 km FOUND
T3010692 RS41 2023-07-12 01:34:41 49.7778 12.2724 38 ° 28 km/h 644 m -3.8 m/s 402.700 MHz Weiden in der Oberpfalz (DE) 0.00 km NEED ATTENTION
T3010689 RS41 2023-07-11 13:10:37 49.4282 12.7403 23 ° 11 km/h 878 m -9.0 m/s 402.701 MHz Domažlice (CZ) 0.00 km FOUND
T3010708 RS41 2023-07-11 01:20:36 49.081 12.7997 104 ° 9 km/h 1189 m -9.4 m/s 402.700 MHz Straubing (DE) 0.00 km UNKNOWN
T2951059 RS41 2023-07-10 18:50:21 49.0792 13.1964 134 ° 26 km/h 1375 m -7.5 m/s 402.700 MHz Sušice (CZ) 0.00 km UNKNOWN
T3010698 RS41 2023-07-10 13:06:42 49.3921 12.8143 108 ° 13 km/h 766 m -8.0 m/s 402.701 MHz Domažlice (CZ) 0.00 km UNKNOWN
T2950767 RS41 2023-07-10 06:30:33 49.379 12.8071 176 ° 6 km/h 881 m -9.7 m/s 402.701 MHz Domažlice (CZ) 0.00 km FOUND
T3030589 RS41 2023-07-10 01:23:24 49.2755 12.2717 337 ° 7 km/h 520 m -8.4 m/s 402.700 MHz Schwandorf (DE) 0.00 km FOUND
T3030593 RS41 2023-07-09 13:21:56 49.2523 12.3852 232 ° 2 km/h 663 m -6.7 m/s 404.900 MHz Schwandorf (DE) 0.00 km FOUND
T3010695 RS41 2023-07-09 01:06:39 49.1566 12.3519 139 ° 6 km/h 922 m -11.0 m/s 402.700 MHz Regensburg (DE) 0.00 km FOUND
T3010685 RS41 2023-07-08 13:21:53 49.4008 12.464 264 ° 7 km/h 764 m -5.3 m/s 402.700 MHz Schwandorf (DE) 0.00 km FOUND
T3030123 RS41 2023-07-08 01:27:52 49.5967 11.9612 309 ° 13 km/h 562 m -7.3 m/s 402.700 MHz Weiden in der Oberpfalz (DE) 0.00 km FOUND
T3030461 RS41 2023-07-07 13:15:27 49.4659 12.0063 287 ° 9 km/h 702 m -4.7 m/s 402.700 MHz Amberg (DE) 0.00 km FOUND
T3010688 RS41 2023-07-07 01:21:58 49.4875 11.9192 270 ° 20 km/h 740 m -13.6 m/s 402.700 MHz Amberg (DE) 0.00 km FOUND
T3010693 RS41 2023-07-06 13:08:46 49.7732 12.4303 129 ° 7 km/h 830 m -13.2 m/s 402.701 MHz Tachov (CZ) 0.00 km UNKNOWN
T3010691 RS41 2023-07-06 01:15:30 49.9711 12.6331 71 ° 15 km/h 743 m -14.0 m/s 402.700 MHz Mariánské Lázně (CZ) 0.00 km FOUND
T3010696 RS41 2023-07-05 18:40:19 50.096 13.5288 79 ° 31 km/h 1501 m -4.9 m/s 402.701 MHz Rakovník (CZ) 0.00 km UNKNOWN
T3010701 RS41 2023-07-05 13:43:00 50.1941 12.8505 89 ° 24 km/h 856 m -8.9 m/s 402.700 MHz Karlovy Vary (CZ) 0.00 km FOUND
T2950740 RS41 2023-07-05 06:59:19 50.0137 12.8839 71 ° 26 km/h 817 m -7.2 m/s 402.700 MHz Mariánské Lázně (CZ) 0.00 km FOUND
T2920579 RS41 2023-07-05 01:27:27 50.0063 12.7619 332 ° 24 km/h 872 m -4.9 m/s 402.701 MHz Mariánské Lázně (CZ) 0.00 km FOUND
T2940644 RS41 2023-07-04 13:10:47 49.8225 12.9914 76 ° 31 km/h 703 m -10.1 m/s 402.701 MHz Stříbro (CZ) 0.00 km FOUND
T2950739 RS41 2023-07-04 01:28:35 49.7913 12.948 70 ° 17 km/h 590 m -8.4 m/s 402.700 MHz Stříbro (CZ) 0.00 km FOUND
T3010694 RS41 2023-07-03 13:15:46 49.8171 13.0227 68 ° 39 km/h 815 m -11.9 m/s 402.701 MHz Stříbro (CZ) 0.00 km FOUND
T3030587 RS41 2023-07-03 01:15:46 49.627 13.0511 56 ° 19 km/h 588 m -11.4 m/s 402.700 MHz Holýšov (CZ) 0.00 km FOUND
T3030600 RS41 2023-07-02 13:04:25 49.2634 12.8477 82 ° 28 km/h 663 m -11.6 m/s 402.700 MHz Kdyně (CZ) 0.00 km UNKNOWN
T3010748 RS41 2023-07-02 01:14:04 49.0406 12.405 90 ° 41 km/h 956 m -13.8 m/s 402.700 MHz Straubing (DE) 0.00 km LOST
T3010755 RS41 2023-07-01 13:01:27 49.5271 12.2266 77 ° 28 km/h 633 m -11.5 m/s 402.700 MHz Weiden in der Oberpfalz (DE) 0.00 km FOUND
T3010702 RS41 2023-07-01 01:18:23 49.4074 12.2267 95 ° 4 km/h 510 m -8.9 m/s 402.700 MHz Schwandorf (DE) 0.00 km FOUND
T3010707 RS41 2023-06-30 13:18:30 49.6925 12.4462 43 ° 31 km/h 1036 m -10.9 m/s 402.700 MHz Tachov (CZ) 0.00 km UNKNOWN
T2950720 RS41 2023-06-30 01:32:50 49.6598 12.4969 64 ° 13 km/h 853 m -7.4 m/s 402.70 MHz Tachov (CZ) 0.00 km UNKNOWN
T2951061 RS41 2023-06-29 13:06:37 49.296 12.2382 342 ° 9 km/h 526 m -8.1 m/s 402.701 MHz Schwandorf (DE) 0.00 km FOUND
T3010178 RS41 2023-06-29 01:34:32 48.7195 12.1806 26 ° 7 km/h 700 m -6.4 m/s 402.700 MHz Landshut (DE) 0.00 km UNKNOWN
T2950670 RS41 2023-06-28 13:11:35 48.6466 12.147 94 ° 11 km/h 816 m -7.9 m/s 402.700 MHz Landshut (DE) 0.00 km UNKNOWN
T3010686 RS41 2023-06-28 01:53:06 48.6592 12.888 278 ° 7 km/h 623 m -4.4 m/s 402.700 MHz Deggendorf (DE) 0.00 km UNKNOWN
T2951048 RS41 2023-06-27 13:29:10 48.8237 13.3435 129 ° 22 km/h 1015 m -4.8 m/s 402.701 MHz Deggendorf (DE) 0.00 km UNKNOWN
T3030091 RS41 2023-06-27 01:11:08 49.3412 12.878 149 ° 35 km/h 684 m -13.8 m/s 402.70 MHz Domažlice (CZ) 0.00 km UNKNOWN
T3010697 RS41 2023-06-26 19:10:09 49.2979 13.0973 120 ° 50 km/h 792 m -5.1 m/s 404.901 MHz Kdyně (CZ) 0.00 km UNKNOWN
T2950325 RS41 2023-06-26 13:25:40 49.2734 12.5275 42 ° 17 km/h 738 m -5.3 m/s 402.70 MHz Schwandorf (DE) 0.00 km FOUND
T2950634 RS41 2023-06-26 01:08:30 49.2291 11.913 339 ° 13 km/h 728 m -15.9 m/s 402.700 MHz Schwandorf (DE) 0.00 km LOST
T2950246 RS41 2023-06-25 13:23:44 49.1916 11.7516 257 ° 19 km/h 1040 m -11.8 m/s 402.700 MHz Neumarkt in der Oberpfalz (DE) 0.00 km FOUND
T2950250 RS41 2023-06-25 01:15:20 49.0245 11.7015 248 ° 11 km/h 1208 m -8.9 m/s 402.700 MHz Regensburg (DE) 0.00 km UNKNOWN
T2950727 RS41 2023-06-24 13:15:10 48.9348 11.805 134 ° 11 km/h 1388 m -2.5 m/s 402.700 MHz Regensburg (DE) 0.00 km UNKNOWN
T3030080 RS41 2023-06-24 01:29:29 48.8143 11.6531 186 ° 37 km/h 1205 m -5.7 m/s 402.700 MHz Ingolstadt (DE) 0.00 km UNKNOWN
T3030076 RS41 2023-06-23 13:07:05 49.5779 12.0291 105 ° 50 km/h 822 m -5.8 m/s 402.700 MHz Weiden in der Oberpfalz (DE) 0.00 km FOUND
T3030453 RS41 2023-06-23 01:23:00 49.819 12.174 35 ° 17 km/h 599 m -6.3 m/s 402.700 MHz Weiden in der Oberpfalz (DE) 0.00 km UNKNOWN
T3030048 RS41 2023-06-22 18:33:44 49.7049 12.5765 289 ° 30 km/h 827 m -10.1 m/s 402.70 MHz Tachov (CZ) 0.00 km UNKNOWN
T3030585 RS41 2023-06-22 13:01:38 49.6698 12.3576 279 ° 13 km/h 785 m -8.8 m/s 402.701 MHz Weiden in der Oberpfalz (DE) 0.00 km UNKNOWN
T3030591 RS41 2023-06-22 06:51:03 49.6033 12.6435 285 ° 41 km/h 904 m -12.5 m/s 402.701 MHz Tachov (CZ) 0.00 km UNKNOWN
T3030594 RS41 2023-06-22 00:58:49 49.5265 12.5041 262 ° 28 km/h 938 m -11.5 m/s 402.700 MHz Weiden in der Oberpfalz (DE) 0.00 km FOUND
T3030454 RS41 2023-06-21 13:13:55 49.6807 12.3673 61 ° 17 km/h 745 m -5.5 m/s 402.700 MHz Weiden in der Oberpfalz (DE) 0.00 km UNKNOWN
T3030075 RS41 2023-06-21 01:31:06 49.5321 12.5122 67 ° 37 km/h 1004 m -7.7 m/s 402.70 MHz Tachov (CZ) 0.00 km UNKNOWN
T3030047 RS41 2023-06-20 12:59:13 49.5532 12.4541 45 ° 19 km/h 1009 m -6.9 m/s 402.700 MHz Weiden in der Oberpfalz (DE) 0.00 km FOUND
T3030583 RS41 2023-06-20 01:14:18 49.4861 12.1406 294 ° 9 km/h 662 m -9.5 m/s 402.700 MHz Schwandorf (DE) 0.00 km LOST
T3030088 RS41 2023-06-19 13:02:26 49.3849 12.2841 34 ° 7 km/h 791 m -11.7 m/s 402.701 MHz Schwandorf (DE) 0.00 km FOUND
T3030096 RS41 2023-06-19 01:28:38 49.3215 12.3614 328 ° 20 km/h 637 m -6.1 m/s 402.700 MHz Schwandorf (DE) 0.00 km FOUND
T3030095 RS41 2023-06-18 13:10:10 49.1619 12.3515 132 ° 13 km/h 844 m -8.8 m/s 402.700 MHz Regensburg (DE) 0.00 km NEED ATTENTION
T3030412 RS41 2023-06-18 01:10:05 48.9214 12.4619 124 ° 13 km/h 1123 m -12.7 m/s 402.700 MHz Straubing (DE) 0.00 km NEED ATTENTION
T3030073 RS41 2023-06-17 13:06:41 49.0152 12.2708 111 ° 19 km/h 995 m -15.4 m/s 402.700 MHz Regensburg (DE) 0.00 km FOUND
T3030459 RS41 2023-06-17 01:18:04 49.0743 12.1025 109 ° 30 km/h 1313 m -14.1 m/s 402.700 MHz Regensburg (DE) 0.00 km FOUND
T3030458 RS41 2023-06-16 13:16:39 49.1406 11.8877 167 ° 39 km/h 922 m -7.9 m/s 402.700 MHz Regensburg (DE) 0.00 km FOUND
T3030596 RS41 2023-06-16 01:27:26 49.2392 11.9258 169 ° 7 km/h 750 m -7.4 m/s 402.700 MHz Schwandorf (DE) 0.00 km LOST
T3030394 RS41 2023-06-15 13:25:29 49.2583 11.892 120 ° 9 km/h 744 m -7.1 m/s 402.700 MHz Schwandorf (DE) 0.00 km LOST
T3030598 RS41 2023-06-15 01:14:58 49.2217 11.7925 257 ° 15 km/h 1159 m -9.3 m/s 402.700 MHz Neumarkt in der Oberpfalz (DE) 0.00 km LOST
T3030085 RS41 2023-06-14 13:14:12 49.2043 11.7929 258 ° 13 km/h 910 m -7.0 m/s 402.700 MHz Neumarkt in der Oberpfalz (DE) 0.00 km FOUND
T3030584 RS41 2023-06-14 01:14:18 49.0032 11.9382 324 ° 19 km/h 1151 m -13.1 m/s 402.700 MHz Regensburg (DE) 0.00 km FOUND
T3030131 RS41 2023-06-13 12:59:24 49.0274 11.801 258 ° 22 km/h 1185 m -9.2 m/s 402.700 MHz Regensburg (DE) 0.00 km FOUND
T3030117 RS41 2023-06-13 01:13:32 48.9582 11.6928 283 ° 39 km/h 1562 m -7.3 m/s 402.700 MHz Ingolstadt (DE) 0.00 km UNKNOWN
T3030093 RS41 2023-06-12 12:59:53 48.9701 11.9469 204 ° 17 km/h 952 m -11.4 m/s 402.70 MHz Regensburg (DE) 0.00 km FOUND
T3030110 RS41 2023-06-12 01:03:41 49.0384 11.6533 290 ° 30 km/h 1700 m -12.7 m/s 402.700 MHz Neumarkt in der Oberpfalz (DE) 0.00 km FOUND
T3030109 RS41 2023-06-11 13:10:53 49.0678 11.4446 262 ° 20 km/h 1469 m -8.1 m/s 402.700 MHz Neumarkt in der Oberpfalz (DE) 0.00 km FOUND
T3030125 RS41 2023-06-11 01:08:54 49.0855 11.6146 288 ° 48 km/h 1420 m -13.5 m/s 402.700 MHz Neumarkt in der Oberpfalz (DE) 0.00 km UNKNOWN
T3030074 RS41 2023-06-10 13:09:16 49.2138 11.5768 255 ° 17 km/h 1121 m -6.7 m/s 402.700 MHz Neumarkt in der Oberpfalz (DE) 0.00 km FOUND
T3010797 RS41 2023-06-10 01:14:51 49.1784 11.6484 260 ° 41 km/h 1574 m -9.6 m/s 402.700 MHz Neumarkt in der Oberpfalz (DE) 0.00 km FOUND
T3030092 RS41 2023-06-09 13:03:46 49.2737 11.8773 103 ° 4 km/h 725 m -5.4 m/s 402.700 MHz Schwandorf (DE) 0.00 km LOST
T3030122 RS41 2023-06-09 01:23:27 49.3156 11.7438 266 ° 19 km/h 923 m -9.3 m/s 402.700 MHz Amberg (DE) 0.00 km LOST
T3030078 RS41 2023-06-08 13:12:05 49.5562 11.7054 279 ° 28 km/h 958 m -10.5 m/s 402.700 MHz Sulzbach-Rosenberg (DE) 0.00 km FOUND
T3020582 RS41 2023-06-08 01:21:00 49.4752 11.7935 294 ° 26 km/h 772 m -7.0 m/s 402.700 MHz Sulzbach-Rosenberg (DE) 0.00 km FOUND
T3010774 RS41 2023-06-07 13:16:08 49.552 11.7259 274 ° 6 km/h 989 m -6.2 m/s 402.701 MHz Sulzbach-Rosenberg (DE) 0.00 km FOUND
T3010833 RS41 2023-06-07 01:20:48 49.5196 11.7694 322 ° 6 km/h 1114 m -8.5 m/s 402.700 MHz Sulzbach-Rosenberg (DE) 0.00 km FOUND
T3020078 RS41 2023-06-06 13:06:42 49.6264 11.8287 173 ° 9 km/h 809 m -6.7 m/s 404.901 MHz Sulzbach-Rosenberg (DE) 0.00 km FOUND
T3010796 RS41 2023-06-06 11:58:27 49.6122 11.759 197 ° 7 km/h 1011 m -9.3 m/s 402.700 MHz Sulzbach-Rosenberg (DE) 0.00 km FOUND
T3010793 RS41 2023-06-06 01:25:46 49.5104 11.7395 231 ° 26 km/h 851 m -9.9 m/s 402.700 MHz Sulzbach-Rosenberg (DE) 0.00 km FOUND
T3020077 RS41 2023-06-05 12:49:22 49.7009 11.9332 288 ° 20 km/h 767 m -11.0 m/s 402.700 MHz Weiden in der Oberpfalz (DE) 0.00 km LOST
T3010773 RS41 2023-06-05 01:20:59 49.6098 11.8952 260 ° 28 km/h 777 m -5.8 m/s 402.700 MHz Sulzbach-Rosenberg (DE) 0.00 km FOUND
T3010798 RS41 2023-06-04 12:48:59 49.5621 12.1893 224 ° 15 km/h 598 m -5.5 m/s 402.70 MHz Weiden in der Oberpfalz (DE) 0.00 km FOUND
T3010770 RS41 2023-06-04 00:53:38 49.4657 12.2958 275 ° 20 km/h 878 m -9.5 m/s 402.700 MHz Schwandorf (DE) 0.00 km FOUND
T3020907 RS41 2023-06-03 13:13:52 49.475 12.1306 223 ° 20 km/h 596 m -2.2 m/s 402.700 MHz Schwandorf (DE) 0.00 km FOUND
T3020545 RS41 2023-06-03 01:21:24 49.2545 11.9117 247 ° 30 km/h 691 m -5.3 m/s 402.700 MHz Schwandorf (DE) 0.00 km LOST
T3020535 RS41 2023-06-02 13:05:49 49.3096 11.9112 172 ° 13 km/h 617 m -5.9 m/s 402.700 MHz Schwandorf (DE) 0.00 km FOUND
T3020912 RS41 2023-06-02 00:58:19 49.2981 11.7861 253 ° 15 km/h 918 m -12.4 m/s 402.700 MHz Amberg (DE) 0.00 km LOST
T3020375 RS41 2023-06-01 13:06:14 49.3153 11.5984 230 ° 15 km/h 1046 m -13.4 m/s 402.701 MHz Neumarkt in der Oberpfalz (DE) 0.00 km FOUND
T3010832 RS41 2023-06-01 01:15:12 49.2644 11.146 268 ° 15 km/h 522 m -8.1 m/s 402.700 MHz Roth bei Nürnberg (DE) 0.00 km FOUND
T3020339 RS41 2023-05-31 13:30:16 49.3476 10.6855 239 ° 26 km/h 506 m -6.7 m/s 402.700 MHz Ansbach (DE) 0.00 km FOUND
T3010771 RS41 2023-05-31 01:32:24 49.1081 10.6706 251 ° 35 km/h 627 m -7.8 m/s 402.700 MHz Ansbach (DE) 0.00 km FOUND
T3010834 RS41 2023-05-30 12:51:17 49.0709 11.0808 230 ° 22 km/h 1477 m -12.6 m/s 402.70 MHz Roth bei Nürnberg (DE) 0.00 km FOUND
T3010769 RS41 2023-05-30 01:33:46 49.0096 11.3282 257 ° 46 km/h 1019 m -6.8 m/s 402.700 MHz Ingolstadt (DE) 0.00 km FOUND
T3010772 RS41 2023-05-29 13:16:15 49.2336 11.3335 253 ° 19 km/h 667 m -6.3 m/s 402.700 MHz Neumarkt in der Oberpfalz (DE) 0.00 km FOUND
T3020544 RS41 2023-05-29 01:01:37 49.3564 11.5913 269 ° 35 km/h 1077 m -12.9 m/s 402.700 MHz Neumarkt in der Oberpfalz (DE) 0.00 km FOUND
T3020536 RS41 2023-05-28 13:07:16 49.44 11.6576 200 ° 9 km/h 771 m -11.9 m/s 402.700 MHz Sulzbach-Rosenberg (DE) 0.00 km FOUND
T3020512 RS41 2023-05-28 01:42:42 49.3431 11.6332 288 ° 26 km/h 871 m -5.6 m/s 402.700 MHz Neumarkt in der Oberpfalz (DE) 0.00 km FOUND
T3020538 RS41 2023-05-27 13:11:57 49.3963 11.8266 260 ° 19 km/h 707 m -8.5 m/s 402.700 MHz Amberg (DE) 0.00 km FOUND
T3020373 RS41 2023-05-27 01:28:14 49.1675 11.9903 240 ° 31 km/h 684 m -4.0 m/s 402.700 MHz Regensburg (DE) 0.00 km FOUND
T3020537 RS41 2023-05-26 13:12:46 49.2455 12.043 223 ° 15 km/h 577 m -5.1 m/s 402.700 MHz Schwandorf (DE) 0.00 km NEED ATTENTION
T3020315 RS41 2023-05-26 00:50:41 49.3299 11.7445 257 ° 35 km/h 914 m -10.4 m/s 402.700 MHz Amberg (DE) 0.00 km FOUND
T3020313 RS41 2023-05-25 13:17:49 49.5149 11.6074 217 ° 20 km/h 713 m -4.6 m/s 402.701 MHz Sulzbach-Rosenberg (DE) 0.00 km FOUND
T3020959 RS41 2023-05-25 01:48:30 49.8323 11.6346 248 ° 15 km/h 612 m -3.0 m/s 402.700 MHz Bayreuth (DE) 0.00 km NEED ATTENTION
T3020511 RS41 2023-05-24 13:29:00 49.8429 12.3848 142 ° 13 km/h 660 m -4.8 m/s 402.70 MHz Tachov (CZ) 0.00 km FOUND
T3020326 RS41 2023-05-24 01:11:17 49.4045 12.3188 196 ° 9 km/h 689 m -6.7 m/s 402.70 MHz Schwandorf (DE) 0.00 km UNKNOWN
T3020329 RS41 2023-05-23 13:00:39 49.4309 12.2653 117 ° 31 km/h 688 m -12.6 m/s 402.701 MHz Schwandorf (DE) 0.00 km FOUND
T3020374 RS41 2023-05-23 01:24:15 49.33 12.1858 113 ° 15 km/h 471 m -6.6 m/s 402.700 MHz Schwandorf (DE) 0.00 km FOUND
T3020316 RS41 2023-05-22 12:54:04 49.4728 11.7896 323 ° 4 km/h 720 m -15.3 m/s 402.70 MHz Sulzbach-Rosenberg (DE) 0.00 km FOUND
T3020327 RS41 2023-05-22 01:25:31 49.5296 11.5268 266 ° 28 km/h 734 m -11.4 m/s 402.700 MHz Sulzbach-Rosenberg (DE) 0.00 km FOUND
T3020317 RS41 2023-05-21 13:33:22 49.687 11.4332 282 ° 33 km/h 770 m -5.6 m/s 402.700 MHz Lauf an der Pegnitz (DE) 0.00 km FOUND
T3020540 RS41 2023-05-21 01:43:00 49.787 11.5156 273 ° 39 km/h 713 m -3.4 m/s 402.700 MHz Bayreuth (DE) 0.00 km FOUND
T3020539 RS41 2023-05-20 13:21:30 49.8917 11.7304 268 ° 35 km/h 736 m -5.1 m/s 402.700 MHz Bayreuth (DE) 0.00 km FOUND
T3020921 RS41 2023-05-20 01:18:00 49.701 11.4944 265 ° 28 km/h 746 m -11.2 m/s 402.700 MHz Lauf an der Pegnitz (DE) 0.00 km FOUND
T3020967 RS41 2023-05-19 13:10:37 49.8349 11.8166 241 ° 24 km/h 665 m -7.5 m/s 402.700 MHz Bayreuth (DE) 0.00 km FOUND
T3020923 RS41 2023-05-19 01:20:33 49.7119 11.8405 254 ° 30 km/h 634 m -5.5 m/s 402.700 MHz Weiden in der Oberpfalz (DE) 0.00 km UNKNOWN
T3020934 RS41 2023-05-18 13:07:58 49.7085 11.8863 264 ° 24 km/h 647 m -14.5 m/s 402.700 MHz Weiden in der Oberpfalz (DE) 0.00 km UNKNOWN
T3020945 RS41 2023-05-18 01:22:41 49.4835 11.8163 232 ° 33 km/h 718 m -8.9 m/s 402.700 MHz Sulzbach-Rosenberg (DE) 0.00 km FOUND
T3020937 RS41 2023-05-17 13:19:01 49.5732 11.8379 169 ° 13 km/h 891 m -7.2 m/s 402.70 MHz Sulzbach-Rosenberg (DE) 0.00 km FOUND
T3020955 RS41 2023-05-17 01:37:32 49.7209 12.042 185 ° 24 km/h 558 m -4.7 m/s 402.700 MHz Weiden in der Oberpfalz (DE) 0.00 km FOUND
T3020909 RS41 2023-05-16 13:50:00 50.1403 12.1602 188 ° 7 km/h 636 m -7.8 m/s 402.701 MHz Aš (CZ) 0.00 km UNKNOWN
T3020920 RS41 2023-05-16 01:06:12 49.6049 12.2953 10 ° 6 km/h 625 m -12.0 m/s 402.700 MHz Weiden in der Oberpfalz (DE) 0.00 km FOUND
T3020956 RS41 2023-05-15 13:10:03 49.4833 12.3251 175 ° 17 km/h 794 m -7.2 m/s 402.701 MHz Schwandorf (DE) 0.00 km FOUND
T3020940 RS41 2023-05-15 01:23:35 49.4431 12.0755 219 ° 13 km/h 644 m -9.9 m/s 402.700 MHz Schwandorf (DE) 0.00 km FOUND
T3020960 RS41 2023-05-14 13:03:03 49.6094 11.953 250 ° 20 km/h 737 m -6.2 m/s 402.700 MHz Weiden in der Oberpfalz (DE) 0.00 km UNKNOWN
T3020948 RS41 2023-05-14 01:16:58 49.4903 11.8478 282 ° 24 km/h 730 m -7.6 m/s 402.700 MHz Amberg (DE) 0.00 km FOUND
T3020910 RS41 2023-05-13 13:08:49 49.5481 11.6422 247 ° 31 km/h 859 m -6.7 m/s 402.700 MHz Sulzbach-Rosenberg (DE) 0.00 km FOUND
T3020938 RS41 2023-05-13 01:34:47 49.432 11.5691 264 ° 41 km/h 816 m -5.5 m/s 402.700 MHz Sulzbach-Rosenberg (DE) 0.00 km FOUND
T3020924 RS41 2023-05-12 13:12:24 49.5702 11.414 279 ° 30 km/h 669 m -6.4 m/s 402.700 MHz Lauf an der Pegnitz (DE) 0.00 km FOUND
T3020922 RS41 2023-05-12 01:28:45 49.7135 11.2893 257 ° 17 km/h 656 m -5.4 m/s 402.700 MHz Lauf an der Pegnitz (DE) 0.00 km FOUND
T3020957 RS41 2023-05-11 13:06:09 49.7655 11.7047 335 ° 24 km/h 767 m -9.8 m/s 402.701 MHz Bayreuth (DE) 0.00 km FOUND
T3020958 RS41 2023-05-11 01:15:00 49.7249 11.8107 111 ° 19 km/h 651 m -12.4 m/s 402.70 MHz Weiden in der Oberpfalz (DE) 0.00 km UNKNOWN
T3020161 RS41 2023-05-10 12:58:42 49.6118 12.0872 307 ° 9 km/h 604 m -7.7 m/s 402.701 MHz Weiden in der Oberpfalz (DE) 0.00 km FOUND
T3050348 RS41 2023-05-10 01:26:59 49.3604 12.3628 358 ° 31 km/h 1113 m -5.3 m/s 402.70 MHz Schwandorf (DE) 0.00 km FOUND
T3020919 RS41 2023-05-09 13:04:37 49.0295 12.3078 309 ° 31 km/h 736 m -7.8 m/s 402.700 MHz Regensburg (DE) 0.00 km FOUND
T3020941 RS41 2023-05-09 01:28:52 48.7584 12.4004 289 ° 30 km/h 949 m -4.6 m/s 402.701 MHz Straubing (DE) 0.00 km UNKNOWN
T3020962 RS41 2023-05-08 13:22:01 49.2051 12.3828 247 ° 13 km/h 629 m -6.4 m/s 402.700 MHz Schwandorf (DE) 0.00 km FOUND
T3020173 RS41 2023-05-08 01:18:37 49.1892 12.4668 250 ° 31 km/h 693 m -6.2 m/s 402.70 MHz Schwandorf (DE) 0.00 km FOUND
T3020162 RS41 2023-05-07 13:07:02 49.2992 12.7251 255 ° 24 km/h 549 m -4.9 m/s 402.700 MHz Domažlice (CZ) 0.00 km UNKNOWN
T3020203 RS41 2023-05-07 01:14:26 49.1859 12.9465 281 ° 2 km/h 1264 m -14.5 m/s 402.700 MHz Kdyně (CZ) 0.00 km UNKNOWN
T3020201 RS41 2023-05-06 13:10:00 49.3052 12.9165 89 ° 48 km/h 5098 m -6.7 m/s 404.900 MHz Kdyně (CZ) 0.00 km UNKNOWN
T3020159 RS41 2023-05-06 01:25:04 49.5155 12.9598 355 ° 9 km/h 551 m -5.8 m/s 402.700 MHz Domažlice (CZ) 0.00 km FOUND
T3020157 RS41 2023-05-05 13:06:38 49.4905 12.7811 283 ° 19 km/h 685 m -7.1 m/s 402.700 MHz Domažlice (CZ) 0.00 km FOUND
T3020168 RS41 2023-05-05 00:52:59 49.3679 12.4761 91 ° 46 km/h 10617 m -17.6 m/s 402.700 MHz Schwandorf (DE) 0.00 km UNKNOWN
T3020158 RS41 2023-05-04 13:03:05 49.0997 12.4282 315 ° 19 km/h 851 m -14.4 m/s 402.701 MHz Regensburg (DE) 0.00 km FOUND
T3020259 RS41 2023-05-04 01:14:39 48.7852 12.1348 314 ° 24 km/h 1011 m -7.6 m/s 402.700 MHz Regensburg (DE) 0.00 km UNKNOWN
T3020202 RS41 2023-05-03 12:56:39 49.1164 12.1134 198 ° 6 km/h 590 m -13.1 m/s 402.701 MHz Regensburg (DE) 0.00 km FOUND
T3020172 RS41 2023-05-03 01:05:35 49.1307 12.0854 230 ° 20 km/h 863 m -10.3 m/s 402.701 MHz Regensburg (DE) 0.00 km FOUND
T3020255 RS41 2023-05-02 13:08:17 49.7615 12.7337 219 ° 9 km/h 545 m -8.2 m/s 402.701 MHz Tachov (CZ) 0.00 km FOUND
T3020258 RS41 2023-05-02 01:09:41 49.6705 12.5442 147 ° 24 km/h 2159 m -9.2 m/s 402.70 MHz Tachov (CZ) 0.00 km FOUND
T3020257 RS41 2023-05-01 13:05:02 49.7658 12.3787 197 ° 6 km/h 827 m 1.6 m/s 402.700 MHz Tachov (CZ) 0.00 km UNKNOWN
T3020961 RS41 2023-05-01 01:36:33 49.5082 12.4488 263 ° 31 km/h 857 m -4.1 m/s 402.700 MHz Weiden in der Oberpfalz (DE) 0.00 km UNKNOWN
T3020915 RS41 2023-04-30 12:59:07 49.2246 12.5997 245 ° 22 km/h 958 m -10.4 m/s 402.700 MHz Domažlice (CZ) 0.00 km FOUND
T3020917 RS41 2023-04-30 01:22:08 49.0185 13.0921 91 ° 15 km/h 1946 m -5.6 m/s 402.700 MHz Deggendorf (DE) 0.00 km UNKNOWN
T3020256 RS41 2023-04-29 12:59:08 49.0887 12.9866 130 ° 50 km/h 5064 m -7.2 m/s 402.700 MHz Deggendorf (DE) 0.00 km UNKNOWN
T3010565 RS41 2023-04-29 01:12:23 48.8868 13.5505 88 ° 33 km/h 1672 m -7.6 m/s 402.700 MHz Vimperk (CZ) 0.00 km UNKNOWN
T3020200 RS41 2023-04-28 13:08:36 49.1408 13.6795 327 ° 13 km/h 1068 m -9.8 m/s 402.700 MHz Vimperk (CZ) 0.00 km UNKNOWN
T3020199 RS41 2023-04-28 01:06:59 48.771 13.647 352 ° 22 km/h 1000 m -3.9 m/s 402.700 MHz Ulrichsberg (AT) 0.00 km FOUND
T3020913 RS41 2023-04-27 13:45:24 48.713 13.3335 100 ° 17 km/h 1034 m -4.4 m/s 404.900 MHz Passau (DE) 0.00 km FOUND
T3040563 RS41 2023-04-27 11:55:22 48.7291 12.9984 150 ° 6 km/h 914 m -9.5 m/s 402.701 MHz Deggendorf (DE) 0.00 km UNKNOWN
T3020254 RS41 2023-04-27 00:27:50 49.0445 12.9389 118 ° 43 km/h 3256 m -15.8 m/s 402.70 MHz Deggendorf (DE) 0.00 km FOUND
T3020204 RS41 2023-04-26 13:11:01 48.8801 13.375 99 ° 11 km/h 1187 m -3.9 m/s 404.90 MHz Deggendorf (DE) 0.00 km FOUND
T3010569 RS41 2023-04-26 00:56:33 48.8699 13.1427 125 ° 33 km/h 1652 m -5.5 m/s 402.70 MHz Deggendorf (DE) 0.00 km UNKNOWN
T3010570 RS41 2023-04-25 12:36:35 49.4176 12.7812 116 ° 13 km/h 832 m -12.1 m/s 402.700 MHz Domažlice (CZ) 0.00 km FOUND
T3020376 RS41 2023-04-25 00:43:01 49.5603 12.8691 98 ° 31 km/h 830 m -7.9 m/s 402.700 MHz Domažlice (CZ) 0.00 km FOUND
T3020971 RS41 2023-04-24 12:53:51 49.8842 12.8842 109 ° 31 km/h 684 m -5.8 m/s 402.70 MHz Planá (CZ) 0.00 km FOUND
T3020968 RS41 2023-04-24 00:44:23 49.8311 12.6293 47 ° 15 km/h 654 m -7.8 m/s 402.700 MHz Tachov (CZ) 0.00 km FOUND
T3020963 RS41 2023-04-23 13:10:30 49.8779 12.7726 67 ° 17 km/h 959 m -2.7 m/s 402.700 MHz Planá (CZ) 0.00 km FOUND
T3010123 RS41 2023-04-23 01:26:17 49.5862 12.8525 82 ° 13 km/h 661 m -2.3 m/s 402.700 MHz Domažlice (CZ) 0.00 km FOUND
T3010591 RS41 2023-04-22 12:50:05 49.2147 12.3822 329 ° 9 km/h 699 m -6.6 m/s 402.70 MHz Schwandorf (DE) 0.00 km FOUND
T3020970 RS41 2023-04-22 00:44:47 49.2724 12.3664 283 ° 15 km/h 553 m -3.1 m/s 402.700 MHz Schwandorf (DE) 0.00 km FOUND
T3010122 RS41 2023-04-21 12:50:47 49.6177 11.7503 312 ° 17 km/h 1041 m -5.3 m/s 402.700 MHz Sulzbach-Rosenberg (DE) 0.00 km FOUND
T3020733 RS41 2023-04-21 01:02:14 49.6898 11.6987 281 ° 52 km/h 843 m -10.3 m/s 402.700 MHz Sulzbach-Rosenberg (DE) 0.00 km UNKNOWN
T3020964 RS41 2023-04-20 13:01:28 49.8784 11.9848 272 ° 33 km/h 662 m -9.6 m/s 402.70 MHz Weiden in der Oberpfalz (DE) 0.00 km FOUND
T3020972 RS41 2023-04-20 01:05:34 49.406 12.3207 267 ° 28 km/h 688 m -3.4 m/s 402.700 MHz Schwandorf (DE) 0.00 km FOUND
T3020965 RS41 2023-04-19 12:46:58 49.018 12.4265 210 ° 28 km/h 1150 m -6.0 m/s 402.700 MHz Straubing (DE) 0.00 km UNKNOWN
T3020918 RS41 2023-04-19 00:48:43 49.2272 11.304 253 ° 31 km/h 782 m -5.3 m/s 402.700 MHz Neumarkt in der Oberpfalz (DE) 0.00 km FOUND
T3020969 RS41 2023-04-18 12:52:07 49.5271 11.495 244 ° 35 km/h 991 m -11.9 m/s 402.701 MHz Lauf an der Pegnitz (DE) 0.00 km FOUND
T3020914 RS41 2023-04-18 00:47:31 49.4209 11.6101 267 ° 39 km/h 1037 m -8.8 m/s 402.700 MHz Sulzbach-Rosenberg (DE) 0.00 km FOUND
T3020916 RS41 2023-04-17 12:49:57 49.2421 11.6146 211 ° 24 km/h 1191 m -9.1 m/s 402.701 MHz Neumarkt in der Oberpfalz (DE) 0.00 km FOUND
T3010562 RS41 2023-04-17 01:05:00 48.9492 11.5815 18 ° 2 km/h 1674 m -3.6 m/s 402.700 MHz Ingolstadt (DE) 0.00 km UNKNOWN
T3010559 RS41 2023-04-16 12:43:55 48.9378 11.6178 224 ° 9 km/h 1899 m -9.1 m/s 402.700 MHz Ingolstadt (DE) 0.00 km FOUND
T3010592 RS41 2023-04-16 00:56:59 48.7201 11.6284 208 ° 20 km/h 2526 m -9.3 m/s 402.700 MHz Ingolstadt (DE) 0.00 km FOUND
T3010589 RS41 2023-04-15 12:47:15 49.1452 11.6347 153 ° 19 km/h 1280 m -6.5 m/s 402.700 MHz Neumarkt in der Oberpfalz (DE) 0.00 km FOUND
T3010593 RS41 2023-04-15 00:34:46 49.3799 11.5804 169 ° 41 km/h 1101 m -9.0 m/s 402.700 MHz Neumarkt in der Oberpfalz (DE) 0.00 km FOUND
T3010594 RS41 2023-04-14 13:05:31 49.7352 11.7779 163 ° 22 km/h 745 m -2.7 m/s 402.700 MHz Sulzbach-Rosenberg (DE) 0.00 km UNKNOWN
T3020966 RS41 2023-04-14 00:47:06 49.9232 11.9609 255 ° 4 km/h 650 m -3.6 m/s 402.700 MHz Bayreuth (DE) 0.00 km FOUND
T3010567 RS41 2023-04-13 13:00:22 50.1993 12.7591 356 ° 7 km/h 568 m -3.7 m/s 402.701 MHz Chodov (CZ) 0.00 km FOUND
T3020175 RS41 2023-04-13 01:02:06 50.0203 13.4561 98 ° 44 km/h 944 m -4.5 m/s 402.700 MHz Rakovník (CZ) 0.00 km UNKNOWN
T3010590 RS41 2023-04-12 13:04:46 49.3962 14.156 353 ° 28 km/h 1445 m -5.1 m/s 402.700 MHz Písek (CZ) 0.00 km NEED ATTENTION
T3010597 RS41 2023-04-12 00:43:20 48.7205 13.5016 70 ° 9 km/h 1036 m -12.4 m/s 402.700 MHz Passau (DE) 0.00 km UNKNOWN
T3010600 RS41 2023-04-11 12:58:11 49.0098 14.0148 79 ° 44 km/h 1220 m -6.0 m/s 404.901 MHz Prachatice (CZ) 0.00 km UNKNOWN
T3020170 RS41 2023-04-11 00:50:17 49.076 13.074 46 ° 37 km/h 1374 m -5.4 m/s 402.700 MHz Deggendorf (DE) 0.00 km UNKNOWN
T3010566 RS41 2023-04-10 12:51:30 48.632 12.1624 320 ° 13 km/h 611 m -10.3 m/s 402.700 MHz Landshut (DE) 0.00 km UNKNOWN
T3020591 RS41 2023-04-10 01:14:49 48.5793 11.7306 340 ° 20 km/h 693 m -4.1 m/s 402.700 MHz Pfaffenhofen an der Ilm (DE) 0.00 km LOST
T3010891 RS41 2023-04-09 12:41:53 48.9894 11.7213 237 ° 20 km/h 1347 m -7.0 m/s 402.700 MHz Regensburg (DE) 0.00 km FOUND
T3010560 RS41 2023-04-09 00:52:01 49.0102 11.5787 269 ° 15 km/h 1504 m -8.4 m/s 402.700 MHz Ingolstadt (DE) 0.00 km UNKNOWN
T3010893 RS41 2023-04-08 13:00:28 49.0133 11.4697 220 ° 26 km/h 1431 m -6.6 m/s 402.700 MHz Ingolstadt (DE) 0.00 km FOUND
T3020589 RS41 2023-04-08 01:01:51 49.2474 11.6198 169 ° 26 km/h 1136 m -3.4 m/s 402.700 MHz Neumarkt in der Oberpfalz (DE) 0.00 km FOUND
T3020476 RS41 2023-04-07 13:02:51 49.4913 11.7481 242 ° 6 km/h 819 m -3.9 m/s 402.700 MHz Sulzbach-Rosenberg (DE) 0.00 km FOUND
T3010890 RS41 2023-04-07 01:03:42 49.2307 12.2508 6 ° 11 km/h 566 m -3.8 m/s 402.700 MHz Schwandorf (DE) 0.00 km FOUND
T3010386 RS41 2023-04-06 12:55:29 49.063 12.2616 88 ° 7 km/h 883 m -8.3 m/s 402.700 MHz Regensburg (DE) 0.00 km FOUND
T3020182 RS41 2023-04-06 00:45:01 49.1342 12.1272 330 ° 9 km/h 545 m -4.7 m/s 404.900 MHz Regensburg (DE) 0.00 km FOUND
T3020164 RS41 2023-04-05 12:55:32 49.2648 12.1821 231 ° 15 km/h 476 m -4.5 m/s 402.701 MHz Schwandorf (DE) 0.00 km FOUND
T3020163 RS41 2023-04-05 00:42:19 49.239 11.9343 273 ° 22 km/h 726 m -7.6 m/s 402.700 MHz Schwandorf (DE) 0.00 km FOUND
T3020171 RS41 2023-04-04 13:11:55 48.9991 11.5005 218 ° 20 km/h 1513 m -4.2 m/s 402.700 MHz Ingolstadt (DE) 0.00 km FOUND
T3020191 RS41 2023-04-04 00:46:11 49.0077 11.404 266 ° 28 km/h 1572 m -6.4 m/s 402.700 MHz Ingolstadt (DE) 0.00 km UNKNOWN
T3010901 RS41 2023-04-03 12:59:12 48.9508 11.6398 235 ° 26 km/h 1444 m -5.1 m/s 402.70 MHz Ingolstadt (DE) 0.00 km FOUND
T3020475 RS41 2023-04-03 00:44:11 48.8978 12.1368 228 ° 31 km/h 884 m -5.8 m/s 402.700 MHz Regensburg (DE) 0.00 km FOUND
T3010904 RS41 2023-04-02 13:20:29 49.0285 11.9867 221 ° 37 km/h 918 m -6.6 m/s 402.700 MHz Regensburg (DE) 0.00 km NEED ATTENTION
T3020003 RS41 2023-04-02 00:57:45 49.213 12.4103 83 ° 35 km/h 759 m -3.5 m/s 402.700 MHz Schwandorf (DE) 0.00 km FOUND
T3020005 RS41 2023-04-01 13:04:18 49.385 12.8622 69 ° 17 km/h 658 m -3.0 m/s 402.700 MHz Domažlice (CZ) 0.00 km UNKNOWN
T3020181 RS41 2023-04-01 00:59:03 49.3379 12.9393 59 ° 15 km/h 498 m -5.0 m/s 402.700 MHz Kdyně (CZ) 0.00 km UNKNOWN
T3020188 RS41 2023-03-31 12:59:26 49.8046 13.9096 63 ° 63 km/h 1195 m -3.4 m/s 402.700 MHz Hořovice (CZ) 0.00 km UNKNOWN
T3020190 RS41 2023-03-31 00:50:30 49.0655 13.8335 95 ° 52 km/h 1350 m -6.0 m/s 402.700 MHz Vimperk (CZ) 0.00 km FOUND
T3020189 RS41 2023-03-30 13:09:31 49.5425 13.826 65 ° 33 km/h 947 m -3.6 m/s 402.701 MHz Blatná (CZ) 0.00 km UNKNOWN
T3020594 RS41 2023-03-30 01:02:15 48.7055 13.6825 92 ° 46 km/h 1242 m -4.5 m/s 402.700 MHz Ulrichsberg (AT) 0.00 km LOST
T3020119 RS41 2023-03-29 13:02:42 48.3295 13.5512 314 ° 11 km/h 528 m -4.2 m/s 402.700 MHz Andorf (AT) 0.00 km UNKNOWN
T3040629 RS41 2023-03-29 00:53:04 48.7946 13.3469 56 ° 19 km/h 1212 m -3.6 m/s 402.700 MHz Passau (DE) 0.00 km UNKNOWN
T3020006 RS41 2023-03-28 12:53:31 48.0679 13.2031 101 ° 41 km/h 713 m -6.4 m/s 402.700 MHz Munderfing (AT) 0.00 km UNKNOWN
T3020030 RS41 2023-03-28 01:05:36 48.4405 13.3601 113 ° 31 km/h 522 m -9.0 m/s 402.700 MHz Schärding (AT) 0.00 km UNKNOWN
T3010902 RS41 2023-03-27 12:52:07 49.0609 13.2782 138 ° 39 km/h 1430 m -2.9 m/s 402.70 MHz Sušice (CZ) 0.00 km UNKNOWN
T3020192 RS41 2023-03-27 00:49:28 49.5012 13.0897 110 ° 24 km/h 663 m -3.2 m/s 402.700 MHz Holýšov (CZ) 0.00 km FOUND
T3020002 RS41 2023-03-26 13:10:43 49.673 14.2384 39 ° 26 km/h 1934 m -3.5 m/s 402.700 MHz Dobříš (CZ) 0.00 km UNKNOWN
T3020593 RS41 2023-03-26 01:16:45 48.9111 14.503 98 ° 56 km/h 1136 m -4.4 m/s 402.700 MHz České Budějovice (CZ) 0.00 km UNKNOWN
T3020592 RS41 2023-03-25 12:49:56 49.4323 13.6395 91 ° 50 km/h 834 m -3.6 m/s 402.70 MHz Horažďovice (CZ) 0.00 km UNKNOWN
T3020012 RS41 2023-03-25 00:56:25 50.048 14.0052 101 ° 52 km/h 1395 m -7.7 m/s 402.700 MHz Beroun (CZ) 0.00 km UNKNOWN
T3020001 RS41 2023-03-24 12:50:18 49.9103 13.693 70 ° 65 km/h 1240 m -2.5 m/s 402.700 MHz Hořovice (CZ) 0.00 km UNKNOWN
T3010905 RS41 2023-03-24 01:02:30 49.636 14.0645 75 ° 69 km/h 2252 m -3.3 m/s 402.700 MHz Příbram (CZ) 0.00 km UNKNOWN
T3020590 RS41 2023-03-23 12:57:25 49.4997 13.6897 76 ° 44 km/h 939 m -6.8 m/s 402.700 MHz Blatná (CZ) 0.00 km UNKNOWN
T3020183 RS41 2023-03-23 01:02:34 49.4237 13.2711 46 ° 20 km/h 584 m -3.8 m/s 402.700 MHz Klatovy (CZ) 0.00 km UNKNOWN
T3020184 RS41 2023-03-22 13:16:22 49.0659 12.812 27 ° 31 km/h 1192 m -4.8 m/s 402.70 MHz Straubing (DE) 0.00 km UNKNOWN
T3020185 RS41 2023-03-22 00:49:36 49.3091 12.9385 71 ° 20 km/h 817 m -7.9 m/s 402.700 MHz Kdyně (CZ) 0.00 km UNKNOWN
T3020010 RS41 2023-03-21 12:49:40 49.0696 12.5722 48 ° 6 km/h 1122 m -12.8 m/s 402.701 MHz Straubing (DE) 0.00 km UNKNOWN
T3020198 RS41 2023-03-21 00:49:30 48.6789 12.7276 92 ° 28 km/h 1255 m -4.2 m/s 402.700 MHz Straubing (DE) 0.00 km FOUND
T3020187 RS41 2023-03-20 12:55:47 48.9303 12.4008 83 ° 13 km/h 1127 m -2.8 m/s 402.700 MHz Straubing (DE) 0.00 km FOUND
T3020169 RS41 2023-03-20 00:51:56 49.3411 12.441 90 ° 17 km/h 850 m -5.6 m/s 402.701 MHz Schwandorf (DE) 0.00 km UNKNOWN
T3020165 RS41 2023-03-19 12:44:26 49.7669 12.6019 116 ° 28 km/h 789 m -7.8 m/s 402.701 MHz Tachov (CZ) 0.00 km FOUND
T3020193 RS41 2023-03-19 00:57:00 49.873 12.9246 289 ° 15 km/h 726 m -11.7 m/s 402.701 MHz Planá (CZ) 0.00 km FOUND
T3020197 RS41 2023-03-18 12:54:50 50.1368 12.787 268 ° 2 km/h 900 m -4.5 m/s 402.700 MHz Horní Slavkov (CZ) 0.00 km FOUND
T2950433 RS41 2023-03-18 00:50:35 49.7798 12.7919 277 ° 17 km/h 593 m -3.3 m/s 402.700 MHz Planá (CZ) 0.00 km FOUND
T3020120 RS41 2023-03-17 13:06:27 49.4185 13.0231 259 ° 13 km/h 769 m -4.1 m/s 402.700 MHz Kdyně (CZ) 0.00 km UNKNOWN
T2950461 RS41 2023-03-17 00:49:00 49.0038 12.8282 343 ° 20 km/h 988 m -6.5 m/s 402.700 MHz Deggendorf (DE) 0.00 km UNKNOWN
T2950443 RS41 2023-03-16 12:54:14 48.4353 12.9091 293 ° 15 km/h 1207 m -5.7 m/s 402.700 MHz Braunau am Inn (AT) 0.00 km FOUND
T3010390 RS41 2023-03-16 00:36:49 48.3328 13.1086 118 ° 15 km/h 586 m -5.6 m/s 402.700 MHz Sankt Peter (AT) 0.00 km FOUND
T2950442 RS41 2023-03-15 12:58:59 48.6862 13.2372 88 ° 26 km/h 1104 m -6.4 m/s 402.700 MHz Passau (DE) 0.00 km UNKNOWN
T3010548 RS41 2023-03-15 00:51:56 49.6455 13.1438 67 ° 17 km/h 456 m -2.7 m/s 402.700 MHz Holýšov (CZ) 0.00 km FOUND
T3020225 RS41 2023-03-14 12:57:50 49.8985 13.4027 198 ° 11 km/h 546 m -2.3 m/s 402.700 MHz Třemošná (CZ) 0.00 km LOST
T3020224 RS41 2023-03-14 01:23:06 50.0358 14.0324 57 ° 59 km/h 769 m -3.3 m/s 402.701 MHz Beroun (CZ) 0.00 km UNKNOWN
T3010630 RS41 2023-03-13 13:07:39 49.5298 14.0031 71 ° 54 km/h 978 m -3.6 m/s 402.70 MHz Blatná (CZ) 0.00 km UNKNOWN
T2950462 RS41 2023-03-13 00:33:48 48.742 13.1745 95 ° 56 km/h 1046 m -12.3 m/s 402.700 MHz Deggendorf (DE) 0.00 km NEED ATTENTION
T3020118 RS41 2023-03-12 12:50:08 48.8152 13.331 42 ° 15 km/h 1005 m -3.8 m/s 402.700 MHz Deggendorf (DE) 0.00 km UNKNOWN
T3020065 RS41 2023-03-12 00:56:51 48.7376 13.0644 139 ° 74 km/h 4176 m -6.3 m/s 402.700 MHz Deggendorf (DE) 0.00 km NEED ATTENTION
T3020043 RS41 2023-03-11 12:46:41 48.6795 13.3846 105 ° 30 km/h 975 m -3.9 m/s 402.700 MHz Passau (DE) 0.00 km UNKNOWN
T3020153 RS41 2023-03-11 00:58:25 48.5544 14.3994 99 ° 52 km/h 816 m -4.1 m/s 402.700 MHz Rainbach im Mühlkreis (AT) 0.00 km UNKNOWN
T2950440 RS41 2023-03-10 12:41:43 49.6278 13.2606 33 ° 44 km/h 420 m -13.5 m/s 404.900 MHz Dobřany (CZ) 0.00 km FOUND
D18051346 DFM09 2023-03-10 12:01:43 49.9612 12.9142 56 ° 28 km/h 925 m -3.9 m/s 402.008 MHz Mariánské Lázně (CZ) 0.00 km FOUND
T3020116 RS41 2023-03-10 00:49:58 49.3502 13.89 62 ° 52 km/h 1180 m -7.2 m/s 402.700 MHz Blatná (CZ) 0.00 km FOUND
T3020117 RS41 2023-03-09 13:00:12 49.0778 13.7185 89 ° 91 km/h 1666 m -8.0 m/s 402.700 MHz Vimperk (CZ) 0.00 km UNKNOWN
T3010889 RS41 2023-03-09 01:11:57 49.2029 14.9282 64 ° 52 km/h 823 m -3.6 m/s 402.701 MHz Jindřichŭv Hradec (CZ) 0.00 km UNKNOWN
T2950444 RS41 2023-03-08 12:16:18 49.2946 14.1012 73 ° 93 km/h 2673 m -9.1 m/s 402.700 MHz Písek (CZ) 0.00 km FOUND
D505854 DFM09 2023-03-08 11:05:25 49.4242 13.9529 70 ° 76 km/h 2134 m -4.6 m/s 403.250 MHz Blatná (CZ) 0.00 km UNKNOWN
T3010552 RS41 2023-03-08 00:30:44 49.1988 13.8986 97 ° 67 km/h 1488 m -8.8 m/s 402.700 MHz Strakonice (CZ) 0.00 km FOUND
T3010836 RS41 2023-03-07 12:43:15 49.2708 13.478 41 ° 17 km/h 974 m -11.0 m/s 402.700 MHz Sušice (CZ) 0.00 km UNKNOWN
T3010840 RS41 2023-03-07 01:19:51 49.0525 13.4874 62 ° 44 km/h 1216 m -3.0 m/s 402.700 MHz Sušice (CZ) 0.00 km UNKNOWN
T3010894 RS41 2023-03-06 12:41:04 49.1939 12.8463 105 ° 67 km/h 4902 m -9.9 m/s 402.700 MHz Kdyně (CZ) 0.00 km UNKNOWN
T3010837 RS41 2023-03-06 00:36:14 49.1524 13.3231 70 ° 24 km/h 1245 m -8.8 m/s 402.700 MHz Sušice (CZ) 0.00 km UNKNOWN
T3020044 RS41 2023-03-05 12:59:50 48.9805 12.7866 102 ° 24 km/h 982 m -6.2 m/s 402.700 MHz Straubing (DE) 0.00 km UNKNOWN
T3020064 RS41 2023-03-05 00:50:15 48.9121 12.8491 129 ° 39 km/h 1531 m -4.8 m/s 402.700 MHz Deggendorf (DE) 0.00 km UNKNOWN
T2950439 RS41 2023-03-04 13:06:31 48.9406 12.2415 132 ° 20 km/h 950 m -4.5 m/s 402.700 MHz Regensburg (DE) 0.00 km FOUND
T3020115 RS41 2023-03-03 23:47:31 49.1779 11.7215 133 ° 19 km/h 16557 m 5.9 m/s 402.700 MHz Neumarkt in der Oberpfalz (DE) 0.00 km UNKNOWN
T2950441 RS41 2023-03-03 12:38:56 49.0554 11.2229 202 ° 13 km/h 978 m -9.4 m/s 402.700 MHz Roth bei Nürnberg (DE) 0.00 km FOUND
T3020180 RS41 2023-03-03 01:04:34 49.0905 11.1294 194 ° 6 km/h 1038 m -4.7 m/s 402.700 MHz Roth bei Nürnberg (DE) 0.00 km FOUND
T3040602 RS41 2023-03-02 13:03:17 49.3143 10.7524 264 ° 20 km/h 621 m -4.6 m/s 402.700 MHz Ansbach (DE) 0.00 km FOUND
T2950435 RS41 2023-03-02 01:07:12 49.4169 10.809 238 ° 30 km/h 455 m -3.7 m/s 402.700 MHz Zirndorf (DE) 0.00 km FOUND
T2950434 RS41 2023-03-01 12:50:24 49.458 11.1284 225 ° 24 km/h 594 m -11.8 m/s 402.700 MHz Nürnberg (DE) 0.00 km FOUND
T3020066 RS41 2023-03-01 00:50:33 49.3165 11.3365 282 ° 22 km/h 918 m -3.1 m/s 402.701 MHz Neumarkt in der Oberpfalz (DE) 0.00 km FOUND
T3020045 RS41 2023-02-28 13:05:53 49.2543 11.7333 247 ° 28 km/h 848 m -2.7 m/s 404.900 MHz Neumarkt in der Oberpfalz (DE) 0.00 km LOST
T3010385 RS41 2023-02-28 00:18:52 49.544 11.7882 273 ° 43 km/h 996 m -9.5 m/s 402.701 MHz Sulzbach-Rosenberg (DE) 0.00 km FOUND
T3010892 RS41 2023-02-27 12:48:37 49.2123 11.7815 240 ° 33 km/h 1001 m -3.7 m/s 402.701 MHz Neumarkt in der Oberpfalz (DE) 0.00 km FOUND
T2950436 RS41 2023-02-27 01:46:53 49.2075 12.1614 253 ° 17 km/h 567 m -4.7 m/s 404.90 MHz Schwandorf (DE) 0.00 km FOUND
T3020154 RS41 2023-02-27 00:10:15 49.3784 11.9765 228 ° 20 km/h 544 m -4.6 m/s 402.70 MHz Amberg (DE) 0.00 km FOUND
T3020152 RS41 2023-02-26 12:34:24 49.1364 12.0248 213 ° 41 km/h 761 m -11.2 m/s 402.700 MHz Regensburg (DE) 0.00 km FOUND
T3010547 RS41 2023-02-26 01:03:37 48.8876 13.0337 225 ° 31 km/h 1252 m -4.3 m/s 402.700 MHz Deggendorf (DE) 0.00 km UNKNOWN
T3020262 RS41 2023-02-25 12:53:47 48.8703 13.6855 103 ° 56 km/h 1536 m -10.1 m/s 402.700 MHz Vimperk (CZ) 0.00 km UNKNOWN
T3020223 RS41 2023-02-25 00:49:27 49.1474 13.9203 107 ° 46 km/h 1025 m -5.4 m/s 402.700 MHz Strakonice (CZ) 0.00 km FOUND
T3020151 RS41 2023-02-24 13:08:02 49.1501 13.579 64 ° 28 km/h 1167 m -3.1 m/s 402.700 MHz Sušice (CZ) 0.00 km UNKNOWN
T3020194 RS41 2023-02-24 01:04:52 49.1441 13.0027 99 ° 15 km/h 1099 m -5.4 m/s 402.700 MHz Kdyně (CZ) 0.00 km UNKNOWN
T3010551 RS41 2023-02-23 12:46:41 49.277 12.4145 132 ° 11 km/h 678 m -8.1 m/s 402.700 MHz Schwandorf (DE) 0.00 km FOUND
T3010549 RS41 2023-02-23 00:51:19 49.2377 12.4006 8 ° 22 km/h 977 m -10.8 m/s 402.700 MHz Schwandorf (DE) 0.00 km FOUND
T3020228 RS41 2023-02-22 13:16:04 49.0729 12.7845 326 ° 7 km/h 1402 m -3.8 m/s 402.700 MHz Straubing (DE) 0.00 km UNKNOWN
T3020477 RS41 2023-02-22 01:18:12 48.5844 13.2802 273 ° 13 km/h 601 m -4.1 m/s 402.701 MHz Passau (DE) 0.00 km UNKNOWN
T3020195 RS41 2023-02-21 13:05:06 48.6588 13.532 72 ° 24 km/h 745 m -3.9 m/s 402.701 MHz Esternberg (AT) 0.00 km LOST
T3020253 RS41 2023-02-21 00:42:53 48.7513 13.7546 86 ° 22 km/h 834 m -5.8 m/s 402.700 MHz Ulrichsberg (AT) 0.00 km FOUND
T3020261 RS41 2023-02-20 12:59:03 47.9862 13.0854 83 ° 24 km/h 719 m -11.4 m/s 402.700 MHz Mattsee (AT) 0.00 km UNKNOWN
T3020081 RS41 2023-02-20 00:58:48 47.7441 13.2262 82 ° 13 km/h 1256 m -3.2 m/s 402.700 MHz Faistenau (AT) 0.00 km UNKNOWN
T3020494 RS41 2023-02-19 12:50:56 48.4561 14.1899 115 ° 63 km/h 1016 m -9.5 m/s 402.700 MHz Oberneukirchen (AT) 0.00 km FOUND
T3010906 RS41 2023-02-19 00:46:15 48.7504 14.4517 114 ° 19 km/h 777 m -4.0 m/s 402.700 MHz Kaplice (CZ) 0.00 km UNKNOWN
T3010903 RS41 2023-02-18 12:39:47 48.6655 14.4608 74 ° 50 km/h 883 m -10.5 m/s 402.700 MHz Kaplice (CZ) 0.00 km UNKNOWN
T3020073 RS41 2023-02-18 00:46:17 48.4277 13.9166 96 ° 50 km/h 620 m -3.0 m/s 402.700 MHz Altenfelden (AT) 0.00 km UNKNOWN
T3020079 RS41 2023-02-17 13:19:21 48.3505 13.9757 224 ° 9 km/h 325 m -2.8 m/s 402.700 MHz Hartkirchen (AT) 0.00 km FOUND
T3020264 RS41 2023-02-17 00:47:04 48.5398 13.1022 91 ° 65 km/h 1596 m -5.2 m/s 402.700 MHz Passau (DE) 0.00 km FOUND
T3020260 RS41 2023-02-16 13:01:23 49.1914 13.5719 97 ° 57 km/h 2248 m -6.2 m/s 402.700 MHz Sušice (CZ) 0.00 km UNKNOWN
T3020492 RS41 2023-02-16 01:19:52 48.9344 13.3819 117 ° 37 km/h 1308 m -3.0 m/s 402.700 MHz Vimperk (CZ) 0.00 km UNKNOWN
T3020498 RS41 2023-02-15 13:06:23 49.1368 13.1815 357 ° 19 km/h 1295 m -3.2 m/s 402.70 MHz Sušice (CZ) 0.00 km UNKNOWN
T3020493 RS41 2023-02-15 00:49:05 48.9511 12.7225 318 ° 17 km/h 896 m -5.9 m/s 402.700 MHz Straubing (DE) 0.00 km UNKNOWN
T3020497 RS41 2023-02-14 13:10:30 48.5806 12.7059 223 ° 6 km/h 677 m -3.9 m/s 402.700 MHz Straubing (DE) 0.00 km FOUND
T3020495 RS41 2023-02-14 01:14:59 48.4007 12.4266 346 ° 9 km/h 856 m -2.8 m/s 402.700 MHz Waldkraiburg (DE) 0.00 km FOUND
T3020487 RS41 2023-02-13 12:58:16 48.5797 12.5714 356 ° 6 km/h 1171 m -4.2 m/s 402.70 MHz Landshut (DE) 0.00 km FOUND
T3020478 RS41 2023-02-13 00:48:49 48.6304 12.32 257 ° 4 km/h 489 m -6.4 m/s 402.700 MHz Landshut (DE) 0.00 km UNKNOWN
T3040046 RS41 2023-02-12 12:57:46 48.319 11.9944 225 ° 26 km/h 1599 m -4.0 m/s 402.700 MHz Erding (DE) 0.00 km FOUND
T3020263 RS41 2023-02-12 00:44:26 48.194 12.0697 118 ° 17 km/h 792 m -2.9 m/s 402.700 MHz Erding (DE) 0.00 km UNKNOWN
T3020226 RS41 2023-02-11 12:52:42 48.2555 13.066 81 ° 15 km/h 395 m -3.8 m/s 402.700 MHz Sankt Peter (AT) 0.00 km FOUND
T3020496 RS41 2023-02-11 00:50:55 48.3732 12.9671 94 ° 26 km/h 683 m -3.5 m/s 402.700 MHz Braunau am Inn (AT) 0.00 km FOUND
T3020479 RS41 2023-02-10 12:53:01 48.4421 13.0487 82 ° 19 km/h 1060 m -3.9 m/s 402.700 MHz Braunau am Inn (AT) 0.00 km FOUND
T3040218 RS41 2023-02-10 00:54:43 48.8358 13.1983 109 ° 11 km/h 2149 m -3.7 m/s 402.70 MHz Deggendorf (DE) 0.00 km UNKNOWN
T3040048 RS41 2023-02-09 13:04:10 49.1104 12.6802 45 ° 24 km/h 1269 m -3.5 m/s 402.700 MHz Straubing (DE) 0.00 km UNKNOWN
T3040047 RS41 2023-02-09 01:04:23 49.1119 11.323 319 ° 41 km/h 1379 m -3.5 m/s 402.70 MHz Neumarkt in der Oberpfalz (DE) 0.00 km FOUND
T3020675 RS41 2023-02-08 13:00:26 48.8441 10.7436 296 ° 43 km/h 1520 m -3.4 m/s 402.70 MHz Dillingen (DE) 0.00 km UNKNOWN
T3040217 RS41 2023-02-08 00:39:01 48.822 11.2617 247 ° 81 km/h 3946 m -15.9 m/s 402.70 MHz Neuburg an der Donau (DE) 0.00 km FOUND
T3040044 RS41 2023-02-07 12:21:28 48.722 10.8724 232 ° 69 km/h 4584 m -12.3 m/s 402.700 MHz Neuburg an der Donau (DE) 0.00 km UNKNOWN
T3020084 RS41 2023-02-07 00:58:44 48.6598 10.654 274 ° 37 km/h 941 m -3.9 m/s 402.70 MHz Dillingen (DE) 0.00 km FOUND
T3020074 RS41 2023-02-06 12:51:23 47.8562 11.0808 129 ° 15 km/h 1305 m -3.9 m/s 402.70 MHz Weilheim in Oberbayern (DE) 0.00 km UNKNOWN
T3040045 RS41 2023-02-06 00:51:51 48.1672 11.5275 243 ° 19 km/h 633 m -3.0 m/s 402.700 MHz München (DE) 0.00 km FOUND
T3040043 RS41 2023-02-05 12:44:53 48.5824 12.5152 130 ° 13 km/h 1356 m -4.2 m/s 402.700 MHz Landshut (DE) 0.00 km FOUND
T3030597 RS41 2023-02-05 00:33:03 47.9998 12.4801 151 ° 11 km/h 1048 m -7.1 m/s 402.700 MHz Traunreut (DE) 0.00 km UNKNOWN
T3030083 RS41 2023-02-04 12:54:51 47.5941 12.9875 125 ° 39 km/h 1943 m -4.1 m/s 402.700 MHz Hallein (AT) 0.00 km UNKNOWN
T3030084 RS41 2023-02-04 00:49:21 47.1684 13.3701 92 ° 41 km/h 2275 m -3.7 m/s 402.700 MHz Grossarl (AT) 0.00 km UNKNOWN
T3030081 RS41 2023-02-03 12:32:15 47.9088 13.7589 82 ° 24 km/h 714 m -4.3 m/s 402.700 MHz Altmünster (AT) 0.00 km UNKNOWN
T3030019 RS41 2023-02-03 01:41:07 47.9213 13.6511 300 ° 4 km/h 906 m -1.6 m/s 402.700 MHz Lenzing (AT) 0.00 km UNKNOWN
T3020677 RS41 2023-02-02 12:46:01 47.5895 13.9061 126 ° 111 km/h 2483 m -5.8 m/s 402.700 MHz Bad Aussee (AT) 0.00 km UNKNOWN
T3040295 RS41 2023-02-02 00:29:12 48.399 14.2674 92 ° 39 km/h 880 m -5.3 m/s 402.700 MHz Lichtenhag (AT) 0.00 km UNKNOWN
T3030024 RS41 2023-02-01 12:22:11 48.5462 14.0962 96 ° 46 km/h 804 m -9.9 m/s 402.700 MHz Haslach an der Mühl (AT) 0.00 km LOST
T3030022 RS41 2023-02-01 00:59:33 48.3438 14.725 102 ° 31 km/h 674 m -2.8 m/s 402.700 MHz Tragwein (AT) 0.00 km UNKNOWN
T3030020 RS41 2023-01-31 12:42:22 48.185 13.6306 81 ° 6 km/h 653 m -6.9 m/s 402.700 MHz Haag am Hausruck (AT) 0.00 km FOUND
T3040251 RS41 2023-01-31 00:47:51 47.9736 13.2078 100 ° 57 km/h 907 m -3.9 m/s 402.700 MHz Köstendorf (AT) 0.00 km UNKNOWN
T3040222 RS41 2023-01-30 12:45:34 48.7296 14.6876 86 ° 76 km/h 1088 m -3.5 m/s 402.700 MHz Trhové Sviny (CZ) 0.00 km UNKNOWN
T3040221 RS41 2023-01-30 00:31:14 48.8502 12.5939 84 ° 30 km/h 825 m -8.2 m/s 402.700 MHz Straubing (DE) 0.00 km FOUND
T3030023 RS41 2023-01-29 12:57:26 48.4994 11.6025 233 ° 11 km/h 2038 m -3.6 m/s 402.700 MHz Pfaffenhofen an der Ilm (DE) 0.00 km FOUND
T3030082 RS41 2023-01-29 00:38:52 48.5849 10.9095 191 ° 17 km/h 715 m -7.8 m/s 402.700 MHz Aichach (DE) 0.00 km LOST
T3030090 RS41 2023-01-28 13:01:27 48.6463 11.0509 205 ° 13 km/h 937 m -3.4 m/s 402.700 MHz Neuburg an der Donau (DE) 0.00 km FOUND
T3030021 RS41 2023-01-28 00:26:06 48.9541 10.8746 236 ° 31 km/h 1120 m -3.7 m/s 402.700 MHz Neuburg an der Donau (DE) 0.00 km UNKNOWN
T3040220 RS41 2023-01-27 12:40:35 48.9924 10.8677 190 ° 9 km/h 1063 m -4.7 m/s 402.700 MHz Roth bei Nürnberg (DE) 0.00 km FOUND
T3040297 RS41 2023-01-27 00:19:37 49.0229 11.6301 151 ° 13 km/h 733 m -13.3 m/s 402.700 MHz Neumarkt in der Oberpfalz (DE) 0.00 km LOST
T3040219 RS41 2023-01-26 12:31:00 49.1659 11.485 210 ° 17 km/h 1380 m -5.1 m/s 402.701 MHz Neumarkt in der Oberpfalz (DE) 0.00 km LOST
T3040296 RS41 2023-01-26 00:56:26 49.1225 11.5793 302 ° 11 km/h 1752 m -3.2 m/s 402.700 MHz Neumarkt in der Oberpfalz (DE) 0.00 km LOST
T3040249 RS41 2023-01-25 12:40:26 49.3816 11.1396 265 ° 4 km/h 507 m -5.3 m/s 402.700 MHz Nürnberg (DE) 0.00 km FOUND
T3020755 RS41 2023-01-25 01:05:41 49.4004 11.3072 266 ° 19 km/h 856 m -4.8 m/s 402.700 MHz Lauf an der Pegnitz (DE) 0.00 km FOUND
T3020989 RS41 2023-01-24 13:06:08 49.1979 10.7916 230 ° 19 km/h 629 m -3.9 m/s 402.700 MHz Ansbach (DE) 0.00 km FOUND
T3040250 RS41 2023-01-24 00:41:30 49.3165 11.1642 249 ° 28 km/h 603 m -2.9 m/s 402.700 MHz Roth bei Nürnberg (DE) 0.00 km FOUND
T3030079 RS41 2023-01-23 12:39:39 49.5264 11.0516 172 ° 15 km/h 392 m -4.8 m/s 402.700 MHz Fürth (DE) 0.00 km FOUND
T3020756 RS41 2023-01-23 00:39:12 49.5123 11.2437 258 ° 17 km/h 493 m -4.0 m/s 402.700 MHz Lauf an der Pegnitz (DE) 0.00 km FOUND
T3030089 RS41 2023-01-22 12:51:08 49.4023 11.2544 217 ° 13 km/h 684 m -4.2 m/s 402.700 MHz Lauf an der Pegnitz (DE) 0.00 km FOUND
T3030087 RS41 2023-01-22 00:54:52 49.2917 11.769 242 ° 20 km/h 1078 m -3.6 m/s 402.700 MHz Amberg (DE) 0.00 km LOST
T3020801 RS41 2023-01-21 12:39:57 49.2672 11.6984 196 ° 35 km/h 1018 m -3.4 m/s 402.700 MHz Neumarkt in der Oberpfalz (DE) 0.00 km FOUND
T3040247 RS41 2023-01-21 00:27:24 49.4735 11.7791 213 ° 30 km/h 871 m -10.1 m/s 402.700 MHz Sulzbach-Rosenberg (DE) 0.00 km FOUND
T3030086 RS41 2023-01-20 12:44:25 49.6737 12.9763 160 ° 7 km/h 933 m -8.8 m/s 402.700 MHz Stříbro (CZ) 0.00 km FOUND
T3010858 RS41 2023-01-20 00:34:09 49.7166 13.0104 86 ° 20 km/h 568 m -3.5 m/s 402.700 MHz Stříbro (CZ) 0.00 km FOUND
T3010888 RS41 2023-01-19 12:37:58 50.0631 13.5467 90 ° 35 km/h 1016 m -7.4 m/s 402.700 MHz Rakovník (CZ) 0.00 km UNKNOWN
T3020636 RS41 2023-01-19 01:01:40 50.4974 13.9788 100 ° 20 km/h 1765 m -2.6 m/s 402.700 MHz Lovosice (CZ) 0.00 km UNKNOWN
T3010883 RS41 2023-01-18 12:53:33 50.5815 13.6088 113 ° 15 km/h 1665 m -2.7 m/s 402.700 MHz Litvínov (CZ) 0.00 km UNKNOWN
T3020634 RS41 2023-01-18 00:48:33 50.5553 13.3395 292 ° 22 km/h 1315 m -4.1 m/s 402.700 MHz Jirkov (CZ) 0.00 km UNKNOWN
T3020631 RS41 2023-01-17 12:23:26 50.0626 13.7441 62 ° 20 km/h 1317 m -13.3 m/s 402.700 MHz Rakovník (CZ) 0.00 km UNKNOWN
T3040089 RS41 2023-01-17 00:43:51 49.9565 13.6956 71 ° 74 km/h 1215 m -4.6 m/s 402.700 MHz Rakovník (CZ) 0.00 km UNKNOWN
T3040109 RS41 2023-01-16 12:25:07 50.0772 13.0801 325 ° 22 km/h 1036 m -6.2 m/s 402.700 MHz Horní Slavkov (CZ) 0.00 km UNKNOWN
T3040098 RS41 2023-01-16 00:30:12 49.9065 13.8007 89 ° 59 km/h 1260 m -8.0 m/s 402.700 MHz Hořovice (CZ) 0.00 km UNKNOWN
T3040087 RS41 2023-01-15 12:49:10 50.1556 14.5721 125 ° 48 km/h 319 m -3.7 m/s 402.700 MHz Brandýs nad Labem-Stará Boleslav (CZ) 0.00 km FOUND
T3040114 RS41 2023-01-15 01:07:17 49.0962 14.365 66 ° 67 km/h 1079 m -1.7 m/s 402.700 MHz Hluboká nad Vltavou (CZ) 0.00 km FOUND
T3040100 RS41 2023-01-14 12:34:02 48.7628 13.3407 5 ° 15 km/h 802 m -10.0 m/s 402.70 MHz Passau (DE) 0.00 km UNKNOWN
T3010876 RS41 2023-01-14 00:48:45 48.9705 13.7033 97 ° 67 km/h 1737 m -5.6 m/s 402.700 MHz Vimperk (CZ) 0.00 km UNKNOWN
T3010887 RS41 2023-01-13 12:16:23 49.6919 13.5933 75 ° 41 km/h 874 m -10.7 m/s 402.700 MHz Rokycany (CZ) 0.00 km FOUND
T3040112 RS41 2023-01-13 00:25:22 49.3988 13.7639 83 ° 43 km/h 960 m -11.0 m/s 402.700 MHz Blatná (CZ) 0.00 km FOUND
T3040086 RS41 2023-01-12 12:56:13 48.9557 13.9191 75 ° 85 km/h 1409 m -3.6 m/s 402.700 MHz Prachatice (CZ) 0.00 km FOUND
T3010872 RS41 2023-01-12 00:34:26 49.4843 13.8315 87 ° 48 km/h 820 m -6.6 m/s 402.700 MHz Blatná (CZ) 0.00 km LOST
T3010873 RS41 2023-01-11 12:51:36 49.5148 13.6932 46 ° 15 km/h 709 m -2.2 m/s 402.700 MHz Blatná (CZ) 0.00 km UNKNOWN
T3040204 RS41 2023-01-11 01:05:58 48.3789 13.5296 1 ° 9 km/h 447 m -3.9 m/s 402.700 MHz Andorf (AT) 0.00 km UNKNOWN
T3020802 RS41 2023-01-10 12:40:43 48.197 12.9954 100 ° 37 km/h 457 m -4.8 m/s 402.700 MHz Neukirchen an der Enknach (AT) 0.00 km FOUND
T3040203 RS41 2023-01-10 00:30:44 49.6488 13.2863 117 ° 50 km/h 1197 m -8.9 m/s 402.700 MHz Dobřany (CZ) 0.00 km FOUND
T3040085 RS41 2023-01-09 12:39:42 50.0428 13.5435 77 ° 39 km/h 1103 m -3.7 m/s 402.700 MHz Rakovník (CZ) 0.00 km UNKNOWN
T3010886 RS41 2023-01-09 00:40:52 50.1451 13.9307 356 ° 33 km/h 1931 m -6.2 m/s 402.700 MHz Nové Strašecí (CZ) 0.00 km UNKNOWN
T3030108 RS41 2023-01-08 12:17:27 50.0704 13.3149 65 ° 70 km/h 1483 m -8.7 m/s 402.700 MHz Podbořany (CZ) 0.00 km UNKNOWN
T3010885 RS41 2023-01-08 00:33:29 49.6236 13.8039 76 ° 33 km/h 1181 m -13.4 m/s 402.700 MHz Příbram (CZ) 0.00 km UNKNOWN
T3020632 RS41 2023-01-07 12:51:04 49.3507 13.6041 307 ° 26 km/h 884 m -5.8 m/s 402.700 MHz Horažďovice (CZ) 0.00 km UNKNOWN
T3010874 RS41 2023-01-07 00:46:42 49.0868 14.0341 109 ° 24 km/h 1138 m -3.3 m/s 402.700 MHz Prachatice (CZ) 0.00 km FOUND
T3020633 RS41 2023-01-06 12:49:27 49.1135 14.7774 75 ° 28 km/h 896 m -12.0 m/s 402.700 MHz Veselí nad Lužnicí (CZ) 0.00 km UNKNOWN
T3040113 RS41 2023-01-06 00:32:39 48.5792 13.4904 117 ° 39 km/h 978 m -4.2 m/s 402.700 MHz Passau (DE) 0.00 km UNKNOWN
T3020635 RS41 2023-01-05 12:32:38 48.4825 13.8926 111 ° 104 km/h 3324 m -3.8 m/s 402.700 MHz Altenfelden (AT) 0.00 km UNKNOWN
T3010882 RS41 2023-01-05 00:25:44 48.7771 14.0692 80 ° 69 km/h 1247 m -11.8 m/s 402.700 MHz Ulrichsberg (AT) 0.00 km UNKNOWN
T3010871 RS41 2023-01-04 12:51:15 48.9492 13.8633 66 ° 81 km/h 1453 m -4.1 m/s 402.700 MHz Prachatice (CZ) 0.00 km NEED ATTENTION
T3010875 RS41 2023-01-04 01:03:38 48.8889 13.8419 69 ° 30 km/h 1202 m -3.2 m/s 402.700 MHz Prachatice (CZ) 0.00 km UNKNOWN
T3010880 RS41 2023-01-03 12:58:34 49.6965 14.9748 103 ° 22 km/h 1262 m -5.0 m/s 402.700 MHz Vlašim (CZ) 0.00 km UNKNOWN
T3040097 RS41 2023-01-03 00:49:36 50.0628 14.9308 127 ° 39 km/h 733 m -6.8 m/s 402.700 MHz Český Brod (CZ) 0.00 km UNKNOWN
T3010884 RS41 2023-01-02 13:01:26 50.2398 14.7965 296 ° 17 km/h 353 m -4.1 m/s 402.700 MHz Lysá nad Labem (CZ) 0.00 km FOUND
T3040090 RS41 2023-01-02 00:58:24 49.7485 15.0299 58 ° 31 km/h 2359 m -8.1 m/s 402.700 MHz Vlašim (CZ) 0.00 km UNKNOWN
T3040088 RS41 2023-01-01 12:58:18 49.7771 14.8906 95 ° 46 km/h 796 m -3.7 m/s 402.700 MHz Vlašim (CZ) 0.00 km UNKNOWN
T3040110 RS41 2023-01-01 00:52:17 49.7021 15.1686 77 ° 67 km/h 1639 m -4.9 m/s 402.700 MHz Světlá nad Sázavou (CZ) 0.00 km UNKNOWN
T3050347 RS41 2022-12-31 12:45:14 49.4152 14.7128 95 ° 94 km/h 1956 m -9.9 m/s 402.700 MHz Sezimovo Ústí (CZ) 0.00 km FOUND
T3050405 RS41 2022-12-31 00:54:22 49.0561 14.8445 101 ° 67 km/h 1235 m -4.6 m/s 404.90 MHz Třeboň (CZ) 0.00 km UNKNOWN
T3050335 RS41 2022-12-30 13:16:29 49.0813 14.7357 344 ° 17 km/h 671 m -4.1 m/s 402.700 MHz Třeboň (CZ) 0.00 km UNKNOWN
T3050419 RS41 2022-12-30 00:48:02 50.0174 14.4059 75 ° 59 km/h 988 m -8.4 m/s 402.700 MHz Prague (CZ) 0.00 km UNKNOWN
T3050342 RS41 2022-12-29 12:40:31 50.0118 14.3052 84 ° 81 km/h 1813 m -4.4 m/s 402.70 MHz Rudná (CZ) 0.00 km FOUND
T3050334 RS41 2022-12-29 00:49:54 49.6051 14.7773 62 ° 52 km/h 1228 m -9.9 m/s 402.70 MHz Vlašim (CZ) 0.00 km FOUND
T3050344 RS41 2022-12-28 13:01:34 49.0102 14.421 68 ° 44 km/h 1159 m -1.7 m/s 402.70 MHz Hluboká nad Vltavou (CZ) 0.00 km UNKNOWN
T3050339 RS41 2022-12-28 00:57:25 49.057 14.114 59 ° 35 km/h 1079 m -3.7 m/s 402.70 MHz Prachatice (CZ) 0.00 km FOUND
T3030356 RS41 2022-12-27 12:41:22 48.9284 14.2623 99 ° 37 km/h 1050 m -5.1 m/s 402.70 MHz Český Krumlov (CZ) 0.00 km UNKNOWN
T3050404 RS41 2022-12-27 00:38:12 49.5073 14.9155 105 ° 76 km/h 2028 m -9.7 m/s 402.70 MHz Tábor (CZ) 0.00 km UNKNOWN
T3050406 RS41 2022-12-26 12:57:47 49.9682 15.4675 78 ° 72 km/h 2300 m -7.0 m/s 402.700 MHz Čáslav (CZ) 0.00 km FOUND
T3030462 RS41 2022-12-26 00:58:57 49.6633 15.112 84 ° 54 km/h 2645 m -5.3 m/s 402.70 MHz Vlašim (CZ) 0.00 km UNKNOWN
T3030355 RS41 2022-12-25 12:51:41 49.3845 14.5336 13 ° 20 km/h 1381 m -5.4 m/s 402.70 MHz Tábor (CZ) 0.00 km FOUND
T3050346 RS41 2022-12-25 00:52:02 49.1078 14.657 144 ° 20 km/h 721 m -4.5 m/s 402.70 MHz Veselí nad Lužnicí (CZ) 0.00 km UNKNOWN
T3050418 RS41 2022-12-24 12:43:58 48.9239 14.448 90 ° 37 km/h 1177 m -4.9 m/s 402.70 MHz České Budějovice (CZ) 0.00 km UNKNOWN
T3050403 RS41 2022-12-24 00:46:36 49.1105 14.521 120 ° 87 km/h 1307 m -7.3 m/s 402.70 MHz Hluboká nad Vltavou (CZ) 0.00 km UNKNOWN
T3050407 RS41 2022-12-23 12:55:38 48.9379 14.4478 108 ° 31 km/h 1118 m -3.6 m/s 402.70 MHz České Budějovice (CZ) 0.00 km UNKNOWN
T3050408 RS41 2022-12-23 00:47:31 49.1838 14.0408 82 ° 44 km/h 1202 m -11.0 m/s 402.70 MHz Vodňany (CZ) 0.00 km FOUND
T3050343 RS41 2022-12-22 12:46:25 49.5027 13.5636 73 ° 61 km/h 746 m -2.9 m/s 402.701 MHz Přeštice (CZ) 0.00 km UNKNOWN
T3050337 RS41 2022-12-22 01:06:06 49.7118 13.9822 68 ° 52 km/h 1077 m -2.8 m/s 402.700 MHz Příbram (CZ) 0.00 km UNKNOWN
T3050332 RS41 2022-12-21 12:45:10 49.9911 13.7419 52 ° 41 km/h 618 m -4.9 m/s 402.701 MHz Rakovník (CZ) 0.00 km UNKNOWN
T3030410 RS41 2022-12-21 00:49:32 49.6409 13.9296 75 ° 28 km/h 947 m -3.9 m/s 402.700 MHz Příbram (CZ) 0.00 km UNKNOWN
T3030413 RS41 2022-12-20 13:09:08 49.4021 14.3414 64 ° 30 km/h 1542 m -2.9 m/s 404.900 MHz Milevsko (CZ) 0.00 km UNKNOWN
T3050345 RS41 2022-12-20 00:48:21 49.4293 14.1734 345 ° 30 km/h 734 m -4.1 m/s 402.700 MHz Písek (CZ) 0.00 km FOUND
T3050420 RS41 2022-12-19 12:49:17 49.1817 14.084 54 ° 30 km/h 1038 m -7.2 m/s 402.70 MHz Vodňany (CZ) 0.00 km UNKNOWN
T3030411 RS41 2022-12-19 00:35:51 49.0615 13.9196 2 ° 24 km/h 1016 m -8.4 m/s 402.700 MHz Prachatice (CZ) 0.00 km UNKNOWN
T3030456 RS41 2022-12-18 13:08:02 48.7332 13.9871 316 ° 20 km/h 1035 m -4.8 m/s 402.70 MHz Ulrichsberg (AT) 0.00 km UNKNOWN
T3010855 RS41 2022-12-18 01:04:09 49.4154 14.0907 180 ° 4 km/h 995 m -3.2 m/s 402.701 MHz Písek (CZ) 0.00 km FOUND
T3020714 RS41 2022-12-17 12:34:18 49.5642 13.6977 129 ° 24 km/h 1730 m -11.4 m/s 402.70 MHz Blatná (CZ) 0.00 km UNKNOWN
T3050340 RS41 2022-12-17 00:33:35 50.0321 13.4873 186 ° 28 km/h 665 m -9.6 m/s 402.70 MHz Rakovník (CZ) 0.00 km UNKNOWN
T3030451 RS41 2022-12-16 12:55:57 50.1157 13.6016 222 ° 26 km/h 794 m -4.4 m/s 402.70 MHz Rakovník (CZ) 0.00 km UNKNOWN
T3050341 RS41 2022-12-16 00:47:38 50.1822 13.5311 260 ° 33 km/h 958 m -3.3 m/s 402.700 MHz Podbořany (CZ) 0.00 km UNKNOWN
T3020703 RS41 2022-12-15 13:28:25 49.8665 15.0145 112 ° 4 km/h 1805 m -3.9 m/s 402.70 MHz Vlašim (CZ) 0.00 km UNKNOWN
T3030452 RS41 2022-12-15 00:57:38 49.5536 14.5567 93 ° 19 km/h 1456 m -3.9 m/s 402.70 MHz Sedlčany (CZ) 0.00 km UNKNOWN
T3040213 RS41 2022-12-14 12:41:58 49.543 14.412 52 ° 41 km/h 2057 m -6.1 m/s 402.70 MHz Milevsko (CZ) 0.00 km UNKNOWN
T3030457 RS41 2022-12-14 00:39:48 49.1474 14.0791 305 ° 35 km/h 1069 m -7.4 m/s 402.700 MHz Vodňany (CZ) 0.00 km FOUND
T3030360 RS41 2022-12-13 12:54:47 48.8062 14.1501 261 ° 31 km/h 1037 m -3.5 m/s 402.70 MHz Český Krumlov (CZ) 0.00 km UNKNOWN
T3050331 RS41 2022-12-13 01:17:18 48.9386 13.6814 26 ° 15 km/h 1424 m -3.5 m/s 402.70 MHz Vimperk (CZ) 0.00 km UNKNOWN
T3050333 RS41 2022-12-12 13:04:26 49.1183 13.1727 108 ° 20 km/h 1363 m -3.3 m/s 402.70 MHz Sušice (CZ) 0.00 km UNKNOWN
T3030358 RS41 2022-12-12 00:55:35 49.2794 13.2508 100 ° 17 km/h 685 m -4.0 m/s 402.70 MHz Klatovy (CZ) 0.00 km UNKNOWN
T3030359 RS41 2022-12-11 12:32:57 49.8035 12.9146 149 ° 9 km/h 561 m -6.7 m/s 402.700 MHz Stříbro (CZ) 0.00 km FOUND
T3020625 RS41 2022-12-11 00:49:34 49.9925 13.0606 142 ° 13 km/h 795 m -3.3 m/s 402.701 MHz Horní Slavkov (CZ) 0.00 km UNKNOWN
T3010690 RS41 2022-12-10 12:48:57 49.8874 13.545 132 ° 2 km/h 457 m -3.4 m/s 402.700 MHz Třemošná (CZ) 0.00 km FOUND
T3030460 RS41 2022-12-10 00:50:04 49.6476 13.7595 158 ° 2 km/h 730 m -7.5 m/s 402.700 MHz Rokycany (CZ) 0.00 km UNKNOWN
T3030357 RS41 2022-12-09 13:10:13 49.7833 14.4938 48 ° 9 km/h 1873 m -3.8 m/s 402.70 MHz Týnec nad Sázavou (CZ) 0.00 km UNKNOWN
T3020626 RS41 2022-12-09 00:39:58 49.4353 14.1994 75 ° 13 km/h 1312 m -5.3 m/s 402.701 MHz Milevsko (CZ) 0.00 km UNKNOWN
T3020828 RS41 2022-12-08 12:54:52 49.3998 14.1913 66 ° 31 km/h 1479 m -4.0 m/s 402.701 MHz Písek (CZ) 0.00 km FOUND
T3010856 RS41 2022-12-08 01:02:53 49.2066 14.1027 93 ° 31 km/h 1455 m -6.4 m/s 402.701 MHz Vodňany (CZ) 0.00 km FOUND
T3010854 RS41 2022-12-07 13:05:08 48.8075 13.4301 101 ° 28 km/h 1113 m -3.3 m/s 402.70 MHz Passau (DE) 0.00 km UNKNOWN
T3030121 RS41 2022-12-07 00:43:15 48.8945 13.0789 108 ° 20 km/h 1287 m -5.1 m/s 402.70 MHz Deggendorf (DE) 0.00 km UNKNOWN
T3020987 RS41 2022-12-06 13:13:31 48.7984 13.1088 82 ° 37 km/h 1263 m -3.0 m/s 402.701 MHz Deggendorf (DE) 0.00 km UNKNOWN
T3030111 RS41 2022-12-06 00:41:29 49.2799 12.355 88 ° 19 km/h 567 m -7.5 m/s 402.70 MHz Schwandorf (DE) 0.00 km FOUND
T3010853 RS41 2022-12-05 12:48:05 49.7026 12.5965 36 ° 15 km/h 824 m -3.3 m/s 402.70 MHz Tachov (CZ) 0.00 km FOUND
T3030100 RS41 2022-12-05 00:51:23 49.558 12.3043 288 ° 22 km/h 693 m -5.6 m/s 402.701 MHz Weiden in der Oberpfalz (DE) 0.00 km FOUND
T3010857 RS41 2022-12-04 12:34:16 49.818 12.0752 244 ° 22 km/h 678 m -5.1 m/s 402.70 MHz Weiden in der Oberpfalz (DE) 0.00 km FOUND
T3020712 RS41 2022-12-04 01:05:56 49.73 12.7407 232 ° 11 km/h 559 m -8.3 m/s 402.701 MHz Tachov (CZ) 0.00 km FOUND
T3020713 RS41 2022-12-03 12:19:09 49.6864 12.5468 262 ° 24 km/h 1038 m -8.1 m/s 402.70 MHz Tachov (CZ) 0.00 km FOUND
T3030113 RS41 2022-12-03 00:55:13 49.4581 11.7416 311 ° 19 km/h 911 m -5.3 m/s 402.70 MHz Sulzbach-Rosenberg (DE) 0.00 km FOUND
T3030101 RS41 2022-12-02 12:32:15 49.598 11.5625 338 ° 15 km/h 1368 m -10.9 m/s 402.70 MHz Sulzbach-Rosenberg (DE) 0.00 km FOUND
T3030115 RS41 2022-12-02 01:10:27 49.6984 12.03 245 ° 30 km/h 666 m -2.8 m/s 402.70 MHz Weiden in der Oberpfalz (DE) 0.00 km UNKNOWN
T3030112 RS41 2022-12-01 12:49:35 49.4326 11.6371 288 ° 43 km/h 1889 m -4.1 m/s 402.700 MHz Sulzbach-Rosenberg (DE) 0.00 km FOUND
T3030599 RS41 2022-12-01 00:49:33 49.4511 11.5785 272 ° 13 km/h 950 m -4.0 m/s 402.70 MHz Sulzbach-Rosenberg (DE) 0.00 km FOUND
T3030114 RS41 2022-11-30 13:04:13 49.7237 11.7549 274 ° 15 km/h 716 m -2.9 m/s 404.90 MHz Sulzbach-Rosenberg (DE) 0.00 km UNKNOWN
T3030595 RS41 2022-11-30 00:35:57 49.7514 11.8011 284 ° 24 km/h 842 m -4.5 m/s 402.701 MHz Weiden in der Oberpfalz (DE) 0.00 km FOUND
T3030099 RS41 2022-11-29 12:50:36 49.8789 11.7462 303 ° 13 km/h 683 m -4.3 m/s 404.90 MHz Bayreuth (DE) 0.00 km FOUND
T3020627 RS41 2022-11-29 00:41:45 49.8786 12.407 234 ° 2 km/h 658 m -4.1 m/s 402.70 MHz Tachov (CZ) 0.00 km FOUND
T3040248 RS41 2022-11-28 13:07:39 49.7026 12.8875 49 ° 22 km/h 1117 m -2.6 m/s 402.70 MHz Stříbro (CZ) 0.00 km UNKNOWN
T3030102 RS41 2022-11-28 01:08:04 49.0944 13.0207 310 ° 30 km/h 1042 m -3.1 m/s 402.70 MHz Deggendorf (DE) 0.00 km UNKNOWN
T3020985 RS41 2022-11-27 13:04:55 48.4238 12.6326 288 ° 19 km/h 824 m -4.2 m/s 402.700 MHz Waldkraiburg (DE) 0.00 km UNKNOWN
T3030592 RS41 2022-11-27 00:34:53 48.5262 12.4401 303 ° 7 km/h 1089 m -10.3 m/s 402.70 MHz Landshut (DE) 0.00 km FOUND
T3020986 RS41 2022-11-26 12:42:25 48.6037 12.3796 119 ° 20 km/h 886 m -2.5 m/s 402.70 MHz Landshut (DE) 0.00 km UNKNOWN
T3020990 RS41 2022-11-26 01:07:15 49.0852 12.8641 132 ° 31 km/h 1253 m -3.4 m/s 402.700 MHz Deggendorf (DE) 0.00 km UNKNOWN
T3020988 RS41 2022-11-25 12:50:56 49.344 13.0479 83 ° 6 km/h 552 m -6.0 m/s 402.70 MHz Kdyně (CZ) 0.00 km UNKNOWN
T3020754 RS41 2022-11-25 00:57:46 48.8701 13.3409 107 ° 19 km/h 1129 m -4.0 m/s 402.700 MHz Deggendorf (DE) 0.00 km UNKNOWN
T3020752 RS41 2022-11-24 12:56:27 49.3399 13.0689 74 ° 22 km/h 643 m -4.6 m/s 402.700 MHz Kdyně (CZ) 0.00 km FOUND
T3020751 RS41 2022-11-24 00:33:40 49.4502 12.6917 56 ° 33 km/h 1064 m -13.6 m/s 402.70 MHz Domažlice (CZ) 0.00 km UNKNOWN
T3020753 RS41 2022-11-23 12:51:30 49.5817 12.4605 79 ° 13 km/h 1679 m -6.0 m/s 402.70 MHz Weiden in der Oberpfalz (DE) 0.00 km FOUND
T3030588 RS41 2022-11-23 00:54:10 49.8601 12.5019 360 ° 9 km/h 828 m -6.1 m/s 402.70 MHz Tachov (CZ) 0.00 km UNKNOWN
T3030590 RS41 2022-11-22 12:38:28 49.9484 12.4769 26 ° 26 km/h 4010 m -8.0 m/s 402.700 MHz Mariánské Lázně (CZ) 0.00 km UNKNOWN
T1320635 RS41 2022-11-22 00:26:20 49.6237 12.695 322 ° 15 km/h 1095 m -10.2 m/s 402.70 MHz Tachov (CZ) 0.00 km LOST
T1320290 RS41 2022-11-21 12:32:24 49.0616 13.1978 79 ° 30 km/h 1259 m -4.5 m/s 402.70 MHz Sušice (CZ) 0.00 km UNKNOWN
T1320803 RS41 2022-11-21 00:45:56 49.6082 13.1659 53 ° 28 km/h 515 m -3.0 m/s 402.70 MHz Holýšov (CZ) 0.00 km FOUND
T1320800 RS41 2022-11-20 12:29:23 49.3156 13.0336 51 ° 26 km/h 656 m -8.6 m/s 402.700 MHz Kdyně (CZ) 0.00 km FOUND
T1320631 RS41 2022-11-20 00:37:49 49.5062 13.0848 243 ° 2 km/h 641 m -3.5 m/s 402.70 MHz Holýšov (CZ) 0.00 km FOUND
T1320293 RS41 2022-11-19 12:49:03 49.5037 13.4978 271 ° 17 km/h 685 m -3.4 m/s 402.70 MHz Přeštice (CZ) 0.00 km UNKNOWN
T1320636 RS41 2022-11-19 00:50:05 49.4015 13.7413 212 ° 7 km/h 1043 m -4.3 m/s 402.700 MHz Horažďovice (CZ) 0.00 km UNKNOWN
T1320299 RS41 2022-11-18 12:34:39 49.4607 13.1377 126 ° 30 km/h 3070 m -15.0 m/s 402.700 MHz Kdyně (CZ) 0.00 km FOUND
T1310848 RS41 2022-11-18 00:28:08 49.5294 13.4665 90 ° 22 km/h 724 m -13.3 m/s 402.700 MHz Přeštice (CZ) 0.00 km UNKNOWN
T1310314 RS41 2022-11-17 12:23:51 49.5219 13.7034 312 ° 26 km/h 823 m -8.2 m/s 402.700 MHz Blatná (CZ) 0.00 km UNKNOWN
T1310849 RS41 2022-11-17 00:50:53 48.855 13.8381 97 ° 20 km/h 1172 m -4.1 m/s 402.700 MHz Ulrichsberg (AT) 0.00 km UNKNOWN
T1310318 RS41 2022-11-16 12:43:08 49.6502 13.0059 50 ° 7 km/h 547 m -5.0 m/s 402.700 MHz Holýšov (CZ) 0.00 km FOUND
T1320801 RS41 2022-11-16 01:01:47 49.3265 12.9847 269 ° 15 km/h 484 m -3.3 m/s 402.700 MHz Kdyně (CZ) 0.00 km UNKNOWN
T1320632 RS41 2022-11-15 12:37:08 49.3776 12.3786 278 ° 17 km/h 875 m -10.7 m/s 402.700 MHz Schwandorf (DE) 0.00 km UNKNOWN
T1310613 RS41 2022-11-15 01:06:00 49.9035 12.3782 23 ° 30 km/h 771 m -3.4 m/s 402.700 MHz Cheb (CZ) 0.00 km LOST
T1310317 RS41 2022-11-14 12:43:10 50.2261 11.5233 3 ° 30 km/h 983 m -7.2 m/s 402.70 MHz Kulmbach (DE) 0.00 km FOUND
T1330296 RS41 2022-11-14 00:55:26 49.7854 10.4869 309 ° 46 km/h 601 m -4.3 m/s 402.701 MHz Kitzingen (DE) 0.00 km FOUND
T1320732 RS41 2022-11-13 13:14:52 49.6964 10.3316 265 ° 20 km/h 423 m -3.9 m/s 402.70 MHz Kitzingen (DE) 0.00 km FOUND
T1310851 RS41 2022-11-13 01:06:38 49.7008 10.8853 294 ° 13 km/h 462 m -2.7 m/s 402.701 MHz Herzogenaurach (DE) 0.00 km FOUND
T1310842 RS41 2022-11-12 13:07:30 49.6842 11.1467 202 ° 7 km/h 426 m -3.1 m/s 402.70 MHz Erlangen (DE) 0.00 km FOUND
T1320731 RS41 2022-11-12 01:09:21 49.5444 11.2477 349 ° 7 km/h 503 m -4.0 m/s 402.700 MHz Lauf an der Pegnitz (DE) 0.00 km FOUND
T1320729 RS41 2022-11-11 13:20:12 49.0492 11.1465 342 ° 13 km/h 687 m -3.9 m/s 402.70 MHz Roth bei Nürnberg (DE) 0.00 km FOUND
T1310646 RS41 2022-11-11 00:59:17 48.6912 11.6127 260 ° 2 km/h 443 m -5.6 m/s 402.700 MHz Ingolstadt (DE) 0.00 km LOST
T1330182 RS41 2022-11-10 12:42:40 48.7154 12.1147 95 ° 24 km/h 1358 m -14.0 m/s 402.700 MHz Landshut (DE) 0.00 km UNKNOWN
T1330896 RS41 2022-11-10 00:44:41 49.7448 13.3962 45 ° 9 km/h 383 m -4.1 m/s 402.700 MHz Plzeň (CZ) 0.00 km FOUND
T1310313 RS41 2022-11-09 12:49:59 49.8279 13.4845 6 ° 11 km/h 463 m -8.3 m/s 402.700 MHz Třemošná (CZ) 0.00 km FOUND
T1321028 RS41 2022-11-09 00:55:58 49.8041 13.2231 75 ° 6 km/h 538 m -3.4 m/s 402.70 MHz Nýřany (CZ) 0.00 km UNKNOWN
T1321027 RS41 2022-11-08 12:45:21 49.6171 13.1459 256 ° 2 km/h 469 m -7.8 m/s 402.70 MHz Holýšov (CZ) 0.00 km FOUND
T1321029 RS41 2022-11-08 00:57:36 49.2499 13.328 26 ° 20 km/h 903 m -4.9 m/s 402.700 MHz Sušice (CZ) 0.00 km UNKNOWN
T1310841 RS41 2022-11-07 13:03:03 49.3566 13.525 85 ° 19 km/h 761 m -3.3 m/s 402.70 MHz Horažďovice (CZ) 0.00 km UNKNOWN
T3020314 RS41 2022-11-07 00:39:16 49.7174 13.1798 41 ° 6 km/h 433 m -6.9 m/s 402.70 MHz Nýřany (CZ) 0.00 km UNKNOWN
T3010553 RS41 2022-11-06 12:50:46 49.1373 12.8426 356 ° 20 km/h 1688 m -4.0 m/s 402.700 MHz Kdyně (CZ) 0.00 km UNKNOWN
T1320446 RS41 2022-11-06 00:56:25 48.8356 12.5912 37 ° 15 km/h 2226 m -8.4 m/s 402.700 MHz Straubing (DE) 0.00 km UNKNOWN
T1320249 RS41 2022-11-05 12:51:22 48.9738 12.464 146 ° 6 km/h 1016 m -9.6 m/s 402.700 MHz Straubing (DE) 0.00 km UNKNOWN
T1310647 RS41 2022-11-05 00:55:02 49.4784 12.6051 118 ° 24 km/h 955 m -7.1 m/s 402.700 MHz Domažlice (CZ) 0.00 km UNKNOWN
T1310644 RS41 2022-11-04 12:49:17 49.9763 12.5238 169 ° 24 km/h 912 m -4.6 m/s 402.700 MHz Mariánské Lázně (CZ) 0.00 km NEED ATTENTION
T1310850 RS41 2022-11-04 00:51:12 49.8706 13.229 231 ° 11 km/h 587 m -8.6 m/s 402.70 MHz Třemošná (CZ) 0.00 km UNKNOWN
T1320633 RS41 2022-11-03 12:51:30 49.4873 13.2915 40 ° 30 km/h 1255 m -5.4 m/s 402.70 MHz Přeštice (CZ) 0.00 km FOUND
T1310643 RS41 2022-11-03 00:45:35 49.3576 13.2471 31 ° 2 km/h 506 m -4.9 m/s 402.700 MHz Klatovy (CZ) 0.00 km UNKNOWN
T1250553 RS41 2022-11-02 12:56:15 49.8522 14.1193 86 ° 48 km/h 942 m -3.7 m/s 402.700 MHz Dobříš (CZ) 0.00 km UNKNOWN
T1310847 RS41 2022-11-02 00:49:40 49.7581 13.6085 164 ° 11 km/h 469 m -3.3 m/s 402.70 MHz Rokycany (CZ) 0.00 km FOUND
T1250597 RS41 2022-11-01 12:59:17 50.0479 13.4255 52 ° 15 km/h 659 m -4.1 m/s 404.90 MHz Podbořany (CZ) 0.00 km UNKNOWN
T1310852 RS41 2022-11-01 01:11:02 49.537 13.4297 342 ° 13 km/h 644 m -3.8 m/s 402.70 MHz Přeštice (CZ) 0.00 km UNKNOWN
T1310648 RS41 2022-10-31 12:44:49 49.8221 12.6216 306 ° 20 km/h 910 m -7.2 m/s 404.90 MHz Tachov (CZ) 0.00 km FOUND
T1310645 RS41 2022-10-31 01:21:39 49.5205 13.058 320 ° 2 km/h 573 m -4.6 m/s 402.70 MHz Holýšov (CZ) 0.00 km FOUND
T1310315 RS41 2022-10-30 14:08:48 49.4833 12.8311 21 ° 11 km/h 632 m -3.4 m/s 404.901 MHz Domažlice (CZ) 0.00 km FOUND
T1320298 RS41 2022-10-30 00:58:12 49.1629 13.0453 15 ° 26 km/h 1016 m -4.9 m/s 402.700 MHz Kdyně (CZ) 0.00 km UNKNOWN
T1320292 RS41 2022-10-29 12:52:28 49.0903 13.3241 79 ° 28 km/h 1346 m -6.0 m/s 402.701 MHz Sušice (CZ) 0.00 km UNKNOWN
T1320799 RS41 2022-10-29 00:51:01 49.1216 13.2214 58 ° 37 km/h 1429 m -6.5 m/s 402.700 MHz Sušice (CZ) 0.00 km UNKNOWN
T1320634 RS41 2022-10-28 13:01:06 49.0809 13.1736 66 ° 22 km/h 1343 m -2.5 m/s 404.90 MHz Sušice (CZ) 0.00 km UNKNOWN
T1330096 RS41 2022-10-28 00:52:39 49.2644 13.2876 50 ° 17 km/h 856 m -5.4 m/s 402.70 MHz Klatovy (CZ) 0.00 km UNKNOWN
T1320101 RS41 2022-10-27 12:56:27 49.3476 13.0027 43 ° 2 km/h 508 m -7.1 m/s 402.70 MHz Kdyně (CZ) 0.00 km UNKNOWN
T1320247 RS41 2022-10-27 01:20:51 49.1331 13.2856 68 ° 17 km/h 1305 m -4.9 m/s 402.701 MHz Sušice (CZ) 0.00 km UNKNOWN
T1110658 RS41 2022-10-26 12:56:53 49.31 13.3946 89 ° 43 km/h 1615 m -4.8 m/s 402.70 MHz Klatovy (CZ) 0.00 km UNKNOWN
T1330264 RS41 2022-10-26 01:10:47 49.1562 14.2381 48 ° 17 km/h 1487 m -10.0 m/s 402.70 MHz Vodňany (CZ) 0.00 km FOUND
T1330125 RS41 2022-10-25 12:54:43 49.2227 14.4431 100 ° 31 km/h 1451 m -7.3 m/s 402.70 MHz Týn nad Vltavou (CZ) 0.00 km FOUND
T1330263 RS41 2022-10-25 01:00:43 49.7685 14.342 101 ° 50 km/h 1169 m -4.4 m/s 402.700 MHz Mníšek pod Brdy (CZ) 0.00 km UNKNOWN
T1330101 RS41 2022-10-24 12:45:25 49.8109 13.7267 82 ° 137 km/h 11320 m -14.4 m/s 402.700 MHz Rokycany (CZ) 0.00 km UNKNOWN
T1330094 RS41 2022-10-24 02:13:36 50.1777 15.6792 108 ° 65 km/h 2457 m -5.5 m/s 402.700 MHz Hradec Králové (CZ) 0.00 km FOUND
T1330105 RS41 2022-10-24 01:38:05 49.9399 14.3017 97 ° 48 km/h 1171 m -5.1 m/s 404.90 MHz Černošice (CZ) 0.00 km UNKNOWN
T1330104 RS41 2022-10-23 13:23:52 49.6192 14.5819 354 ° 26 km/h 892 m -4.0 m/s 404.90 MHz Sedlčany (CZ) 0.00 km UNKNOWN
T1330103 RS41 2022-10-23 01:13:26 49.2605 14.444 38 ° 7 km/h 701 m -3.6 m/s 402.70 MHz Týn nad Vltavou (CZ) 0.00 km UNKNOWN
T1330108 RS41 2022-10-22 12:44:41 49.7308 13.8596 81 ° 26 km/h 801 m -1.8 m/s 402.70 MHz Příbram (CZ) 0.00 km UNKNOWN
T3020559 RS41 2022-10-22 01:23:07 49.9918 14.5949 63 ° 13 km/h 391 m -2.7 m/s 402.701 MHz Říčany (CZ) 0.00 km FOUND
T3020309 RS41 2022-10-21 13:14:29 50.0957 13.9119 279 ° 15 km/h 517 m -4.0 m/s 404.901 MHz Nové Strašecí (CZ) 0.00 km UNKNOWN
T1330069 RS41 2022-10-21 00:39:32 49.8049 13.3393 62 ° 11 km/h 1032 m -9.6 m/s 402.70 MHz Třemošná (CZ) 0.00 km FOUND
T3010555 RS41 2022-10-20 13:02:06 49.235 13.3131 306 ° 13 km/h 860 m -4.6 m/s 402.700 MHz Sušice (CZ) 0.00 km UNKNOWN
T3010133 RS41 2022-10-20 01:13:01 48.9333 13.4353 302 ° 17 km/h 1350 m -5.1 m/s 402.70 MHz Vimperk (CZ) 0.00 km UNKNOWN
T3010523 RS41 2022-10-19 12:49:38 48.7865 13.4502 67 ° 6 km/h 1165 m -11.5 m/s 402.70 MHz Passau (DE) 0.00 km UNKNOWN
T2950665 RS41 2022-10-19 01:08:56 48.762 13.7589 211 ° 11 km/h 874 m -3.8 m/s 402.70 MHz Ulrichsberg (AT) 0.00 km UNKNOWN
T3010134 RS41 2022-10-18 11:44:22 49.5973 12.8044 106 ° 87 km/h 16645 m 5.9 m/s 402.701 MHz Domažlice (CZ) 0.00 km UNKNOWN
T3010554 RS41 2022-10-18 01:07:19 49.6573 13.208 93 ° 4 km/h 460 m -5.3 m/s 402.700 MHz Nýřany (CZ) 0.00 km FOUND
T3010148 RS41 2022-10-17 12:44:43 49.7092 12.9011 266 ° 9 km/h 668 m -10.5 m/s 402.701 MHz Stříbro (CZ) 0.00 km FOUND
T1330477 RS41 2022-10-17 01:19:47 49.69 13.6726 3 ° 7 km/h 589 m -4.9 m/s 402.70 MHz Rokycany (CZ) 0.00 km FOUND
T1330476 RS41 2022-10-16 12:59:55 49.8183 13.6841 48 ° 17 km/h 737 m -5.6 m/s 402.70 MHz Rokycany (CZ) 0.00 km UNKNOWN
T1330075 RS41 2022-10-16 01:36:35 49.6671 14.2334 40 ° 33 km/h 601 m -4.4 m/s 402.70 MHz Dobříš (CZ) 0.00 km UNKNOWN
T1330115 RS41 2022-10-15 12:56:25 49.1592 14.1345 93 ° 41 km/h 1090 m -3.6 m/s 402.70 MHz Vodňany (CZ) 0.00 km FOUND
T3010145 RS41 2022-10-15 01:08:27 48.8532 13.5999 59 ° 43 km/h 1565 m -4.4 m/s 402.700 MHz Vimperk (CZ) 0.00 km UNKNOWN
T3010137 RS41 2022-10-14 12:55:00 48.6674 12.9903 71 ° 20 km/h 1503 m -8.2 m/s 402.70 MHz Deggendorf (DE) 0.00 km UNKNOWN
T3010563 RS41 2022-10-14 01:02:32 49.1033 12.7303 102 ° 17 km/h 988 m -8.8 m/s 402.70 MHz Straubing (DE) 0.00 km UNKNOWN
T3010557 RS41 2022-10-13 12:18:37 49.4089 12.7318 37 ° 20 km/h 971 m -11.1 m/s 402.700 MHz Domažlice (CZ) 0.00 km FOUND
T3010558 RS41 2022-10-13 00:28:04 49.1547 12.6285 358 ° 19 km/h 972 m -12.0 m/s 402.70 MHz Straubing (DE) 0.00 km UNKNOWN
T3010524 RS41 2022-10-12 13:00:58 49.1907 12.7931 184 ° 6 km/h 973 m -3.5 m/s 402.700 MHz Kdyně (CZ) 0.00 km UNKNOWN
T3010135 RS41 2022-10-12 00:44:30 49.3938 12.8777 201 ° 13 km/h 726 m -11.2 m/s 402.70 MHz Domažlice (CZ) 0.00 km FOUND
T3010147 RS41 2022-10-11 12:51:41 49.4184 13.0856 276 ° 13 km/h 738 m -5.3 m/s 402.701 MHz Kdyně (CZ) 0.00 km FOUND
T3020568 RS41 2022-10-11 01:13:34 49.374 13.2268 60 ° 11 km/h 510 m -6.2 m/s 402.700 MHz Klatovy (CZ) 0.00 km UNKNOWN
T3010556 RS41 2022-10-10 12:36:05 49.5993 12.6325 66 ° 19 km/h 852 m -13.6 m/s 402.70 MHz Tachov (CZ) 0.00 km FOUND
T3010149 RS41 2022-10-10 01:08:55 49.7213 12.6497 272 ° 22 km/h 781 m -11.2 m/s 402.70 MHz Tachov (CZ) 0.00 km FOUND
T3010150 RS41 2022-10-09 12:55:22 49.4891 12.5029 285 ° 28 km/h 1091 m -3.1 m/s 402.700 MHz Domažlice (CZ) 0.00 km UNKNOWN
T3020281 RS41 2022-10-09 01:06:48 49.2653 13.4307 202 ° 2 km/h 795 m -3.5 m/s 402.70 MHz Sušice (CZ) 0.00 km UNKNOWN
T3020341 RS41 2022-10-08 12:42:13 49.8981 13.403 96 ° 24 km/h 585 m -16.1 m/s 402.70 MHz Třemošná (CZ) 0.00 km UNKNOWN
T3020563 RS41 2022-10-08 02:12:44 50.1649 14.4185 76 ° 15 km/h 388 m -12.6 m/s 402.70 MHz Roztoky (CZ) 0.00 km UNKNOWN
T3020562 RS41 2022-10-07 12:51:17 49.7935 13.2217 210 ° 24 km/h 455 m -15.1 m/s 402.70 MHz Nýřany (CZ) 0.00 km FOUND
T3010564 RS41 2022-10-07 01:10:29 49.7897 13.2175 270 ° 9 km/h 512 m -3.0 m/s 402.700 MHz Nýřany (CZ) 0.00 km FOUND
T3020566 RS41 2022-10-06 12:45:48 50.1392 13.4135 81 ° 26 km/h 719 m -12.8 m/s 402.700 MHz Podbořany (CZ) 0.00 km UNKNOWN
T3020564 RS41 2022-10-06 00:29:30 49.9839 12.6196 101 ° 52 km/h 939 m -9.7 m/s 402.700 MHz Mariánské Lázně (CZ) 0.00 km FOUND
T3020469 RS41 2022-10-05 13:12:30 49.378 12.3842 21 ° 17 km/h 824 m -2.3 m/s 402.70 MHz Schwandorf (DE) 0.00 km UNKNOWN
T3020565 RS41 2022-10-05 00:31:36 48.8462 12.0017 330 ° 22 km/h 538 m -10.6 m/s 404.90 MHz Regensburg (DE) 0.00 km FOUND
T3020035 RS41 2022-10-04 13:21:10 48.5414 12.3824 347 ° 6 km/h 797 m -4.1 m/s 402.700 MHz Landshut (DE) 0.00 km UNKNOWN
T3020560 RS41 2022-10-04 00:34:51 48.2626 12.4372 196 ° 6 km/h 692 m -8.4 m/s 402.700 MHz Waldkraiburg (DE) 0.00 km UNKNOWN
T3040427 RS41 2022-10-03 00:42:35 48.4332 13.6529 109 ° 20 km/h 581 m -9.1 m/s 402.700 MHz Sankt Florian am Inn (AT) 0.00 km UNKNOWN
T3020340 RS41 2022-10-02 12:57:24 48.9753 14.483 99 ° 31 km/h 1225 m -12.4 m/s 402.700 MHz České Budějovice (CZ) 0.00 km UNKNOWN
T3020328 RS41 2022-10-02 00:36:17 48.7538 14.2137 103 ° 59 km/h 1074 m -10.1 m/s 402.700 MHz Český Krumlov (CZ) 0.00 km UNKNOWN
T3020280 RS41 2022-10-01 13:00:25 49.6347 14.1104 61 ° 43 km/h 685 m -8.0 m/s 402.700 MHz Příbram (CZ) 0.00 km UNKNOWN
T3020338 RS41 2022-10-01 00:59:22 49.4213 13.0197 353 ° 17 km/h 585 m -5.4 m/s 402.700 MHz Kdyně (CZ) 0.00 km FOUND
T3020325 RS41 2022-09-30 12:54:23 50.0554 13.0264 344 ° 9 km/h 842 m -6.6 m/s 402.700 MHz Horní Slavkov (CZ) 0.00 km UNKNOWN
T1330462 RS41 2022-09-30 00:52:00 50.1188 12.8268 320 ° 9 km/h 972 m -10.7 m/s 402.700 MHz Horní Slavkov (CZ) 0.00 km FOUND
T1330117 RS41 2022-09-29 12:53:23 50.0201 13.1013 101 ° 6 km/h 855 m -4.3 m/s 402.700 MHz Horní Slavkov (CZ) 0.00 km UNKNOWN
T1251202 RS41 2022-09-29 00:35:19 49.8444 13.2537 80 ° 13 km/h 545 m -11.0 m/s 402.700 MHz Třemošná (CZ) 0.00 km UNKNOWN
T1330297 RS41 2022-09-28 12:51:21 49.8542 14.026 43 ° 28 km/h 468 m -3.4 m/s 402.701 MHz Hořovice (CZ) 0.00 km UNKNOWN
T1251206 RS41 2022-09-28 00:13:26 49.5278 13.0329 34 ° 20 km/h 17301 m -16.5 m/s 402.70 MHz Holýšov (CZ) 0.00 km UNKNOWN
T1330295 RS41 2022-09-27 12:45:46 49.5485 13.3684 73 ° 30 km/h 539 m -6.0 m/s 402.701 MHz Přeštice (CZ) 0.00 km UNKNOWN
T1330459 RS41 2022-09-27 00:51:21 49.7983 13.0551 4 ° 22 km/h 575 m -12.8 m/s 402.70 MHz Stříbro (CZ) 0.00 km FOUND
T1330132 RS41 2022-09-26 12:54:13 49.5195 12.6518 50 ° 20 km/h 876 m -3.4 m/s 402.70 MHz Domažlice (CZ) 0.00 km FOUND
T1330071 RS41 2022-09-26 00:50:32 49.36 12.6059 92 ° 19 km/h 1024 m -4.4 m/s 402.700 MHz Domažlice (CZ) 0.00 km UNKNOWN
T1330097 RS41 2022-09-25 12:49:30 49.7 12.7035 44 ° 11 km/h 647 m -11.7 m/s 402.700 MHz Tachov (CZ) 0.00 km FOUND
T1330120 RS41 2022-09-25 00:45:29 49.6943 12.8684 74 ° 9 km/h 624 m -5.5 m/s 402.700 MHz Stříbro (CZ) 0.00 km FOUND
T1330102 RS41 2022-09-24 12:45:48 49.8211 13.0334 358 ° 13 km/h 750 m -6.8 m/s 402.70 MHz Stříbro (CZ) 0.00 km FOUND
T1330118 RS41 2022-09-24 00:50:55 49.6378 12.9327 340 ° 4 km/h 629 m -8.1 m/s 402.70 MHz Holýšov (CZ) 0.00 km FOUND
T1330072 RS41 2022-09-23 12:51:09 49.2707 12.5777 359 ° 4 km/h 727 m -4.5 m/s 402.700 MHz Domažlice (CZ) 0.00 km UNKNOWN
T1330475 RS41 2022-09-23 00:34:48 48.8761 12.0034 263 ° 15 km/h 546 m -13.5 m/s 402.700 MHz Regensburg (DE) 0.00 km FOUND
T1330458 RS41 2022-09-22 12:49:59 48.5899 11.9521 296 ° 13 km/h 677 m -7.3 m/s 402.70 MHz Landshut (DE) 0.00 km UNKNOWN
D17046744 DFM 2022-09-22 08:21:48 48.5191 11.6687 275 ° 9 km/h 587 m -4.2 m/s 403.450 MHz Pfaffenhofen an der Ilm (DE) 0.00 km FOUND
T1330460 RS41 2022-09-22 00:44:01 48.5758 12.0672 292 ° 19 km/h 713 m -8.5 m/s 402.700 MHz Landshut (DE) 0.00 km UNKNOWN
T1330461 RS41 2022-09-21 12:46:52 48.6401 12.2334 277 ° 13 km/h 802 m -12.8 m/s 402.700 MHz Landshut (DE) 0.00 km UNKNOWN
T1330093 RS41 2022-09-21 00:46:16 48.5417 12.4038 217 ° 6 km/h 1201 m -4.2 m/s 402.70 MHz Landshut (DE) 0.00 km UNKNOWN
T1330116 RS41 2022-09-20 12:51:19 48.445 13.1842 153 ° 35 km/h 639 m -10.1 m/s 402.701 MHz Schärding (AT) 0.00 km UNKNOWN
T1251017 RS41 2022-09-20 00:56:24 48.3283 13.3029 75 ° 19 km/h 380 m -5.1 m/s 404.900 MHz Altheim (AT) 0.00 km UNKNOWN
T1330092 RS41 2022-09-19 13:01:08 48.8245 13.0937 109 ° 33 km/h 1824 m -2.6 m/s 402.700 MHz Deggendorf (DE) 0.00 km UNKNOWN
T1330119 RS41 2022-09-19 00:57:47 49.0305 13.7413 115 ° 24 km/h 1255 m -9.0 m/s 402.70 MHz Vimperk (CZ) 0.00 km UNKNOWN
T1330099 RS41 2022-09-18 13:16:10 48.7069 13.9017 83 ° 44 km/h 867 m -3.3 m/s 402.700 MHz Ulrichsberg (AT) 0.00 km UNKNOWN
T1251015 RS41 2022-09-18 01:11:45 48.9733 13.462 112 ° 76 km/h 1591 m -6.6 m/s 402.700 MHz Vimperk (CZ) 0.00 km UNKNOWN
T1251018 RS41 2022-09-17 13:01:25 49.446 13.1788 101 ° 41 km/h 739 m -5.3 m/s 402.700 MHz Klatovy (CZ) 0.00 km LOST
T1330098 RS41 2022-09-17 00:54:02 49.6958 13.8416 112 ° 56 km/h 1210 m -5.1 m/s 402.700 MHz Příbram (CZ) 0.00 km UNKNOWN
T1330095 RS41 2022-09-16 12:50:53 49.6619 14.4594 80 ° 33 km/h 561 m -6.2 m/s 402.70 MHz Sedlčany (CZ) 0.00 km UNKNOWN
T1251204 RS41 2022-09-16 00:45:04 49.3469 13.984 106 ° 46 km/h 1087 m -10.6 m/s 402.700 MHz Strakonice (CZ) 0.00 km UNKNOWN
T1251019 RS41 2022-09-15 12:57:03 49.4785 13.5719 107 ° 15 km/h 783 m -4.4 m/s 402.700 MHz Horažďovice (CZ) 0.00 km UNKNOWN
T1251203 RS41 2022-09-15 01:01:46 49.5004 14.2141 85 ° 52 km/h 700 m -8.3 m/s 402.700 MHz Milevsko (CZ) 0.00 km UNKNOWN
T1251201 RS41 2022-09-14 12:36:49 49.4305 13.6915 108 ° 48 km/h 1391 m -10.6 m/s 402.700 MHz Horažďovice (CZ) 0.00 km UNKNOWN
T1330091 RS41 2022-09-14 01:17:36 49.1198 13.9546 126 ° 28 km/h 1170 m -3.9 m/s 402.700 MHz Prachatice (CZ) 0.00 km UNKNOWN
T1251205 RS41 2022-09-13 13:18:35 48.7293 13.7597 47 ° 13 km/h 912 m -4.2 m/s 402.700 MHz Ulrichsberg (AT) 0.00 km UNKNOWN
T1330185 RS41 2022-09-13 00:51:52 48.9393 12.8172 57 ° 9 km/h 1233 m -14.4 m/s 402.700 MHz Deggendorf (DE) 0.00 km UNKNOWN
T1330126 RS41 2022-09-12 12:59:40 48.7953 12.7622 125 ° 4 km/h 874 m -7.8 m/s 402.700 MHz Deggendorf (DE) 0.00 km FOUND
T1330261 RS41 2022-09-12 01:01:12 48.5741 12.6727 103 ° 11 km/h 1223 m -3.2 m/s 402.700 MHz Straubing (DE) 0.00 km UNKNOWN
T1330122 RS41 2022-09-11 12:48:56 48.8165 12.537 132 ° 30 km/h 903 m -9.3 m/s 402.70 MHz Straubing (DE) 0.00 km FOUND
T1330100 RS41 2022-09-11 00:58:12 49.1341 13.1034 115 ° 28 km/h 1276 m -5.6 m/s 402.700 MHz Kdyně (CZ) 0.00 km UNKNOWN
T1330124 RS41 2022-09-10 13:07:49 49.4254 13.0896 88 ° 28 km/h 739 m -3.8 m/s 402.70 MHz Kdyně (CZ) 0.00 km UNKNOWN
T1330260 RS41 2022-09-10 00:55:07 49.7524 13.1188 53 ° 28 km/h 633 m -5.5 m/s 402.70 MHz Nýřany (CZ) 0.00 km UNKNOWN
T1330403 RS41 2022-09-09 13:15:56 50.0876 13.5418 55 ° 35 km/h 689 m -6.4 m/s 402.700 MHz Rakovník (CZ) 0.00 km UNKNOWN
T1330404 RS41 2022-09-09 01:12:26 49.8639 13.8008 89 ° 6 km/h 557 m -4.4 m/s 402.70 MHz Hořovice (CZ) 0.00 km UNKNOWN
T1330262 RS41 2022-09-08 13:15:04 50.1713 13.0508 70 ° 48 km/h 1028 m -4.8 m/s 402.70 MHz Karlovy Vary (CZ) 0.00 km UNKNOWN
T1330259 RS41 2022-09-08 00:45:27 49.6582 12.8072 228 ° 7 km/h 603 m -11.6 m/s 402.70 MHz Stříbro (CZ) 0.00 km FOUND
T1330121 RS41 2022-09-07 13:00:39 49.6271 13.11 292 ° 7 km/h 656 m -12.5 m/s 402.701 MHz Holýšov (CZ) 0.00 km FOUND
T1330446 RS41 2022-09-07 00:55:11 49.3769 13.1732 54 ° 2 km/h 653 m -5.9 m/s 402.70 MHz Klatovy (CZ) 0.00 km FOUND
T1330184 RS41 2022-09-06 13:18:22 49.3573 13.9105 286 ° 11 km/h 983 m -3.9 m/s 402.701 MHz Blatná (CZ) 0.00 km FOUND
T1330407 RS41 2022-09-06 00:45:55 49.2975 13.1577 322 ° 4 km/h 569 m -9.7 m/s 402.70 MHz Kdyně (CZ) 0.00 km UNKNOWN
T1330406 RS41 2022-09-05 12:54:22 49.401 12.7832 249 ° 11 km/h 840 m -12.8 m/s 402.701 MHz Domažlice (CZ) 0.00 km FOUND
T1330405 RS41 2022-09-05 01:11:36 49.2502 12.8717 323 ° 7 km/h 697 m -12.0 m/s 402.70 MHz Kdyně (CZ) 0.00 km LOST
T1330283 RS41 2022-09-04 13:03:20 49.0814 12.4699 187 ° 7 km/h 719 m -4.7 m/s 402.700 MHz Straubing (DE) 0.00 km UNKNOWN
T1330408 RS41 2022-09-04 01:04:42 49.3805 12.8056 36 ° 6 km/h 858 m -6.1 m/s 402.700 MHz Domažlice (CZ) 0.00 km FOUND
T1330282 RS41 2022-09-03 12:50:55 49.6377 12.8739 40 ° 7 km/h 578 m -11.6 m/s 402.70 MHz Stříbro (CZ) 0.00 km UNKNOWN
T1330281 RS41 2022-09-03 00:37:04 49.5058 12.6715 294 ° 44 km/h 946 m -2.1 m/s 402.700 MHz Domažlice (CZ) 0.00 km FOUND
T1330457 RS41 2022-09-02 12:56:18 49.4937 12.4399 275 ° 31 km/h 974 m -9.7 m/s 402.70 MHz Weiden in der Oberpfalz (DE) 0.00 km FOUND
T1330280 RS41 2022-09-02 00:37:43 49.3725 12.335 298 ° 15 km/h 827 m -4.8 m/s 402.70 MHz Schwandorf (DE) 0.00 km UNKNOWN
T1330278 RS41 2022-09-01 12:51:00 49.4219 12.3843 264 ° 19 km/h 1236 m -13.5 m/s 402.70 MHz Schwandorf (DE) 0.00 km UNKNOWN
T1330449 RS41 2022-09-01 00:42:21 49.2165 12.8956 293 ° 9 km/h 1158 m -9.8 m/s 402.70 MHz Kdyně (CZ) 0.00 km UNKNOWN
T1330186 RS41 2022-08-31 12:53:29 49.5146 12.4219 245 ° 24 km/h 922 m -4.9 m/s 402.70 MHz Weiden in der Oberpfalz (DE) 0.00 km NEED ATTENTION
T1330181 RS41 2022-08-31 01:06:40 49.4808 12.7082 247 ° 35 km/h 894 m -10.5 m/s 402.70 MHz Domažlice (CZ) 0.00 km FOUND
T1330277 RS41 2022-08-30 12:45:29 49.4527 12.7529 254 ° 6 km/h 947 m -6.9 m/s 402.70 MHz Domažlice (CZ) 0.00 km FOUND
T1330448 RS41 2022-08-30 01:06:30 49.4627 12.7947 258 ° 9 km/h 721 m -3.5 m/s 402.70 MHz Domažlice (CZ) 0.00 km UNKNOWN
T1330236 RS41 2022-08-29 12:52:09 49.4519 12.3469 1 ° 6 km/h 860 m -8.1 m/s 404.900 MHz Schwandorf (DE) 0.00 km UNKNOWN
T1330237 RS41 2022-08-29 01:07:27 49.439 12.3616 140 ° 11 km/h 1183 m -13.8 m/s 402.70 MHz Schwandorf (DE) 0.00 km UNKNOWN
T1330450 RS41 2022-08-28 12:58:38 49.5544 12.2085 195 ° 20 km/h 665 m -6.3 m/s 402.70 MHz Weiden in der Oberpfalz (DE) 0.00 km UNKNOWN
T1330215 RS41 2022-08-28 01:00:10 49.7096 12.2267 183 ° 15 km/h 594 m -5.9 m/s 402.70 MHz Weiden in der Oberpfalz (DE) 0.00 km FOUND
T1330235 RS41 2022-08-27 12:59:09 49.6589 12.0707 284 ° 2 km/h 514 m -4.2 m/s 402.70 MHz Weiden in der Oberpfalz (DE) 0.00 km FOUND
T1330154 RS41 2022-08-27 01:18:31 49.5719 11.9128 156 ° 19 km/h 895 m -3.7 m/s 402.70 MHz Sulzbach-Rosenberg (DE) 0.00 km FOUND
T1320415 RS41 2022-08-26 12:53:04 49.5829 11.6266 220 ° 22 km/h 924 m -5.1 m/s 402.70 MHz Sulzbach-Rosenberg (DE) 0.00 km FOUND
T1320112 RS41 2022-08-26 00:57:33 49.4918 11.5671 300 ° 11 km/h 803 m -14.2 m/s 402.70 MHz Sulzbach-Rosenberg (DE) 0.00 km FOUND
T1330285 RS41 2022-08-25 12:55:44 49.5943 11.4664 253 ° 13 km/h 754 m -10.7 m/s 402.700 MHz Lauf an der Pegnitz (DE) 0.00 km FOUND
T1330286 RS41 2022-08-25 01:04:30 49.4826 11.3617 285 ° 31 km/h 739 m -8.8 m/s 402.700 MHz Lauf an der Pegnitz (DE) 0.00 km FOUND
T1320283 RS41 2022-08-24 13:04:36 49.1722 11.4872 229 ° 7 km/h 544 m -4.0 m/s 402.70 MHz Neumarkt in der Oberpfalz (DE) 0.00 km FOUND
T1330287 RS41 2022-08-24 00:53:11 49.0077 11.7574 301 ° 15 km/h 685 m -10.6 m/s 402.70 MHz Regensburg (DE) 0.00 km FOUND
T1330284 RS41 2022-08-23 12:50:11 49.2524 11.8727 153 ° 17 km/h 894 m -4.5 m/s 402.70 MHz Schwandorf (DE) 0.00 km LOST
T1330370 RS41 2022-08-23 00:59:44 49.5551 11.8984 206 ° 2 km/h 822 m -3.3 m/s 402.700 MHz Sulzbach-Rosenberg (DE) 0.00 km FOUND
T1320281 RS41 2022-08-22 12:53:13 49.5013 11.6666 236 ° 15 km/h 1030 m -14.2 m/s 402.70 MHz Sulzbach-Rosenberg (DE) 0.00 km FOUND
T1320277 RS41 2022-08-22 01:14:31 49.4065 11.7809 258 ° 17 km/h 878 m -4.0 m/s 402.700 MHz Amberg (DE) 0.00 km FOUND
T1330112 RS41 2022-08-21 12:55:49 49.369 12.0419 66 ° 15 km/h 552 m -4.2 m/s 402.700 MHz Schwandorf (DE) 0.00 km FOUND
T1330239 RS41 2022-08-21 01:16:41 49.4087 12.023 132 ° 20 km/h 638 m -5.4 m/s 402.700 MHz Schwandorf (DE) 0.00 km FOUND
T1330288 RS41 2022-08-20 13:05:15 49.5106 11.9423 130 ° 6 km/h 719 m -7.3 m/s 402.70 MHz Amberg (DE) 0.00 km FOUND
T1330183 RS41 2022-08-20 00:59:28 49.7481 11.8087 175 ° 24 km/h 831 m -10.8 m/s 402.70 MHz Weiden in der Oberpfalz (DE) 0.00 km FOUND
T1330128 RS41 2022-08-19 12:31:00 49.8708 11.4754 192 ° 26 km/h 808 m -6.3 m/s 404.900 MHz Bayreuth (DE) 0.00 km NEED ATTENTION
T1330214 RS41 2022-08-19 00:56:59 49.824 12.1426 220 ° 13 km/h 548 m -3.5 m/s 402.700 MHz Weiden in der Oberpfalz (DE) 0.00 km FOUND
T1330213 RS41 2022-08-18 12:55:00 49.9071 12.4847 279 ° 4 km/h 780 m -12.1 m/s 404.90 MHz Tachov (CZ) 0.00 km FOUND
T1330212 RS41 2022-08-18 00:33:55 50.0025 12.4535 272 ° 4 km/h 660 m -5.0 m/s 402.700 MHz Cheb (CZ) 0.00 km FOUND
T1330211 RS41 2022-08-17 12:38:00 49.8952 12.3273 92 ° 7 km/h 621 m -14.8 m/s 402.70 MHz Cheb (CZ) 0.00 km FOUND
T1330383 RS41 2022-08-17 00:39:25 49.6785 12.3143 328 ° 9 km/h 1090 m -13.4 m/s 402.701 MHz Weiden in der Oberpfalz (DE) 0.00 km NEED ATTENTION
T1330380 RS41 2022-08-16 12:50:56 49.5084 12.3918 34 ° 11 km/h 1064 m -9.5 m/s 402.70 MHz Weiden in der Oberpfalz (DE) 0.00 km FOUND
T1330197 RS41 2022-08-16 00:38:21 49.7337 12.327 38 ° 9 km/h 679 m -8.5 m/s 402.700 MHz Weiden in der Oberpfalz (DE) 0.00 km UNKNOWN
T1320282 RS41 2022-08-15 12:58:22 49.8656 11.9915 47 ° 4 km/h 663 m -3.3 m/s 404.901 MHz Weiden in der Oberpfalz (DE) 0.00 km FOUND
T1330156 RS41 2022-08-15 00:44:13 49.4788 12.1088 359 ° 24 km/h 733 m -7.0 m/s 402.700 MHz Schwandorf (DE) 0.00 km FOUND
T1330155 RS41 2022-08-14 12:43:09 49.4142 12.0045 270 ° 13 km/h 679 m -5.9 m/s 402.701 MHz Amberg (DE) 0.00 km FOUND
T1330852 RS41 2022-08-13 12:45:46 49.376 11.386 241 ° 7 km/h 1003 m -9.8 m/s 402.70 MHz Neumarkt in der Oberpfalz (DE) 0.00 km FOUND
T1330371 RS41 2022-08-13 01:00:40 49.3015 10.8497 279 ° 30 km/h 663 m -3.4 m/s 402.700 MHz Schwabach (DE) 0.00 km FOUND
T1330110 RS41 2022-08-12 12:50:21 48.8912 11.1003 249 ° 15 km/h 725 m -8.3 m/s 402.700 MHz Neuburg an der Donau (DE) 0.00 km NEED ATTENTION
T1330136 RS41 2022-08-12 00:51:54 48.535 10.8849 259 ° 41 km/h 631 m -12.9 m/s 402.70 MHz Neusäß (DE) 0.00 km UNKNOWN
T1330137 RS41 2022-08-11 12:53:42 48.9747 10.8345 242 ° 13 km/h 794 m -8.4 m/s 402.70 MHz Roth bei Nürnberg (DE) 0.00 km FOUND
T1330135 RS41 2022-08-11 00:51:22 49.0086 11.0065 281 ° 46 km/h 994 m -9.8 m/s 402.70 MHz Roth bei Nürnberg (DE) 0.00 km FOUND
T1330138 RS41 2022-08-10 12:47:15 49.1548 11.1972 273 ° 26 km/h 869 m -7.4 m/s 402.70 MHz Roth bei Nürnberg (DE) 0.00 km FOUND
T1320267 RS41 2022-08-10 00:49:07 49.2322 12.0776 270 ° 33 km/h 864 m -4.3 m/s 402.70 MHz Schwandorf (DE) 0.00 km FOUND
T1320111 RS41 2022-08-09 12:52:53 49.1922 12.0271 240 ° 19 km/h 673 m -1.9 m/s 402.70 MHz Schwandorf (DE) 0.00 km FOUND
T1330369 RS41 2022-08-09 00:49:49 49.0496 12.2116 282 ° 15 km/h 600 m -7.2 m/s 402.701 MHz Regensburg (DE) 0.00 km UNKNOWN
T1320110 RS41 2022-08-08 12:55:27 49.1255 12.1605 303 ° 7 km/h 653 m -10.2 m/s 402.700 MHz Regensburg (DE) 0.00 km FOUND
T1320114 RS41 2022-08-08 01:07:40 49.445 12.2012 268 ° 19 km/h 585 m -3.2 m/s 402.701 MHz Schwandorf (DE) 0.00 km FOUND
T1320109 RS41 2022-08-07 13:01:53 49.5971 12.2621 214 ° 13 km/h 625 m -5.0 m/s 402.700 MHz Weiden in der Oberpfalz (DE) 0.00 km FOUND
T1320113 RS41 2022-08-07 01:00:58 49.5704 12.6949 248 ° 24 km/h 761 m -2.8 m/s 402.700 MHz Domažlice (CZ) 0.00 km FOUND
T1320355 RS41 2022-08-06 12:53:41 49.7431 12.7056 336 ° 4 km/h 616 m -12.0 m/s 402.700 MHz Tachov (CZ) 0.00 km FOUND
T1320419 RS41 2022-08-06 00:46:50 50.05 13.0526 135 ° 19 km/h 950 m -8.4 m/s 402.70 MHz Horní Slavkov (CZ) 0.00 km UNKNOWN
T1320356 RS41 2022-08-05 12:57:19 50.0174 12.8327 129 ° 15 km/h 830 m -5.7 m/s 402.70 MHz Mariánské Lázně (CZ) 0.00 km UNKNOWN
T1330379 RS41 2022-08-05 00:59:57 49.8146 12.6077 11 ° 17 km/h 760 m -2.5 m/s 402.70 MHz Tachov (CZ) 0.00 km FOUND
T1330107 RS41 2022-08-04 12:36:31 49.6483 12.5067 30 ° 4 km/h 897 m -11.7 m/s 402.70 MHz Tachov (CZ) 0.00 km FOUND
T1330109 RS41 2022-08-04 01:09:22 49.5098 12.5114 346 ° 26 km/h 895 m -3.1 m/s 402.70 MHz Domažlice (CZ) 0.00 km FOUND
T1320416 RS41 2022-08-03 13:00:41 49.3371 12.2941 284 ° 11 km/h 624 m -1.9 m/s 402.700 MHz Schwandorf (DE) 0.00 km FOUND
T1320418 RS41 2022-08-03 00:45:57 49.0365 12.0036 300 ° 20 km/h 542 m -13.0 m/s 402.70 MHz Regensburg (DE) 0.00 km FOUND
T1320357 RS41 2022-08-02 12:57:03 48.8938 11.9232 127 ° 11 km/h 492 m -1.9 m/s 402.70 MHz Regensburg (DE) 0.00 km FOUND
T3020333 RS41 2022-08-02 01:12:54 49.2559 12.4549 260 ° 17 km/h 855 m -3.0 m/s 402.70 MHz Schwandorf (DE) 0.00 km UNKNOWN
T1320358 RS41 2022-08-01 12:59:11 49.2744 12.7188 91 ° 20 km/h 645 m -6.8 m/s 402.70 MHz Domažlice (CZ) 0.00 km UNKNOWN
T1330792 RS41 2022-08-01 00:54:53 49.2078 12.9107 67 ° 33 km/h 1183 m -7.4 m/s 402.70 MHz Kdyně (CZ) 0.00 km UNKNOWN
T1320420 RS41 2022-07-31 13:14:11 48.719 13.0446 109 ° 28 km/h 800 m -4.7 m/s 402.700 MHz Deggendorf (DE) 0.00 km UNKNOWN
T1330113 RS41 2022-07-31 00:27:36 48.9317 12.4971 149 ° 19 km/h 1069 m -14.6 m/s 402.701 MHz Straubing (DE) 0.00 km UNKNOWN
T1330332 RS41 2022-07-30 13:13:30 49.3461 12.5128 112 ° 17 km/h 920 m -3.6 m/s 402.701 MHz Schwandorf (DE) 0.00 km UNKNOWN
T1330299 RS41 2022-07-30 00:59:25 49.8886 12.6646 144 ° 7 km/h 612 m -8.4 m/s 402.700 MHz Planá (CZ) 0.00 km FOUND
T1320270 RS41 2022-07-29 13:14:00 49.8418 12.8426 275 ° 19 km/h 608 m -5.1 m/s 402.701 MHz Planá (CZ) 0.00 km FOUND
T1330300 RS41 2022-07-29 00:51:19 49.7244 12.5492 250 ° 28 km/h 849 m -2.3 m/s 402.700 MHz Tachov (CZ) 0.00 km FOUND
T1330298 RS41 2022-07-28 13:05:12 49.6813 12.8224 232 ° 22 km/h 614 m -7.2 m/s 402.70 MHz Stříbro (CZ) 0.00 km FOUND
T1330331 RS41 2022-07-28 00:47:46 49.3328 12.8525 199 ° 17 km/h 580 m -4.7 m/s 402.70 MHz Domažlice (CZ) 0.00 km FOUND
T1320417 RS41 2022-07-27 13:00:38 49.5483 13.0904 187 ° 20 km/h 575 m -3.3 m/s 402.701 MHz Holýšov (CZ) 0.00 km UNKNOWN
T1320269 RS41 2022-07-27 01:00:11 49.6596 13.084 220 ° 13 km/h 499 m -11.5 m/s 402.701 MHz Holýšov (CZ) 0.00 km FOUND
T1320228 RS41 2022-07-26 12:55:29 49.479 12.8464 112 ° 28 km/h 685 m -14.2 m/s 402.701 MHz Domažlice (CZ) 0.00 km FOUND
T1330334 RS41 2022-07-26 01:14:57 50.0269 13.7718 142 ° 39 km/h 514 m -5.6 m/s 402.701 MHz Rakovník (CZ) 0.00 km UNKNOWN
T1330333 RS41 2022-07-25 12:45:37 49.7632 12.9889 75 ° 13 km/h 650 m -1.9 m/s 402.70 MHz Stříbro (CZ) 0.00 km FOUND
T3020347 RS41 2022-07-25 00:34:13 49.2559 12.6552 317 ° 28 km/h 678 m -12.0 m/s 402.701 MHz Domažlice (CZ) 0.00 km FOUND
T3020029 RS41 2022-07-24 13:10:28 48.9358 12.6156 229 ° 6 km/h 1789 m -6.5 m/s 402.70 MHz Straubing (DE) 0.00 km UNKNOWN
T3010795 RS41 2022-07-24 00:43:46 49.3362 12.798 257 ° 9 km/h 1013 m -12.9 m/s 402.70 MHz Domažlice (CZ) 0.00 km UNKNOWN
T3020075 RS41 2022-07-23 12:51:01 49.6469 13.0093 96 ° 26 km/h 579 m -12.2 m/s 402.70 MHz Holýšov (CZ) 0.00 km FOUND
T3020076 RS41 2022-07-23 00:54:42 49.9072 12.6952 252 ° 2 km/h 630 m -9.0 m/s 402.700 MHz Planá (CZ) 0.00 km FOUND
T3010794 RS41 2022-07-22 12:45:06 49.503 12.5799 76 ° 13 km/h 952 m -8.5 m/s 402.70 MHz Domažlice (CZ) 0.00 km FOUND
T3010789 RS41 2022-07-22 00:43:50 49.3625 12.8482 43 ° 13 km/h 668 m -5.3 m/s 402.700 MHz Domažlice (CZ) 0.00 km FOUND
T3040616 RS41 2022-07-21 12:46:35 49.7844 12.3738 63 ° 17 km/h 856 m -7.2 m/s 402.70 MHz Tachov (CZ) 0.00 km UNKNOWN
T3020344 RS41 2022-07-21 01:14:03 49.8638 12.0263 80 ° 22 km/h 620 m -3.7 m/s 402.70 MHz Weiden in der Oberpfalz (DE) 0.00 km FOUND
T3020598 RS41 2022-07-20 13:00:48 49.6118 11.775 311 ° 17 km/h 715 m -3.9 m/s 402.70 MHz Sulzbach-Rosenberg (DE) 0.00 km FOUND
T3020345 RS41 2022-07-20 01:01:37 49.4019 11.7892 304 ° 20 km/h 731 m -14.3 m/s 402.70 MHz Amberg (DE) 0.00 km FOUND
T3020284 RS41 2022-07-19 12:28:35 49.1895 12.0889 330 ° 17 km/h 683 m -10.1 m/s 402.70 MHz Schwandorf (DE) 0.00 km FOUND
T3020307 RS41 2022-07-19 00:59:20 48.8466 11.8799 263 ° 7 km/h 463 m -7.9 m/s 402.70 MHz Regensburg (DE) 0.00 km LOST
T3020027 RS41 2022-07-18 12:54:13 48.696 12.0537 85 ° 2 km/h 560 m -8.1 m/s 402.70 MHz Landshut (DE) 0.00 km FOUND
T3020596 RS41 2022-07-18 01:06:59 48.9691 12.4161 302 ° 20 km/h 515 m -6.5 m/s 402.70 MHz Straubing (DE) 0.00 km UNKNOWN
T3020320 RS41 2022-07-17 13:01:05 48.7941 12.7213 111 ° 4 km/h 932 m -3.8 m/s 402.70 MHz Straubing (DE) 0.00 km UNKNOWN
T3020600 RS41 2022-07-17 01:12:02 48.7405 12.9548 254 ° 20 km/h 787 m -4.4 m/s 402.70 MHz Deggendorf (DE) 0.00 km UNKNOWN
T3020597 RS41 2022-07-16 12:33:00 49.0176 13.1682 117 ° 19 km/h 1601 m -10.5 m/s 402.70 MHz Deggendorf (DE) 0.00 km UNKNOWN
T3020599 RS41 2022-07-16 01:01:08 49.0026 13.5645 92 ° 20 km/h 1567 m -4.0 m/s 402.701 MHz Vimperk (CZ) 0.00 km UNKNOWN
T3010910 RS41 2022-07-15 12:43:00 49.1858 13.1773 154 ° 15 km/h 1167 m -8.6 m/s 402.70 MHz Klatovy (CZ) 0.00 km UNKNOWN
T3010909 RS41 2022-07-15 00:58:11 49.1755 13.8109 186 ° 33 km/h 1199 m -6.7 m/s 404.90 MHz Strakonice (CZ) 0.00 km UNKNOWN
T3010865 RS41 2022-07-14 12:35:36 49.4764 13.1815 58 ° 26 km/h 636 m -14.3 m/s 402.70 MHz Klatovy (CZ) 0.00 km FOUND
T3020290 RS41 2022-07-14 00:55:04 49.2228 13.5909 115 ° 37 km/h 1245 m -4.0 m/s 404.90 MHz Sušice (CZ) 0.00 km UNKNOWN
T3010907 RS41 2022-07-13 13:10:22 48.8958 12.7604 28 ° 7 km/h 811 m -5.5 m/s 402.70 MHz Straubing (DE) 0.00 km UNKNOWN
T3010912 RS41 2022-07-13 00:55:08 48.4951 11.7951 96 ° 9 km/h 622 m -3.0 m/s 402.700 MHz Freising (DE) 0.00 km UNKNOWN
T3020291 RS41 2022-07-12 12:58:55 48.3803 11.9231 141 ° 11 km/h 672 m -6.6 m/s 402.70 MHz Erding (DE) 0.00 km FOUND
T3010911 RS41 2022-07-12 00:58:51 48.5644 12.2418 136 ° 17 km/h 918 m -4.0 m/s 402.70 MHz Landshut (DE) 0.00 km UNKNOWN
T3020296 RS41 2022-07-11 13:04:18 48.8177 12.6197 114 ° 30 km/h 663 m -4.3 m/s 402.70 MHz Straubing (DE) 0.00 km UNKNOWN
T3020285 RS41 2022-07-11 01:04:23 48.4147 12.8474 120 ° 20 km/h 854 m -3.7 m/s 402.70 MHz Braunau am Inn (AT) 0.00 km UNKNOWN
T3020297 RS41 2022-07-10 12:46:27 48.6228 12.4078 131 ° 35 km/h 968 m -13.2 m/s 402.70 MHz Landshut (DE) 0.00 km FOUND
T3010866 RS41 2022-07-10 01:05:34 48.3994 12.5717 122 ° 28 km/h 1237 m -3.2 m/s 402.70 MHz Waldkraiburg (DE) 0.00 km UNKNOWN
T3020287 RS41 2022-07-09 12:49:47 48.9765 12.4922 90 ° 22 km/h 977 m -7.0 m/s 402.70 MHz Straubing (DE) 0.00 km UNKNOWN
T3020312 RS41 2022-07-09 00:54:11 48.6427 12.3098 92 ° 22 km/h 725 m -6.8 m/s 402.70 MHz Landshut (DE) 0.00 km UNKNOWN
T3020298 RS41 2022-07-08 13:02:47 48.4661 12.0882 147 ° 15 km/h 652 m -5.3 m/s 402.70 MHz Landshut (DE) 0.00 km UNKNOWN
T3020319 RS41 2022-07-08 00:59:20 47.9967 11.9908 117 ° 43 km/h 781 m -5.9 m/s 402.70 MHz Rosenheim (DE) 0.00 km UNKNOWN
T3020555 RS41 2022-07-07 13:05:41 49.1468 12.459 85 ° 26 km/h 773 m -4.5 m/s 402.700 MHz Regensburg (DE) 0.00 km FOUND
T3020026 RS41 2022-07-07 00:55:43 49.1072 12.7979 159 ° 11 km/h 1198 m -4.3 m/s 402.70 MHz Straubing (DE) 0.00 km UNKNOWN
T3020346 RS41 2022-07-06 12:43:01 49.1151 12.7758 110 ° 33 km/h 1341 m -3.9 m/s 402.700 MHz Straubing (DE) 0.00 km UNKNOWN
T3020295 RS41 2022-07-06 01:02:08 49.6159 13.2574 172 ° 11 km/h 456 m -7.2 m/s 402.700 MHz Dobřany (CZ) 0.00 km FOUND
T3010778 RS41 2022-07-05 12:53:23 49.5708 12.4882 134 ° 19 km/h 851 m -14.6 m/s 402.70 MHz Weiden in der Oberpfalz (DE) 0.00 km UNKNOWN
T3010835 RS41 2022-07-05 01:19:23 49.968 12.9208 205 ° 22 km/h 811 m -10.4 m/s 402.70 MHz Mariánské Lázně (CZ) 0.00 km UNKNOWN
T3010869 RS41 2022-07-04 12:48:50 49.7562 12.922 38 ° 22 km/h 604 m -12.7 m/s 402.700 MHz Stříbro (CZ) 0.00 km FOUND
T3010777 RS41 2022-07-04 00:58:05 49.8168 13.4847 35 ° 9 km/h 435 m -7.5 m/s 402.70 MHz Třemošná (CZ) 0.00 km LOST
T3010775 RS41 2022-07-03 12:48:35 49.7038 12.6637 52 ° 19 km/h 752 m -13.4 m/s 402.70 MHz Tachov (CZ) 0.00 km FOUND
T3010908 RS41 2022-07-03 01:13:07 49.9394 12.4167 311 ° 19 km/h 771 m -7.3 m/s 402.700 MHz Cheb (CZ) 0.00 km UNKNOWN
T3010861 RS41 2022-07-02 12:36:44 49.4857 12.4515 287 ° 13 km/h 1048 m -11.7 m/s 402.70 MHz Weiden in der Oberpfalz (DE) 0.00 km UNKNOWN
T3010868 RS41 2022-07-02 00:58:51 49.6248 12.7848 75 ° 19 km/h 641 m -12.2 m/s 402.700 MHz Stříbro (CZ) 0.00 km FOUND
T3010860 RS41 2022-07-01 12:51:00 50.3728 12.1464 77 ° 26 km/h 752 m -5.1 m/s 402.700 MHz Plauen (DE) 0.00 km FOUND
T3010863 RS41 2022-07-01 01:09:00 50.0167 11.8981 84 ° 20 km/h 909 m -4.1 m/s 402.70 MHz Bayreuth (DE) 0.00 km UNKNOWN
T3020311 RS41 2022-06-30 12:50:30 49.9933 11.8768 348 ° 11 km/h 928 m -11.4 m/s 402.70 MHz Bayreuth (DE) 0.00 km FOUND
T3010859 RS41 2022-06-30 01:00:57 49.753 11.729 15 ° 15 km/h 631 m -7.7 m/s 404.90 MHz Bayreuth (DE) 0.00 km FOUND
T3020299 RS41 2022-06-29 13:20:38 49.9342 11.8186 35 ° 26 km/h 5304 m -6.1 m/s 402.70 MHz Bayreuth (DE) 0.00 km UNKNOWN
T3020607 RS41 2022-06-29 00:49:33 49.952 11.8775 230 ° 15 km/h 799 m -4.1 m/s 402.70 MHz Bayreuth (DE) 0.00 km UNKNOWN
T3020300 RS41 2022-06-28 12:52:00 49.9409 12.3813 190 ° 7 km/h 744 m -8.4 m/s 402.70 MHz Cheb (CZ) 0.00 km FOUND
T3010870 RS41 2022-06-28 01:09:00 50.1405 12.1876 154 ° 9 km/h 662 m -7.5 m/s 402.70 MHz Aš (CZ) 0.00 km FOUND
T3010897 RS41 2022-06-27 12:51:00 49.9671 12.5441 145 ° 13 km/h 773 m -8.8 m/s 402.70 MHz Mariánské Lázně (CZ) 0.00 km FOUND
T3010867 RS41 2022-06-27 00:53:00 49.9244 12.2998 289 ° 24 km/h 647 m -7.3 m/s 402.70 MHz Cheb (CZ) 0.00 km FOUND
T3010776 RS41 2022-06-26 13:03:54 49.8162 12.4089 15 ° 13 km/h 713 m -2.9 m/s 402.70 MHz Tachov (CZ) 0.00 km FOUND
T3010864 RS41 2022-06-25 12:56:09 49.5608 12.1723 149 ° 6 km/h 662 m -5.8 m/s 402.70 MHz Weiden in der Oberpfalz (DE) 0.00 km FOUND
T3010862 RS41 2022-06-25 00:54:04 49.7217 11.9149 101 ° 41 km/h 792 m -6.4 m/s 402.70 MHz Weiden in der Oberpfalz (DE) 0.00 km UNKNOWN
T3020294 RS41 2022-06-24 13:09:00 50.0805 12.2043 323 ° 2 km/h 579 m -5.0 m/s 402.70 MHz Františkovy Lázně (CZ) 0.00 km FOUND
T3020609 RS41 2022-06-24 00:50:18 49.5698 12.0018 325 ° 22 km/h 858 m -8.2 m/s 402.70 MHz Weiden in der Oberpfalz (DE) 0.00 km FOUND
T3010896 RS41 2022-06-23 12:43:23 49.3543 12.0678 23 ° 13 km/h 500 m -3.8 m/s 402.70 MHz Schwandorf (DE) 0.00 km FOUND
T3010898 RS41 2022-06-23 01:03:15 49.2115 12.4156 92 ° 19 km/h 759 m -3.8 m/s 402.70 MHz Schwandorf (DE) 0.00 km LOST
T3020611 RS41 2022-06-22 12:52:16 49.4372 12.7911 39 ° 9 km/h 799 m -6.9 m/s 402.700 MHz Domažlice (CZ) 0.00 km FOUND
T3020608 RS41 2022-06-22 00:50:56 49.3624 13.285 297 ° 13 km/h 576 m -3.4 m/s 402.70 MHz Klatovy (CZ) 0.00 km UNKNOWN
T3020610 RS41 2022-06-21 12:43:58 49.2476 12.9739 324 ° 2 km/h 1022 m -8.8 m/s 402.700 MHz Kdyně (CZ) 0.00 km FOUND
T3020817 RS41 2022-06-21 01:02:04 49.1515 14.2064 171 ° 31 km/h 1287 m -3.5 m/s 402.700 MHz Vodňany (CZ) 0.00 km FOUND
T3020289 RS41 2022-06-20 12:55:22 49.9027 13.311 89 ° 20 km/h 848 m -5.7 m/s 402.70 MHz Třemošná (CZ) 0.00 km UNKNOWN
T3020785 RS41 2022-06-20 00:51:41 49.6658 12.5558 266 ° 20 km/h 781 m -11.3 m/s 402.70 MHz Tachov (CZ) 0.00 km FOUND
T3020782 RS41 2022-06-19 12:47:20 49.6417 12.5653 97 ° 19 km/h 835 m -12.5 m/s 402.70 MHz Tachov (CZ) 0.00 km FOUND
T3020784 RS41 2022-06-19 00:57:53 49.5263 12.4301 347 ° 24 km/h 992 m -12.0 m/s 402.70 MHz Weiden in der Oberpfalz (DE) 0.00 km FOUND
T3020781 RS41 2022-06-18 12:55:44 49.1912 12.2234 50 ° 19 km/h 705 m -4.5 m/s 402.70 MHz Schwandorf (DE) 0.00 km FOUND
T3020443 RS41 2022-06-18 01:09:49 48.6708 12.1269 32 ° 24 km/h 565 m -2.5 m/s 402.70 MHz Landshut (DE) 0.00 km UNKNOWN
T3020849 RS41 2022-06-17 12:48:49 48.5667 11.8427 139 ° 7 km/h 644 m -6.5 m/s 402.700 MHz Freising (DE) 0.00 km FOUND
T3020841 RS41 2022-06-17 01:13:34 48.64 12.8149 217 ° 4 km/h 847 m -6.4 m/s 402.70 MHz Deggendorf (DE) 0.00 km FOUND
T3020843 RS41 2022-06-16 12:53:15 48.876 12.8622 114 ° 22 km/h 742 m -5.4 m/s 402.70 MHz Deggendorf (DE) 0.00 km FOUND
T3020820 RS41 2022-06-16 00:53:27 49.1801 12.3578 31 ° 26 km/h 916 m -10.1 m/s 402.701 MHz Schwandorf (DE) 0.00 km FOUND
T3020786 RS41 2022-06-15 12:56:50 49.051 12.2529 308 ° 17 km/h 763 m -6.4 m/s 402.700 MHz Regensburg (DE) 0.00 km FOUND
T3020824 RS41 2022-06-15 01:13:58 49.1413 12.6794 26 ° 7 km/h 992 m -3.8 m/s 402.70 MHz Straubing (DE) 0.00 km LOST
T3020826 RS41 2022-06-14 12:37:33 49.0533 12.4615 211 ° 4 km/h 1010 m -13.3 m/s 402.70 MHz Straubing (DE) 0.00 km FOUND
T3020777 RS41 2022-06-14 00:55:49 48.957 12.6983 154 ° 4 km/h 996 m -3.0 m/s 402.700 MHz Straubing (DE) 0.00 km FOUND
T3020845 RS41 2022-06-13 12:42:07 49.228 13.3358 93 ° 31 km/h 957 m -10.1 m/s 402.700 MHz Sušice (CZ) 0.00 km UNKNOWN
T3020851 RS41 2022-06-13 00:56:14 49.5347 13.0948 50 ° 24 km/h 669 m -3.0 m/s 402.70 MHz Holýšov (CZ) 0.00 km FOUND
T3020775 RS41 2022-06-12 12:52:34 49.3508 12.6073 55 ° 11 km/h 1092 m -4.1 m/s 402.700 MHz Domažlice (CZ) 0.00 km UNKNOWN
T3020844 RS41 2022-06-12 00:48:17 49.1849 12.343 115 ° 2 km/h 1030 m -6.9 m/s 402.70 MHz Schwandorf (DE) 0.00 km FOUND
T3020848 RS41 2022-06-11 13:00:27 49.2047 12.2113 106 ° 11 km/h 636 m -3.2 m/s 402.70 MHz Schwandorf (DE) 0.00 km FOUND
T3020846 RS41 2022-06-11 00:53:09 49.1066 11.9987 195 ° 2 km/h 558 m -9.3 m/s 402.700 MHz Regensburg (DE) 0.00 km FOUND
T3020852 RS41 2022-06-10 12:54:20 48.843 11.7646 63 ° 13 km/h 448 m -10.2 m/s 402.70 MHz Ingolstadt (DE) 0.00 km FOUND
T3020819 RS41 2022-06-10 01:01:23 49.2789 11.9406 170 ° 26 km/h 814 m -4.7 m/s 402.70 MHz Schwandorf (DE) 0.00 km FOUND
T3020827 RS41 2022-06-09 13:00:48 49.6172 11.9289 119 ° 22 km/h 808 m -3.1 m/s 402.70 MHz Weiden in der Oberpfalz (DE) 0.00 km FOUND
T3020471 RS41 2022-06-09 01:22:06 49.8768 11.9777 62 ° 19 km/h 687 m -4.2 m/s 402.701 MHz Weiden in der Oberpfalz (DE) 0.00 km FOUND
T3020472 RS41 2022-06-08 12:44:00 49.5346 12.2686 14 ° 13 km/h 763 m -17.1 m/s 402.70 MHz Weiden in der Oberpfalz (DE) 0.00 km FOUND
T3020542 RS41 2022-06-08 01:02:26 49.6471 12.2099 99 ° 13 km/h 671 m -9.3 m/s 402.70 MHz Weiden in der Oberpfalz (DE) 0.00 km FOUND
T3020474 RS41 2022-06-07 13:00:25 49.9076 12.466 96 ° 15 km/h 731 m -2.4 m/s 402.70 MHz Tachov (CZ) 0.00 km FOUND
T3020543 RS41 2022-06-07 01:28:06 49.8675 13.0654 86 ° 13 km/h 660 m -3.9 m/s 402.70 MHz Stříbro (CZ) 0.00 km UNKNOWN
T3020541 RS41 2022-06-06 12:47:16 49.7376 12.5839 56 ° 20 km/h 842 m -13.7 m/s 402.70 MHz Tachov (CZ) 0.00 km FOUND
T3020470 RS41 2022-06-06 00:53:01 49.6939 12.3877 102 ° 31 km/h 728 m -2.0 m/s 402.700 MHz Weiden in der Oberpfalz (DE) 0.00 km NEED ATTENTION
T3010349 RS41 2022-06-05 12:37:02 49.7396 12.5538 288 ° 20 km/h 789 m -8.2 m/s 402.70 MHz Tachov (CZ) 0.00 km FOUND
T3020561 RS41 2022-06-05 01:13:42 49.3104 13.0469 305 ° 11 km/h 607 m -4.0 m/s 402.70 MHz Kdyně (CZ) 0.00 km UNKNOWN
T3010841 RS41 2022-06-04 12:58:13 49.5223 13.4463 137 ° 13 km/h 642 m -5.1 m/s 402.70 MHz Přeštice (CZ) 0.00 km UNKNOWN
T3010838 RS41 2022-06-04 00:45:19 49.5195 13.1768 39 ° 7 km/h 568 m -4.3 m/s 402.70 MHz Holýšov (CZ) 0.00 km FOUND
T3010585 RS41 2022-06-03 12:45:57 49.5281 13.1839 302 ° 17 km/h 575 m -2.6 m/s 402.70 MHz Holýšov (CZ) 0.00 km FOUND
T3020893 RS41 2022-06-03 00:46:59 49.4332 13.4586 273 ° 20 km/h 686 m -10.1 m/s 402.70 MHz Klatovy (CZ) 0.00 km UNKNOWN
T3020780 RS41 2022-06-02 12:48:11 49.4041 13.4303 114 ° 9 km/h 636 m -7.4 m/s 402.70 MHz Klatovy (CZ) 0.00 km UNKNOWN
T3020776 RS41 2022-06-02 01:14:46 49.6562 14.1683 156 ° 11 km/h 1190 m -3.9 m/s 402.70 MHz Příbram (CZ) 0.00 km UNKNOWN
T3020894 RS41 2022-06-01 12:50:37 49.5985 13.6292 80 ° 15 km/h 702 m -7.9 m/s 402.70 MHz Starý Plzenec (CZ) 0.00 km UNKNOWN
T3020473 RS41 2022-06-01 00:30:13 49.6377 13.8538 84 ° 26 km/h 1569 m -9.0 m/s 402.701 MHz Příbram (CZ) 0.00 km UNKNOWN
T3010895 RS41 2022-05-31 12:57:16 49.771 13.4432 32 ° 7 km/h 818 m -8.2 m/s 402.70 MHz Plzeň (CZ) 0.00 km UNKNOWN
T3020612 RS41 2022-05-07 12:34:18 49.4703 12.1091 266 ° 13 km/h 628 m -3.4 m/s 402.70 MHz Schwandorf (DE) 0.00 km FOUND
T2940475 RS41 2022-05-07 00:54:09 49.4082 12.1069 222 ° 9 km/h 500 m -8.4 m/s 402.70 MHz Schwandorf (DE) 0.00 km FOUND
T2940441 RS41 2022-05-06 12:29:36 49.5008 12.1448 213 ° 15 km/h 750 m -11.2 m/s 402.70 MHz Weiden in der Oberpfalz (DE) 0.00 km FOUND
T3020619 RS41 2022-05-06 00:52:16 49.5207 12.3564 262 ° 39 km/h 1159 m -4.5 m/s 402.70 MHz Weiden in der Oberpfalz (DE) 0.00 km FOUND
T3020036 RS41 2022-05-05 13:02:28 49.585 12.4122 121 ° 11 km/h 914 m -6.0 m/s 402.700 MHz Weiden in der Oberpfalz (DE) 0.00 km FOUND
T3010900 RS41 2022-05-05 00:49:23 49.5869 12.344 19 ° 15 km/h 765 m -3.2 m/s 402.70 MHz Weiden in der Oberpfalz (DE) 0.00 km NEED ATTENTION
T3020620 RS41 2022-05-04 12:53:25 49.6449 12.0266 265 ° 9 km/h 809 m -5.7 m/s 402.70 MHz Weiden in der Oberpfalz (DE) 0.00 km FOUND
T3020622 RS41 2022-05-04 00:28:27 49.4118 11.8 279 ° 26 km/h 875 m -4.6 m/s 402.70 MHz Amberg (DE) 0.00 km FOUND
T3010899 RS41 2022-05-03 12:35:08 49.4176 11.7212 185 ° 9 km/h 1042 m -8.6 m/s 402.70 MHz Sulzbach-Rosenberg (DE) 0.00 km FOUND
T3020623 RS41 2022-05-03 00:48:52 49.4351 11.8067 304 ° 15 km/h 755 m -3.5 m/s 402.700 MHz Amberg (DE) 0.00 km FOUND
T3020292 RS41 2022-05-02 12:45:41 49.4747 11.7797 233 ° 4 km/h 889 m -3.4 m/s 402.700 MHz Sulzbach-Rosenberg (DE) 0.00 km FOUND
T3020293 RS41 2022-05-02 00:26:19 49.3612 11.777 258 ° 2 km/h 885 m -5.2 m/s 402.70 MHz Amberg (DE) 0.00 km FOUND
T3020286 RS41 2022-05-01 12:38:42 49.4101 11.8361 213 ° 6 km/h 849 m -5.6 m/s 402.70 MHz Amberg (DE) 0.00 km FOUND
T3010029 RS41 2022-05-01 00:57:37 49.4981 12.015 229 ° 15 km/h 724 m -5.3 m/s 402.701 MHz Amberg (DE) 0.00 km FOUND
T3010028 RS41 2022-04-30 12:35:13 49.6669 12.155 229 ° 7 km/h 660 m -7.2 m/s 402.700 MHz Weiden in der Oberpfalz (DE) 0.00 km FOUND
T2940443 RS41 2022-04-30 00:58:23 49.5298 12.4086 277 ° 9 km/h 1013 m -3.8 m/s 402.70 MHz Weiden in der Oberpfalz (DE) 0.00 km FOUND
T2940431 RS41 2022-04-29 13:15:08 49.1014 12.3573 227 ° 9 km/h 710 m -5.2 m/s 402.70 MHz Regensburg (DE) 0.00 km FOUND
T2950815 RS41 2022-04-29 01:14:12 48.7308 12.1731 317 ° 11 km/h 619 m -3.6 m/s 402.70 MHz Landshut (DE) 0.00 km UNKNOWN
T3010026 RS41 2022-04-28 12:41:03 48.8281 11.8843 153 ° 6 km/h 448 m -3.9 m/s 402.700 MHz Regensburg (DE) 0.00 km FOUND
T3010027 RS41 2022-04-28 01:03:48 49.0233 12.052 226 ° 4 km/h 561 m -3.6 m/s 402.70 MHz Regensburg (DE) 0.00 km FOUND
T3010025 RS41 2022-04-27 12:45:52 49.2139 12.0691 255 ° 15 km/h 787 m -6.2 m/s 402.700 MHz Schwandorf (DE) 0.00 km FOUND
T2950796 RS41 2022-04-27 01:07:16 49.4109 11.8729 200 ° 11 km/h 830 m -4.1 m/s 402.700 MHz Amberg (DE) 0.00 km FOUND
T2950708 RS41 2022-04-26 12:36:00 49.7055 12.2916 260 ° 20 km/h 571 m -11.6 m/s 402.700 MHz Weiden in der Oberpfalz (DE) 0.00 km FOUND
T3010031 RS41 2022-04-26 00:26:28 49.5896 12.4266 335 ° 11 km/h 1316 m -11.9 m/s 402.70 MHz Weiden in der Oberpfalz (DE) 0.00 km FOUND
T3010086 RS41 2022-04-25 12:49:06 49.3678 12.7569 108 ° 13 km/h 920 m -3.4 m/s 402.700 MHz Domažlice (CZ) 0.00 km UNKNOWN
T3010032 RS41 2022-04-25 00:22:25 49.343 12.4265 115 ° 20 km/h 1070 m -4.2 m/s 402.70 MHz Schwandorf (DE) 0.00 km LOST
T2851264 RS41 2022-04-24 12:46:23 49.6457 11.623 29 ° 22 km/h 1023 m -10.8 m/s 402.700 MHz Sulzbach-Rosenberg (DE) 0.00 km FOUND
T2950798 RS41 2022-04-24 00:40:31 49.7578 12.2207 266 ° 24 km/h 694 m -6.9 m/s 402.700 MHz Weiden in der Oberpfalz (DE) 0.00 km FOUND
T3010036 RS41 2022-04-23 12:49:56 49.7591 11.8069 258 ° 30 km/h 565 m -6.5 m/s 402.700 MHz Weiden in der Oberpfalz (DE) 0.00 km FOUND
T3010035 RS41 2022-04-23 00:32:51 49.6476 12.0331 281 ° 33 km/h 760 m -8.3 m/s 402.70 MHz Weiden in der Oberpfalz (DE) 0.00 km FOUND
T2951032 RS41 2022-04-22 12:52:15 49.8088 12.0459 261 ° 37 km/h 747 m -6.5 m/s 402.700 MHz Weiden in der Oberpfalz (DE) 0.00 km FOUND
T2930581 RS41 2022-04-22 00:13:39 49.544 11.9714 258 ° 39 km/h 652 m -11.5 m/s 402.700 MHz Amberg (DE) 0.00 km FOUND
T2851261 RS41 2022-04-21 12:50:25 49.4929 11.1375 256 ° 24 km/h 429 m -4.0 m/s 402.70 MHz Nürnberg (DE) 0.00 km FOUND
T3010085 RS41 2022-04-21 00:57:09 49.1705 11.4376 243 ° 24 km/h 974 m -4.0 m/s 402.700 MHz Neumarkt in der Oberpfalz (DE) 0.00 km UNKNOWN
T3010030 RS41 2022-04-20 12:22:50 49.1655 11.6171 218 ° 9 km/h 772 m -5.3 m/s 402.70 MHz Neumarkt in der Oberpfalz (DE) 0.00 km FOUND
T2940434 RS41 2022-04-20 01:07:34 48.9136 11.5752 316 ° 4 km/h 549 m -3.3 m/s 402.700 MHz Ingolstadt (DE) 0.00 km FOUND
T2950809 RS41 2022-04-19 13:08:54 48.4874 11.7861 148 ° 28 km/h 572 m -5.0 m/s 402.700 MHz Freising (DE) 0.00 km UNKNOWN
T2940465 RS41 2022-04-19 00:44:50 48.4892 11.7647 83 ° 17 km/h 608 m -3.4 m/s 402.70 MHz Freising (DE) 0.00 km UNKNOWN
T2940436 RS41 2022-04-18 13:06:04 48.5517 11.1691 296 ° 7 km/h 511 m -4.0 m/s 402.700 MHz Aichach (DE) 0.00 km FOUND
T2940467 RS41 2022-04-18 00:32:57 48.7956 11.2332 250 ° 13 km/h 444 m -5.1 m/s 402.70 MHz Neuburg an der Donau (DE) 0.00 km FOUND
T2930661 RS41 2022-04-17 13:16:42 48.3937 10.9925 259 ° 28 km/h 599 m -4.1 m/s 402.70 MHz Augsburg (DE) 0.00 km FOUND
T2930662 RS41 2022-04-17 00:49:44 48.5534 11.1159 261 ° 15 km/h 540 m -6.7 m/s 402.70 MHz Aichach (DE) 0.00 km FOUND
T2940468 RS41 2022-04-16 12:39:03 48.5619 11.1198 222 ° 13 km/h 549 m -9.3 m/s 402.700 MHz Aichach (DE) 0.00 km FOUND
T3010087 RS41 2022-04-16 00:40:04 48.4568 12.5036 244 ° 15 km/h 1135 m -5.3 m/s 402.700 MHz Landshut (DE) 0.00 km FOUND
T2940433 RS41 2022-04-15 12:29:37 48.6954 12.8347 114 ° 22 km/h 1120 m -5.1 m/s 402.700 MHz Deggendorf (DE) 0.00 km FOUND
T2851266 RS41 2022-04-15 01:11:13 49.0971 12.8428 173 ° 15 km/h 1362 m -4.6 m/s 402.70 MHz Deggendorf (DE) 0.00 km UNKNOWN
T2851265 RS41 2022-04-14 12:55:29 49.4474 12.392 159 ° 9 km/h 1064 m -7.1 m/s 402.700 MHz Schwandorf (DE) 0.00 km FOUND
T2950793 RS41 2022-04-14 00:55:30 49.42 12.3314 41 ° 6 km/h 831 m -4.4 m/s 402.70 MHz Schwandorf (DE) 0.00 km FOUND
T2940437 RS41 2022-04-13 12:48:08 49.3927 12.1192 262 ° 9 km/h 436 m -6.2 m/s 402.700 MHz Schwandorf (DE) 0.00 km FOUND
T2940438 RS41 2022-04-13 01:07:44 49.2582 12.5019 8 ° 2 km/h 756 m -3.8 m/s 402.70 MHz Schwandorf (DE) 0.00 km UNKNOWN
T2940435 RS41 2022-04-12 12:57:58 49.1188 13.0652 26 ° 11 km/h 1266 m -3.3 m/s 402.70 MHz Kdyně (CZ) 0.00 km UNKNOWN
T3010621 RS41 2022-04-12 00:30:31 48.8722 13.0911 288 ° 24 km/h 1180 m -12.5 m/s 402.70 MHz Deggendorf (DE) 0.00 km UNKNOWN
T3020567 RS41 2022-04-11 12:52:54 48.4973 13.7235 282 ° 19 km/h 691 m -4.7 m/s 402.70 MHz Natternbach (AT) 0.00 km UNKNOWN
T3020569 RS41 2022-04-11 01:10:26 48.0963 14.0913 59 ° 22 km/h 477 m -4.1 m/s 402.70 MHz Sattledt (AT) 0.00 km FOUND
T3020570 RS41 2022-04-10 12:59:45 48.5062 13.7956 128 ° 33 km/h 789 m -3.2 m/s 402.700 MHz Sarleinsbach (AT) 0.00 km FOUND
T3020279 RS41 2022-04-10 00:50:46 49.1312 13.5646 110 ° 43 km/h 1247 m -4.2 m/s 402.700 MHz Sušice (CZ) 0.00 km UNKNOWN
T3010622 RS41 2022-04-09 12:54:18 49.5671 14.0553 107 ° 30 km/h 839 m -4.8 m/s 402.700 MHz Příbram (CZ) 0.00 km UNKNOWN
T3010604 RS41 2022-04-09 01:29:15 49.793 15.2608 77 ° 7 km/h 1093 m -4.8 m/s 402.70 MHz Čáslav (CZ) 0.00 km UNKNOWN
T3020377 RS41 2022-04-08 12:22:34 49.477 14.67 69 ° 33 km/h 849 m -6.7 m/s 402.70 MHz Tábor (CZ) 0.00 km FOUND
T3020440 RS41 2022-04-08 00:36:58 49.0756 14.9419 84 ° 35 km/h 562 m -4.2 m/s 402.70 MHz Jindřichŭv Hradec (CZ) 0.00 km FOUND
T3010619 RS41 2022-04-07 12:29:22 49.2802 13.9472 75 ° 93 km/h 2405 m -6.9 m/s 402.701 MHz Strakonice (CZ) 0.00 km FOUND
T3010620 RS41 2022-04-07 00:59:25 49.4727 13.9112 87 ° 46 km/h 1020 m -4.1 m/s 402.70 MHz Blatná (CZ) 0.00 km FOUND
T3010601 RS41 2022-04-06 12:52:16 49.3946 13.7314 64 ° 52 km/h 1172 m -3.6 m/s 402.70 MHz Horažďovice (CZ) 0.00 km UNKNOWN
T3020439 RS41 2022-04-06 00:48:35 49.0261 13.8565 87 ° 57 km/h 1359 m -3.1 m/s 402.700 MHz Vimperk (CZ) 0.00 km UNKNOWN
T3020277 RS41 2022-04-05 12:42:31 48.8955 14.0643 80 ° 65 km/h 1216 m -6.7 m/s 402.70 MHz Prachatice (CZ) 0.00 km UNKNOWN
T3020441 RS41 2022-04-05 01:00:18 48.5112 13.7784 90 ° 41 km/h 757 m -5.2 m/s 402.70 MHz Sarleinsbach (AT) 0.00 km UNKNOWN
T3010624 RS41 2022-04-04 12:51:24 48.5193 12.8643 60 ° 24 km/h 931 m -4.2 m/s 402.70 MHz Braunau am Inn (AT) 0.00 km FOUND
T3020442 RS41 2022-04-04 00:38:32 48.794 12.7364 111 ° 20 km/h 793 m -8.2 m/s 402.700 MHz Straubing (DE) 0.00 km FOUND
T3010596 RS41 2022-04-03 12:45:09 49.0789 12.926 111 ° 2 km/h 1330 m -5.8 m/s 402.70 MHz Deggendorf (DE) 0.00 km FOUND
T3010623 RS41 2022-04-03 01:02:09 49.0152 12.6288 206 ° 26 km/h 1155 m -3.7 m/s 402.70 MHz Straubing (DE) 0.00 km FOUND
T3010603 RS41 2022-04-02 12:12:59 49.3393 11.9368 202 ° 28 km/h 807 m -11.3 m/s 402.70 MHz Amberg (DE) 0.00 km FOUND
T3010598 RS41 2022-04-02 01:03:30 49.4442 12.4933 234 ° 52 km/h 1310 m -4.3 m/s 402.70 MHz Schwandorf (DE) 0.00 km FOUND
T3010595 RS41 2022-04-01 12:34:37 49.7318 12.5743 232 ° 26 km/h 844 m -3.2 m/s 402.70 MHz Tachov (CZ) 0.00 km FOUND
T3010606 RS41 2022-04-01 00:55:16 49.8932 13.4713 266 ° 39 km/h 903 m -3.2 m/s 402.70 MHz Třemošná (CZ) 0.00 km LOST
T3010605 RS41 2022-03-31 13:01:45 49.8101 14.0803 258 ° 19 km/h 757 m -4.2 m/s 404.90 MHz Dobříš (CZ) 0.00 km UNKNOWN
T2950477 RS41 2022-03-31 00:36:31 49.3514 14.0366 40 ° 4 km/h 1178 m -8.1 m/s 402.70 MHz Písek (CZ) 0.00 km UNKNOWN
T2950476 RS41 2022-03-30 12:39:31 49.5667 14.058 9 ° 11 km/h 756 m -5.2 m/s 402.70 MHz Příbram (CZ) 0.00 km UNKNOWN
T2950479 RS41 2022-03-30 00:37:34 49.0881 14.0375 88 ° 15 km/h 1381 m -6.9 m/s 402.70 MHz Prachatice (CZ) 0.00 km LOST
T3020082 RS41 2022-03-29 12:58:39 49.0514 13.8633 81 ° 35 km/h 1064 m -12.8 m/s 402.70 MHz Vimperk (CZ) 0.00 km UNKNOWN
T3020080 RS41 2022-03-29 00:50:42 48.8814 13.8611 92 ° 37 km/h 1217 m -3.7 m/s 402.70 MHz Prachatice (CZ) 0.00 km UNKNOWN
T3020072 RS41 2022-03-28 12:39:47 49.23 13.0344 47 ° 15 km/h 903 m -9.4 m/s 402.700 MHz Kdyně (CZ) 0.00 km UNKNOWN
T3020071 RS41 2022-03-28 01:14:08 48.9328 12.6401 316 ° 15 km/h 476 m -9.5 m/s 402.700 MHz Straubing (DE) 0.00 km FOUND
T2950475 RS41 2022-03-27 12:46:58 49.0292 12.2929 267 ° 2 km/h 669 m -11.4 m/s 402.700 MHz Regensburg (DE) 0.00 km UNKNOWN
T3020083 RS41 2022-03-27 00:42:52 48.9663 12.3698 253 ° 26 km/h 681 m -8.4 m/s 402.70 MHz Straubing (DE) 0.00 km FOUND
T3020068 RS41 2022-03-26 12:25:38 49.1628 11.9082 239 ° 7 km/h 586 m -12.6 m/s 402.70 MHz Regensburg (DE) 0.00 km FOUND
T2950549 RS41 2022-03-26 00:57:01 49.1201 12.1427 235 ° 26 km/h 534 m -4.6 m/s 402.70 MHz Regensburg (DE) 0.00 km FOUND
T2950478 RS41 2022-03-25 12:53:40 49.1933 12.475 219 ° 15 km/h 908 m -8.1 m/s 402.70 MHz Schwandorf (DE) 0.00 km FOUND
T3020069 RS41 2022-03-25 01:00:21 49.2669 12.5018 270 ° 26 km/h 834 m -3.2 m/s 402.700 MHz Schwandorf (DE) 0.00 km NEED ATTENTION
T2950480 RS41 2022-03-24 12:42:37 49.3891 12.3431 200 ° 2 km/h 1381 m -5.2 m/s 402.70 MHz Schwandorf (DE) 0.00 km FOUND
T3020067 RS41 2022-03-24 00:42:03 49.4186 12.2144 259 ° 13 km/h 617 m -9.5 m/s 402.70 MHz Schwandorf (DE) 0.00 km FOUND
T3020070 RS41 2022-03-23 18:43:08 49.5139 12.1441 165 ° 11 km/h 736 m -3.8 m/s 402.700 MHz Weiden in der Oberpfalz (DE) 0.00 km FOUND
T2950990 RS41 2022-03-23 12:42:53 49.5512 11.9811 263 ° 4 km/h 665 m -8.5 m/s 402.700 MHz Amberg (DE) 0.00 km FOUND
T2950550 RS41 2022-03-23 07:04:34 49.5863 11.8149 355 ° 4 km/h 802 m -3.2 m/s 402.70 MHz Sulzbach-Rosenberg (DE) 0.00 km FOUND
T2950541 RS41 2022-03-23 01:14:31 49.6855 11.7939 327 ° 19 km/h 911 m -5.9 m/s 402.70 MHz Sulzbach-Rosenberg (DE) 0.00 km LOST
T2940545 RS41 2022-03-22 18:36:30 49.7331 11.632 288 ° 22 km/h 823 m -7.1 m/s 402.70 MHz Bayreuth (DE) 0.00 km FOUND
T2950985 RS41 2022-03-22 13:07:08 49.6354 11.3917 312 ° 11 km/h 715 m -7.0 m/s 402.700 MHz Lauf an der Pegnitz (DE) 0.00 km FOUND
T2950546 RS41 2022-03-22 06:48:39 49.5622 11.5072 291 ° 28 km/h 764 m -8.9 m/s 402.70 MHz Lauf an der Pegnitz (DE) 0.00 km FOUND
T2950548 RS41 2022-03-22 01:05:47 49.6948 11.5447 331 ° 33 km/h 951 m -3.3 m/s 402.70 MHz Sulzbach-Rosenberg (DE) 0.00 km FOUND
T2950547 RS41 2022-03-21 18:53:00 49.5927 11.591 295 ° 31 km/h 929 m -4.0 m/s 402.70 MHz Sulzbach-Rosenberg (DE) 0.00 km FOUND
T2950784 RS41 2022-03-21 12:54:44 49.5291 11.5127 309 ° 22 km/h 760 m -5.3 m/s 402.700 MHz Lauf an der Pegnitz (DE) 0.00 km FOUND
T2950542 RS41 2022-03-21 06:52:50 49.5992 11.5957 324 ° 24 km/h 900 m -10.1 m/s 402.70 MHz Sulzbach-Rosenberg (DE) 0.00 km FOUND
T2950987 RS41 2022-03-21 00:39:00 49.6622 11.4962 321 ° 22 km/h 935 m -7.9 m/s 402.700 MHz Lauf an der Pegnitz (DE) 0.00 km FOUND
T2950544 RS41 2022-03-20 18:22:30 49.7019 11.4827 288 ° 43 km/h 928 m -5.8 m/s 402.70 MHz Lauf an der Pegnitz (DE) 0.00 km LOST
T2940424 RS41 2022-03-20 12:37:00 49.712 11.4933 293 ° 31 km/h 782 m -5.5 m/s 402.700 MHz Bayreuth (DE) 0.00 km FOUND
T2950545 RS41 2022-03-20 06:22:30 49.7232 11.5627 286 ° 48 km/h 792 m -8.6 m/s 402.70 MHz Bayreuth (DE) 0.00 km FOUND
T2950239 RS41 2022-03-20 00:38:22 50.0305 11.3034 292 ° 59 km/h 751 m -3.0 m/s 402.70 MHz Kulmbach (DE) 0.00 km FOUND
T2950939 RS41 2022-03-19 18:24:35 49.8394 11.2129 265 ° 52 km/h 929 m -4.2 m/s 402.70 MHz Bamberg (DE) 0.00 km FOUND
T2950986 RS41 2022-03-19 12:40:34 49.1699 11.6973 246 ° 26 km/h 1017 m -3.5 m/s 402.70 MHz Neumarkt in der Oberpfalz (DE) 0.00 km FOUND
T2950905 RS41 2022-03-19 06:24:07 48.9206 11.3213 233 ° 35 km/h 617 m -4.2 m/s 402.700 MHz Ingolstadt (DE) 0.00 km NEED ATTENTION
T2950989 RS41 2022-03-19 00:41:23 49.1213 11.4488 257 ° 65 km/h 872 m -4.1 m/s 402.700 MHz Neumarkt in der Oberpfalz (DE) 0.00 km LOST
T2950543 RS41 2022-03-18 19:09:28 48.9863 11.8966 225 ° 17 km/h 559 m -6.4 m/s 402.70 MHz Regensburg (DE) 0.00 km NEED ATTENTION
T2950968 RS41 2022-03-18 13:11:44 49.0507 12.1092 228 ° 20 km/h 580 m -13.5 m/s 402.70 MHz Regensburg (DE) 0.00 km FOUND
T2950902 RS41 2022-03-18 07:02:40 48.9879 12.2023 229 ° 39 km/h 604 m -9.5 m/s 402.70 MHz Regensburg (DE) 0.00 km FOUND
T2950940 RS41 2022-03-18 01:13:10 49.073 12.3802 230 ° 33 km/h 738 m -4.9 m/s 402.70 MHz Regensburg (DE) 0.00 km UNKNOWN
T2950486 RS41 2022-03-17 19:23:13 49.018 12.4064 345 ° 4 km/h 1278 m -5.7 m/s 402.70 MHz Straubing (DE) 0.00 km NEED ATTENTION
T2950524 RS41 2022-03-17 13:25:11 49.1457 12.4372 3 ° 6 km/h 968 m -4.0 m/s 404.90 MHz Regensburg (DE) 0.00 km FOUND
T2950941 RS41 2022-03-17 07:44:59 48.7597 12.3222 290 ° 31 km/h 681 m -2.9 m/s 402.700 MHz Straubing (DE) 0.00 km FOUND
T2950923 RS41 2022-03-17 00:54:21 48.8551 12.2879 288 ° 52 km/h 680 m -9.6 m/s 402.70 MHz Straubing (DE) 0.00 km FOUND
T2950527 RS41 2022-03-16 19:09:08 48.6449 12.421 287 ° 41 km/h 860 m -5.6 m/s 402.700 MHz Landshut (DE) 0.00 km FOUND
T2950938 RS41 2022-03-16 13:16:38 48.6488 12.535 290 ° 17 km/h 956 m -5.4 m/s 402.700 MHz Straubing (DE) 0.00 km FOUND
T2950484 RS41 2022-03-16 07:27:27 48.2982 12.9613 75 ° 6 km/h 534 m -4.6 m/s 402.70 MHz Braunau am Inn (AT) 0.00 km FOUND
T2950663 RS41 2022-03-16 01:23:23 48.1682 13.4283 110 ° 35 km/h 600 m -11.0 m/s 402.70 MHz Lohnsburg (AT) 0.00 km FOUND
T2950937 RS41 2022-03-15 22:00:30 48.3179 16.8427 133 ° 111 km/h 11849 m 0.2 m/s 402.700 MHz Marchegg (AT) 0.00 km UNKNOWN
T2950526 RS41 2022-03-15 20:12:08 48.6795 13.8944 78 ° 30 km/h 903 m -4.7 m/s 404.90 MHz Ulrichsberg (AT) 0.00 km UNKNOWN
T2950967 RS41 2022-03-15 13:00:01 49.0241 13.2607 99 ° 28 km/h 1278 m -16.1 m/s 402.70 MHz Sušice (CZ) 0.00 km UNKNOWN
T2950901 RS41 2022-03-15 07:27:48 48.8889 13.3417 302 ° 20 km/h 1173 m -5.5 m/s 402.700 MHz Deggendorf (DE) 0.00 km FOUND
T2950924 RS41 2022-03-15 01:13:20 48.8115 13.2825 267 ° 9 km/h 762 m -6.0 m/s 402.700 MHz Deggendorf (DE) 0.00 km UNKNOWN
T2950906 RS41 2022-03-14 19:22:45 48.7824 13.6352 49 ° 6 km/h 1026 m -4.8 m/s 402.700 MHz Ulrichsberg (AT) 0.00 km FOUND
T2950942 RS41 2022-03-14 13:06:25 49.4703 12.8675 52 ° 22 km/h 822 m -12.3 m/s 404.901 MHz Domažlice (CZ) 0.00 km FOUND
T2950525 RS41 2022-03-14 07:26:17 49.4401 12.4577 113 ° 46 km/h 979 m -4.0 m/s 402.701 MHz Schwandorf (DE) 0.00 km FOUND
T3020911 RS41 2022-03-14 01:11:46 49.306 12.2241 276 ° 17 km/h 593 m -9.5 m/s 402.70 MHz Schwandorf (DE) 0.00 km FOUND
T3020946 RS41 2022-03-13 19:01:01 49.2791 12.1247 270 ° 26 km/h 583 m -10.5 m/s 402.700 MHz Schwandorf (DE) 0.00 km FOUND
T3020943 RS41 2022-03-13 13:10:54 49.4169 12.0595 277 ° 9 km/h 542 m -7.9 m/s 402.700 MHz Schwandorf (DE) 0.00 km FOUND
T1320274 RS41 2022-03-13 07:03:23 49.1703 12.1039 258 ° 9 km/h 486 m -6.2 m/s 402.700 MHz Schwandorf (DE) 0.00 km FOUND
T1330563 RS41 2022-03-13 00:57:21 49.072 12.1931 306 ° 35 km/h 753 m -12.5 m/s 402.70 MHz Regensburg (DE) 0.00 km FOUND
T1330562 RS41 2022-03-12 18:58:36 48.9264 12.5279 328 ° 28 km/h 1654 m -16.2 m/s 402.70 MHz Straubing (DE) 0.00 km FOUND
T1320295 RS41 2022-03-12 12:59:20 49.0948 12.5663 318 ° 13 km/h 1057 m -6.8 m/s 402.700 MHz Straubing (DE) 0.00 km FOUND
T1340146 RS41 2022-03-12 07:03:39 49.053 12.5996 325 ° 41 km/h 1106 m -10.7 m/s 402.700 MHz Straubing (DE) 0.00 km NEED ATTENTION
T1310323 RS41 2022-03-12 00:55:49 49.1193 12.5143 298 ° 31 km/h 1081 m -10.5 m/s 402.700 MHz Straubing (DE) 0.00 km FOUND
T1310322 RS41 2022-03-11 19:04:50 49.1236 12.6699 300 ° 67 km/h 1144 m -7.4 m/s 402.70 MHz Straubing (DE) 0.00 km NEED ATTENTION
T1310452 RS41 2022-03-11 12:46:25 49.2525 12.4776 254 ° 20 km/h 840 m -12.4 m/s 402.700 MHz Schwandorf (DE) 0.00 km NEED ATTENTION
T1310453 RS41 2022-03-11 07:16:04 49.2282 13.0607 307 ° 7 km/h 991 m -8.2 m/s 402.70 MHz Kdyně (CZ) 0.00 km UNKNOWN
T3021035 RS41 2022-03-11 00:57:42 49.3897 13.146 291 ° 39 km/h 729 m -10.7 m/s 402.70 MHz Kdyně (CZ) 0.00 km UNKNOWN
T3020942 RS41 2022-03-10 19:12:05 49.3845 13.3376 264 ° 30 km/h 511 m -9.1 m/s 402.70 MHz Klatovy (CZ) 0.00 km FOUND
T3020939 RS41 2022-03-10 12:56:16 49.5569 13.259 296 ° 20 km/h 553 m -12.7 m/s 402.70 MHz Přeštice (CZ) 0.00 km FOUND
T1310469 RS41 2022-03-10 07:08:22 49.4383 13.1373 282 ° 9 km/h 677 m -6.4 m/s 402.70 MHz Kdyně (CZ) 0.00 km FOUND
T3021054 RS41 2022-03-10 00:57:49 49.3881 12.899 228 ° 4 km/h 626 m -10.4 m/s 402.700 MHz Domažlice (CZ) 0.00 km FOUND
T3030007 RS41 2022-03-09 18:58:50 49.258 12.7849 244 ° 11 km/h 567 m -10.8 m/s 402.700 MHz Domažlice (CZ) 0.00 km UNKNOWN
T3030009 RS41 2022-03-09 13:15:35 49.2048 12.5036 244 ° 2 km/h 822 m -6.6 m/s 404.90 MHz Schwandorf (DE) 0.00 km FOUND
T3021051 RS41 2022-03-09 07:21:14 49.037 12.2744 323 ° 19 km/h 638 m -4.9 m/s 402.700 MHz Regensburg (DE) 0.00 km FOUND
T3021053 RS41 2022-03-09 01:22:00 49.0217 12.3531 320 ° 13 km/h 686 m -9.0 m/s 402.700 MHz Regensburg (DE) 0.00 km FOUND
T3020944 RS41 2022-03-08 19:32:34 48.9614 11.9736 286 ° 6 km/h 592 m -3.3 m/s 402.700 MHz Regensburg (DE) 0.00 km FOUND
T3021052 RS41 2022-03-08 12:58:12 49.0947 11.9827 343 ° 13 km/h 572 m -6.6 m/s 402.70 MHz Regensburg (DE) 0.00 km NEED ATTENTION
T3021033 RS41 2022-03-08 07:28:23 48.7328 11.9128 277 ° 35 km/h 654 m -4.6 m/s 402.700 MHz Landshut (DE) 0.00 km UNKNOWN
T3030037 RS41 2022-03-08 01:11:32 48.7701 11.7147 256 ° 19 km/h 735 m -7.0 m/s 402.70 MHz Ingolstadt (DE) 0.00 km FOUND
T3010561 RS41 2022-03-07 19:24:28 48.5165 11.6598 267 ° 24 km/h 1082 m -6.0 m/s 402.700 MHz Pfaffenhofen an der Ilm (DE) 0.00 km UNKNOWN
T3030040 RS41 2022-03-07 13:17:45 48.6995 11.706 284 ° 7 km/h 871 m -5.5 m/s 402.700 MHz Ingolstadt (DE) 0.00 km FOUND
T3021038 RS41 2022-03-07 07:05:34 48.6653 11.7386 240 ° 22 km/h 806 m -9.9 m/s 402.70 MHz Pfaffenhofen an der Ilm (DE) 0.00 km FOUND
T3021056 RS41 2022-03-07 01:41:49 48.4028 11.6087 246 ° 20 km/h 756 m -4.4 m/s 402.70 MHz Freising (DE) 0.00 km UNKNOWN
T3021055 RS41 2022-03-06 19:03:59 48.7314 11.7523 222 ° 19 km/h 860 m -3.3 m/s 404.90 MHz Ingolstadt (DE) 0.00 km UNKNOWN
T3030041 RS41 2022-03-06 13:21:21 48.4704 11.6987 212 ° 13 km/h 586 m -7.6 m/s 402.70 MHz Freising (DE) 0.00 km FOUND
T3030038 RS41 2022-03-06 07:00:53 48.6343 11.4801 274 ° 31 km/h 943 m -12.2 m/s 402.70 MHz Pfaffenhofen an der Ilm (DE) 0.00 km FOUND
T3021036 RS41 2022-03-06 01:26:21 48.503 11.2245 270 ° 39 km/h 972 m -4.8 m/s 402.700 MHz Aichach (DE) 0.00 km FOUND
T3020908 RS41 2022-03-05 19:09:00 48.3641 11.607 268 ° 37 km/h 794 m -14.5 m/s 402.70 MHz Unterschleißheim (DE) 0.00 km FOUND
T3020889 RS41 2022-03-05 12:57:13 48.6336 11.5226 271 ° 22 km/h 1166 m -14.1 m/s 402.70 MHz Pfaffenhofen an der Ilm (DE) 0.00 km FOUND
T3020823 RS41 2022-03-05 06:57:30 48.6101 11.6603 279 ° 31 km/h 885 m -9.8 m/s 402.70 MHz Pfaffenhofen an der Ilm (DE) 0.00 km FOUND
T3020445 RS41 2022-03-05 01:19:51 48.4485 11.68 271 ° 24 km/h 605 m -9.2 m/s 402.70 MHz Freising (DE) 0.00 km UNKNOWN
T3020368 RS41 2022-03-04 19:15:48 48.4764 11.6921 265 ° 19 km/h 600 m -6.2 m/s 402.70 MHz Freising (DE) 0.00 km FOUND
T3020371 RS41 2022-03-04 12:56:30 48.6323 11.4402 247 ° 15 km/h 969 m -11.4 m/s 402.70 MHz Pfaffenhofen an der Ilm (DE) 0.00 km FOUND
T3010526 RS41 2022-03-04 07:06:30 48.4593 11.493 256 ° 26 km/h 665 m -6.9 m/s 402.70 MHz Pfaffenhofen an der Ilm (DE) 0.00 km FOUND
T3040525 RS41 2022-03-04 01:23:00 48.4967 11.6683 276 ° 19 km/h 1220 m -9.4 m/s 402.70 MHz Freising (DE) 0.00 km FOUND
T3040632 RS41 2022-03-03 19:08:30 48.6931 12.1266 237 ° 35 km/h 975 m -7.6 m/s 402.70 MHz Landshut (DE) 0.00 km UNKNOWN
T3010617 RS41 2022-03-03 13:11:46 48.6365 12.6217 178 ° 15 km/h 1009 m -6.2 m/s 402.70 MHz Straubing (DE) 0.00 km FOUND
T3010525 RS41 2022-03-03 07:06:30 48.8013 12.3452 74 ° 9 km/h 760 m -13.5 m/s 402.70 MHz Straubing (DE) 0.00 km FOUND
T3040480 RS41 2022-03-03 01:15:00 48.9167 12.0127 271 ° 9 km/h 602 m -4.9 m/s 402.70 MHz Regensburg (DE) 0.00 km FOUND
T3040541 RS41 2022-03-02 19:16:47 48.9185 12.1708 239 ° 6 km/h 910 m -6.1 m/s 402.700 MHz Regensburg (DE) 0.00 km FOUND
T3020369 RS41 2022-03-02 13:03:30 48.9268 12.3201 322 ° 6 km/h 739 m -3.8 m/s 402.70 MHz Regensburg (DE) 0.00 km FOUND
T3010616 RS41 2022-03-02 07:05:00 48.842 12.2555 308 ° 19 km/h 628 m -5.9 m/s 402.70 MHz Regensburg (DE) 0.00 km FOUND
T3020367 RS41 2022-03-02 01:21:00 48.8341 12.118 267 ° 20 km/h 566 m -9.8 m/s 402.70 MHz Regensburg (DE) 0.00 km FOUND
T3010615 RS41 2022-03-01 19:17:33 48.7516 11.8088 286 ° 30 km/h 665 m -4.9 m/s 402.700 MHz Ingolstadt (DE) 0.00 km UNKNOWN
T3040469 RS41 2022-03-01 13:04:00 48.7838 11.7593 278 ° 13 km/h 666 m -5.0 m/s 402.700 MHz Ingolstadt (DE) 0.00 km FOUND
T3010541 RS41 2022-03-01 07:04:00 48.8542 11.6472 297 ° 22 km/h 652 m -7.9 m/s 402.70 MHz Ingolstadt (DE) 0.00 km FOUND
T3020825 RS41 2022-03-01 00:56:31 48.7779 11.423 309 ° 41 km/h 763 m -10.6 m/s 402.700 MHz Ingolstadt (DE) 0.00 km UNKNOWN
T3020821 RS41 2022-02-28 18:51:00 48.7271 11.4825 264 ° 26 km/h 1227 m -13.3 m/s 402.70 MHz Ingolstadt (DE) 0.00 km FOUND
T3030011 RS41 2022-02-28 12:59:01 48.8712 11.5204 217 ° 9 km/h 769 m -8.5 m/s 402.700 MHz Ingolstadt (DE) 0.00 km FOUND
T3020768 RS41 2022-02-28 07:08:00 48.8891 11.4827 277 ° 20 km/h 820 m -7.1 m/s 402.700 MHz Ingolstadt (DE) 0.00 km UNKNOWN
T3020891 RS41 2022-02-28 00:51:00 49.152 11.4124 300 ° 26 km/h 1163 m -12.3 m/s 402.700 MHz Neumarkt in der Oberpfalz (DE) 0.00 km LOST
T3020890 RS41 2022-02-27 18:59:30 49.137 11.2177 287 ° 35 km/h 1338 m -13.0 m/s 402.70 MHz Roth bei Nürnberg (DE) 0.00 km FOUND
T3020892 RS41 2022-02-27 12:39:07 49.051 10.8826 274 ° 28 km/h 707 m -10.4 m/s 402.700 MHz Roth bei Nürnberg (DE) 0.00 km FOUND
T3010527 RS41 2022-02-27 06:54:42 49.0853 11.0208 285 ° 44 km/h 1315 m -10.9 m/s 402.700 MHz Roth bei Nürnberg (DE) 0.00 km FOUND
T1340145 RS41 2022-02-27 01:24:16 48.9339 10.9926 276 ° 33 km/h 967 m -5.8 m/s 402.70 MHz Neuburg an der Donau (DE) 0.00 km UNKNOWN
T1310466 RS41 2022-02-26 19:08:00 48.8751 11.4532 231 ° 19 km/h 889 m -6.2 m/s 402.70 MHz Ingolstadt (DE) 0.00 km FOUND
T3010647 RS41 2022-02-26 13:04:00 48.7331 11.6786 173 ° 9 km/h 892 m -9.8 m/s 402.70 MHz Ingolstadt (DE) 0.00 km UNKNOWN
T1330564 RS41 2022-02-26 07:00:37 48.7531 12.0058 115 ° 24 km/h 545 m -10.7 m/s 402.700 MHz Landshut (DE) 0.00 km UNKNOWN
T1310472 RS41 2022-02-26 01:18:53 48.9764 12.7279 151 ° 35 km/h 1099 m -9.3 m/s 402.700 MHz Straubing (DE) 0.00 km FOUND
T3010614 RS41 2022-02-25 19:20:17 49.2738 13.5606 100 ° 37 km/h 852 m -9.0 m/s 402.700 MHz Sušice (CZ) 0.00 km UNKNOWN
T3010546 RS41 2022-02-25 13:06:09 49.6283 13.9026 85 ° 43 km/h 728 m -5.9 m/s 402.700 MHz Příbram (CZ) 0.00 km UNKNOWN
T3010542 RS41 2022-02-25 07:00:41 49.6979 14.0479 71 ° 26 km/h 603 m -10.0 m/s 402.700 MHz Příbram (CZ) 0.00 km LOST
T3010613 RS41 2022-02-25 01:17:24 49.8716 14.2795 81 ° 17 km/h 438 m -3.2 m/s 402.70 MHz Mníšek pod Brdy (CZ) 0.00 km UNKNOWN
T1310473 RS41 2022-02-24 19:38:21 49.9482 14.1885 35 ° 30 km/h 479 m -7.6 m/s 402.70 MHz Beroun (CZ) 0.00 km FOUND
T3040516 RS41 2022-02-24 13:04:49 49.8971 13.8544 81 ° 13 km/h 613 m -8.9 m/s 402.70 MHz Hořovice (CZ) 0.00 km UNKNOWN
T3040544 RS41 2022-02-24 07:05:12 49.5984 13.645 317 ° 7 km/h 597 m -6.7 m/s 402.700 MHz Rokycany (CZ) 0.00 km UNKNOWN
T3020749 RS41 2022-02-24 01:12:56 49.5531 13.564 320 ° 35 km/h 573 m -8.4 m/s 402.70 MHz Přeštice (CZ) 0.00 km UNKNOWN
T1340036 RS41 2022-02-23 19:07:43 48.8372 13.6869 104 ° 19 km/h 1292 m -8.3 m/s 402.70 MHz Ulrichsberg (AT) 0.00 km UNKNOWN
T3020783 RS41 2022-02-23 12:48:31 48.8413 13.2752 145 ° 48 km/h 2252 m -11.9 m/s 402.700 MHz Deggendorf (DE) 0.00 km UNKNOWN
T3020361 RS41 2022-02-23 07:10:34 48.6572 13.6239 131 ° 46 km/h 942 m -9.7 m/s 402.700 MHz Esternberg (AT) 0.00 km UNKNOWN
T3020818 RS41 2022-02-23 00:39:17 48.2643 13.9473 84 ° 39 km/h 463 m -2.8 m/s 402.700 MHz Sankt Marienkirchen an der Polsenz (AT) 0.00 km NEED ATTENTION
T3020778 RS41 2022-02-22 19:16:35 48.6483 13.825 88 ° 39 km/h 1003 m -6.2 m/s 402.700 MHz Ulrichsberg (AT) 0.00 km UNKNOWN
T3010643 RS41 2022-02-22 13:10:09 48.389 13.1616 100 ° 33 km/h 730 m -7.7 m/s 402.700 MHz Sankt Peter (AT) 0.00 km UNKNOWN
T3010544 RS41 2022-02-22 06:56:35 48.1213 12.7992 107 ° 24 km/h 570 m -10.7 m/s 402.700 MHz Hochburg-Ach (AT) 0.00 km UNKNOWN
T3010362 RS41 2022-02-22 01:13:13 48.3804 13.3444 93 ° 33 km/h 418 m -11.3 m/s 402.700 MHz Schärding (AT) 0.00 km UNKNOWN
T3040542 RS41 2022-02-21 18:54:28 49.1912 13.6501 69 ° 70 km/h 1088 m -8.5 m/s 402.700 MHz Sušice (CZ) 0.00 km FOUND
T3020822 RS41 2022-02-21 13:19:45 49.5139 14.2383 79 ° 46 km/h 675 m -3.0 m/s 402.700 MHz Milevsko (CZ) 0.00 km UNKNOWN
T3020779 RS41 2022-02-21 07:32:31 49.8387 14.4715 103 ° 28 km/h 438 m -11.6 m/s 402.700 MHz Týnec nad Sázavou (CZ) 0.00 km UNKNOWN
T3021037 RS41 2022-02-21 01:22:54 49.4843 14.5912 47 ° 46 km/h 769 m -6.7 m/s 402.700 MHz Tábor (CZ) 0.00 km UNKNOWN
T3021034 RS41 2022-02-20 19:19:35 48.8696 14.0445 63 ° 61 km/h 1207 m -10.8 m/s 402.70 MHz Prachatice (CZ) 0.00 km UNKNOWN
T3040477 RS41 2022-02-20 13:18:03 48.894 14.1802 63 ° 48 km/h 977 m -5.4 m/s 402.70 MHz Český Krumlov (CZ) 0.00 km UNKNOWN
T3040638 RS41 2022-02-20 07:26:38 48.6309 14.2732 71 ° 57 km/h 887 m -6.0 m/s 402.70 MHz Vorderweissenbach (AT) 0.00 km UNKNOWN
T3010648 RS41 2022-02-20 01:37:58 49.7013 14.9906 33 ° 35 km/h 580 m -5.0 m/s 402.70 MHz Vlašim (CZ) 0.00 km UNKNOWN
T3010645 RS41 2022-02-19 19:07:57 49.6757 14.6342 64 ° 31 km/h 559 m -11.1 m/s 402.700 MHz Benešov (CZ) 0.00 km UNKNOWN
T3010646 RS41 2022-02-19 13:03:19 49.8915 15.1178 88 ° 54 km/h 542 m -7.5 m/s 402.70 MHz Kutná Hora (CZ) 0.00 km NEED ATTENTION
T3010644 RS41 2022-02-19 07:26:29 49.9562 15.7912 90 ° 100 km/h 1038 m -5.8 m/s 402.700 MHz Chrudim (CZ) 0.00 km FOUND
T3010543 RS41 2022-02-19 01:27:38 50.1496 16 89 ° 100 km/h 1845 m -5.0 m/s 402.700 MHz Týniště nad Orlicí (CZ) 0.00 km UNKNOWN
T3010528 RS41 2022-02-18 19:32:16 49.6022 15.5294 59 ° 65 km/h 927 m -8.0 m/s 402.70 MHz Havlíčkŭv Brod (CZ) 0.00 km UNKNOWN
T3020362 RS41 2022-02-18 13:12:39 49.17 14.6334 37 ° 37 km/h 962 m -8.0 m/s 402.70 MHz Veselí nad Lužnicí (CZ) 0.00 km FOUND
T3010545 RS41 2022-02-18 07:05:43 48.6682 14.3923 100 ° 30 km/h 931 m -12.7 m/s 402.700 MHz Kaplice (CZ) 0.00 km UNKNOWN
T1310463 RS41 2022-02-18 01:17:04 48.3859 14.7117 101 ° 20 km/h 739 m -5.1 m/s 402.700 MHz Unterweissenbach (AT) 0.00 km UNKNOWN
T1310468 RS41 2022-02-17 20:03:10 48.0973 15.4334 96 ° 19 km/h 482 m -11.5 m/s 402.70 MHz Kilb (AT) 0.00 km FOUND
T1330592 RS41 2022-02-17 13:35:06 48.2917 15.5153 130 ° 41 km/h 632 m -5.4 m/s 402.700 MHz Paudorf (AT) 0.00 km NEED ATTENTION
T1310470 RS41 2022-02-17 07:16:00 48.4381 14.7613 117 ° 37 km/h 867 m -1.8 m/s 402.700 MHz Unterweissenbach (AT) 0.00 km UNKNOWN
T1310467 RS41 2022-02-17 01:22:08 48.4279 14.3032 82 ° 41 km/h 877 m -5.8 m/s 402.700 MHz Hellmonsödt (AT) 0.00 km FOUND
T1310324 RS41 2022-02-16 19:12:20 48.1648 13.6603 77 ° 46 km/h 569 m -8.1 m/s 402.70 MHz Haag am Hausruck (AT) 0.00 km UNKNOWN
T1310465 RS41 2022-02-16 13:02:50 48.3539 13.7162 73 ° 31 km/h 551 m -7.7 m/s 402.70 MHz Peuerbach (AT) 0.00 km UNKNOWN
T1250596 RS41 2022-02-16 07:08:28 48.3575 14.0278 339 ° 6 km/h 375 m -11.4 m/s 402.70 MHz Aschach an der Donau (AT) 0.00 km FOUND
T1321030 RS41 2022-02-16 01:09:22 48.6907 13.7967 81 ° 33 km/h 918 m -4.1 m/s 402.70 MHz Ulrichsberg (AT) 0.00 km UNKNOWN
T1310464 RS41 2022-02-15 18:58:17 49.2075 14.3393 100 ° 31 km/h 1167 m -11.8 m/s 402.70 MHz Týn nad Vltavou (CZ) 0.00 km FOUND
T1310456 RS41 2022-02-15 13:17:28 49.7666 14.7833 74 ° 17 km/h 575 m -5.3 m/s 402.70 MHz Benešov (CZ) 0.00 km UNKNOWN
T1310321 RS41 2022-02-15 07:19:21 49.8119 14.692 56 ° 11 km/h 496 m -6.1 m/s 402.700 MHz Benešov (CZ) 0.00 km UNKNOWN
T1310455 RS41 2022-02-15 01:16:27 49.7895 14.4643 45 ° 13 km/h 511 m -9.1 m/s 402.70 MHz Týnec nad Sázavou (CZ) 0.00 km UNKNOWN
T1320401 RS41 2022-02-14 19:31:07 49.5949 14.5268 350 ° 37 km/h 632 m -6.8 m/s 402.70 MHz Sedlčany (CZ) 0.00 km FOUND
T1320271 RS41 2022-02-14 13:03:15 49.6154 13.878 348 ° 24 km/h 897 m -9.9 m/s 402.70 MHz Příbram (CZ) 0.00 km UNKNOWN
T1320250 RS41 2022-02-14 06:48:47 49.4083 13.6548 33 ° 20 km/h 885 m -12.5 m/s 402.70 MHz Horažďovice (CZ) 0.00 km UNKNOWN
T1320251 RS41 2022-02-14 00:50:32 49.3017 13.7149 28 ° 15 km/h 971 m -13.2 m/s 402.700 MHz Horažďovice (CZ) 0.00 km NEED ATTENTION
T1320275 RS41 2022-02-13 19:14:16 49.1918 14.3528 328 ° 20 km/h 950 m -3.8 m/s 402.700 MHz Týn nad Vltavou (CZ) 0.00 km FOUND
T1320219 RS41 2022-02-13 12:56:48 49.4142 14.2663 13 ° 6 km/h 848 m -11.4 m/s 402.70 MHz Milevsko (CZ) 0.00 km FOUND
T1310449 RS41 2022-02-13 07:06:09 49.3593 14.5768 347 ° 30 km/h 653 m -11.8 m/s 402.700 MHz Sezimovo Ústí (CZ) 0.00 km UNKNOWN
T1310444 RS41 2022-02-13 01:14:55 49.4382 14.3468 346 ° 31 km/h 777 m -4.6 m/s 402.700 MHz Milevsko (CZ) 0.00 km UNKNOWN
T1320296 RS41 2022-02-12 19:08:12 49.3044 14.8311 320 ° 39 km/h 646 m -11.2 m/s 402.70 MHz Soběslav (CZ) 0.00 km UNKNOWN
T1320273 RS41 2022-02-12 13:07:24 49.3471 14.0592 324 ° 17 km/h 938 m -3.7 m/s 402.70 MHz Písek (CZ) 0.00 km FOUND
T1250595 RS41 2022-02-12 07:49:01 49.0289 15.0712 223 ° 7 km/h 691 m -7.2 m/s 402.70 MHz Litschau (AT) 0.00 km FOUND
T1320248 RS41 2022-02-12 01:31:33 48.9353 14.7529 129 ° 26 km/h 576 m -8.6 m/s 402.700 MHz Třeboň (CZ) 0.00 km UNKNOWN
T1320252 RS41 2022-02-11 19:26:02 49.1905 15.6066 98 ° 31 km/h 688 m -4.8 m/s 402.70 MHz Telč (CZ) 0.00 km UNKNOWN
T1320272 RS41 2022-02-11 13:04:56 49.656 15.6861 127 ° 43 km/h 1199 m -12.8 m/s 404.90 MHz Chotěboř (CZ) 0.00 km UNKNOWN
T1320276 RS41 2022-02-11 06:44:54 49.8167 15.2396 75 ° 52 km/h 1008 m -13.2 m/s 402.700 MHz Kutná Hora (CZ) 0.00 km UNKNOWN
T1320855 RS41 2022-02-11 01:01:44 49.9599 15.8486 80 ° 26 km/h 1412 m -7.1 m/s 402.70 MHz Chrudim (CZ) 0.00 km FOUND
T1320147 RS41 2022-02-10 19:16:46 50.0246 16.2622 114 ° 54 km/h 1501 m -7.0 m/s 402.70 MHz Choceň (CZ) 0.00 km FOUND
T1310348 RS41 2022-02-10 12:57:38 49.9883 14.9748 51 ° 28 km/h 549 m -8.1 m/s 402.701 MHz Český Brod (CZ) 0.00 km FOUND
T1320148 RS41 2022-02-10 07:09:50 49.7879 15.2411 51 ° 31 km/h 987 m -6.5 m/s 402.70 MHz Čáslav (CZ) 0.00 km UNKNOWN
T1250600 RS41 2022-02-10 01:01:22 49.5493 14.784 92 ° 26 km/h 915 m -7.1 m/s 402.700 MHz Tábor (CZ) 0.00 km UNKNOWN
T1250568 RS41 2022-02-09 19:30:19 49.0823 14.872 87 ° 9 km/h 538 m -3.7 m/s 402.70 MHz Třeboň (CZ) 0.00 km FOUND
T1320149 RS41 2022-02-09 13:17:56 49.0523 14.4753 102 ° 17 km/h 706 m -6.0 m/s 402.70 MHz Hluboká nad Vltavou (CZ) 0.00 km FOUND
T1320359 RS41 2022-02-09 07:16:08 48.861 14.2482 69 ° 17 km/h 863 m -7.6 m/s 402.70 MHz Český Krumlov (CZ) 0.00 km UNKNOWN
T1320150 RS41 2022-02-09 01:32:55 48.5927 14.0445 95 ° 30 km/h 917 m -7.4 m/s 402.70 MHz Haslach an der Mühl (AT) 0.00 km UNKNOWN
T1320573 RS41 2022-02-08 19:31:22 48.4355 13.9008 109 ° 35 km/h 662 m -5.8 m/s 402.70 MHz Altenfelden (AT) 0.00 km UNKNOWN
T1320572 RS41 2022-02-08 13:30:15 48.0766 13.475 87 ° 39 km/h 784 m -5.0 m/s 402.70 MHz Neukirchen an der Vöckla (AT) 0.00 km FOUND
T1310811 RS41 2022-02-08 07:26:29 47.7594 13.2326 91 ° 50 km/h 1350 m -4.9 m/s 402.700 MHz Faistenau (AT) 0.00 km UNKNOWN
T1320575 RS41 2022-02-08 01:28:31 47.6451 13.3393 132 ° 41 km/h 1773 m -4.8 m/s 402.70 MHz Abtenau (AT) 0.00 km UNKNOWN
T1320337 RS41 2022-02-07 19:15:25 47.5583 13.2707 127 ° 61 km/h 2119 m -3.6 m/s 402.70 MHz Abtenau (AT) 0.00 km UNKNOWN
T1320339 RS41 2022-02-07 12:53:28 48.0333 13.3478 113 ° 50 km/h 863 m -13.0 m/s 402.70 MHz Pöndorf (AT) 0.00 km FOUND
T1320338 RS41 2022-02-07 07:29:38 48.2982 14.3742 94 ° 26 km/h 529 m -5.9 m/s 402.700 MHz Steyregg (AT) 0.00 km LOST
T1310865 RS41 2022-02-07 01:30:32 48.9625 15.0253 98 ° 15 km/h 658 m -3.1 m/s 402.70 MHz Litschau (AT) 0.00 km FOUND
T1310870 RS41 2022-02-06 19:21:17 49.3065 15.1018 81 ° 39 km/h 734 m -7.2 m/s 402.700 MHz Pelhřimov (CZ) 0.00 km UNKNOWN
T1320399 RS41 2022-02-06 13:31:07 49.1824 15.2648 66 ° 50 km/h 818 m -3.2 m/s 402.700 MHz Telč (CZ) 0.00 km LOST
T1320145 RS41 2022-02-06 07:15:18 49.0606 14.7065 53 ° 50 km/h 679 m -6.8 m/s 402.70 MHz Třeboň (CZ) 0.00 km LOST
T1310857 RS41 2022-02-06 01:43:03 48.7679 14.8296 93 ° 39 km/h 710 m -4.3 m/s 402.700 MHz Weitra (AT) 0.00 km LOST
T1310827 RS41 2022-02-05 19:08:58 48.752 14.1629 79 ° 54 km/h 1034 m -11.9 m/s 402.70 MHz Český Krumlov (CZ) 0.00 km UNKNOWN
T1320854 RS41 2022-02-05 13:30:24 48.6363 14.5966 115 ° 35 km/h 916 m -2.7 m/s 402.70 MHz Rainbach im Mühlkreis (AT) 0.00 km UNKNOWN
T1310867 RS41 2022-02-05 07:25:12 48.8888 15.2665 95 ° 31 km/h 566 m -5.8 m/s 402.700 MHz Waidhofen an der Thaya (AT) 0.00 km NEED ATTENTION
T1320864 RS41 2022-02-05 01:07:07 49.2924 15.0126 73 ° 31 km/h 760 m -4.3 m/s 402.70 MHz Jindřichŭv Hradec (CZ) 0.00 km FOUND
T1320853 RS41 2022-02-04 19:01:18 49.3147 14.2871 77 ° 39 km/h 974 m -3.1 m/s 402.70 MHz Písek (CZ) 0.00 km FOUND
T1320146 RS41 2022-02-04 13:26:25 48.8652 14.8566 80 ° 24 km/h 574 m -7.8 m/s 402.70 MHz Trhové Sviny (CZ) 0.00 km FOUND
T1250587 RS41 2022-02-04 07:17:39 48.4942 14.8523 78 ° 43 km/h 1055 m -5.4 m/s 402.700 MHz Unterweissenbach (AT) 0.00 km UNKNOWN
T1320574 RS41 2022-02-04 01:11:11 48.4244 14.7625 44 ° 6 km/h 829 m -3.1 m/s 402.70 MHz Unterweissenbach (AT) 0.00 km FOUND
T1320571 RS41 2022-02-03 19:02:07 48.4384 15.0143 18 ° 30 km/h 1042 m -11.8 m/s 402.70 MHz Königswiesen (AT) 0.00 km UNKNOWN
T1321032 RS41 2022-02-03 13:20:35 48.1331 15.3272 58 ° 6 km/h 372 m -8.4 m/s 402.70 MHz Mank (AT) 0.00 km FOUND
T1320862 RS41 2022-02-03 07:13:28 47.5429 14.0347 127 ° 50 km/h 2211 m -4.0 m/s 402.70 MHz Stainach (AT) 0.00 km LOST
T1250598 RS41 2022-02-03 01:23:25 47.2728 14.9617 148 ° 41 km/h 1604 m -1.7 m/s 402.70 MHz Sankt Michael in Obersteiermark (AT) 0.00 km UNKNOWN
T1231110 RS41 2022-02-02 19:18:00 47.0896 15.1905 140 ° 19 km/h 573 m -4.1 m/s 402.70 MHz Stallhofen (AT) 0.00 km FOUND
T1320342 RS41 2022-02-02 13:13:02 46.9432 15.0604 119 ° 39 km/h 1272 m -5.3 m/s 402.700 MHz Ligist (AT) 0.00 km FOUND
T1320360 RS41 2022-02-02 08:04:30 46.0601 15.5975 121 ° 13 km/h 526 m -3.3 m/s 402.700 MHz Kozje (SI) 0.00 km FOUND
T1320340 RS41 2022-02-02 01:16:59 46.8646 15.2317 281 ° 7 km/h 498 m -3.5 m/s 402.700 MHz Stainz (AT) 0.00 km FOUND
T1320397 RS41 2022-02-01 19:51:15 46.9678 16.0885 30 ° 19 km/h 383 m -4.3 m/s 402.70 MHz Jennersdorf (AT) 0.00 km FOUND
T1310853 RS41 2022-02-01 13:01:35 47.7989 15.3812 117 ° 35 km/h 1151 m -11.2 m/s 402.70 MHz Mariazell (AT) 0.00 km UNKNOWN
T1310799 RS41 2022-02-01 07:01:36 47.2188 14.0557 150 ° 93 km/h 2633 m -8.7 m/s 402.700 MHz Murau (AT) 0.00 km UNKNOWN
T1320629 RS41 2022-02-01 01:15:29 47.6718 14.722 92 ° 11 km/h 685 m -6.7 m/s 402.700 MHz Landl (AT) 0.00 km FOUND
T1310895 RS41 2022-01-31 19:40:23 48.1902 16.1588 60 ° 4 km/h 452 m -2.0 m/s 402.700 MHz Purkersdorf (AT) 0.00 km NEED ATTENTION
T1320628 RS41 2022-01-31 13:10:41 49.002 15.7915 93 ° 26 km/h 554 m -8.3 m/s 402.700 MHz Moravské Budějovice (CZ) 0.00 km FOUND
T1310372 RS41 2022-01-31 06:47:35 49.0968 14.9451 87 ° 2 km/h 532 m -1.7 m/s 402.700 MHz Jindřichŭv Hradec (CZ) 0.00 km LOST
T1310371 RS41 2022-01-31 00:57:19 48.7482 14.8237 122 ° 19 km/h 700 m -2.3 m/s 402.700 MHz Weitra (AT) 0.00 km FOUND
T1231073 RS41 2022-01-30 19:13:06 48.1382 14.818 118 ° 41 km/h 391 m -5.3 m/s 402.700 MHz Ardagger Markt (AT) 0.00 km NEED ATTENTION
T1231074 RS41 2022-01-30 13:07:24 48.0482 14.8345 113 ° 70 km/h 505 m -8.4 m/s 402.700 MHz Neuhofen an der Ybbs (AT) 0.00 km LOST
T1310362 RS41 2022-01-30 07:18:06 47.7545 15.3116 174 ° 7 km/h 950 m -7.1 m/s 402.700 MHz Mariazell (AT) 0.00 km UNKNOWN
T1310366 RS41 2022-01-30 01:13:22 48.0808 15.3552 64 ° 30 km/h 424 m -3.3 m/s 402.700 MHz Mank (AT) 0.00 km FOUND
T1240344 RS41 2022-01-29 19:19:39 48.2299 14.5317 87 ° 44 km/h 322 m -6.6 m/s 402.70 MHz Mauthausen (AT) 0.00 km FOUND
T1310367 RS41 2022-01-29 12:59:38 48.3942 13.7973 87 ° 35 km/h 612 m -13.9 m/s 402.70 MHz Natternbach (AT) 0.00 km UNKNOWN
T1320626 RS41 2022-01-29 07:10:14 48.0267 13.5872 91 ° 30 km/h 674 m -3.9 m/s 402.70 MHz Timelkam (AT) 0.00 km UNKNOWN
T1231108 RS41 2022-01-29 01:13:30 48.0555 13.3526 85 ° 39 km/h 831 m -8.4 m/s 402.70 MHz Pöndorf (AT) 0.00 km UNKNOWN
T1240343 RS41 2022-01-28 18:57:17 48.098 13.149 89 ° 24 km/h 586 m -8.3 m/s 402.700 MHz Mattighofen (AT) 0.00 km FOUND
T1310817 RS41 2022-01-28 13:05:59 48.111 13.456 112 ° 46 km/h 800 m -4.7 m/s 402.700 MHz Waldzell (AT) 0.00 km NEED ATTENTION
T1310801 RS41 2022-01-28 07:09:01 48.6319 14.0552 105 ° 52 km/h 999 m -6.2 m/s 402.70 MHz Haslach an der Mühl (AT) 0.00 km UNKNOWN
T1310866 RS41 2022-01-28 01:31:11 48.8418 15.1385 102 ° 24 km/h 693 m -3.5 m/s 402.70 MHz Heidenreichstein (AT) 0.00 km FOUND
T1310377 RS41 2022-01-27 18:54:13 49.0321 14.1032 114 ° 65 km/h 1112 m -13.5 m/s 402.70 MHz Prachatice (CZ) 0.00 km FOUND
T1231067 RS41 2022-01-27 13:11:14 48.8674 13.805 85 ° 39 km/h 1185 m -8.7 m/s 402.700 MHz Vimperk (CZ) 0.00 km UNKNOWN
T1310365 RS41 2022-01-27 07:32:44 48.4583 13.7852 91 ° 30 km/h 678 m -3.9 m/s 404.90 MHz Natternbach (AT) 0.00 km UNKNOWN
T1240345 RS41 2022-01-27 01:06:47 48.4263 12.7243 99 ° 22 km/h 667 m -6.2 m/s 402.700 MHz Braunau am Inn (AT) 0.00 km FOUND
T1310378 RS41 2022-01-26 19:15:03 48.1868 12.7099 122 ° 20 km/h 511 m -4.1 m/s 402.700 MHz Hochburg-Ach (AT) 0.00 km FOUND
T1310822 RS41 2022-01-26 13:18:17 48.5288 13.6762 101 ° 35 km/h 668 m -3.6 m/s 402.700 MHz Esternberg (AT) 0.00 km UNKNOWN
T1310834 RS41 2022-01-26 06:54:59 48.6056 13.531 106 ° 15 km/h 927 m -11.2 m/s 402.700 MHz Esternberg (AT) 0.00 km LOST
T1310820 RS41 2022-01-26 01:07:55 48.6217 13.7281 78 ° 15 km/h 911 m -5.4 m/s 402.70 MHz Esternberg (AT) 0.00 km UNKNOWN
T1310856 RS41 2022-01-25 19:27:17 48.3803 13.7746 116 ° 22 km/h 544 m -4.6 m/s 402.700 MHz Natternbach (AT) 0.00 km UNKNOWN
T1310830 RS41 2022-01-25 13:13:29 48.4847 13.3396 120 ° 9 km/h 691 m -3.5 m/s 402.70 MHz Schärding (AT) 0.00 km UNKNOWN
T1231066 RS41 2022-01-25 07:42:14 48.6651 13.1764 96 ° 9 km/h 799 m -12.5 m/s 404.90 MHz Passau (DE) 0.00 km FOUND
T1310819 RS41 2022-01-25 06:35:29 48.6541 12.0451 16 ° 6 km/h 689 m -3.1 m/s 402.70 MHz Landshut (DE) 0.00 km UNKNOWN
T1231109 RS41 2022-01-25 01:00:09 48.6173 13.0432 152 ° 22 km/h 1290 m -8.4 m/s 402.700 MHz Deggendorf (DE) 0.00 km FOUND
T1310803 RS41 2022-01-24 19:15:12 48.5165 13.0225 319 ° 15 km/h 860 m -4.0 m/s 402.70 MHz Braunau am Inn (AT) 0.00 km FOUND
T1320630 RS41 2022-01-24 13:05:42 48.6128 12.5653 305 ° 15 km/h 871 m -12.2 m/s 402.70 MHz Straubing (DE) 0.00 km FOUND
T1310821 RS41 2022-01-24 07:25:53 48.3542 12.7977 331 ° 11 km/h 748 m -10.9 m/s 402.70 MHz Braunau am Inn (AT) 0.00 km FOUND
T1240957 RS41 2022-01-24 01:22:20 48.4464 12.4878 169 ° 6 km/h 872 m -5.1 m/s 402.700 MHz Waldkraiburg (DE) 0.00 km FOUND
T1310804 RS41 2022-01-23 18:58:15 48.6023 12.4921 152 ° 15 km/h 796 m -6.7 m/s 402.70 MHz Landshut (DE) 0.00 km FOUND
T1240959 RS41 2022-01-23 13:12:07 48.4685 12.3858 141 ° 15 km/h 899 m -5.3 m/s 402.70 MHz Landshut (DE) 0.00 km FOUND
T1240955 RS41 2022-01-23 07:02:26 48.3996 12.7122 131 ° 26 km/h 963 m -12.1 m/s 402.70 MHz Braunau am Inn (AT) 0.00 km FOUND
T1320591 RS41 2022-01-23 01:15:19 48.1723 13.1626 82 ° 15 km/h 519 m -4.8 m/s 402.700 MHz Mauerkirchen (AT) 0.00 km UNKNOWN
T1320585 RS41 2022-01-22 19:25:00 47.7189 13.0146 2 ° 4 km/h 1493 m -3.7 m/s 402.70 MHz Grödig (AT) 0.00 km UNKNOWN
T1240973 RS41 2022-01-22 13:09:01 47.7742 13.5681 131 ° 48 km/h 1653 m -4.9 m/s 402.70 MHz Bad Ischl (AT) 0.00 km UNKNOWN
T1310818 RS41 2022-01-22 07:27:58 47.3489 14.0899 150 ° 80 km/h 2700 m -10.4 m/s 402.700 MHz Irdning (AT) 0.00 km UNKNOWN
T1320595 RS41 2022-01-22 01:15:32 47.2738 13.577 166 ° 104 km/h 3382 m -4.0 m/s 402.70 MHz Radstadt (AT) 0.00 km UNKNOWN
T1320550 RS41 2022-01-21 19:10:46 47.2034 13.6307 159 ° 109 km/h 3412 m -6.8 m/s 402.700 MHz Mariapfarr (AT) 0.00 km UNKNOWN
T1311019 RS41 2022-01-21 12:47:02 47.7631 13.6751 101 ° 59 km/h 1502 m -13.3 m/s 402.70 MHz Bad Ischl (AT) 0.00 km UNKNOWN
T1310854 RS41 2022-01-21 07:21:25 47.2392 14.0506 142 ° 59 km/h 2662 m -6.0 m/s 402.70 MHz Murau (AT) 0.00 km UNKNOWN
T1320589 RS41 2022-01-21 01:15:48 47.355 14.7318 148 ° 61 km/h 2050 m -15.6 m/s 402.70 MHz Spielberg bei Knittelfeld (AT) 0.00 km UNKNOWN
T1320552 RS41 2022-01-20 19:08:24 47.6102 15.4183 139 ° 85 km/h 1761 m -11.2 m/s 402.70 MHz Mitterdorf im Mürztal (AT) 0.00 km NEED ATTENTION
T1320593 RS41 2022-01-20 13:21:15 47.9196 15.7009 165 ° 4 km/h 957 m -2.8 m/s 402.700 MHz Sankt Veit an der Gölsen (AT) 0.00 km UNKNOWN
T1320592 RS41 2022-01-20 07:15:56 48.4498 15.5744 67 ° 22 km/h 444 m -8.8 m/s 402.700 MHz Krems an der Donau (AT) 0.00 km LOST
T1311025 RS41 2022-01-20 01:06:02 48.9461 15.4469 82 ° 48 km/h 659 m -6.2 m/s 402.700 MHz Raabs an der Thaya (AT) 0.00 km FOUND
T1311016 RS41 2022-01-19 19:09:55 48.9632 15.8696 73 ° 13 km/h 529 m -5.6 m/s 402.70 MHz Moravské Budějovice (CZ) 0.00 km UNKNOWN
T1310182 RS41 2022-01-19 13:23:57 49.0098 15.2339 334 ° 11 km/h 666 m -9.2 m/s 402.70 MHz Litschau (AT) 0.00 km UNKNOWN
T1311022 RS41 2022-01-19 07:00:08 48.7628 14.7976 352 ° 7 km/h 771 m -11.0 m/s 402.70 MHz Weitra (AT) 0.00 km UNKNOWN
T1310445 RS41 2022-01-19 01:19:54 48.4683 14.2388 250 ° 6 km/h 768 m -4.3 m/s 402.70 MHz Oberneukirchen (AT) 0.00 km FOUND
T1240958 RS41 2022-01-18 19:22:53 48.0755 14.5002 67 ° 6 km/h 447 m -6.0 m/s 402.700 MHz Haidershofen (AT) 0.00 km FOUND
T1311017 RS41 2022-01-18 13:17:04 48.0636 14.5008 109 ° 19 km/h 477 m -5.2 m/s 402.70 MHz Behamberg (AT) 0.00 km UNKNOWN
T1310183 RS41 2022-01-18 07:04:13 48.0702 14.1437 117 ° 17 km/h 491 m -12.2 m/s 402.70 MHz Kremsmünster (AT) 0.00 km UNKNOWN
T1240974 RS41 2022-01-18 01:37:20 47.5648 14.6181 143 ° 41 km/h 2035 m -2.2 m/s 402.700 MHz Admont (AT) 0.00 km UNKNOWN
T1250280 RS41 2022-01-17 19:13:00 47.6344 14.8498 138 ° 91 km/h 3234 m -12.0 m/s 402.700 MHz Landl (AT) 0.00 km UNKNOWN
T1250233 RS41 2022-01-17 12:57:36 47.8165 13.6591 48 ° 46 km/h 1453 m -14.8 m/s 402.700 MHz Ebensee (AT) 0.00 km UNKNOWN
T1250230 RS41 2022-01-17 07:18:56 47.8388 14.6956 132 ° 54 km/h 1076 m -9.5 m/s 402.70 MHz Weyer Markt (AT) 0.00 km UNKNOWN
T1310512 RS41 2022-01-17 01:13:17 48.3046 14.6682 98 ° 24 km/h 605 m -9.7 m/s 402.70 MHz Tragwein (AT) 0.00 km UNKNOWN
T1240972 RS41 2022-01-16 19:18:43 48.6798 15.5264 112 ° 50 km/h 581 m -5.8 m/s 402.700 MHz Horn (AT) 0.00 km FOUND
T1250188 RS41 2022-01-16 13:06:27 49.0471 15.3157 93 ° 35 km/h 810 m -12.2 m/s 402.70 MHz Dačice (CZ) 0.00 km FOUND
T1310513 RS41 2022-01-16 07:07:48 48.8858 14.8727 320 ° 15 km/h 610 m -5.4 m/s 402.700 MHz Litschau (AT) 0.00 km FOUND
T1310516 RS41 2022-01-16 01:17:43 48.5215 14.8878 355 ° 13 km/h 1027 m -6.6 m/s 402.70 MHz Grossgerungs (AT) 0.00 km UNKNOWN
T1250126 RS41 2022-01-15 19:31:43 47.9801 15.0256 260 ° 7 km/h 696 m -7.8 m/s 402.70 MHz Gaming (AT) 0.00 km UNKNOWN
T1310514 RS41 2022-01-15 13:14:31 48.1308 14.1164 247 ° 11 km/h 437 m -4.8 m/s 402.70 MHz Weisskirchen an der Traun (AT) 0.00 km UNKNOWN
T1310482 RS41 2022-01-15 07:03:58 47.858 14.2815 131 ° 7 km/h 1124 m -10.8 m/s 402.70 MHz Molln (AT) 0.00 km UNKNOWN
T1310983 RS41 2022-01-15 01:09:40 47.6832 14.0645 128 ° 33 km/h 1719 m -9.2 m/s 402.700 MHz Stainach (AT) 0.00 km UNKNOWN
T1250121 RS41 2022-01-14 19:27:31 47.4159 14.4752 150 ° 41 km/h 2074 m -6.7 m/s 402.70 MHz Trieben (AT) 0.00 km UNKNOWN
T1250279 RS41 2022-01-14 13:17:58 47.8013 13.9735 113 ° 31 km/h 1644 m -7.8 m/s 402.700 MHz Scharnstein (AT) 0.00 km UNKNOWN
T1250277 RS41 2022-01-14 07:09:12 47.9208 13.2225 73 ° 19 km/h 888 m -6.4 m/s 402.700 MHz Neumarkt am Wallersee (AT) 0.00 km UNKNOWN
T1250281 RS41 2022-01-14 01:20:10 47.9519 13.1391 27 ° 22 km/h 770 m -9.7 m/s 402.700 MHz Köstendorf (AT) 0.00 km FOUND
T1250278 RS41 2022-01-13 19:27:00 48.0476 12.232 186 ° 7 km/h 641 m -4.2 m/s 402.700 MHz Waldkraiburg (DE) 0.00 km FOUND
T1250234 RS41 2022-01-13 13:31:00 48.0316 11.5178 250 ° 9 km/h 682 m -4.5 m/s 404.900 MHz Unterhaching (DE) 0.00 km NEED ATTENTION
T1240610 RS41 2022-01-13 07:16:00 48.1278 11.5606 337 ° 4 km/h 642 m -13.2 m/s 402.70 MHz München (DE) 0.00 km FOUND
T1250229 RS41 2022-01-13 01:20:00 48.0837 11.4645 304 ° 6 km/h 676 m -5.6 m/s 402.700 MHz Germering (DE) 0.00 km FOUND
T1250187 RS41 2022-01-12 18:59:39 48.2855 11.5449 246 ° 7 km/h 681 m -13.5 m/s 402.70 MHz Unterschleißheim (DE) 0.00 km UNKNOWN
T1250215 RS41 2022-01-12 13:11:34 48.5541 12.1403 120 ° 4 km/h 650 m -10.6 m/s 404.900 MHz Landshut (DE) 0.00 km UNKNOWN
T1240960 RS41 2022-01-12 07:17:54 48.5995 12.2126 158 ° 4 km/h 699 m -5.9 m/s 402.700 MHz Landshut (DE) 0.00 km UNKNOWN
T1250232 RS41 2022-01-12 01:11:58 48.6177 12.0197 218 ° 6 km/h 646 m -9.3 m/s 402.700 MHz Landshut (DE) 0.00 km UNKNOWN
T1250123 RS41 2022-01-11 19:03:34 48.6322 12.1527 200 ° 9 km/h 640 m -3.7 m/s 402.700 MHz Landshut (DE) 0.00 km UNKNOWN
T1240723 RS41 2022-01-11 13:00:38 48.72 11.8825 195 ° 13 km/h 529 m -6.6 m/s 402.700 MHz Landshut (DE) 0.00 km NEED ATTENTION
T1310995 RS41 2022-01-11 07:36:54 48.6296 12.0952 218 ° 13 km/h 633 m -4.1 m/s 402.70 MHz Landshut (DE) 0.00 km UNKNOWN
T1250212 RS41 2022-01-11 01:18:00 48.8155 12.4425 203 ° 20 km/h 661 m -6.3 m/s 402.700 MHz Straubing (DE) 0.00 km FOUND
T1250122 RS41 2022-01-10 21:11:39 48.8767 14.4483 143 ° 24 km/h 683 m -2.9 m/s 402.700 MHz České Budějovice (CZ) 0.00 km UNKNOWN
T1310484 RS41 2022-01-10 13:02:00 48.9907 12.3681 171 ° 24 km/h 693 m -5.0 m/s 402.70 MHz Regensburg (DE) 0.00 km LOST
T1310494 RS41 2022-01-10 07:10:15 49.1863 13.4942 158 ° 17 km/h 1114 m -12.0 m/s 402.70 MHz Sušice (CZ) 0.00 km FOUND
T1310980 RS41 2022-01-10 01:11:59 49.4161 13.549 102 ° 22 km/h 784 m -6.4 m/s 402.700 MHz Horažďovice (CZ) 0.00 km UNKNOWN
T1310993 RS41 2022-01-09 19:06:26 49.4482 13.5658 81 ° 43 km/h 712 m -7.1 m/s 402.700 MHz Horažďovice (CZ) 0.00 km UNKNOWN
T1250124 RS41 2022-01-09 13:22:09 49.7552 14.2159 72 ° 33 km/h 488 m -8.1 m/s 402.700 MHz Dobříš (CZ) 0.00 km UNKNOWN
T1310485 RS41 2022-01-09 07:17:53 49.7316 14.2149 351 ° 22 km/h 556 m -9.6 m/s 402.700 MHz Dobříš (CZ) 0.00 km UNKNOWN
T1320584 RS41 2022-01-09 01:08:06 49.568 14.2241 339 ° 30 km/h 558 m -4.7 m/s 402.700 MHz Milevsko (CZ) 0.00 km UNKNOWN
T1311020 RS41 2022-01-08 19:20:32 48.9432 14.4379 91 ° 19 km/h 1066 m -5.2 m/s 402.70 MHz České Budějovice (CZ) 0.00 km FOUND
T1311026 RS41 2022-01-08 13:20:49 49.0342 14.1 75 ° 43 km/h 1132 m -8.7 m/s 402.70 MHz Prachatice (CZ) 0.00 km FOUND
T1311015 RS41 2022-01-08 07:18:32 49.785 14.3991 357 ° 15 km/h 445 m -6.8 m/s 402.700 MHz Mníšek pod Brdy (CZ) 0.00 km UNKNOWN
T1311024 RS41 2022-01-08 01:19:47 50.1855 14.6169 24 ° 28 km/h 272 m -4.6 m/s 402.700 MHz Brandýs nad Labem-Stará Boleslav (CZ) 0.00 km FOUND
T1310071 RS41 2022-01-07 18:49:14 49.9313 13.6014 42 ° 17 km/h 461 m -9.0 m/s 402.70 MHz Třemošná (CZ) 0.00 km UNKNOWN
T1240986 RS41 2022-01-07 13:01:36 49.8275 14.1098 3 ° 31 km/h 760 m -9.0 m/s 402.70 MHz Dobříš (CZ) 0.00 km UNKNOWN
T1240985 RS41 2022-01-07 06:55:59 49.4102 13.7352 51 ° 22 km/h 898 m -12.7 m/s 402.70 MHz Horažďovice (CZ) 0.00 km UNKNOWN
T1240738 RS41 2022-01-07 01:07:30 48.9976 13.6381 72 ° 30 km/h 1365 m -7.6 m/s 402.700 MHz Vimperk (CZ) 0.00 km UNKNOWN
T1240616 RS41 2022-01-06 19:01:06 48.6285 13.4087 125 ° 6 km/h 934 m -9.8 m/s 402.700 MHz Passau (DE) 0.00 km UNKNOWN
T1241032 RS41 2022-01-06 13:15:28 48.5575 13.9865 143 ° 31 km/h 831 m -4.7 m/s 402.700 MHz Rohrbach (AT) 0.00 km FOUND
T1240617 RS41 2022-01-06 06:55:11 48.9196 14.3894 73 ° 37 km/h 735 m -13.4 m/s 402.700 MHz České Budějovice (CZ) 0.00 km UNKNOWN
T1240988 RS41 2022-01-06 01:29:58 49.449 15.5569 91 ° 61 km/h 847 m -5.0 m/s 402.70 MHz Jihlava (CZ) 0.00 km UNKNOWN
T1240987 RS41 2022-01-05 19:26:20 49.7618 16.074 83 ° 63 km/h 1065 m -3.8 m/s 402.70 MHz Skuteč (CZ) 0.00 km UNKNOWN
T1240990 RS41 2022-01-05 12:54:08 49.9866 15.4391 104 ° 35 km/h 617 m -10.9 m/s 402.700 MHz Čáslav (CZ) 0.00 km FOUND
T1240608 RS41 2022-01-05 07:02:57 50.0073 15.625 91 ° 52 km/h 1108 m -10.2 m/s 402.701 MHz Přelouč (CZ) 0.00 km FOUND
T1240969 RS41 2022-01-05 01:11:03 50.0822 16.1691 109 ° 33 km/h 1672 m -9.0 m/s 402.70 MHz Kostelec nad Orlicí (CZ) 0.00 km UNKNOWN
T1240956 RS41 2022-01-04 19:27:28 49.716 16.5055 98 ° 54 km/h 1052 m -8.5 m/s 402.70 MHz Svitavy (CZ) 0.00 km UNKNOWN
T1310511 RS41 2022-01-04 13:31:37 49.5383 16.4383 27 ° 44 km/h 839 m -5.7 m/s 402.701 MHz Letovice (CZ) 0.00 km UNKNOWN
T1311004 RS41 2022-01-04 07:06:54 49.0634 15.5434 39 ° 15 km/h 600 m -10.1 m/s 402.700 MHz Dačice (CZ) 0.00 km UNKNOWN
T1311018 RS41 2022-01-04 01:48:30 48.44 16.5937 355 ° 11 km/h 252 m -2.7 m/s 402.701 MHz Gaweinstal (AT) 0.00 km FOUND
T1311006 RS41 2022-01-03 19:01:02 48.691 15.2755 82 ° 33 km/h 731 m -12.6 m/s 404.90 MHz Vitis (AT) 0.00 km FOUND
T1240614 RS41 2022-01-03 13:07:26 48.8012 15.4393 108 ° 35 km/h 636 m -8.6 m/s 402.701 MHz Groß-Siegharts (AT) 0.00 km FOUND
T1240618 RS41 2022-01-03 07:22:59 48.8356 15.9686 103 ° 31 km/h 468 m -8.2 m/s 402.700 MHz Znojmo (CZ) 0.00 km UNKNOWN
T1240613 RS41 2022-01-03 00:49:58 49.2765 15.4745 92 ° 41 km/h 751 m -8.6 m/s 402.70 MHz Třešť (CZ) 0.00 km UNKNOWN
T1240607 RS41 2022-01-02 19:16:24 49.3702 15.8889 81 ° 44 km/h 709 m -6.3 m/s 402.701 MHz Velké Meziříčí (CZ) 0.00 km UNKNOWN
T1241028 RS41 2022-01-02 13:12:37 49.5108 15.0507 73 ° 35 km/h 892 m -12.2 m/s 402.70 MHz Pelhřimov (CZ) 0.00 km UNKNOWN
T1240615 RS41 2022-01-02 07:34:38 49.11 15.0158 43 ° 15 km/h 642 m -10.4 m/s 402.70 MHz Jindřichŭv Hradec (CZ) 0.00 km FOUND
T1240609 RS41 2022-01-02 01:11:06 49.093 14.2795 27 ° 6 km/h 797 m -10.0 m/s 402.70 MHz Vodňany (CZ) 0.00 km UNKNOWN
T1241031 RS41 2022-01-01 19:15:08 48.7768 13.9156 158 ° 6 km/h 1064 m -3.4 m/s 402.700 MHz Ulrichsberg (AT) 0.00 km UNKNOWN
T1250862 RS41 2022-01-01 13:04:04 48.7718 13.8211 103 ° 17 km/h 1379 m -7.2 m/s 402.701 MHz Ulrichsberg (AT) 0.00 km UNKNOWN
T1241037 RS41 2022-01-01 07:00:37 48.55 13.738 99 ° 43 km/h 868 m -13.1 m/s 402.701 MHz Sarleinsbach (AT) 0.00 km UNKNOWN
T1241035 RS41 2022-01-01 01:31:00 48.1766 14.2397 272 ° 20 km/h 358 m -2.1 m/s 402.70 MHz Sankt Marien (AT) 0.00 km NEED ATTENTION
T1241049 RS41 2021-12-31 19:23:30 48.7604 14.7998 79 ° 44 km/h 737 m -4.2 m/s 402.701 MHz Weitra (AT) 0.00 km UNKNOWN
T1241046 RS41 2021-12-31 12:54:37 49.0722 14.051 89 ° 24 km/h 1116 m -10.7 m/s 402.700 MHz Prachatice (CZ) 0.00 km FOUND
T1340592 RS41 2021-12-31 06:52:20 48.7455 13.8913 74 ° 41 km/h 1190 m -8.9 m/s 402.70 MHz Ulrichsberg (AT) 0.00 km UNKNOWN
T1340589 RS41 2021-12-31 01:24:54 48.3214 14.3379 46 ° 7 km/h 317 m -5.3 m/s 402.70 MHz Linz (AT) 0.00 km FOUND
T1241033 RS41 2021-12-30 19:13:46 48.22 14.0904 98 ° 22 km/h 386 m -6.8 m/s 402.70 MHz Marchtrenk (AT) 0.00 km FOUND
T1241036 RS41 2021-12-30 12:58:16 48.2114 13.8462 95 ° 37 km/h 514 m -13.5 m/s 402.700 MHz Schlüsslberg (AT) 0.00 km UNKNOWN
T1241034 RS41 2021-12-30 07:20:46 47.7291 14.1292 346 ° 33 km/h 1903 m -4.1 m/s 402.700 MHz Windischgarsten (AT) 0.00 km UNKNOWN
T1240716 RS41 2021-12-30 00:43:18 48.1235 13.5461 75 ° 39 km/h 797 m -9.9 m/s 402.70 MHz Eberschwang (AT) 0.00 km UNKNOWN
T1340590 RS41 2021-12-29 19:16:53 47.6584 14.2138 176 ° 7 km/h 1817 m -4.8 m/s 402.70 MHz Spital am Pyhrn (AT) 0.00 km UNKNOWN
T1340594 RS41 2021-12-29 12:20:07 48.1568 13.3937 93 ° 48 km/h 755 m -8.3 m/s 402.70 MHz Lohnsburg (AT) 0.00 km FOUND
T1240715 RS41 2021-12-29 07:20:57 47.8243 14.5402 107 ° 31 km/h 1187 m -5.3 m/s 402.70 MHz Grossraming (AT) 0.00 km UNKNOWN
T1340593 RS41 2021-12-29 02:09:25 48.5257 16.0177 24 ° 15 km/h 404 m -10.2 m/s 402.701 MHz Ziersdorf (AT) 0.00 km FOUND
T1241038 RS41 2021-12-28 19:07:19 49.2031 14.2666 66 ° 59 km/h 1051 m -14.3 m/s 402.701 MHz Vodňany (CZ) 0.00 km FOUND
T1340591 RS41 2021-12-28 12:55:03 49.2108 13.986 24 ° 20 km/h 962 m -7.2 m/s 402.70 MHz Strakonice (CZ) 0.00 km FOUND
T1241048 RS41 2021-12-28 07:24:11 49.1728 14.7709 306 ° 22 km/h 572 m -6.4 m/s 402.701 MHz Veselí nad Lužnicí (CZ) 0.00 km LOST
T1241047 RS41 2021-12-28 01:17:03 49.2551 14.6409 318 ° 22 km/h 590 m -5.9 m/s 402.70 MHz Soběslav (CZ) 0.00 km UNKNOWN
T1240975 RS41 2021-12-27 19:32:56 48.875 15.0021 297 ° 17 km/h 587 m -5.3 m/s 402.70 MHz Litschau (AT) 0.00 km FOUND
T1241027 RS41 2021-12-27 12:50:05 48.9295 14.4433 40 ° 13 km/h 1108 m -12.2 m/s 402.700 MHz České Budějovice (CZ) 0.00 km FOUND
T1241045 RS41 2021-12-27 07:31:10 48.9622 14.7031 324 ° 15 km/h 571 m -3.8 m/s 402.70 MHz Třeboň (CZ) 0.00 km UNKNOWN
T1240831 RS41 2021-12-27 01:20:07 49.0328 14.9308 302 ° 13 km/h 569 m -3.6 m/s 402.70 MHz Třeboň (CZ) 0.00 km FOUND
T1240971 RS41 2021-12-26 19:17:10 48.9798 14.7972 298 ° 17 km/h 556 m -5.4 m/s 402.70 MHz Třeboň (CZ) 0.00 km FOUND
T1311005 RS41 2021-12-26 13:16:25 49.1323 14.9369 253 ° 15 km/h 611 m -5.7 m/s 402.700 MHz Jindřichŭv Hradec (CZ) 0.00 km FOUND
T1311023 RS41 2021-12-26 07:15:54 49.118 15.1403 275 ° 28 km/h 767 m -5.8 m/s 402.70 MHz Jindřichŭv Hradec (CZ) 0.00 km UNKNOWN
T1240970 RS41 2021-12-26 00:58:22 49.2361 15.2345 267 ° 26 km/h 741 m -11.5 m/s 402.70 MHz Telč (CZ) 0.00 km UNKNOWN
T1310498 RS41 2021-12-25 19:10:38 49.1194 15.4839 248 ° 28 km/h 639 m -6.8 m/s 402.70 MHz Dačice (CZ) 0.00 km UNKNOWN
T1240967 RS41 2021-12-25 12:58:42 49.3157 15.1698 209 ° 19 km/h 730 m -8.0 m/s 402.70 MHz Pelhřimov (CZ) 0.00 km UNKNOWN
T1240612 RS41 2021-12-25 06:29:26 49.3013 14.2474 249 ° 30 km/h 870 m -5.4 m/s 402.700 MHz Písek (CZ) 0.00 km FOUND
T1240989 RS41 2021-12-25 01:09:41 49.3362 16.5722 98 ° 11 km/h 623 m -13.2 m/s 402.70 MHz Kuřim (CZ) 0.00 km FOUND
T1240968 RS41 2021-12-24 19:17:00 49.1411 16.8668 56 ° 37 km/h 307 m -4.5 m/s 402.70 MHz Slavkov u Brna (CZ) 0.00 km FOUND
T1240611 RS41 2021-12-24 13:19:40 49.3578 16.9866 90 ° 35 km/h 605 m -4.3 m/s 402.70 MHz Vyškov (CZ) 0.00 km NEED ATTENTION
S3130374 RS41 2021-12-24 07:18:43 48.8249 15.8654 91 ° 33 km/h 488 m -5.4 m/s 402.70 MHz Retz (AT) 0.00 km FOUND
S3130277 RS41 2021-12-24 00:47:11 48.6167 15.1418 111 ° 48 km/h 679 m -8.8 m/s 402.701 MHz Zwettl (AT) 0.00 km FOUND
S3130266 RS41 2021-12-23 18:20:21 48.4558 13.5554 101 ° 9 km/h 636 m -12.0 m/s 402.70 MHz Münzkirchen (AT) 0.00 km UNKNOWN
S3130154 RS41 2021-12-23 13:07:58 48.1543 14.9712 104 ° 11 km/h 418 m -4.1 m/s 402.70 MHz Sankt Georgen am Ybbsfelde (AT) 0.00 km FOUND
S3130378 RS41 2021-12-23 06:18:45 48.5973 13.1822 310 ° 11 km/h 614 m -10.2 m/s 402.700 MHz Passau (DE) 0.00 km UNKNOWN
S3130269 RS41 2021-12-23 01:05:33 48.167 14.5072 284 ° 19 km/h 369 m -9.0 m/s 402.701 MHz Sankt Valentin (AT) 0.00 km FOUND
S3130158 RS41 2021-12-22 18:51:13 48.4358 14.5928 252 ° 11 km/h 741 m -10.7 m/s 402.70 MHz Gutau (AT) 0.00 km UNKNOWN
S3120583 RS41 2021-12-22 13:13:00 48.3425 14.7254 287 ° 11 km/h 637 m -5.3 m/s 402.70 MHz Tragwein (AT) 0.00 km UNKNOWN
S3130359 RS41 2021-12-22 07:46:00 48.5594 14.5068 243 ° 13 km/h 827 m -11.5 m/s 404.90 MHz Rainbach im Mühlkreis (AT) 0.00 km FOUND
S3130357 RS41 2021-12-22 06:52:31 48.2637 12.7661 241 ° 6 km/h 464 m -3.0 m/s 402.70 MHz Hochburg-Ach (AT) 0.00 km UNKNOWN
S3130159 RS41 2021-12-22 01:01:58 48.5689 14.6502 200 ° 7 km/h 1030 m -12.4 m/s 402.70 MHz Sankt Oswald bei Freistadt (AT) 0.00 km FOUND
S3130316 RS41 2021-12-21 19:09:49 48.6006 14.5758 222 ° 17 km/h 946 m -5.1 m/s 404.90 MHz Rainbach im Mühlkreis (AT) 0.00 km FOUND
S3130375 RS41 2021-12-21 13:03:33 48.7658 14.4284 246 ° 4 km/h 871 m -5.6 m/s 402.70 MHz Kaplice (CZ) 0.00 km UNKNOWN
S3130267 RS41 2021-12-21 07:19:25 48.5449 14.816 275 ° 11 km/h 1040 m -7.0 m/s 402.70 MHz Grossgerungs (AT) 0.00 km UNKNOWN
S3130347 RS41 2021-12-21 01:24:02 48.2227 14.5586 157 ° 6 km/h 300 m -4.5 m/s 404.90 MHz Sankt Pantaleon (AT) 0.00 km FOUND
S3130356 RS41 2021-12-20 18:59:11 48.317 14.3817 96 ° 13 km/h 445 m -7.6 m/s 402.70 MHz Steyregg (AT) 0.00 km FOUND
S3130161 RS41 2021-12-20 12:42:45 48.4335 14.006 120 ° 15 km/h 606 m -12.7 m/s 402.70 MHz Sankt Martin im Mühlkreis (AT) 0.00 km FOUND
S3130151 RS41 2021-12-20 06:59:27 48.3595 14.3835 92 ° 15 km/h 548 m -13.1 m/s 402.70 MHz Gallneukirchen (AT) 0.00 km FOUND
S3130355 RS41 2021-12-20 01:18:13 48.3653 14.8921 97 ° 31 km/h 885 m -12.2 m/s 402.70 MHz Königswiesen (AT) 0.00 km UNKNOWN
S3130160 RS41 2021-12-19 19:31:32 48.207 14.6555 78 ° 28 km/h 294 m -4.6 m/s 402.70 MHz Naarn im Machland (AT) 0.00 km FOUND
S3130162 RS41 2021-12-19 13:25:42 48.4962 14.0816 122 ° 35 km/h 736 m -3.9 m/s 402.700 MHz Herzogsdorf (AT) 0.00 km FOUND
S3130376 RS41 2021-12-19 06:58:48 48.8133 13.2775 132 ° 9 km/h 845 m -14.7 m/s 402.70 MHz Deggendorf (DE) 0.00 km UNKNOWN
S3130157 RS41 2021-12-19 01:25:24 48.7006 13.2797 113 ° 35 km/h 1298 m -4.4 m/s 402.700 MHz Passau (DE) 0.00 km FOUND
S3130288 RS41 2021-12-18 18:57:02 48.775 12.8276 135 ° 15 km/h 857 m -12.8 m/s 402.70 MHz Deggendorf (DE) 0.00 km FOUND
S3130285 RS41 2021-12-18 12:56:14 48.8942 12.3701 114 ° 6 km/h 878 m -5.4 m/s 402.701 MHz Straubing (DE) 0.00 km FOUND
S3130265 RS41 2021-12-18 06:47:48 48.8113 12.1187 55 ° 11 km/h 532 m -10.9 m/s 402.700 MHz Regensburg (DE) 0.00 km FOUND
S3130268 RS41 2021-12-18 01:28:24 48.4208 11.9322 271 ° 7 km/h 647 m -5.0 m/s 402.701 MHz Erding (DE) 0.00 km FOUND
S3130377 RS41 2021-12-17 18:47:33 48.6554 11.8435 131 ° 13 km/h 572 m -14.3 m/s 402.70 MHz Landshut (DE) 0.00 km FOUND
S3050733 RS41 2021-12-17 12:45:18 48.6495 11.6878 142 ° 4 km/h 542 m -12.0 m/s 402.70 MHz Pfaffenhofen an der Ilm (DE) 0.00 km FOUND
S3050745 RS41 2021-12-17 07:10:24 48.3742 12.1187 115 ° 6 km/h 710 m -11.0 m/s 402.70 MHz Erding (DE) 0.00 km UNKNOWN
S3120880 RS41 2021-12-17 01:22:43 48.3507 11.9467 201 ° 6 km/h 653 m -3.9 m/s 402.70 MHz Erding (DE) 0.00 km FOUND
S3120879 RS41 2021-12-16 19:10:17 48.3672 12.0958 150 ° 13 km/h 867 m -3.8 m/s 402.70 MHz Erding (DE) 0.00 km UNKNOWN
S3050747 RS41 2021-12-16 13:15:39 48.3668 12.2984 109 ° 13 km/h 822 m -5.6 m/s 402.70 MHz Waldkraiburg (DE) 0.00 km UNKNOWN
S3050750 RS41 2021-12-16 07:25:15 48.3234 12.7496 65 ° 15 km/h 616 m -4.4 m/s 402.70 MHz Braunau am Inn (AT) 0.00 km FOUND
S3130282 RS41 2021-12-16 01:05:11 48.5697 13.0695 137 ° 6 km/h 883 m -9.8 m/s 402.70 MHz Passau (DE) 0.00 km FOUND
S3050746 RS41 2021-12-15 18:56:31 48.7404 12.8248 265 ° 6 km/h 939 m -8.8 m/s 402.70 MHz Deggendorf (DE) 0.00 km FOUND
S3130373 RS41 2021-12-15 13:04:52 48.7588 12.7317 16 ° 4 km/h 869 m -11.4 m/s 404.90 MHz Straubing (DE) 0.00 km FOUND
S3130286 RS41 2021-12-15 07:08:40 48.5741 12.2778 202 ° 2 km/h 722 m -6.3 m/s 402.700 MHz Landshut (DE) 0.00 km FOUND
S3050748 RS41 2021-12-15 01:07:02 48.4013 12.1671 162 ° 9 km/h 748 m -7.1 m/s 402.70 MHz Landshut (DE) 0.00 km UNKNOWN
S3130287 RS41 2021-12-14 19:22:16 48.1418 12.5582 73 ° 4 km/h 552 m -3.0 m/s 402.700 MHz Waldkraiburg (DE) 0.00 km FOUND
S3140283 RS41 2021-12-14 13:02:19 48.4993 13.0445 93 ° 11 km/h 630 m -5.5 m/s 402.70 MHz Braunau am Inn (AT) 0.00 km FOUND
S3131350 RS41 2021-12-14 07:12:47 48.5763 13.5795 76 ° 41 km/h 1369 m -11.4 m/s 402.70 MHz Esternberg (AT) 0.00 km UNKNOWN
S3131611 RS41 2021-12-14 01:03:41 48.7113 13.1916 59 ° 7 km/h 1515 m -9.1 m/s 402.70 MHz Deggendorf (DE) 0.00 km LOST
S3140302 RS41 2021-12-13 19:04:34 48.7924 13.3746 163 ° 15 km/h 1688 m -12.3 m/s 402.70 MHz Passau (DE) 0.00 km UNKNOWN
S3140303 RS41 2021-12-13 13:02:20 48.9657 13.275 173 ° 28 km/h 1373 m -9.9 m/s 402.70 MHz Deggendorf (DE) 0.00 km UNKNOWN
S3131208 RS41 2021-12-13 07:02:51 48.9182 13.2896 159 ° 35 km/h 1668 m -6.5 m/s 402.701 MHz Deggendorf (DE) 0.00 km UNKNOWN
S3131211 RS41 2021-12-13 01:18:37 48.7527 13.0151 104 ° 26 km/h 786 m -3.1 m/s 402.701 MHz Deggendorf (DE) 0.00 km FOUND
S3140304 RS41 2021-12-12 19:11:52 48.6147 13.1732 76 ° 13 km/h 582 m -5.7 m/s 402.70 MHz Passau (DE) 0.00 km LOST
S3140288 RS41 2021-12-12 13:06:37 48.768 13.1895 98 ° 26 km/h 1189 m -9.6 m/s 402.70 MHz Deggendorf (DE) 0.00 km FOUND
S3131209 RS41 2021-12-12 07:31:10 48.6055 13.3222 103 ° 30 km/h 750 m -8.7 m/s 402.70 MHz Passau (DE) 0.00 km FOUND
S3120801 RS41 2021-12-12 01:24:33 48.7121 13.0275 104 ° 24 km/h 757 m -8.5 m/s 402.70 MHz Deggendorf (DE) 0.00 km FOUND
S3120799 RS41 2021-12-11 19:09:43 49.1715 13.3144 97 ° 28 km/h 1127 m -10.4 m/s 402.70 MHz Sušice (CZ) 0.00 km UNKNOWN
S3140127 RS41 2021-12-11 13:28:40 49.4182 13.5297 120 ° 15 km/h 737 m -11.3 m/s 402.701 MHz Horažďovice (CZ) 0.00 km UNKNOWN
S3120764 RS41 2021-12-11 07:25:18 49.4381 13.2981 100 ° 6 km/h 503 m -7.6 m/s 402.701 MHz Klatovy (CZ) 0.00 km UNKNOWN
S3120569 RS41 2021-12-11 01:25:25 49.5293 13.3858 324 ° 15 km/h 572 m -4.8 m/s 402.70 MHz Přeštice (CZ) 0.00 km UNKNOWN
S3140128 RS41 2021-12-10 19:06:10 49.5337 13.3209 308 ° 6 km/h 492 m -12.6 m/s 402.70 MHz Přeštice (CZ) 0.00 km UNKNOWN
S3140144 RS41 2021-12-10 12:59:26 49.5507 13.1591 280 ° 11 km/h 532 m -11.2 m/s 402.700 MHz Holýšov (CZ) 0.00 km FOUND
S3120566 RS41 2021-12-10 07:12:27 49.5144 13.2353 348 ° 7 km/h 552 m -5.8 m/s 402.70 MHz Přeštice (CZ) 0.00 km UNKNOWN
S3120763 RS41 2021-12-10 01:19:53 49.6978 12.7487 40 ° 13 km/h 580 m -7.2 m/s 402.70 MHz Tachov (CZ) 0.00 km FOUND
S3120804 RS41 2021-12-09 19:10:39 49.7187 12.7309 86 ° 22 km/h 582 m -8.2 m/s 402.701 MHz Tachov (CZ) 0.00 km FOUND
S3140284 RS41 2021-12-09 13:00:09 49.9437 12.7658 96 ° 11 km/h 715 m -12.1 m/s 402.701 MHz Mariánské Lázně (CZ) 0.00 km FOUND
S3120568 RS41 2021-12-09 06:55:41 49.8896 12.6502 337 ° 4 km/h 600 m -10.7 m/s 402.700 MHz Planá (CZ) 0.00 km UNKNOWN
S3141040 RS41 2021-12-09 01:14:30 50.3751 12.6941 337 ° 13 km/h 1003 m -5.1 m/s 402.701 MHz Nejdek (CZ) 0.00 km FOUND
S3140285 RS41 2021-12-08 19:12:30 50.3258 13.0507 234 ° 7 km/h 811 m -11.8 m/s 402.70 MHz Ostrov (CZ) 0.00 km UNKNOWN
S3141042 RS41 2021-12-08 13:06:50 50.1282 13.5163 263 ° 15 km/h 624 m -7.0 m/s 402.70 MHz Podbořany (CZ) 0.00 km UNKNOWN
S3141039 RS41 2021-12-08 06:52:54 49.7092 13.3891 253 ° 7 km/h 405 m -10.5 m/s 402.701 MHz Plzeň (CZ) 0.00 km UNKNOWN
S3140286 RS41 2021-12-08 01:02:56 49.3395 13.6333 313 ° 33 km/h 771 m -11.8 m/s 402.70 MHz Horažďovice (CZ) 0.00 km UNKNOWN
S3131349 RS41 2021-12-07 19:10:46 48.6752 13.9088 90 ° 11 km/h 1057 m -9.3 m/s 402.70 MHz Ulrichsberg (AT) 0.00 km UNKNOWN
S3131360 RS41 2021-12-07 12:51:06 49.1243 13.3653 78 ° 41 km/h 1223 m -13.0 m/s 402.70 MHz Sušice (CZ) 0.00 km UNKNOWN
S3131347 RS41 2021-12-07 06:58:54 49.1104 13.4354 51 ° 28 km/h 1150 m -7.2 m/s 402.700 MHz Sušice (CZ) 0.00 km UNKNOWN
S3140287 RS41 2021-12-07 01:21:31 48.8989 13.6273 69 ° 13 km/h 1284 m -5.2 m/s 402.701 MHz Vimperk (CZ) 0.00 km UNKNOWN
S3131207 RS41 2021-12-06 18:53:19 48.6391 13.0885 127 ° 57 km/h 657 m -8.5 m/s 402.700 MHz Deggendorf (DE) 0.00 km UNKNOWN
S3131612 RS41 2021-12-06 12:53:30 48.8556 13.1082 160 ° 20 km/h 1259 m -10.4 m/s 402.70 MHz Deggendorf (DE) 0.00 km UNKNOWN
S3131212 RS41 2021-12-06 07:07:06 48.9598 13.1802 137 ° 19 km/h 1509 m -3.3 m/s 402.701 MHz Deggendorf (DE) 0.00 km UNKNOWN
S3120767 RS41 2021-12-06 01:29:41 49.1998 13.2083 65 ° 7 km/h 988 m -3.5 m/s 402.701 MHz Klatovy (CZ) 0.00 km UNKNOWN
S3120567 RS41 2021-12-05 19:05:48 49.3265 13.4368 127 ° 17 km/h 839 m -8.2 m/s 402.700 MHz Sušice (CZ) 0.00 km UNKNOWN
S3140130 RS41 2021-12-05 13:26:36 49.5998 14.4471 57 ° 11 km/h 486 m -10.7 m/s 402.70 MHz Sedlčany (CZ) 0.00 km UNKNOWN
S3140129 RS41 2021-12-05 07:16:39 49.6046 14.1568 88 ° 28 km/h 601 m -5.5 m/s 402.701 MHz Příbram (CZ) 0.00 km UNKNOWN
S3131345 RS41 2021-12-05 00:58:16 49.5719 14.2016 99 ° 39 km/h 716 m -9.2 m/s 402.701 MHz Milevsko (CZ) 0.00 km UNKNOWN
S3131382 RS41 2021-12-04 20:10:50 49.4809 15.2419 9 ° 37 km/h 859 m -2.5 m/s 402.70 MHz Pelhřimov (CZ) 0.00 km UNKNOWN
S3120766 RS41 2021-12-04 13:02:58 49.1012 15.0579 340 ° 20 km/h 628 m -3.4 m/s 402.700 MHz Jindřichŭv Hradec (CZ) 0.00 km FOUND
S3120802 RS41 2021-12-04 07:27:04 48.9701 15.297 34 ° 4 km/h 608 m -2.0 m/s 402.70 MHz Dačice (CZ) 0.00 km FOUND
S3140394 RS41 2021-12-04 00:58:20 48.9163 14.5577 21 ° 22 km/h 641 m -3.5 m/s 402.70 MHz České Budějovice (CZ) 0.00 km UNKNOWN
S3140774 RS41 2021-12-03 19:03:58 48.7065 14.6235 37 ° 35 km/h 954 m -9.6 m/s 402.70 MHz Kaplice (CZ) 0.00 km UNKNOWN
S3140037 RS41 2021-12-03 13:03:11 48.872 14.274 64 ° 28 km/h 1120 m -5.3 m/s 402.70 MHz Český Krumlov (CZ) 0.00 km UNKNOWN
S3131358 RS41 2021-12-03 07:25:58 48.805 14.7572 63 ° 17 km/h 580 m -3.9 m/s 402.701 MHz Trhové Sviny (CZ) 0.00 km UNKNOWN
S3131389 RS41 2021-12-03 00:59:23 49.3466 14.7885 151 ° 30 km/h 913 m -13.9 m/s 402.701 MHz Sezimovo Ústí (CZ) 0.00 km UNKNOWN
S3131391 RS41 2021-12-02 19:12:37 49.7618 15.1753 172 ° 26 km/h 647 m -5.2 m/s 402.700 MHz Světlá nad Sázavou (CZ) 0.00 km UNKNOWN
S3131387 RS41 2021-12-02 13:18:01 50.0287 15.5674 120 ° 13 km/h 618 m -11.6 m/s 402.70 MHz Přelouč (CZ) 0.00 km FOUND
S3131362 RS41 2021-12-02 07:14:49 49.867 15.4608 94 ° 35 km/h 738 m -11.2 m/s 402.700 MHz Čáslav (CZ) 0.00 km FOUND
S3120672 RS41 2021-12-02 01:22:54 49.9673 15.9727 85 ° 63 km/h 1170 m -7.2 m/s 402.700 MHz Holice (CZ) 0.00 km FOUND
S3131348 RS41 2021-12-01 19:05:40 49.8839 15.6076 73 ° 81 km/h 1204 m -8.1 m/s 402.70 MHz Chrudim (CZ) 0.00 km NEED ATTENTION
S3131614 RS41 2021-12-01 12:51:13 49.6391 14.8606 58 ° 59 km/h 924 m -13.7 m/s 402.700 MHz Vlašim (CZ) 0.00 km UNKNOWN
S3131384 RS41 2021-12-01 07:09:48 49.0223 14.9791 37 ° 22 km/h 634 m -7.3 m/s 402.700 MHz Litschau (AT) 0.00 km FOUND
S3131390 RS41 2021-12-01 01:22:15 48.473 15.2934 85 ° 52 km/h 824 m -4.2 m/s 402.70 MHz Gföhl (AT) 0.00 km FOUND
S3131372 RS41 2021-11-30 19:30:19 48.2789 15.7019 100 ° 35 km/h 275 m -2.5 m/s 402.700 MHz Herzogenburg (AT) 0.00 km FOUND
S3120685 RS41 2021-11-30 13:15:36 48.3541 14.7248 70 ° 37 km/h 658 m -9.2 m/s 402.70 MHz Tragwein (AT) 0.00 km UNKNOWN
S3140391 RS41 2021-11-30 07:01:04 48.3414 13.8142 69 ° 48 km/h 495 m -4.6 m/s 402.70 MHz Peuerbach (AT) 0.00 km UNKNOWN
S3131346 RS41 2021-11-30 01:10:38 48.5618 13.7092 106 ° 46 km/h 824 m -4.7 m/s 402.700 MHz Esternberg (AT) 0.00 km UNKNOWN
S3131357 RS41 2021-11-29 19:21:54 48.9416 14.2546 87 ° 39 km/h 821 m -5.8 m/s 402.70 MHz Český Krumlov (CZ) 0.00 km UNKNOWN
S3140407 RS41 2021-11-29 13:15:21 49.3405 14.0742 103 ° 28 km/h 750 m -4.7 m/s 402.70 MHz Písek (CZ) 0.00 km FOUND
S3140396 RS41 2021-11-29 07:26:06 49.4894 14.4593 114 ° 24 km/h 705 m -5.4 m/s 402.70 MHz Milevsko (CZ) 0.00 km UNKNOWN
S3120800 RS41 2021-11-29 01:20:48 49.7624 14.4404 327 ° 2 km/h 479 m -1.7 m/s 402.70 MHz Sedlčany (CZ) 0.00 km UNKNOWN
S3140081 RS41 2021-11-28 19:26:55 49.8604 14.3992 130 ° 7 km/h 303 m -4.0 m/s 402.70 MHz Mníšek pod Brdy (CZ) 0.00 km UNKNOWN
S3131386 RS41 2021-11-28 13:30:17 50.1975 14.8037 154 ° 11 km/h 258 m -4.0 m/s 402.700 MHz Lysá nad Labem (CZ) 0.00 km UNKNOWN
S3120662 RS41 2021-11-28 07:21:49 50.2937 14.306 258 ° 9 km/h 314 m -3.2 m/s 402.700 MHz Kralupy nad Vltavou (CZ) 0.00 km UNKNOWN
S3140398 RS41 2021-11-28 01:26:01 50.4869 15.2529 354 ° 9 km/h 454 m -4.5 m/s 402.70 MHz Jičín (CZ) 0.00 km UNKNOWN
S3120663 RS41 2021-11-27 19:10:14 50.3742 14.8467 310 ° 19 km/h 329 m -5.7 m/s 402.70 MHz Mladá Boleslav (CZ) 0.00 km UNKNOWN
S3120700 RS41 2021-11-27 13:21:14 50.5758 14.871 320 ° 22 km/h 448 m -3.8 m/s 402.70 MHz Mnichovo Hradiště (CZ) 0.00 km UNKNOWN
S3120620 RS41 2021-11-27 07:09:10 50.2654 14.84 304 ° 17 km/h 286 m -3.9 m/s 402.700 MHz Benátky nad Jizerou (CZ) 0.00 km UNKNOWN
S3140405 RS41 2021-11-27 00:54:00 50.0749 14.6284 24 ° 19 km/h 328 m -11.2 m/s 402.70 MHz Úvaly (CZ) 0.00 km FOUND
S3140356 RS41 2021-11-26 19:28:48 50.2544 15.0047 66 ° 11 km/h 271 m -4.6 m/s 402.70 MHz Nymburk (CZ) 0.00 km UNKNOWN
S3120667 RS41 2021-11-26 13:27:11 50.5089 15.1357 133 ° 6 km/h 434 m -4.5 m/s 402.70 MHz Turnov (CZ) 0.00 km UNKNOWN
S3140360 RS41 2021-11-26 07:37:47 50.3259 15.6708 152 ° 6 km/h 454 m -7.4 m/s 402.70 MHz Hořice (CZ) 0.00 km FOUND
S3140355 RS41 2021-11-26 01:37:44 50.1457 15.0359 27 ° 15 km/h 280 m -3.6 m/s 402.70 MHz Nymburk (CZ) 0.00 km UNKNOWN
S3140412 RS41 2021-11-25 19:15:16 49.9254 14.6936 49 ° 11 km/h 514 m -10.4 m/s 402.70 MHz Říčany (CZ) 0.00 km UNKNOWN
S3131388 RS41 2021-11-25 12:56:22 49.6624 14.2452 20 ° 7 km/h 569 m -10.6 m/s 402.700 MHz Sedlčany (CZ) 0.00 km UNKNOWN
S3120690 RS41 2021-11-25 07:25:36 49.7923 14.3269 339 ° 7 km/h 458 m -5.0 m/s 402.70 MHz Mníšek pod Brdy (CZ) 0.00 km UNKNOWN
S3140042 RS41 2021-11-25 01:13:08 49.824 13.4687 337 ° 9 km/h 458 m -11.8 m/s 402.70 MHz Třemošná (CZ) 0.00 km UNKNOWN
S3140083 RS41 2021-11-24 19:02:27 49.5064 13.3811 305 ° 19 km/h 617 m -8.9 m/s 402.70 MHz Přeštice (CZ) 0.00 km UNKNOWN
S3140082 RS41 2021-11-24 13:12:55 49.3855 13.1558 290 ° 28 km/h 711 m -6.1 m/s 402.700 MHz Kdyně (CZ) 0.00 km UNKNOWN
S3140080 RS41 2021-11-24 07:07:04 49.1051 13.2482 286 ° 4 km/h 1308 m -6.7 m/s 402.70 MHz Sušice (CZ) 0.00 km UNKNOWN
S3131385 RS41 2021-11-24 01:13:29 49.0259 13.0473 330 ° 9 km/h 1300 m -5.4 m/s 402.700 MHz Deggendorf (DE) 0.00 km NEED ATTENTION
S3131359 RS41 2021-11-23 19:04:30 48.9597 12.9737 297 ° 13 km/h 1178 m -6.7 m/s 402.701 MHz Deggendorf (DE) 0.00 km UNKNOWN
S3120687 RS41 2021-11-23 13:17:16 48.9492 12.6736 199 ° 2 km/h 961 m -4.8 m/s 402.70 MHz Straubing (DE) 0.00 km UNKNOWN
S3140392 RS41 2021-11-23 07:16:22 48.9203 12.9337 119 ° 6 km/h 1214 m -9.5 m/s 404.900 MHz Deggendorf (DE) 0.00 km FOUND
S3140040 RS41 2021-11-23 00:54:55 48.954 12.7274 72 ° 9 km/h 1262 m -12.6 m/s 402.70 MHz Straubing (DE) 0.00 km UNKNOWN
S3140041 RS41 2021-11-22 19:23:50 48.997 13.6868 216 ° 31 km/h 1531 m -4.3 m/s 402.70 MHz Vimperk (CZ) 0.00 km UNKNOWN
S3140079 RS41 2021-11-22 13:35:11 49.2741 13.8365 201 ° 28 km/h 1077 m -8.9 m/s 402.70 MHz Strakonice (CZ) 0.00 km UNKNOWN
S3140025 RS41 2021-11-22 07:25:48 49.3404 13.9871 213 ° 31 km/h 915 m -6.8 m/s 402.70 MHz Strakonice (CZ) 0.00 km FOUND
S3140061 RS41 2021-11-22 00:57:27 49.5239 13.6313 157 ° 11 km/h 743 m -11.7 m/s 402.700 MHz Blatná (CZ) 0.00 km UNKNOWN
S3140027 RS41 2021-11-21 19:19:14 49.4222 14.1844 114 ° 11 km/h 722 m -5.3 m/s 402.70 MHz Písek (CZ) 0.00 km UNKNOWN
S3140038 RS41 2021-11-21 13:17:38 49.469 14.138 118 ° 11 km/h 629 m -11.1 m/s 402.700 MHz Milevsko (CZ) 0.00 km UNKNOWN
S3140030 RS41 2021-11-21 07:15:46 49.4147 14.2718 148 ° 26 km/h 627 m -5.5 m/s 402.70 MHz Milevsko (CZ) 0.00 km UNKNOWN
S3140026 RS41 2021-11-21 01:15:43 49.4225 14.2773 60 ° 7 km/h 759 m -4.7 m/s 402.70 MHz Milevsko (CZ) 0.00 km UNKNOWN
S3120781 RS41 2021-11-20 19:03:49 49.161 13.8643 117 ° 13 km/h 1131 m -7.9 m/s 402.70 MHz Strakonice (CZ) 0.00 km UNKNOWN
S3120719 RS41 2021-11-20 13:09:58 49.0757 13.6547 100 ° 4 km/h 1251 m -5.8 m/s 402.70 MHz Vimperk (CZ) 0.00 km UNKNOWN
S3120747 RS41 2021-11-20 07:13:53 48.754 13.5297 139 ° 20 km/h 1150 m -7.2 m/s 402.700 MHz Passau (DE) 0.00 km UNKNOWN
S3120783 RS41 2021-11-20 00:54:33 48.8116 13.11 128 ° 26 km/h 1101 m -13.3 m/s 402.70 MHz Deggendorf (DE) 0.00 km UNKNOWN
S3120785 RS41 2021-11-19 19:08:35 48.6133 12.9613 99 ° 19 km/h 822 m -3.1 m/s 402.70 MHz Deggendorf (DE) 0.00 km FOUND
S3130660 RS41 2021-11-19 13:15:07 48.5846 12.6787 93 ° 20 km/h 953 m -7.1 m/s 402.70 MHz Straubing (DE) 0.00 km FOUND
S3120746 RS41 2021-11-19 07:07:37 48.4265 12.3277 102 ° 31 km/h 941 m -4.1 m/s 402.70 MHz Landshut (DE) 0.00 km FOUND
S3130657 RS41 2021-11-19 00:51:35 48.5283 12.405 100 ° 35 km/h 1458 m -13.0 m/s 402.700 MHz Landshut (DE) 0.00 km UNKNOWN
S3130656 RS41 2021-11-18 19:09:35 48.39 12.6564 86 ° 30 km/h 1066 m -5.9 m/s 402.70 MHz Waldkraiburg (DE) 0.00 km FOUND
S3120750 RS41 2021-11-18 12:59:15 48.5488 12.3392 90 ° 19 km/h 1284 m -6.8 m/s 402.700 MHz Landshut (DE) 0.00 km FOUND
S3140084 RS41 2021-11-18 06:39:23 48.5097 11.9829 126 ° 17 km/h 939 m -9.6 m/s 402.700 MHz Landshut (DE) 0.00 km UNKNOWN
S3140062 RS41 2021-11-18 01:24:06 48.9144 13.0689 109 ° 22 km/h 1224 m -3.3 m/s 402.70 MHz Deggendorf (DE) 0.00 km FOUND
S3140028 RS41 2021-11-17 19:07:48 49.2381 13.3189 85 ° 33 km/h 949 m -13.2 m/s 402.700 MHz Sušice (CZ) 0.00 km UNKNOWN
S3120745 RS41 2021-11-17 13:02:30 49.5391 13.0947 57 ° 20 km/h 541 m -9.0 m/s 402.70 MHz Holýšov (CZ) 0.00 km FOUND
S3120717 RS41 2021-11-17 07:33:57 49.4628 13.2423 102 ° 7 km/h 536 m -10.4 m/s 402.70 MHz Klatovy (CZ) 0.00 km FOUND
S3140029 RS41 2021-11-17 01:05:21 49.6306 12.8205 32 ° 11 km/h 610 m -4.9 m/s 402.70 MHz Stříbro (CZ) 0.00 km FOUND
S3140039 RS41 2021-11-16 18:59:50 49.5831 12.5574 313 ° 11 km/h 849 m -9.2 m/s 402.70 MHz Tachov (CZ) 0.00 km FOUND
S3120784 RS41 2021-11-16 13:00:31 49.6597 12.6379 290 ° 11 km/h 816 m -10.5 m/s 402.70 MHz Tachov (CZ) 0.00 km FOUND
S3120578 RS41 2021-11-16 06:42:30 49.585 11.9992 259 ° 26 km/h 794 m -9.8 m/s 402.70 MHz Weiden in der Oberpfalz (DE) 0.00 km FOUND
S3050355 RS41 2021-11-16 01:18:30 49.6031 12.4418 254 ° 30 km/h 946 m -11.0 m/s 402.70 MHz Weiden in der Oberpfalz (DE) 0.00 km UNKNOWN
S3050377 RS41 2021-11-15 19:15:33 49.5427 12.5688 280 ° 24 km/h 909 m -4.8 m/s 402.70 MHz Domažlice (CZ) 0.00 km FOUND
S3120749 RS41 2021-11-15 13:33:53 49.7379 12.2691 285 ° 13 km/h 568 m -3.1 m/s 402.70 MHz Weiden in der Oberpfalz (DE) 0.00 km FOUND
S3120748 RS41 2021-11-15 07:01:33 49.5847 11.2479 271 ° 19 km/h 687 m -10.4 m/s 402.700 MHz Lauf an der Pegnitz (DE) 0.00 km LOST
S3120716 RS41 2021-11-15 01:49:04 49.4462 11.7974 284 ° 24 km/h 1108 m -10.2 m/s 402.700 MHz Amberg (DE) 0.00 km FOUND
S3120715 RS41 2021-11-14 19:08:13 49.3506 11.9259 224 ° 19 km/h 700 m -13.5 m/s 402.70 MHz Amberg (DE) 0.00 km FOUND
S3140980 RS41 2021-11-14 13:14:00 49.4879 12.0179 241 ° 24 km/h 739 m -12.0 m/s 402.70 MHz Amberg (DE) 0.00 km FOUND
D315329 2021-11-14 11:41:07 49.4852 11.702 316 ° 31 km/h 2590 m -3.3 m/s 403.248 MHz Sulzbach-Rosenberg (DE) 0.00 km FOUND
S3140962 RS41 2021-11-14 07:09:31 49.5055 12.1297 271 ° 31 km/h 836 m -9.4 m/s 402.70 MHz Weiden in der Oberpfalz (DE) 0.00 km FOUND
S3140856 RS41 2021-11-14 02:21:30 49.8189 12.3141 261 ° 7 km/h 639 m -6.3 m/s 402.70 MHz Weiden in der Oberpfalz (DE) 0.00 km FOUND
S3140961 RS41 2021-11-13 19:02:22 49.6062 12.5458 62 ° 22 km/h 1051 m -16.6 m/s 402.70 MHz Tachov (CZ) 0.00 km UNKNOWN
S3140981 RS41 2021-11-13 13:17:07 49.8594 12.7804 120 ° 6 km/h 664 m -7.6 m/s 402.70 MHz Planá (CZ) 0.00 km FOUND
S3131701 RS41 2021-11-13 07:26:11 49.7193 12.8071 61 ° 4 km/h 550 m -3.1 m/s 402.70 MHz Stříbro (CZ) 0.00 km FOUND
S3120623 RS41 2021-11-13 01:32:36 49.7361 12.9624 356 ° 7 km/h 493 m -4.4 m/s 402.70 MHz Stříbro (CZ) 0.00 km LOST
S3131702 RS41 2021-11-12 19:21:43 49.5839 12.9235 301 ° 7 km/h 594 m -5.2 m/s 402.700 MHz Holýšov (CZ) 0.00 km FOUND
S3131562 RS41 2021-11-12 13:10:53 49.6186 12.7613 289 ° 7 km/h 685 m -5.1 m/s 402.70 MHz Tachov (CZ) 0.00 km NEED ATTENTION
S3131694 RS41 2021-11-12 07:13:26 49.5781 12.7676 295 ° 11 km/h 677 m -5.5 m/s 402.70 MHz Domažlice (CZ) 0.00 km FOUND
S3131454 RS41 2021-11-12 00:46:49 49.5475 12.4621 196 ° 4 km/h 911 m -13.4 m/s 402.70 MHz Weiden in der Oberpfalz (DE) 0.00 km FOUND
S3131411 RS41 2021-11-11 19:00:31 49.5211 12.6056 272 ° 9 km/h 885 m -6.4 m/s 402.700 MHz Domažlice (CZ) 0.00 km UNKNOWN
S3131398 RS41 2021-11-11 12:55:14 49.5773 12.5274 68 ° 9 km/h 872 m -8.2 m/s 402.701 MHz Tachov (CZ) 0.00 km FOUND
S3131691 RS41 2021-11-11 07:13:35 49.628 12.8212 321 ° 9 km/h 639 m -5.2 m/s 402.700 MHz Stříbro (CZ) 0.00 km FOUND
S3131696 RS41 2021-11-11 02:04:37 49.7768 13.1538 282 ° 9 km/h 460 m -8.0 m/s 404.90 MHz Nýřany (CZ) 0.00 km LOST
S3131700 RS41 2021-11-11 01:08:54 49.8161 13.0778 161 ° 4 km/h 479 m -5.7 m/s 402.70 MHz Stříbro (CZ) 0.00 km FOUND
S3131692 RS41 2021-11-10 18:53:13 49.8196 12.8755 257 ° 4 km/h 619 m -9.5 m/s 402.70 MHz Planá (CZ) 0.00 km FOUND
S3131704 RS41 2021-11-10 13:00:31 49.9485 12.9165 323 ° 9 km/h 782 m -11.8 m/s 404.90 MHz Planá (CZ) 0.00 km FOUND
S3131689 RS41 2021-11-10 07:23:30 49.8574 13.1347 307 ° 6 km/h 552 m -6.2 m/s 402.70 MHz Stříbro (CZ) 0.00 km FOUND
S3140986 RS41 2021-11-10 01:29:37 49.8005 13.0446 230 ° 15 km/h 547 m -13.4 m/s 402.70 MHz Stříbro (CZ) 0.00 km LOST
S3140853 RS41 2021-11-09 19:22:38 49.7856 12.3938 298 ° 67 km/h 856 m -3.2 m/s 402.70 MHz Tachov (CZ) 0.00 km UNKNOWN
S3131449 RS41 2021-11-09 13:01:30 49.4805 12.0079 275 ° 24 km/h 756 m -11.6 m/s 402.700 MHz Amberg (DE) 0.00 km FOUND
S3140855 RS41 2021-11-09 07:02:30 49.0606 11.9929 273 ° 7 km/h 558 m -7.7 m/s 402.70 MHz Regensburg (DE) 0.00 km FOUND
S3140857 RS41 2021-11-09 01:13:11 48.7807 12.077 354 ° 13 km/h 1513 m -4.3 m/s 402.700 MHz Regensburg (DE) 0.00 km UNKNOWN
S3140963 RS41 2021-11-08 19:08:57 48.6333 12.1962 242 ° 2 km/h 972 m -6.5 m/s 402.700 MHz Landshut (DE) 0.00 km UNKNOWN
S3140984 RS41 2021-11-08 12:59:30 48.9779 12.4465 104 ° 17 km/h 1563 m -9.8 m/s 402.70 MHz Straubing (DE) 0.00 km LOST
S3140979 RS41 2021-11-08 07:15:39 48.8974 12.8113 121 ° 22 km/h 1635 m -5.7 m/s 402.70 MHz Deggendorf (DE) 0.00 km LOST
S3140854 RS41 2021-11-08 01:29:36 49.2665 14.0199 101 ° 44 km/h 839 m -6.2 m/s 402.70 MHz Strakonice (CZ) 0.00 km LOST
S3120701 RS41 2021-11-07 19:24:58 49.1891 14.13 108 ° 46 km/h 1094 m -10.2 m/s 402.70 MHz Vodňany (CZ) 0.00 km FOUND
S3131688 RS41 2021-11-07 13:16:23 49.3513 13.9671 74 ° 15 km/h 916 m -3.6 m/s 402.70 MHz Blatná (CZ) 0.00 km FOUND
S3120624 RS41 2021-11-07 07:26:56 49.1526 13.4573 61 ° 44 km/h 1002 m -8.3 m/s 402.70 MHz Sušice (CZ) 0.00 km UNKNOWN
S3131690 RS41 2021-11-07 01:10:00 49.1919 12.6045 45 ° 30 km/h 781 m -9.1 m/s 402.70 MHz Straubing (DE) 0.00 km FOUND
S3131693 RS41 2021-11-06 19:19:30 49.0894 12.1115 29 ° 17 km/h 777 m -6.6 m/s 402.700 MHz Regensburg (DE) 0.00 km FOUND
S3131698 RS41 2021-11-06 13:02:00 49.1329 11.9248 357 ° 9 km/h 638 m -11.1 m/s 402.70 MHz Regensburg (DE) 0.00 km FOUND
S3131681 RS41 2021-11-06 07:08:30 49.0522 11.9528 165 ° 2 km/h 556 m -6.7 m/s 402.700 MHz Regensburg (DE) 0.00 km FOUND
S3131695 RS41 2021-11-06 01:28:00 49.1292 12.1355 107 ° 9 km/h 943 m -3.5 m/s 402.700 MHz Regensburg (DE) 0.00 km FOUND
S3120699 RS41 2021-11-05 19:08:00 49.209 12.2773 132 ° 19 km/h 981 m -9.2 m/s 402.700 MHz Schwandorf (DE) 0.00 km FOUND
S3140477 RS41 2021-11-05 13:18:30 49.3778 12.3707 96 ° 15 km/h 866 m -3.7 m/s 402.70 MHz Schwandorf (DE) 0.00 km FOUND
S3140420 RS41 2021-11-05 07:18:57 49.5658 12.6072 66 ° 31 km/h 827 m -8.3 m/s 402.700 MHz Tachov (CZ) 0.00 km FOUND
S3131448 RS41 2021-11-05 01:33:28 49.9351 12.8998 73 ° 24 km/h 747 m -7.4 m/s 402.700 MHz Planá (CZ) 0.00 km FOUND
S3131451 RS41 2021-11-04 19:30:13 49.8211 13.2182 66 ° 30 km/h 509 m -6.1 m/s 402.70 MHz Nýřany (CZ) 0.00 km UNKNOWN
S3140393 RS41 2021-11-04 13:11:50 49.9806 13.0254 63 ° 37 km/h 771 m -4.4 m/s 402.700 MHz Mariánské Lázně (CZ) 0.00 km FOUND
S3140413 RS41 2021-11-04 07:47:30 50.1338 12.7805 112 ° 35 km/h 900 m -9.2 m/s 402.700 MHz Horní Slavkov (CZ) 0.00 km FOUND
S3140476 RS41 2021-11-04 00:56:00 50.2836 12.8104 252 ° 22 km/h 805 m -3.0 m/s 402.700 MHz Chodov (CZ) 0.00 km FOUND
S3140406 RS41 2021-11-03 19:11:46 50.1422 13.0215 257 ° 30 km/h 917 m -11.7 m/s 402.70 MHz Karlovy Vary (CZ) 0.00 km UNKNOWN
S3140410 RS41 2021-11-03 13:10:47 49.9609 13.5258 272 ° 19 km/h 506 m -12.8 m/s 402.70 MHz Třemošná (CZ) 0.00 km UNKNOWN
S3140404 RS41 2021-11-03 07:07:42 49.7804 13.5491 271 ° 9 km/h 551 m -10.7 m/s 402.70 MHz Rokycany (CZ) 0.00 km FOUND
S3131393 RS41 2021-11-03 01:31:19 49.6175 14.1937 24 ° 31 km/h 604 m -6.6 m/s 402.700 MHz Příbram (CZ) 0.00 km UNKNOWN
S3131395 RS41 2021-11-02 19:34:19 49.6708 13.6353 29 ° 20 km/h 627 m -9.3 m/s 402.700 MHz Rokycany (CZ) 0.00 km UNKNOWN
S3131394 RS41 2021-11-02 12:51:14 49.7197 12.9352 75 ° 22 km/h 582 m -7.9 m/s 402.70 MHz Stříbro (CZ) 0.00 km FOUND
S3131447 RS41 2021-11-02 07:16:07 49.8352 13.0322 80 ° 19 km/h 548 m -6.7 m/s 402.70 MHz Stříbro (CZ) 0.00 km UNKNOWN
S3131453 RS41 2021-11-02 00:59:00 50.1572 12.8509 74 ° 28 km/h 891 m -8.9 m/s 402.700 MHz Horní Slavkov (CZ) 0.00 km LOST
S3131412 RS41 2021-11-01 19:17:20 50.2385 13.2828 106 ° 20 km/h 720 m -4.0 m/s 402.70 MHz Podbořany (CZ) 0.00 km UNKNOWN
S3131452 RS41 2021-11-01 13:15:41 50.0613 13.5381 110 ° 2 km/h 603 m -9.4 m/s 402.700 MHz Rakovník (CZ) 0.00 km UNKNOWN
S3131413 RS41 2021-11-01 06:52:03 49.7959 13.3522 112 ° 2 km/h 497 m -15.8 m/s 402.70 MHz Třemošná (CZ) 0.00 km UNKNOWN
S3131456 RS41 2021-11-01 01:11:16 49.7049 13.7035 36 ° 6 km/h 659 m -9.8 m/s 402.70 MHz Rokycany (CZ) 0.00 km UNKNOWN
S3131397 RS41 2021-10-31 19:23:18 49.7264 13.6699 311 ° 20 km/h 601 m -5.0 m/s 402.70 MHz Rokycany (CZ) 0.00 km UNKNOWN
S3131458 RS41 2021-10-31 13:15:25 49.8685 13.6607 279 ° 26 km/h 762 m -6.3 m/s 402.70 MHz Rokycany (CZ) 0.00 km UNKNOWN
S3131457 RS41 2021-10-31 07:09:27 49.7849 13.9608 347 ° 19 km/h 575 m -4.0 m/s 402.70 MHz Hořovice (CZ) 0.00 km UNKNOWN
S3140995 RS41 2021-10-31 01:17:05 49.9716 14.2048 309 ° 11 km/h 474 m -6.3 m/s 402.70 MHz Rudná (CZ) 0.00 km FOUND
S3140952 RS41 2021-10-30 18:20:49 50.0836 12.8482 6 ° 24 km/h 864 m -13.4 m/s 402.700 MHz Horní Slavkov (CZ) 0.00 km FOUND
S3140949 RS41 2021-10-30 13:02:59 50.2545 13.6672 307 ° 19 km/h 723 m -11.7 m/s 402.70 MHz Žatec (CZ) 0.00 km UNKNOWN
T1320166 RS41 2021-10-30 06:54:00 50.5696 12.7603 318 ° 26 km/h 681 m -4.4 m/s 402.70 MHz Annaberg-Buchholz (DE) 0.00 km FOUND
S3140877 RS41 2021-10-30 00:52:20 50.2676 13.5519 293 ° 15 km/h 822 m -14.5 m/s 402.70 MHz Žatec (CZ) 0.00 km UNKNOWN
S3140991 RS41 2021-10-29 19:31:43 50.456 13.8029 300 ° 31 km/h 598 m -5.6 m/s 402.70 MHz Bílina (CZ) 0.00 km UNKNOWN
S3140950 RS41 2021-10-29 13:22:14 50.471 13.302 297 ° 22 km/h 918 m -7.0 m/s 402.700 MHz Chomutov (CZ) 0.00 km FOUND
T1310009 RS41 2021-10-29 07:15:53 50.2518 13.314 260 ° 13 km/h 773 m -10.7 m/s 402.700 MHz Podbořany (CZ) 0.00 km UNKNOWN
S3140992 RS41 2021-10-29 01:00:32 50.2148 12.9641 357 ° 13 km/h 938 m -12.2 m/s 402.70 MHz Karlovy Vary (CZ) 0.00 km FOUND
S3140881 RS41 2021-10-28 19:57:33 50.4223 13.0903 346 ° 33 km/h 964 m -5.3 m/s 402.70 MHz Klášterec nad Ohří (CZ) 0.00 km UNKNOWN
S3140994 RS41 2021-10-28 13:14:35 50.1306 12.9413 343 ° 19 km/h 907 m -4.5 m/s 402.70 MHz Horní Slavkov (CZ) 0.00 km FOUND
S3131450 RS41 2021-10-28 07:09:25 49.7788 13.0722 284 ° 4 km/h 549 m -10.6 m/s 402.700 MHz Stříbro (CZ) 0.00 km UNKNOWN
S3140996 RS41 2021-10-28 01:04:24 49.6488 13.1854 252 ° 6 km/h 479 m -10.7 m/s 402.70 MHz Nýřany (CZ) 0.00 km FOUND
S3140957 RS41 2021-10-27 19:26:59 49.4705 13.3252 180 ° 2 km/h 510 m -9.4 m/s 402.700 MHz Klatovy (CZ) 0.00 km UNKNOWN
S3140993 RS41 2021-10-27 13:04:55 49.4485 13.0903 76 ° 15 km/h 620 m -6.1 m/s 402.70 MHz Kdyně (CZ) 0.00 km UNKNOWN
T1310011 RS41 2021-10-27 07:03:30 49.2235 13.1046 301 ° 2 km/h 1093 m -1.6 m/s 402.70 MHz Kdyně (CZ) 0.00 km UNKNOWN
T1510283 RS41 2021-10-27 01:04:22 49.0471 13.0485 97 ° 31 km/h 1502 m -12.5 m/s 402.70 MHz Deggendorf (DE) 0.00 km UNKNOWN
T1310451 RS41 2021-10-26 19:04:00 48.984 13.125 104 ° 35 km/h 1764 m -5.0 m/s 402.70 MHz Deggendorf (DE) 0.00 km UNKNOWN
S3140953 RS41 2021-10-26 13:17:19 50.0104 14.4777 58 ° 17 km/h 380 m -9.6 m/s 402.70 MHz Jesenice (CZ) 0.00 km FOUND
S3140951 RS41 2021-10-26 07:11:59 50.0397 14.1445 24 ° 6 km/h 436 m -7.3 m/s 402.70 MHz Rudná (CZ) 0.00 km UNKNOWN
S3140959 RS41 2021-10-26 00:59:53 50.0715 13.8841 47 ° 9 km/h 570 m -7.1 m/s 402.70 MHz Nové Strašecí (CZ) 0.00 km UNKNOWN
S3140902 RS41 2021-10-25 19:25:18 50.1761 14.2201 329 ° 11 km/h 428 m -8.0 m/s 402.700 MHz Kladno (CZ) 0.00 km UNKNOWN
S3141003 RS41 2021-10-25 13:14:47 50.2603 14.0608 308 ° 9 km/h 455 m -6.4 m/s 402.70 MHz Slaný (CZ) 0.00 km UNKNOWN
S3140954 RS41 2021-10-25 07:35:55 50.212 13.8297 349 ° 11 km/h 558 m -3.5 m/s 402.70 MHz Nové Strašecí (CZ) 0.00 km UNKNOWN
S3140960 RS41 2021-10-25 01:22:17 49.9973 13.651 287 ° 15 km/h 521 m -5.2 m/s 402.70 MHz Rakovník (CZ) 0.00 km UNKNOWN
S3140955 RS41 2021-10-24 18:53:34 49.6053 12.5128 284 ° 26 km/h 809 m -4.7 m/s 402.70 MHz Tachov (CZ) 0.00 km UNKNOWN
T1320163 RS41 2021-10-24 13:05:34 49.432 12.7669 245 ° 28 km/h 909 m -8.0 m/s 402.70 MHz Domažlice (CZ) 0.00 km FOUND
T1320881 RS41 2021-10-24 07:08:30 49.034 12.3965 317 ° 7 km/h 1453 m -3.7 m/s 402.70 MHz Regensburg (DE) 0.00 km UNKNOWN
T1320876 RS41 2021-10-24 01:29:33 48.9886 13.8923 312 ° 17 km/h 1343 m -6.0 m/s 402.70 MHz Prachatice (CZ) 0.00 km UNKNOWN
T1320168 RS41 2021-10-23 19:10:55 48.876 13.9463 199 ° 17 km/h 1367 m -11.1 m/s 402.70 MHz Prachatice (CZ) 0.00 km UNKNOWN
T1320167 RS41 2021-10-23 13:02:47 48.9152 13.8461 101 ° 30 km/h 1644 m -3.6 m/s 402.70 MHz Prachatice (CZ) 0.00 km UNKNOWN
T1320164 RS41 2021-10-23 07:02:12 49.0965 14.2686 115 ° 46 km/h 1230 m -6.3 m/s 402.70 MHz Vodňany (CZ) 0.00 km FOUND
T1320487 RS41 2021-10-23 01:09:51 49.1646 14.5579 97 ° 54 km/h 965 m -5.0 m/s 402.70 MHz Veselí nad Lužnicí (CZ) 0.00 km UNKNOWN
T1320045 RS41 2021-10-22 19:28:42 49.4613 15.3879 87 ° 56 km/h 960 m -11.6 m/s 402.70 MHz Humpolec (CZ) 0.00 km UNKNOWN
T1320082 RS41 2021-10-22 13:20:39 49.4397 15.0352 88 ° 46 km/h 848 m -6.3 m/s 402.70 MHz Pelhřimov (CZ) 0.00 km UNKNOWN
T1320044 RS41 2021-10-22 07:03:04 49.6943 14.8415 84 ° 44 km/h 824 m -8.3 m/s 402.70 MHz Vlašim (CZ) 0.00 km UNKNOWN
T1510372 RS41 2021-10-22 01:19:33 49.8067 15.2848 101 ° 37 km/h 760 m -7.3 m/s 402.70 MHz Čáslav (CZ) 0.00 km UNKNOWN
T1510370 RS41 2021-10-21 19:10:16 49.995 15.2967 74 ° 80 km/h 837 m -10.5 m/s 402.70 MHz Kutná Hora (CZ) 0.00 km FOUND
T1320165 RS41 2021-10-21 12:50:30 50.2135 15.0641 79 ° 80 km/h 301 m -12.7 m/s 402.70 MHz Nymburk (CZ) 0.00 km UNKNOWN
T1310012 RS41 2021-10-21 07:17:08 50.5262 15.4955 2 ° 48 km/h 628 m -5.9 m/s 402.70 MHz Nová Paka (CZ) 0.00 km UNKNOWN
T1320081 RS41 2021-10-21 01:31:47 50.1572 15.4237 348 ° 20 km/h 360 m -10.2 m/s 402.70 MHz Chlumec nad Cidlinou (CZ) 0.00 km FOUND
T1320001 RS41 2021-10-20 19:16:12 49.8861 14.7755 43 ° 39 km/h 602 m -4.9 m/s 402.70 MHz Benešov (CZ) 0.00 km FOUND
T1310448 RS41 2021-10-20 13:00:31 49.8786 14.3182 28 ° 26 km/h 486 m -9.6 m/s 402.70 MHz Mníšek pod Brdy (CZ) 0.00 km UNKNOWN
T1510367 RS41 2021-10-20 07:38:29 49.5068 14.5232 20 ° 30 km/h 742 m -4.2 m/s 402.70 MHz Milevsko (CZ) 0.00 km UNKNOWN
T1510281 RS41 2021-10-20 01:34:24 48.9775 14.1448 73 ° 61 km/h 1175 m -4.2 m/s 402.70 MHz Prachatice (CZ) 0.00 km UNKNOWN
T1510271 RS41 2021-10-19 19:11:54 48.4623 13.4475 73 ° 35 km/h 776 m -2.8 m/s 402.70 MHz Schärding (AT) 0.00 km UNKNOWN
T1510284 RS41 2021-10-19 13:18:13 48.8387 13.9298 82 ° 28 km/h 1184 m -7.8 m/s 402.700 MHz Ulrichsberg (AT) 0.00 km UNKNOWN
T1510288 RS41 2021-10-19 07:14:48 48.6896 13.6905 84 ° 19 km/h 958 m -6.2 m/s 402.70 MHz Ulrichsberg (AT) 0.00 km UNKNOWN
T1310010 RS41 2021-10-19 01:02:29 48.7424 13.382 87 ° 20 km/h 1136 m -10.7 m/s 404.90 MHz Passau (DE) 0.00 km UNKNOWN
T1510285 RS41 2021-10-18 19:18:14 48.6139 13.3451 11 ° 11 km/h 1199 m -3.6 m/s 402.70 MHz Passau (DE) 0.00 km FOUND
T1510287 RS41 2021-10-18 13:10:19 48.5786 12.8932 290 ° 9 km/h 984 m -6.3 m/s 402.70 MHz Deggendorf (DE) 0.00 km FOUND
T1510286 RS41 2021-10-18 07:01:04 48.736 12.9701 199 ° 9 km/h 1533 m -10.7 m/s 402.70 MHz Deggendorf (DE) 0.00 km FOUND
T1510277 RS41 2021-10-18 00:42:00 49.11 13.0399 177 ° 15 km/h 1374 m -8.9 m/s 402.70 MHz Deggendorf (DE) 0.00 km UNKNOWN
T1510226 RS41 2021-10-17 19:07:44 49.2304 13.6553 110 ° 7 km/h 1226 m -6.7 m/s 402.700 MHz Sušice (CZ) 0.00 km UNKNOWN
T1510318 RS41 2021-10-17 13:04:32 49.219 13.2377 152 ° 6 km/h 1179 m -11.6 m/s 402.70 MHz Klatovy (CZ) 0.00 km UNKNOWN
T1510274 RS41 2021-10-17 07:20:33 49.117 13.1969 145 ° 19 km/h 1349 m -5.4 m/s 402.70 MHz Sušice (CZ) 0.00 km UNKNOWN
T1510279 RS41 2021-10-17 01:01:09 49.2038 13.1973 100 ° 11 km/h 1005 m -8.5 m/s 402.70 MHz Klatovy (CZ) 0.00 km FOUND
T1320003 RS41 2021-10-16 13:11:01 49.3239 13.0677 187 ° 6 km/h 766 m -11.4 m/s 402.700 MHz Kdyně (CZ) 0.00 km LOST
T1510278 RS41 2021-10-16 07:12:30 49.2445 12.9004 236 ° 15 km/h 1018 m -5.8 m/s 402.70 MHz Kdyně (CZ) 0.00 km UNKNOWN
T1510272 RS41 2021-10-16 01:25:56 49.3021 13.3008 323 ° 7 km/h 602 m -7.1 m/s 402.70 MHz Klatovy (CZ) 0.00 km UNKNOWN
T1510280 RS41 2021-10-15 19:22:20 49.3172 13.7797 113 ° 37 km/h 848 m -4.6 m/s 402.700 MHz Horažďovice (CZ) 0.00 km UNKNOWN
T1320872 RS41 2021-10-15 13:01:30 49.6253 13.5091 58 ° 24 km/h 615 m -9.0 m/s 402.70 MHz Starý Plzenec (CZ) 0.00 km UNKNOWN
T1310454 RS41 2021-10-15 07:09:35 49.3489 13.287 32 ° 7 km/h 610 m -11.8 m/s 402.700 MHz Klatovy (CZ) 0.00 km UNKNOWN
T1510212 RS41 2021-10-15 01:01:30 49.1532 13.0073 18 ° 15 km/h 1178 m -7.6 m/s 402.70 MHz Kdyně (CZ) 0.00 km UNKNOWN
T1510248 RS41 2021-10-14 19:30:42 48.75 12.8683 90 ° 24 km/h 902 m -10.0 m/s 402.70 MHz Deggendorf (DE) 0.00 km FOUND
T1510282 RS41 2021-10-14 13:07:57 48.6498 12.3203 87 ° 15 km/h 470 m -8.6 m/s 402.70 MHz Landshut (DE) 0.00 km UNKNOWN
T1510228 RS41 2021-10-14 07:41:01 48.3142 12.1626 71 ° 24 km/h 629 m -4.1 m/s 402.70 MHz Erding (DE) 0.00 km UNKNOWN
T1320002 RS41 2021-10-14 01:05:15 48.5304 12.1139 49 ° 13 km/h 473 m -6.9 m/s 402.70 MHz Landshut (DE) 0.00 km UNKNOWN
T1311080 RS41 2021-10-13 19:25:00 48.1527 11.9608 75 ° 17 km/h 648 m -7.5 m/s 402.70 MHz Vaterstetten (DE) 0.00 km FOUND
T1510399 RS41 2021-10-13 13:13:51 48.4405 12.1539 86 ° 17 km/h 805 m -5.9 m/s 402.70 MHz Landshut (DE) 0.00 km UNKNOWN
T1510398 RS41 2021-10-13 07:18:15 48.5443 12.4072 137 ° 17 km/h 696 m -5.9 m/s 402.70 MHz Landshut (DE) 0.00 km FOUND
T1320491 RS41 2021-10-13 00:51:30 48.788 12.4936 174 ° 26 km/h 817 m -11.1 m/s 404.90 MHz Straubing (DE) 0.00 km FOUND
T1320488 RS41 2021-10-12 19:12:11 48.8982 12.9724 119 ° 28 km/h 1370 m -14.1 m/s 402.70 MHz Deggendorf (DE) 0.00 km UNKNOWN
T1320080 RS41 2021-10-12 13:15:20 48.9165 13.0538 105 ° 33 km/h 1327 m -7.2 m/s 402.70 MHz Deggendorf (DE) 0.00 km UNKNOWN
T1311079 RS41 2021-10-12 07:07:52 48.9134 13.089 141 ° 35 km/h 1724 m -13.1 m/s 402.70 MHz Deggendorf (DE) 0.00 km UNKNOWN
T1320005 RS41 2021-10-12 01:01:03 48.7502 12.9991 144 ° 33 km/h 860 m -13.4 m/s 402.70 MHz Deggendorf (DE) 0.00 km UNKNOWN
T1320079 RS41 2021-10-11 19:00:51 48.7506 13.1165 126 ° 28 km/h 1150 m -9.4 m/s 402.70 MHz Deggendorf (DE) 0.00 km UNKNOWN
T1320490 RS41 2021-10-11 12:55:10 48.9453 12.8573 106 ° 24 km/h 1395 m -9.3 m/s 402.70 MHz Deggendorf (DE) 0.00 km UNKNOWN
T1320006 RS41 2021-10-11 07:12:54 48.8662 12.5206 79 ° 19 km/h 922 m -6.7 m/s 402.700 MHz Straubing (DE) 0.00 km FOUND
T1320743 RS41 2021-10-11 01:21:06 48.8326 12.2418 97 ° 11 km/h 820 m -10.9 m/s 402.70 MHz Regensburg (DE) 0.00 km UNKNOWN
T1330266 RS41 2021-10-10 19:06:30 48.7903 11.9407 9 ° 2 km/h 808 m -8.9 m/s 402.700 MHz Regensburg (DE) 0.00 km FOUND
T1320004 RS41 2021-10-10 13:53:30 48.7903 11.5924 308 ° 11 km/h 1173 m -10.7 m/s 404.90 MHz Ingolstadt (DE) 0.00 km FOUND
T1320931 RS41 2021-10-10 07:08:29 48.5845 11.4583 280 ° 24 km/h 709 m -6.7 m/s 402.70 MHz Pfaffenhofen an der Ilm (DE) 0.00 km FOUND
T1320935 RS41 2021-10-10 01:14:41 48.5619 11.4411 259 ° 15 km/h 583 m -8.9 m/s 402.700 MHz Pfaffenhofen an der Ilm (DE) 0.00 km FOUND
T1320934 RS41 2021-10-09 19:14:11 48.5385 11.3861 269 ° 30 km/h 782 m -13.0 m/s 402.70 MHz Pfaffenhofen an der Ilm (DE) 0.00 km FOUND
T1320942 RS41 2021-10-09 13:15:13 48.7118 11.2278 257 ° 28 km/h 650 m -7.5 m/s 402.70 MHz Neuburg an der Donau (DE) 0.00 km FOUND
T1320932 RS41 2021-10-09 07:10:13 48.7323 11.3682 257 ° 24 km/h 564 m -9.1 m/s 402.70 MHz Ingolstadt (DE) 0.00 km FOUND
T1320941 RS41 2021-10-09 01:11:52 48.8803 11.7265 260 ° 33 km/h 610 m -9.1 m/s 402.700 MHz Ingolstadt (DE) 0.00 km FOUND
T1311077 RS41 2021-10-08 19:22:30 48.8578 11.8191 269 ° 30 km/h 807 m -5.8 m/s 402.70 MHz Regensburg (DE) 0.00 km FOUND
T1330268 RS41 2021-10-08 13:15:00 49.0337 11.9114 242 ° 11 km/h 508 m -5.2 m/s 402.70 MHz Regensburg (DE) 0.00 km FOUND
T1311078 RS41 2021-10-08 07:23:30 48.9176 11.9202 234 ° 33 km/h 627 m -3.0 m/s 402.70 MHz Regensburg (DE) 0.00 km FOUND
T1330130 RS41 2021-10-08 01:22:00 48.9646 12.1381 240 ° 43 km/h 781 m -6.3 m/s 402.70 MHz Regensburg (DE) 0.00 km FOUND
T1320937 RS41 2021-10-07 19:04:30 49.0421 12.1515 230 ° 35 km/h 921 m -10.7 m/s 402.700 MHz Regensburg (DE) 0.00 km FOUND
T1330270 RS41 2021-10-07 12:52:31 49.2822 12.0138 242 ° 19 km/h 1417 m -7.9 m/s 402.70 MHz Schwandorf (DE) 0.00 km FOUND
T1320933 RS41 2021-10-07 07:02:00 49.3592 12.4548 194 ° 13 km/h 890 m -5.7 m/s 402.70 MHz Schwandorf (DE) 0.00 km FOUND
T1320939 RS41 2021-10-07 01:05:29 49.5512 12.8901 80 ° 11 km/h 600 m -10.1 m/s 402.70 MHz Domažlice (CZ) 0.00 km FOUND
T1330269 RS41 2021-10-06 19:27:30 49.6812 13.2875 59 ° 11 km/h 454 m -6.0 m/s 402.700 MHz Dobřany (CZ) 0.00 km FOUND
T1331071 RS41 2021-10-06 13:07:41 49.9455 13.1839 77 ° 19 km/h 829 m -8.4 m/s 402.70 MHz Třemošná (CZ) 0.00 km UNKNOWN
T1330845 RS41 2021-10-06 07:13:57 49.9374 13.3746 81 ° 31 km/h 845 m -10.2 m/s 402.70 MHz Třemošná (CZ) 0.00 km UNKNOWN
T1331073 RS41 2021-10-06 01:25:51 50.0882 13.5615 57 ° 33 km/h 598 m -6.2 m/s 402.700 MHz Rakovník (CZ) 0.00 km UNKNOWN
T1331034 RS41 2021-10-05 19:18:15 50.0434 13.4389 80 ° 33 km/h 711 m -4.1 m/s 402.70 MHz Podbořany (CZ) 0.00 km UNKNOWN
T1330265 RS41 2021-10-05 13:34:19 50.5964 13.2659 33 ° 31 km/h 1065 m -3.7 m/s 404.90 MHz Jirkov (CZ) 0.00 km FOUND
T1320940 RS41 2021-10-05 08:20:11 50.8796 13.4964 349 ° 22 km/h 983 m -4.8 m/s 402.70 MHz Freiberg (DE) 0.00 km FOUND
T1330909 RS41 2021-10-05 01:17:50 50.3445 13.4181 310 ° 22 km/h 973 m -14.6 m/s 402.70 MHz Žatec (CZ) 0.00 km UNKNOWN
T1330908 RS41 2021-10-04 19:01:29 50.268 13.2408 271 ° 15 km/h 871 m -7.9 m/s 402.70 MHz Kadaň (CZ) 0.00 km UNKNOWN
T1331013 RS41 2021-10-04 12:52:20 50.2335 13.3058 209 ° 9 km/h 811 m -14.3 m/s 402.70 MHz Podbořany (CZ) 0.00 km UNKNOWN
T1320936 RS41 2021-10-04 06:48:50 50.0332 13.1938 264 ° 24 km/h 1339 m -11.8 m/s 402.700 MHz Podbořany (CZ) 0.00 km FOUND
T1330961 RS41 2021-10-04 01:28:11 50.2152 13.5513 205 ° 9 km/h 714 m -5.9 m/s 402.70 MHz Podbořany (CZ) 0.00 km UNKNOWN
T1330912 RS41 2021-10-03 19:15:24 49.9535 13.3538 345 ° 13 km/h 747 m -5.8 m/s 402.70 MHz Třemošná (CZ) 0.00 km UNKNOWN
T1330911 RS41 2021-10-03 13:14:57 49.9701 13.388 303 ° 9 km/h 729 m -6.2 m/s 402.70 MHz Třemošná (CZ) 0.00 km UNKNOWN
T1331069 RS41 2021-10-03 07:18:00 49.7238 13.2716 268 ° 7 km/h 429 m -6.3 m/s 402.70 MHz Nýřany (CZ) 0.00 km FOUND
T1331072 RS41 2021-10-03 01:22:27 49.583 13.3418 180 ° 4 km/h 429 m -5.1 m/s 402.70 MHz Přeštice (CZ) 0.00 km UNKNOWN
T1330870 RS41 2021-10-02 19:33:30 49.6088 13.4883 318 ° 39 km/h 614 m -4.5 m/s 402.70 MHz Starý Plzenec (CZ) 0.00 km UNKNOWN
T1330868 RS41 2021-10-02 13:16:11 49.5425 13.2921 28 ° 15 km/h 451 m -7.5 m/s 402.70 MHz Přeštice (CZ) 0.00 km UNKNOWN
T1330865 RS41 2021-10-02 07:04:00 49.7881 13.2088 1 ° 4 km/h 527 m -12.8 m/s 402.70 MHz Nýřany (CZ) 0.00 km FOUND
T1331014 RS41 2021-10-02 01:07:30 49.8653 13.1335 14 ° 9 km/h 639 m -6.5 m/s 402.70 MHz Stříbro (CZ) 0.00 km UNKNOWN
T1330910 RS41 2021-10-01 12:54:00 49.5108 12.8574 276 ° 4 km/h 651 m -12.7 m/s 402.70 MHz Domažlice (CZ) 0.00 km UNKNOWN
T1331070 RS41 2021-10-01 07:14:30 49.2761 12.947 348 ° 2 km/h 559 m -7.6 m/s 402.70 MHz Kdyně (CZ) 0.00 km FOUND
T1330903 RS41 2021-10-01 01:13:20 49.0958 13.199 16 ° 13 km/h 1287 m -7.4 m/s 402.70 MHz Sušice (CZ) 0.00 km UNKNOWN
T1330867 RS41 2021-09-30 19:12:53 48.9804 13.2167 38 ° 11 km/h 1546 m -5.8 m/s 402.70 MHz Deggendorf (DE) 0.00 km UNKNOWN
T1331033 RS41 2021-09-30 13:32:57 49.094 13.9951 152 ° 7 km/h 1064 m -4.4 m/s 402.70 MHz Prachatice (CZ) 0.00 km FOUND
T1330917 RS41 2021-09-30 07:19:25 49.4193 13.6418 79 ° 37 km/h 767 m -4.8 m/s 402.700 MHz Horažďovice (CZ) 0.00 km UNKNOWN
T1330918 RS41 2021-09-30 01:19:50 49.8275 13.6394 78 ° 28 km/h 708 m -8.2 m/s 402.70 MHz Rokycany (CZ) 0.00 km FOUND
T1331074 RS41 2021-09-29 19:10:30 49.7156 13.1848 88 ° 9 km/h 490 m -12.8 m/s 402.70 MHz Nýřany (CZ) 0.00 km FOUND
T1330973 RS41 2021-09-29 13:00:00 49.8207 13.0258 68 ° 30 km/h 626 m -8.8 m/s 402.70 MHz Stříbro (CZ) 0.00 km FOUND
T1330906 RS41 2021-09-29 07:19:06 49.9207 13.0383 30 ° 19 km/h 843 m -11.3 m/s 402.70 MHz Stříbro (CZ) 0.00 km FOUND
T1330869 RS41 2021-09-29 01:11:31 49.8474 12.9868 257 ° 17 km/h 625 m -5.9 m/s 402.70 MHz Stříbro (CZ) 0.00 km FOUND
T1330824 RS41 2021-09-28 19:22:30 49.6588 13.2156 221 ° 19 km/h 452 m -5.6 m/s 402.70 MHz Dobřany (CZ) 0.00 km FOUND
T1251132 RS41 2021-09-28 13:03:30 49.5527 13.212 90 ° 6 km/h 593 m -15.3 m/s 402.700 MHz Přeštice (CZ) 0.00 km UNKNOWN
T1310341 RS41 2021-09-28 07:06:00 49.3201 13.1877 74 ° 9 km/h 541 m -9.9 m/s 402.70 MHz Klatovy (CZ) 0.00 km UNKNOWN
T1330976 RS41 2021-09-28 01:14:45 49.3847 13.2346 87 ° 13 km/h 525 m -13.4 m/s 402.70 MHz Klatovy (CZ) 0.00 km UNKNOWN
T1330967 RS41 2021-09-27 19:31:57 49.3415 13.1985 48 ° 13 km/h 500 m -8.7 m/s 402.700 MHz Klatovy (CZ) 0.00 km UNKNOWN
T1330978 RS41 2021-09-27 13:08:31 49.3367 12.7361 95 ° 15 km/h 1281 m -7.6 m/s 402.70 MHz Domažlice (CZ) 0.00 km FOUND
T1330914 RS41 2021-09-27 07:17:30 49.6905 12.5112 136 ° 13 km/h 1278 m -11.2 m/s 402.70 MHz Tachov (CZ) 0.00 km FOUND
T1330826 RS41 2021-09-27 01:23:00 49.8188 12.5094 123 ° 24 km/h 891 m -6.5 m/s 402.700 MHz Tachov (CZ) 0.00 km FOUND
T1330974 RS41 2021-09-26 19:25:00 49.7647 12.7595 267 ° 24 km/h 848 m -4.5 m/s 402.70 MHz Tachov (CZ) 0.00 km FOUND
T1330825 RS41 2021-09-26 13:23:30 49.8248 12.8825 240 ° 6 km/h 868 m -3.9 m/s 402.70 MHz Planá (CZ) 0.00 km FOUND
T1330866 RS41 2021-09-26 07:34:30 49.7604 13.0366 288 ° 11 km/h 578 m -5.2 m/s 402.70 MHz Stříbro (CZ) 0.00 km FOUND
T1330851 RS41 2021-09-26 01:26:00 49.6537 13.2559 246 ° 2 km/h 469 m -16.6 m/s 402.70 MHz Dobřany (CZ) 0.00 km UNKNOWN
T1330823 RS41 2021-09-25 19:31:30 49.6412 13.1198 83 ° 9 km/h 538 m -7.3 m/s 402.70 MHz Holýšov (CZ) 0.00 km FOUND
T1330975 RS41 2021-09-25 13:18:30 49.7198 13.0386 68 ° 11 km/h 626 m -6.3 m/s 402.70 MHz Stříbro (CZ) 0.00 km FOUND
T1310335 RS41 2021-09-25 07:08:00 49.3743 12.9364 44 ° 28 km/h 748 m -9.2 m/s 402.700 MHz Domažlice (CZ) 0.00 km FOUND
T1310338 RS41 2021-09-25 01:26:30 49.1941 13.1988 74 ° 33 km/h 1341 m -6.2 m/s 402.700 MHz Klatovy (CZ) 0.00 km FOUND
T1310337 RS41 2021-09-24 18:53:16 49.0901 12.8303 110 ° 35 km/h 2470 m -12.6 m/s 402.70 MHz Deggendorf (DE) 0.00 km FOUND
T1310759 RS41 2021-09-24 13:09:30 49.0026 13.0371 106 ° 43 km/h 1722 m -7.7 m/s 402.700 MHz Deggendorf (DE) 0.00 km NEED ATTENTION
T1310356 RS41 2021-09-24 07:06:15 48.7527 12.9328 115 ° 44 km/h 906 m -6.5 m/s 404.900 MHz Deggendorf (DE) 0.00 km UNKNOWN
T1251131 RS41 2021-09-24 01:10:52 48.6989 13.3443 102 ° 15 km/h 884 m -13.9 m/s 402.70 MHz Passau (DE) 0.00 km UNKNOWN
T1310342 RS41 2021-09-23 19:06:54 48.8156 13.1811 84 ° 13 km/h 1423 m -5.2 m/s 402.70 MHz Deggendorf (DE) 0.00 km UNKNOWN
T1310340 RS41 2021-09-23 12:59:25 48.8718 12.8013 45 ° 19 km/h 1066 m -9.6 m/s 402.70 MHz Deggendorf (DE) 0.00 km FOUND
T1251129 RS41 2021-09-23 07:15:57 48.6888 12.9323 356 ° 11 km/h 1033 m -9.1 m/s 402.700 MHz Deggendorf (DE) 0.00 km FOUND
T1510344 RS41 2021-09-23 00:59:02 48.7758 12.4785 130 ° 4 km/h 788 m -11.9 m/s 402.700 MHz Straubing (DE) 0.00 km FOUND
T1310339 RS41 2021-09-22 19:15:07 48.5176 12.1192 44 ° 2 km/h 536 m -6.0 m/s 402.70 MHz Landshut (DE) 0.00 km UNKNOWN
T1310597 RS41 2021-09-22 13:11:35 48.5649 12.3327 129 ° 13 km/h 625 m -10.9 m/s 404.90 MHz Landshut (DE) 0.00 km FOUND
T1310430 RS41 2021-09-22 07:10:18 48.4183 12.1842 107 ° 24 km/h 661 m -13.1 m/s 402.700 MHz Landshut (DE) 0.00 km FOUND
T1510331 RS41 2021-09-22 00:55:45 48.5502 12.1426 62 ° 9 km/h 479 m -13.5 m/s 402.700 MHz Landshut (DE) 0.00 km UNKNOWN
T1510334 RS41 2021-09-21 19:25:15 48.5118 12.3738 180 ° 22 km/h 914 m -6.7 m/s 402.70 MHz Landshut (DE) 0.00 km UNKNOWN
T1310599 RS41 2021-09-21 12:38:00 48.8643 11.9704 152 ° 13 km/h 865 m -9.2 m/s 402.70 MHz Regensburg (DE) 0.00 km UNKNOWN
T1310429 RS41 2021-09-21 07:00:45 48.9493 12.2774 179 ° 7 km/h 1331 m -8.8 m/s 402.70 MHz Regensburg (DE) 0.00 km FOUND
T1310600 RS41 2021-09-21 01:31:30 49.0225 12.1842 320 ° 6 km/h 625 m -7.6 m/s 402.700 MHz Regensburg (DE) 0.00 km FOUND
T1310598 RS41 2021-09-20 19:17:30 49.1048 12.2324 196 ° 11 km/h 1052 m -8.4 m/s 402.700 MHz Regensburg (DE) 0.00 km FOUND
T1320873 RS41 2021-09-20 13:24:23 49.2222 12.2942 211 ° 13 km/h 749 m -3.3 m/s 402.700 MHz Schwandorf (DE) 0.00 km FOUND
T1320875 RS41 2021-09-20 07:07:30 49.1982 12.2345 189 ° 20 km/h 1073 m -11.3 m/s 402.70 MHz Schwandorf (DE) 0.00 km FOUND
T1310990 RS41 2021-09-20 01:13:05 49.2904 12.2392 218 ° 15 km/h 573 m -11.9 m/s 402.700 MHz Schwandorf (DE) 0.00 km UNKNOWN
T1320874 RS41 2021-09-19 19:26:17 49.3357 12.1433 228 ° 17 km/h 454 m -5.9 m/s 402.70 MHz Schwandorf (DE) 0.00 km FOUND
T1310592 RS41 2021-09-19 13:05:25 49.3969 12.1095 206 ° 17 km/h 475 m -9.7 m/s 402.70 MHz Schwandorf (DE) 0.00 km FOUND
T1310593 RS41 2021-09-19 07:08:23 49.2129 12.2244 258 ° 22 km/h 718 m -13.1 m/s 402.70 MHz Schwandorf (DE) 0.00 km FOUND
T1310594 RS41 2021-09-19 01:25:02 49.0073 12.5062 277 ° 6 km/h 1152 m -11.7 m/s 402.70 MHz Straubing (DE) 0.00 km UNKNOWN
T1310596 RS41 2021-09-18 19:02:37 48.8804 12.5647 209 ° 17 km/h 944 m -10.2 m/s 402.70 MHz Straubing (DE) 0.00 km UNKNOWN
T1310591 RS41 2021-09-18 13:07:54 48.8694 12.8544 148 ° 15 km/h 1247 m -4.4 m/s 402.700 MHz Deggendorf (DE) 0.00 km FOUND
T1310589 RS41 2021-09-18 07:42:08 48.6037 13.15 139 ° 24 km/h 865 m -3.6 m/s 404.90 MHz Passau (DE) 0.00 km FOUND
T1310406 RS41 2021-09-18 01:24:13 48.8115 13.1283 116 ° 22 km/h 1546 m -7.2 m/s 402.700 MHz Deggendorf (DE) 0.00 km UNKNOWN
T1310404 RS41 2021-09-17 19:11:00 48.817 13.0733 175 ° 13 km/h 1384 m -10.2 m/s 402.700 MHz Deggendorf (DE) 0.00 km FOUND
T1310357 RS41 2021-09-17 13:13:17 48.9616 13.148 120 ° 26 km/h 1569 m -10.1 m/s 402.70 MHz Deggendorf (DE) 0.00 km FOUND
T1310358 RS41 2021-09-17 07:05:27 49.1702 12.9346 135 ° 22 km/h 1128 m -13.2 m/s 402.70 MHz Kdyně (CZ) 0.00 km UNKNOWN
T1320871 RS41 2021-09-17 01:25:52 49.3644 13.1761 142 ° 22 km/h 595 m -7.5 m/s 402.70 MHz Klatovy (CZ) 0.00 km UNKNOWN
T1251133 RS41 2021-09-16 19:14:06 49.4808 13.1702 139 ° 20 km/h 608 m -12.9 m/s 402.700 MHz Klatovy (CZ) 0.00 km FOUND
T1310989 RS41 2021-09-16 13:18:01 49.4992 13.0424 52 ° 15 km/h 557 m -7.5 m/s 402.70 MHz Domažlice (CZ) 0.00 km FOUND
T1310360 RS41 2021-09-16 07:21:30 49.4607 13.0305 49 ° 13 km/h 555 m -9.1 m/s 402.70 MHz Domažlice (CZ) 0.00 km FOUND
T1310355 RS41 2021-09-16 01:18:00 49.4468 12.9888 60 ° 15 km/h 562 m -16.8 m/s 402.70 MHz Domažlice (CZ) 0.00 km FOUND
T1310359 RS41 2021-09-15 19:13:53 49.6403 12.9725 54 ° 22 km/h 613 m -11.3 m/s 402.70 MHz Holýšov (CZ) 0.00 km FOUND
T1310595 RS41 2021-09-15 14:15:12 49.7744 13.5858 34 ° 4 km/h 691 m -5.1 m/s 402.70 MHz Rokycany (CZ) 0.00 km UNKNOWN
T1310590 RS41 2021-09-15 07:13:30 49.3491 12.9426 256 ° 4 km/h 539 m -6.8 m/s 402.70 MHz Kdyně (CZ) 0.00 km FOUND
T1310428 RS41 2021-09-15 01:14:30 49.2603 12.9282 61 ° 2 km/h 571 m -13.9 m/s 402.70 MHz Kdyně (CZ) 0.00 km FOUND
T1310427 RS41 2021-09-14 19:17:00 49.2448 12.7972 258 ° 9 km/h 663 m -13.2 m/s 402.70 MHz Domažlice (CZ) 0.00 km FOUND
T1311057 RS41 2021-09-14 12:55:31 49.2624 12.6525 318 ° 2 km/h 636 m -11.2 m/s 402.70 MHz Domažlice (CZ) 0.00 km FOUND
T1310431 RS41 2021-09-14 07:14:30 49.1791 12.6986 323 ° 13 km/h 798 m -6.9 m/s 402.70 MHz Domažlice (CZ) 0.00 km UNKNOWN
T1510236 RS41 2021-09-14 01:37:32 49.089 13.015 109 ° 6 km/h 1355 m -6.3 m/s 402.70 MHz Deggendorf (DE) 0.00 km FOUND
T1510235 RS41 2021-09-13 19:19:21 49.0784 12.8706 1 ° 2 km/h 1358 m -6.8 m/s 402.70 MHz Deggendorf (DE) 0.00 km FOUND
T1510425 RS41 2021-09-13 13:11:30 49.2763 12.8282 90 ° 7 km/h 558 m -7.7 m/s 402.700 MHz Domažlice (CZ) 0.00 km FOUND
T1510215 RS41 2021-09-13 07:10:00 49.1866 12.8522 134 ° 15 km/h 1307 m -14.4 m/s 402.70 MHz Kdyně (CZ) 0.00 km FOUND
T1510343 RS41 2021-09-13 01:11:30 49.1803 12.991 221 ° 6 km/h 1002 m -15.8 m/s 402.70 MHz Kdyně (CZ) 0.00 km UNKNOWN
T1510240 RS41 2021-09-12 19:21:12 49.0791 12.9804 111 ° 11 km/h 1384 m -11.1 m/s 402.70 MHz Deggendorf (DE) 0.00 km UNKNOWN
T1510227 RS41 2021-09-12 13:08:30 49.1997 12.8038 99 ° 15 km/h 828 m -5.3 m/s 402.700 MHz Kdyně (CZ) 0.00 km FOUND
T1510214 RS41 2021-09-12 07:04:55 49.0682 12.7251 90 ° 15 km/h 1461 m -15.4 m/s 402.70 MHz Straubing (DE) 0.00 km UNKNOWN
T1510239 RS41 2021-09-12 00:59:10 49.0079 12.5582 166 ° 11 km/h 1378 m -12.8 m/s 402.700 MHz Straubing (DE) 0.00 km UNKNOWN
T1510225 RS41 2021-09-11 19:31:48 49.088 12.8399 79 ° 9 km/h 1492 m -7.5 m/s 402.700 MHz Deggendorf (DE) 0.00 km FOUND
T1510426 RS41 2021-09-11 13:08:00 49.3845 12.8113 29 ° 15 km/h 777 m -13.1 m/s 402.70 MHz Domažlice (CZ) 0.00 km FOUND
T1510347 RS41 2021-09-11 07:08:30 49.3193 12.6441 77 ° 13 km/h 804 m -10.6 m/s 402.70 MHz Domažlice (CZ) 0.00 km UNKNOWN
T1510421 RS41 2021-09-11 01:02:30 49.3786 12.679 119 ° 11 km/h 720 m -16.5 m/s 402.70 MHz Domažlice (CZ) 0.00 km FOUND
T1510332 RS41 2021-09-10 19:26:30 49.464 12.65 62 ° 11 km/h 1011 m -6.3 m/s 402.70 MHz Domažlice (CZ) 0.00 km FOUND
T1510377 RS41 2021-09-10 13:03:38 49.6747 12.3801 107 ° 7 km/h 863 m -10.6 m/s 402.70 MHz Weiden in der Oberpfalz (DE) 0.00 km FOUND
T1510224 RS41 2021-09-10 07:30:37 49.6523 12.3834 69 ° 13 km/h 770 m -5.1 m/s 402.70 MHz Weiden in der Oberpfalz (DE) 0.00 km FOUND
T1510216 RS41 2021-09-10 01:41:30 49.7121 12.4182 91 ° 9 km/h 779 m -14.3 m/s 402.70 MHz Tachov (CZ) 0.00 km UNKNOWN
T1510269 RS41 2021-09-09 19:27:03 49.6371 12.1981 344 ° 15 km/h 591 m -7.2 m/s 402.70 MHz Weiden in der Oberpfalz (DE) 0.00 km FOUND
T1510333 RS41 2021-09-09 13:00:50 49.6967 11.7852 5 ° 17 km/h 715 m -8.6 m/s 402.70 MHz Sulzbach-Rosenberg (DE) 0.00 km LOST
T1510208 RS41 2021-09-09 07:11:48 49.5027 11.5815 330 ° 20 km/h 784 m -7.7 m/s 402.70 MHz Sulzbach-Rosenberg (DE) 0.00 km FOUND
T1510206 RS41 2021-09-09 01:21:00 49.5048 11.6723 38 ° 20 km/h 1035 m -12.1 m/s 402.700 MHz Sulzbach-Rosenberg (DE) 0.00 km FOUND
T1510335 RS41 2021-09-08 19:16:09 49.4592 11.5776 295 ° 26 km/h 728 m -7.2 m/s 402.700 MHz Sulzbach-Rosenberg (DE) 0.00 km FOUND
T1510207 RS41 2021-09-08 13:22:00 49.5178 11.5004 289 ° 20 km/h 986 m -10.5 m/s 404.90 MHz Lauf an der Pegnitz (DE) 0.00 km FOUND
T1510205 RS41 2021-09-08 07:10:31 49.2846 11.4221 283 ° 26 km/h 794 m -6.3 m/s 402.700 MHz Neumarkt in der Oberpfalz (DE) 0.00 km FOUND
T1510202 RS41 2021-09-08 01:21:00 49.1193 11.3797 293 ° 24 km/h 1500 m -7.2 m/s 402.70 MHz Neumarkt in der Oberpfalz (DE) 0.00 km FOUND
T1510204 RS41 2021-09-07 19:24:30 48.8547 11.3508 258 ° 9 km/h 1548 m -7.9 m/s 402.700 MHz Ingolstadt (DE) 0.00 km UNKNOWN
T1510217 RS41 2021-09-07 13:20:00 48.8559 11.639 260 ° 4 km/h 848 m -6.4 m/s 402.700 MHz Ingolstadt (DE) 0.00 km FOUND
T1510220 RS41 2021-09-07 07:13:30 48.9445 11.9867 329 ° 2 km/h 759 m -10.7 m/s 402.70 MHz Regensburg (DE) 0.00 km LOST
T1510299 RS41 2021-09-07 01:18:21 49.1145 12.319 70 ° 9 km/h 1067 m -11.7 m/s 402.70 MHz Regensburg (DE) 0.00 km FOUND
T1510210 RS41 2021-09-06 19:20:30 49.0122 12.2006 190 ° 4 km/h 1238 m -7.0 m/s 402.700 MHz Regensburg (DE) 0.00 km FOUND
T1510203 RS41 2021-09-06 13:00:31 49.1089 12.1447 46 ° 7 km/h 923 m -12.7 m/s 402.70 MHz Regensburg (DE) 0.00 km FOUND
T1510209 RS41 2021-09-06 07:23:00 49.0462 12.1272 311 ° 15 km/h 789 m -6.4 m/s 402.70 MHz Regensburg (DE) 0.00 km FOUND
S3130759 RS41 2021-09-06 01:19:12 49.0778 12.3293 337 ° 13 km/h 1007 m -5.9 m/s 402.70 MHz Regensburg (DE) 0.00 km FOUND
T1510296 RS41 2021-09-05 19:16:57 49.0197 12.4848 288 ° 9 km/h 1164 m -4.3 m/s 402.700 MHz Straubing (DE) 0.00 km UNKNOWN
S3130650 RS41 2021-09-05 13:09:46 49.1702 12.6547 240 ° 13 km/h 1623 m -6.3 m/s 402.70 MHz Straubing (DE) 0.00 km UNKNOWN
S3130758 RS41 2021-09-05 07:04:30 49.1359 12.7382 293 ° 9 km/h 1340 m -8.8 m/s 402.70 MHz Straubing (DE) 0.00 km FOUND
S3140830 RS41 2021-09-05 01:30:30 49.2681 12.8158 231 ° 22 km/h 585 m -11.5 m/s 402.70 MHz Domažlice (CZ) 0.00 km FOUND
S3130760 RS41 2021-09-04 19:27:00 49.2498 12.6845 263 ° 15 km/h 566 m -7.9 m/s 402.700 MHz Domažlice (CZ) 0.00 km FOUND
S3140252 RS41 2021-09-04 13:03:00 49.4088 12.4899 266 ° 6 km/h 1329 m -10.9 m/s 402.70 MHz Schwandorf (DE) 0.00 km FOUND
S3140875 RS41 2021-09-04 07:22:30 49.284 12.3831 353 ° 4 km/h 787 m -4.5 m/s 402.700 MHz Schwandorf (DE) 0.00 km FOUND
S3130756 RS41 2021-09-04 01:26:15 49.2718 12.3715 286 ° 15 km/h 615 m -5.2 m/s 402.700 MHz Schwandorf (DE) 0.00 km UNKNOWN
S3140832 RS41 2021-09-03 19:09:09 49.2389 12.3766 259 ° 15 km/h 709 m -14.1 m/s 402.700 MHz Schwandorf (DE) 0.00 km UNKNOWN
S3140898 RS41 2021-09-03 13:45:48 49.2793 12.2566 243 ° 2 km/h 577 m -4.5 m/s 402.700 MHz Schwandorf (DE) 0.00 km FOUND
S3140249 RS41 2021-09-03 07:13:36 49.2139 12.2785 272 ° 15 km/h 731 m -14.0 m/s 402.700 MHz Schwandorf (DE) 0.00 km FOUND
S3140329 RS41 2021-09-03 01:37:30 49.1797 12.3541 275 ° 17 km/h 1011 m -6.1 m/s 402.70 MHz Schwandorf (DE) 0.00 km FOUND
S3140900 RS41 2021-09-02 19:31:06 49.2279 12.1895 278 ° 30 km/h 675 m -8.1 m/s 402.70 MHz Schwandorf (DE) 0.00 km FOUND
S3140899 RS41 2021-09-02 12:54:15 49.306 12.1177 295 ° 19 km/h 604 m -13.6 m/s 402.70 MHz Schwandorf (DE) 0.00 km FOUND
S3140250 RS41 2021-09-02 07:02:33 49.1268 12.1731 297 ° 20 km/h 971 m -11.0 m/s 402.70 MHz Regensburg (DE) 0.00 km UNKNOWN
S3140333 RS41 2021-09-02 01:19:33 49.0148 12.3127 268 ° 17 km/h 999 m -11.7 m/s 402.700 MHz Regensburg (DE) 0.00 km UNKNOWN
S3131321 RS41 2021-09-01 19:05:30 48.9738 12.0486 197 ° 11 km/h 715 m -9.8 m/s 402.70 MHz Regensburg (DE) 0.00 km LOST
S3140834 RS41 2021-09-01 13:20:00 49.0367 11.7093 208 ° 9 km/h 668 m -6.2 m/s 402.70 MHz Regensburg (DE) 0.00 km FOUND
S3131323 RS41 2021-09-01 07:16:54 48.9133 11.7133 208 ° 17 km/h 633 m -8.6 m/s 402.700 MHz Ingolstadt (DE) 0.00 km NEED ATTENTION
S3140833 RS41 2021-09-01 01:47:20 48.9186 11.667 148 ° 15 km/h 513 m -4.2 m/s 402.700 MHz Ingolstadt (DE) 0.00 km FOUND
S3140248 RS41 2021-08-31 19:14:30 49.0167 11.8678 115 ° 17 km/h 574 m -9.8 m/s 402.70 MHz Regensburg (DE) 0.00 km FOUND
S3131281 RS41 2021-08-31 13:02:00 49.0869 11.766 133 ° 22 km/h 620 m -12.4 m/s 402.700 MHz Regensburg (DE) 0.00 km FOUND
S3131279 RS41 2021-08-31 07:18:30 49.0642 11.7796 153 ° 17 km/h 599 m -7.4 m/s 402.700 MHz Regensburg (DE) 0.00 km FOUND
S3131635 RS41 2021-08-31 01:33:30 49.0728 11.9758 122 ° 19 km/h 552 m -8.8 m/s 402.700 MHz Regensburg (DE) 0.00 km FOUND
S3131069 RS41 2021-08-30 19:37:00 49.0538 12.066 136 ° 26 km/h 741 m -5.1 m/s 402.70 MHz Regensburg (DE) 0.00 km FOUND
S3131074 RS41 2021-08-30 13:16:51 49.2098 11.5721 152 ° 7 km/h 1065 m -9.8 m/s 402.700 MHz Neumarkt in der Oberpfalz (DE) 0.00 km FOUND
S3140251 RS41 2021-08-30 07:36:38 49.1818 11.6689 244 ° 19 km/h 994 m -4.4 m/s 402.70 MHz Neumarkt in der Oberpfalz (DE) 0.00 km FOUND
S3131655 RS41 2021-08-30 01:45:30 48.9768 11.9787 327 ° 9 km/h 700 m -6.2 m/s 402.70 MHz Regensburg (DE) 0.00 km LOST
S3131652 RS41 2021-08-29 19:06:30 49.0333 11.7342 46 ° 11 km/h 694 m -16.0 m/s 402.70 MHz Regensburg (DE) 0.00 km FOUND
S3131656 RS41 2021-08-29 13:37:30 48.9932 11.8226 75 ° 15 km/h 614 m -6.2 m/s 402.70 MHz Regensburg (DE) 0.00 km FOUND
S3131070 RS41 2021-08-29 07:03:30 49 11.673 120 ° 19 km/h 748 m -13.0 m/s 402.70 MHz Regensburg (DE) 0.00 km FOUND
S3131072 RS41 2021-08-29 02:12:00 48.8384 11.6911 132 ° 22 km/h 764 m -6.2 m/s 404.90 MHz Ingolstadt (DE) 0.00 km FOUND
S3140871 RS41 2021-08-28 19:27:00 48.9821 11.9024 117 ° 7 km/h 593 m -4.0 m/s 402.70 MHz Regensburg (DE) 0.00 km NEED ATTENTION
S3131073 RS41 2021-08-28 13:27:15 49.2426 12.1045 146 ° 7 km/h 681 m -4.2 m/s 402.70 MHz Schwandorf (DE) 0.00 km LOST
S3131214 RS41 2021-08-28 07:18:30 49.1495 12.1417 169 ° 15 km/h 872 m -10.3 m/s 402.70 MHz Regensburg (DE) 0.00 km FOUND
S3131326 RS41 2021-08-28 01:33:57 49.2141 12.5677 123 ° 24 km/h 1779 m -10.9 m/s 402.70 MHz Schwandorf (DE) 0.00 km UNKNOWN
S3140836 RS41 2021-08-27 19:26:30 49.1208 12.5741 88 ° 37 km/h 881 m -12.1 m/s 402.700 MHz Straubing (DE) 0.00 km UNKNOWN
S3140874 RS41 2021-08-27 13:24:30 49.1234 12.5989 103 ° 28 km/h 978 m -4.9 m/s 402.70 MHz Straubing (DE) 0.00 km FOUND
S3110297 RS41 2021-08-27 07:03:55 49.081 12.3438 125 ° 26 km/h 1127 m -10.3 m/s 402.70 MHz Regensburg (DE) 0.00 km UNKNOWN
S3140873 RS41 2021-08-27 01:25:02 48.9938 12.7762 122 ° 30 km/h 1310 m -5.1 m/s 402.70 MHz Straubing (DE) 0.00 km UNKNOWN
S3131071 RS41 2021-08-26 19:37:43 48.9405 12.8377 162 ° 31 km/h 1279 m -5.0 m/s 402.70 MHz Deggendorf (DE) 0.00 km UNKNOWN
S3131601 RS41 2021-08-26 13:09:24 49.0907 13.0679 119 ° 22 km/h 1403 m -10.1 m/s 402.70 MHz Deggendorf (DE) 0.00 km UNKNOWN
S3131108 RS41 2021-08-26 07:37:18 48.9206 13.1925 86 ° 43 km/h 1451 m -4.7 m/s 402.70 MHz Deggendorf (DE) 0.00 km UNKNOWN
S3120628 RS41 2021-08-26 01:24:59 48.9843 12.1212 99 ° 30 km/h 721 m -14.6 m/s 402.70 MHz Regensburg (DE) 0.00 km FOUND
S3050384 RS41 2021-08-25 19:25:24 48.9658 11.6342 63 ° 19 km/h 657 m -11.6 m/s 402.70 MHz Ingolstadt (DE) 0.00 km FOUND
S3140837 RS41 2021-08-25 13:06:30 49.1016 11.3445 297 ° 11 km/h 1572 m -13.2 m/s 402.70 MHz Neumarkt in der Oberpfalz (DE) 0.00 km UNKNOWN
S3140872 RS41 2021-08-25 06:58:00 49.0262 11.2104 254 ° 19 km/h 1656 m -12.6 m/s 402.70 MHz Roth bei Nürnberg (DE) 0.00 km UNKNOWN
S3050383 RS41 2021-08-25 01:31:28 49.1301 11.3943 282 ° 35 km/h 1104 m -4.7 m/s 402.700 MHz Neumarkt in der Oberpfalz (DE) 0.00 km UNKNOWN
S3050368 RS41 2021-08-24 19:17:33 49.1618 11.4576 265 ° 43 km/h 1081 m -7.8 m/s 402.70 MHz Neumarkt in der Oberpfalz (DE) 0.00 km FOUND
S3120625 RS41 2021-08-24 12:46:51 49.2269 11.5949 224 ° 24 km/h 1067 m -14.5 m/s 402.70 MHz Neumarkt in der Oberpfalz (DE) 0.00 km FOUND
S3050379 RS41 2021-08-24 07:28:01 49.0845 11.5439 208 ° 26 km/h 827 m -5.3 m/s 402.70 MHz Neumarkt in der Oberpfalz (DE) 0.00 km UNKNOWN
S3120626 RS41 2021-08-24 01:31:15 48.9662 11.7693 199 ° 28 km/h 634 m -4.8 m/s 402.70 MHz Regensburg (DE) 0.00 km LOST
S3050380 RS41 2021-08-23 19:24:00 48.9691 11.9333 177 ° 19 km/h 588 m -7.6 m/s 402.70 MHz Regensburg (DE) 0.00 km FOUND
S3130653 RS41 2021-08-23 13:26:00 49.1409 12.1339 121 ° 39 km/h 1155 m -11.4 m/s 402.70 MHz Regensburg (DE) 0.00 km FOUND
S3130652 RS41 2021-08-23 07:16:00 49.3084 12.3712 80 ° 28 km/h 1048 m -12.9 m/s 402.70 MHz Schwandorf (DE) 0.00 km FOUND
S3130651 RS41 2021-08-23 01:18:35 49.5564 12.8765 74 ° 19 km/h 679 m -13.4 m/s 402.700 MHz Domažlice (CZ) 0.00 km FOUND
S3110299 RS41 2021-08-22 19:34:56 49.6953 13.2693 77 ° 13 km/h 402 m -6.9 m/s 402.70 MHz Nýřany (CZ) 0.00 km FOUND
S3140001 RS41 2021-08-22 13:30:44 49.6419 12.9838 85 ° 11 km/h 601 m -10.5 m/s 402.70 MHz Holýšov (CZ) 0.00 km FOUND
S3110296 RS41 2021-08-22 07:30:47 49.5596 12.767 102 ° 7 km/h 844 m -6.8 m/s 402.70 MHz Domažlice (CZ) 0.00 km FOUND
S3120627 RS41 2021-08-22 01:37:19 49.6031 12.6483 30 ° 26 km/h 873 m -4.5 m/s 402.70 MHz Tachov (CZ) 0.00 km FOUND
S3050382 RS41 2021-08-21 19:18:30 49.2886 12.6828 310 ° 7 km/h 579 m -5.8 m/s 402.70 MHz Domažlice (CZ) 0.00 km FOUND
S3050375 RS41 2021-08-21 13:18:30 49.4432 12.6475 70 ° 7 km/h 885 m -5.2 m/s 402.70 MHz Domažlice (CZ) 0.00 km UNKNOWN
S3050248 RS41 2021-08-21 07:19:00 49.2255 12.5905 287 ° 6 km/h 728 m -14.2 m/s 402.700 MHz Domažlice (CZ) 0.00 km FOUND
S3130762 RS41 2021-08-21 01:33:00 49.3129 12.6994 9 ° 2 km/h 831 m -15.3 m/s 402.70 MHz Domažlice (CZ) 0.00 km UNKNOWN
S3130761 RS41 2021-08-20 19:18:40 49.4056 12.6169 126 ° 22 km/h 1930 m -12.7 m/s 402.70 MHz Domažlice (CZ) 0.00 km UNKNOWN
S3131705 RS41 2021-08-20 13:04:31 49.5619 12.7939 118 ° 20 km/h 831 m -11.8 m/s 402.70 MHz Domažlice (CZ) 0.00 km FOUND
S3130757 RS41 2021-08-20 07:20:00 49.6919 12.8308 77 ° 20 km/h 1217 m -14.2 m/s 402.700 MHz Stříbro (CZ) 0.00 km FOUND
S3130746 RS41 2021-08-20 01:18:00 49.5599 12.8912 61 ° 13 km/h 661 m -13.2 m/s 402.70 MHz Domažlice (CZ) 0.00 km UNKNOWN
S3050371 RS41 2021-08-19 19:15:30 49.3906 12.8925 68 ° 17 km/h 655 m -10.7 m/s 402.70 MHz Domažlice (CZ) 0.00 km UNKNOWN
S3110298 RS41 2021-08-19 13:26:01 49.4483 12.9705 48 ° 11 km/h 500 m -7.9 m/s 402.70 MHz Domažlice (CZ) 0.00 km FOUND
S3050372 RS41 2021-08-19 07:32:30 49.3695 12.8342 309 ° 2 km/h 706 m -2.5 m/s 402.700 MHz Domažlice (CZ) 0.00 km FOUND
S3110295 RS41 2021-08-19 01:20:00 49.3872 12.6241 72 ° 26 km/h 724 m -12.8 m/s 402.700 MHz Domažlice (CZ) 0.00 km UNKNOWN
S3110324 RS41 2021-08-18 19:18:30 49.0338 12.462 114 ° 35 km/h 1554 m -9.4 m/s 402.70 MHz Straubing (DE) 0.00 km UNKNOWN
S3140002 RS41 2021-08-18 13:01:14 48.8981 12.4914 95 ° 35 km/h 2173 m -10.4 m/s 402.70 MHz Straubing (DE) 0.00 km FOUND
S3110323 RS41 2021-08-18 07:13:38 48.6546 12.605 104 ° 41 km/h 1397 m -13.0 m/s 402.700 MHz Straubing (DE) 0.00 km FOUND
S3130942 RS41 2021-08-18 01:31:40 48.9475 12.9968 106 ° 56 km/h 1670 m -10.8 m/s 402.70 MHz Deggendorf (DE) 0.00 km UNKNOWN
S3130954 RS41 2021-08-17 19:12:31 49.2708 13.093 63 ° 20 km/h 716 m -7.1 m/s 402.70 MHz Kdyně (CZ) 0.00 km UNKNOWN
S3131737 RS41 2021-08-17 13:16:31 49.2364 13.2747 77 ° 44 km/h 949 m -12.7 m/s 402.70 MHz Klatovy (CZ) 0.00 km UNKNOWN
S3131738 RS41 2021-08-17 06:58:30 49.4283 12.836 73 ° 9 km/h 537 m -6.1 m/s 402.700 MHz Domažlice (CZ) 0.00 km UNKNOWN
S3131748 RS41 2021-08-17 01:33:41 49.8858 13.3571 100 ° 28 km/h 757 m -5.9 m/s 402.70 MHz Třemošná (CZ) 0.00 km UNKNOWN
T1320677 RS41 2021-08-16 19:24:36 49.908 13.2395 73 ° 20 km/h 592 m -6.0 m/s 402.701 MHz Třemošná (CZ) 0.00 km UNKNOWN
S3130926 RS41 2021-08-16 13:20:21 49.9149 13.2592 87 ° 39 km/h 1003 m -7.6 m/s 402.70 MHz Třemošná (CZ) 0.00 km UNKNOWN
S3130927 RS41 2021-08-16 07:32:15 49.6554 13.561 64 ° 19 km/h 699 m -9.0 m/s 402.701 MHz Starý Plzenec (CZ) 0.00 km UNKNOWN
S3131713 RS41 2021-08-16 01:31:04 49.6048 13.3431 44 ° 9 km/h 429 m -9.2 m/s 402.701 MHz Přeštice (CZ) 0.00 km UNKNOWN
S3131750 RS41 2021-08-15 19:35:50 49.6624 12.8817 37 ° 7 km/h 597 m -7.6 m/s 402.701 MHz Stříbro (CZ) 0.00 km FOUND
S3131741 RS41 2021-08-15 12:56:30 49.5152 12.9114 85 ° 17 km/h 638 m -12.5 m/s 402.70 MHz Domažlice (CZ) 0.00 km FOUND
S3131732 RS41 2021-08-15 07:26:30 49.4376 13.0122 31 ° 7 km/h 559 m -6.0 m/s 402.701 MHz Kdyně (CZ) 0.00 km FOUND
S3131711 RS41 2021-08-15 01:24:30 49.333 12.8982 77 ° 2 km/h 496 m -8.2 m/s 402.70 MHz Kdyně (CZ) 0.00 km FOUND
S3131718 RS41 2021-08-14 19:05:00 49.2337 12.8763 0 ° 7 km/h 746 m -13.2 m/s 402.70 MHz Kdyně (CZ) 0.00 km FOUND
S3130925 RS41 2021-08-14 13:16:00 49.3734 12.7802 58 ° 13 km/h 1027 m -9.5 m/s 402.70 MHz Domažlice (CZ) 0.00 km FOUND
D18050911 DFM 2021-08-14 10:32:30 49.2962 13.597 105 ° 13 km/h 1374 m -3.2 m/s 403.250 MHz Horažďovice (CZ) 0.00 km UNKNOWN
S3110300 RS41 2021-08-14 07:05:00 49.2181 12.7316 53 ° 7 km/h 606 m -6.3 m/s 402.700 MHz Domažlice (CZ) 0.00 km UNKNOWN
S3131722 RS41 2021-08-14 01:27:46 49.122 12.7744 94 ° 22 km/h 1359 m -14.7 m/s 402.70 MHz Straubing (DE) 0.00 km UNKNOWN
S3130342 RS41 2021-08-13 19:26:28 49.0511 12.7557 108 ° 19 km/h 1241 m -13.5 m/s 402.70 MHz Straubing (DE) 0.00 km UNKNOWN
S3140626 RS41 2021-08-13 13:12:30 49.1749 12.5988 25 ° 6 km/h 799 m -4.8 m/s 402.701 MHz Straubing (DE) 0.00 km FOUND
D18050631 DFM 2021-08-13 10:33:30 49.1565 12.9632 114 ° 19 km/h 1172 m -11.8 m/s 403.249 MHz Kdyně (CZ) 0.00 km UNKNOWN
S3140005 RS41 2021-08-13 07:29:00 49.2996 12.7088 7 ° 6 km/h 743 m -10.1 m/s 402.701 MHz Domažlice (CZ) 0.00 km UNKNOWN
S3210815 RS41 2021-08-13 01:50:00 49.4329 13.297 15 ° 4 km/h 877 m -5.9 m/s 402.70 MHz Klatovy (CZ) 0.00 km UNKNOWN
S3131735 RS41 2021-08-12 19:19:30 49.3134 12.7154 278 ° 17 km/h 917 m -12.6 m/s 402.70 MHz Domažlice (CZ) 0.00 km NEED ATTENTION
S3131740 RS41 2021-08-12 13:10:00 49.308 12.7457 284 ° 7 km/h 559 m -7.8 m/s 402.70 MHz Domažlice (CZ) 0.00 km FOUND
S3131720 RS41 2021-08-12 07:20:00 49.215 12.5919 269 ° 15 km/h 695 m -10.1 m/s 402.700 MHz Domažlice (CZ) 0.00 km UNKNOWN
S3131747 RS41 2021-08-12 01:20:31 49.064 12.9221 56 ° 9 km/h 1392 m -14.8 m/s 402.700 MHz Deggendorf (DE) 0.00 km FOUND
S3131717 RS41 2021-08-11 19:30:16 49.0177 12.9644 104 ° 13 km/h 1563 m -8.0 m/s 402.700 MHz Deggendorf (DE) 0.00 km UNKNOWN
S3050381 RS41 2021-08-11 13:09:36 49.1162 12.8982 120 ° 6 km/h 1476 m -7.8 m/s 402.700 MHz Deggendorf (DE) 0.00 km UNKNOWN
S3131721 RS41 2021-08-11 06:55:23 49.0794 12.9581 100 ° 20 km/h 1450 m -8.9 m/s 402.700 MHz Deggendorf (DE) 0.00 km FOUND
S3131734 RS41 2021-08-11 01:28:29 49.2932 13.3577 86 ° 19 km/h 817 m -7.8 m/s 402.70 MHz Klatovy (CZ) 0.00 km UNKNOWN
S3131024 RS41 2021-08-10 19:14:14 49.4104 13.2295 83 ° 13 km/h 565 m -14.1 m/s 402.70 MHz Klatovy (CZ) 0.00 km UNKNOWN
S3140004 RS41 2021-08-10 13:16:16 49.6047 13.4544 82 ° 22 km/h 643 m -11.9 m/s 402.70 MHz Přeštice (CZ) 0.00 km UNKNOWN
S3131731 RS41 2021-08-10 07:33:05 49.678 13.3484 43 ° 4 km/h 545 m -7.2 m/s 402.701 MHz Dobřany (CZ) 0.00 km UNKNOWN
S3131020 RS41 2021-08-10 01:28:27 49.6394 13.3118 8 ° 13 km/h 591 m -13.0 m/s 402.70 MHz Dobřany (CZ) 0.00 km FOUND
S3131021 RS41 2021-08-09 19:21:31 49.838 13.3266 54 ° 24 km/h 918 m -8.8 m/s 402.70 MHz Třemošná (CZ) 0.00 km UNKNOWN
S3130731 RS41 2021-08-09 13:14:00 49.8831 13.089 70 ° 9 km/h 710 m -6.3 m/s 402.70 MHz Stříbro (CZ) 0.00 km UNKNOWN
S3131018 RS41 2021-08-09 07:09:00 49.8284 12.8885 271 ° 6 km/h 663 m -13.1 m/s 402.700 MHz Planá (CZ) 0.00 km UNKNOWN
S3131025 RS41 2021-08-09 01:22:17 49.7481 13.2224 52 ° 20 km/h 588 m -8.1 m/s 402.700 MHz Nýřany (CZ) 0.00 km FOUND
S3130730 RS41 2021-08-08 19:11:52 50.0421 12.8556 36 ° 22 km/h 870 m -8.5 m/s 402.70 MHz Horní Slavkov (CZ) 0.00 km UNKNOWN
S3131739 RS41 2021-08-08 13:19:00 50.2728 13.0026 81 ° 20 km/h 778 m -9.7 m/s 402.700 MHz Ostrov (CZ) 0.00 km UNKNOWN
S3130732 RS41 2021-08-08 06:51:30 50.137 12.9199 68 ° 44 km/h 1018 m -12.3 m/s 402.700 MHz Horní Slavkov (CZ) 0.00 km FOUND
T1320686 RS41 2021-08-08 01:03:30 50.2818 12.6774 52 ° 31 km/h 788 m -13.6 m/s 402.70 MHz Nejdek (CZ) 0.00 km FOUND
T1320676 RS41 2021-08-07 19:38:30 50.3018 12.9641 38 ° 13 km/h 770 m -7.8 m/s 402.70 MHz Ostrov (CZ) 0.00 km UNKNOWN
S3131026 RS41 2021-08-07 13:19:39 50.055 13.1016 23 ° 17 km/h 904 m -7.4 m/s 402.70 MHz Horní Slavkov (CZ) 0.00 km UNKNOWN
S3131023 RS41 2021-08-07 07:17:41 49.6754 13.0913 319 ° 9 km/h 571 m -13.1 m/s 402.700 MHz Holýšov (CZ) 0.00 km FOUND
S3131730 RS41 2021-08-07 01:33:05 49.444 13.5502 77 ° 24 km/h 686 m -5.4 m/s 402.70 MHz Horažďovice (CZ) 0.00 km UNKNOWN
S3210721 RS41 2021-08-06 19:04:52 49.1308 13.2842 77 ° 26 km/h 1300 m -8.8 m/s 402.70 MHz Sušice (CZ) 0.00 km UNKNOWN
S3131729 RS41 2021-08-06 13:03:00 49.3499 12.6912 61 ° 43 km/h 965 m -13.7 m/s 402.700 MHz Domažlice (CZ) 0.00 km UNKNOWN
S3131022 RS41 2021-08-06 07:08:00 49.374 12.5433 102 ° 7 km/h 792 m -7.0 m/s 402.70 MHz Domažlice (CZ) 0.00 km UNKNOWN
S3210816 RS41 2021-08-06 01:53:30 49.3155 12.7247 44 ° 11 km/h 668 m -3.5 m/s 402.70 MHz Domažlice (CZ) 0.00 km UNKNOWN
S3210869 RS41 2021-08-05 19:13:15 49.3699 12.417 103 ° 11 km/h 1171 m -11.2 m/s 402.700 MHz Schwandorf (DE) 0.00 km NEED ATTENTION
S3131736 RS41 2021-08-05 13:18:00 49.6463 12.214 74 ° 4 km/h 630 m -12.1 m/s 402.70 MHz Weiden in der Oberpfalz (DE) 0.00 km UNKNOWN
S3131733 RS41 2021-08-05 07:40:00 49.7812 12.1068 145 ° 7 km/h 610 m -4.8 m/s 402.700 MHz Weiden in der Oberpfalz (DE) 0.00 km FOUND
S3210870 RS41 2021-08-05 01:22:21 49.8999 12.3383 196 ° 2 km/h 696 m -9.1 m/s 402.700 MHz Cheb (CZ) 0.00 km FOUND
S3210737 RS41 2021-08-04 19:12:00 49.8513 12.4359 84 ° 4 km/h 808 m -12.5 m/s 402.70 MHz Tachov (CZ) 0.00 km UNKNOWN
S3210861 RS41 2021-08-04 13:40:22 49.9008 13.1347 39 ° 9 km/h 753 m -5.5 m/s 402.70 MHz Stříbro (CZ) 0.00 km UNKNOWN
S3210862 RS41 2021-08-04 07:12:58 49.6798 12.9578 85 ° 17 km/h 582 m -11.1 m/s 402.700 MHz Stříbro (CZ) 0.00 km UNKNOWN
T1320689 RS41 2021-08-04 01:12:03 49.7028 12.8041 60 ° 33 km/h 744 m -12.0 m/s 402.700 MHz Stříbro (CZ) 0.00 km LOST
T1320723 RS41 2021-08-03 19:15:00 49.6523 13.1456 154 ° 2 km/h 531 m -5.4 m/s 402.700 MHz Holýšov (CZ) 0.00 km FOUND
S3210866 RS41 2021-08-03 13:01:21 49.7595 12.4166 18 ° 11 km/h 925 m -10.5 m/s 402.70 MHz Tachov (CZ) 0.00 km UNKNOWN
S3210728 RS41 2021-08-03 06:46:00 49.5965 12.3239 18 ° 11 km/h 782 m -13.1 m/s 402.700 MHz Weiden in der Oberpfalz (DE) 0.00 km UNKNOWN
T1320721 RS41 2021-08-03 01:21:24 49.6502 12.4333 67 ° 26 km/h 1109 m -11.5 m/s 402.700 MHz Weiden in der Oberpfalz (DE) 0.00 km UNKNOWN
S3210806 RS41 2021-08-02 19:31:30 49.6028 12.289 95 ° 7 km/h 647 m -6.9 m/s 402.700 MHz Weiden in der Oberpfalz (DE) 0.00 km UNKNOWN
S3210824 RS41 2021-08-02 07:19:30 49.6633 12.4275 96 ° 22 km/h 960 m -10.0 m/s 402.700 MHz Weiden in der Oberpfalz (DE) 0.00 km UNKNOWN
S3210726 RS41 2021-08-02 01:24:30 49.7728 12.3204 62 ° 19 km/h 680 m -6.6 m/s 402.70 MHz Weiden in der Oberpfalz (DE) 0.00 km FOUND
S3210864 RS41 2021-08-01 19:05:30 49.9452 12.3901 35 ° 15 km/h 777 m -10.0 m/s 402.70 MHz Cheb (CZ) 0.00 km FOUND
S3210722 RS41 2021-08-01 13:08:10 50.0376 12.4844 104 ° 11 km/h 599 m -7.7 m/s 402.70 MHz Cheb (CZ) 0.00 km UNKNOWN
S3210846 RS41 2021-08-01 08:18:30 50.3865 12.3986 12 ° 2 km/h 889 m -11.3 m/s 402.70 MHz Kraslice (CZ) 0.00 km FOUND
S3210828 RS41 2021-08-01 01:49:30 50.3626 12.9709 143 ° 13 km/h 954 m -6.9 m/s 402.70 MHz Ostrov (CZ) 0.00 km UNKNOWN
S3130392 RS41 2021-07-31 19:17:16 50.0788 13.2522 85 ° 28 km/h 815 m -12.0 m/s 402.70 MHz Podbořany (CZ) 0.00 km UNKNOWN
S3210823 RS41 2021-07-31 13:02:24 50.0467 12.99 72 ° 35 km/h 1041 m -13.4 m/s 404.900 MHz Horní Slavkov (CZ) 0.00 km FOUND
S3210827 RS41 2021-07-31 07:10:20 49.9825 12.9116 85 ° 20 km/h 789 m -10.6 m/s 402.700 MHz Mariánské Lázně (CZ) 0.00 km UNKNOWN
T1320724 RS41 2021-07-31 01:26:25 50.0202 13.0914 86 ° 35 km/h 894 m -3.5 m/s 402.70 MHz Horní Slavkov (CZ) 0.00 km UNKNOWN
T1320722 RS41 2021-07-30 19:22:50 49.763 13.0451 86 ° 15 km/h 572 m -7.0 m/s 402.70 MHz Stříbro (CZ) 0.00 km UNKNOWN
T1320690 RS41 2021-07-30 13:10:30 49.6544 12.9569 81 ° 22 km/h 606 m -11.9 m/s 402.700 MHz Stříbro (CZ) 0.00 km FOUND
T1320385 RS41 2021-07-30 07:12:13 49.5819 12.9328 356 ° 7 km/h 660 m -14.5 m/s 402.70 MHz Holýšov (CZ) 0.00 km FOUND
S3210812 RS41 2021-07-30 01:26:51 49.7609 13.13 100 ° 6 km/h 574 m -6.9 m/s 402.700 MHz Nýřany (CZ) 0.00 km UNKNOWN
S3210813 RS41 2021-07-29 19:28:18 49.7212 13.3199 115 ° 30 km/h 597 m -4.0 m/s 402.70 MHz Plzeň (CZ) 0.00 km FOUND
T1320678 RS41 2021-07-29 13:26:21 49.8085 13.2969 51 ° 35 km/h 713 m -6.0 m/s 402.70 MHz Třemošná (CZ) 0.00 km UNKNOWN
T1320673 RS41 2021-07-29 07:18:52 49.6714 12.8426 64 ° 15 km/h 581 m -10.2 m/s 402.700 MHz Stříbro (CZ) 0.00 km FOUND
S3210863 RS41 2021-07-29 01:29:53 49.7508 13.2246 68 ° 33 km/h 519 m -3.8 m/s 402.700 MHz Nýřany (CZ) 0.00 km FOUND
S3210805 RS41 2021-07-28 19:19:28 49.5822 12.6894 50 ° 37 km/h 860 m -7.5 m/s 402.70 MHz Domažlice (CZ) 0.00 km FOUND
T1320674 RS41 2021-07-28 13:16:00 50.1999 12.8729 72 ° 28 km/h 888 m -7.1 m/s 402.70 MHz Karlovy Vary (CZ) 0.00 km UNKNOWN
S3210860 RS41 2021-07-28 07:18:26 50.0142 12.6628 76 ° 17 km/h 960 m -13.5 m/s 402.70 MHz Mariánské Lázně (CZ) 0.00 km FOUND
T1320685 RS41 2021-07-28 01:27:30 50.2183 12.9809 51 ° 37 km/h 1017 m -5.5 m/s 402.700 MHz Karlovy Vary (CZ) 0.00 km UNKNOWN
T1320725 RS41 2021-07-27 19:16:50 49.8544 12.5083 56 ° 13 km/h 824 m -7.2 m/s 402.70 MHz Tachov (CZ) 0.00 km UNKNOWN
T1320675 RS41 2021-07-27 12:51:09 49.7902 12.5267 77 ° 15 km/h 827 m -11.4 m/s 402.700 MHz Tachov (CZ) 0.00 km FOUND
S3210814 RS41 2021-07-27 06:57:00 49.8638 12.2677 331 ° 15 km/h 634 m -12.1 m/s 402.700 MHz Weiden in der Oberpfalz (DE) 0.00 km FOUND
S3210825 RS41 2021-07-27 01:30:00 50.2629 12.7366 56 ° 24 km/h 703 m -4.5 m/s 402.70 MHz Chodov (CZ) 0.00 km UNKNOWN
S3210826 RS41 2021-07-26 19:13:05 49.8518 12.0224 313 ° 4 km/h 697 m -14.6 m/s 402.700 MHz Weiden in der Oberpfalz (DE) 0.00 km FOUND
S3210663 RS41 2021-07-26 13:09:00 50.0548 11.8407 39 ° 6 km/h 1118 m -16.2 m/s 402.70 MHz Bayreuth (DE) 0.00 km FOUND
S3210639 RS41 2021-07-26 07:14:00 49.939 11.9769 12 ° 7 km/h 643 m -7.4 m/s 402.70 MHz Bayreuth (DE) 0.00 km FOUND
T1320726 RS41 2021-07-26 01:09:00 49.7668 12.064 108 ° 22 km/h 616 m -13.3 m/s 402.700 MHz Weiden in der Oberpfalz (DE) 0.00 km UNKNOWN
T1320688 RS41 2021-07-25 19:19:00 49.9435 11.956 143 ° 15 km/h 705 m -9.7 m/s 402.700 MHz Bayreuth (DE) 0.00 km FOUND
T1320067 RS41 2021-07-25 13:06:06 49.9706 12.1198 6 ° 4 km/h 766 m -10.7 m/s 402.700 MHz Cheb (CZ) 0.00 km FOUND
T1320742 RS41 2021-07-25 07:28:30 49.8843 11.9798 352 ° 9 km/h 693 m -4.3 m/s 402.70 MHz Weiden in der Oberpfalz (DE) 0.00 km NEED ATTENTION
S3210648 RS41 2021-07-25 01:26:00 49.9104 11.8323 84 ° 19 km/h 691 m -11.1 m/s 402.70 MHz Bayreuth (DE) 0.00 km FOUND
S3210638 RS41 2021-07-24 19:22:38 49.7768 11.9335 323 ° 17 km/h 603 m -12.7 m/s 402.70 MHz Weiden in der Oberpfalz (DE) 0.00 km FOUND
S3210811 RS41 2021-07-24 13:11:39 49.719 12.1549 277 ° 11 km/h 532 m -11.8 m/s 402.70 MHz Weiden in der Oberpfalz (DE) 0.00 km FOUND
S3210637 RS41 2021-07-24 07:34:00 49.3871 12.1883 335 ° 2 km/h 554 m -6.0 m/s 402.70 MHz Schwandorf (DE) 0.00 km FOUND
S3210660 RS41 2021-07-24 01:24:45 49.2837 12.2822 304 ° 19 km/h 575 m -5.0 m/s 402.70 MHz Schwandorf (DE) 0.00 km FOUND
S3210647 RS41 2021-07-23 19:25:35 49.2229 12.2188 311 ° 9 km/h 771 m -4.7 m/s 402.70 MHz Schwandorf (DE) 0.00 km FOUND
S3210841 RS41 2021-07-23 13:06:35 49.3345 12.0258 292 ° 7 km/h 561 m -13.5 m/s 402.70 MHz Schwandorf (DE) 0.00 km FOUND
S3210844 RS41 2021-07-23 07:12:55 49.2322 11.7255 226 ° 6 km/h 1199 m -11.1 m/s 402.70 MHz Neumarkt in der Oberpfalz (DE) 0.00 km LOST
S3130671 RS41 2021-07-23 01:19:20 49.3749 11.6852 94 ° 11 km/h 1045 m -14.3 m/s 402.70 MHz Sulzbach-Rosenberg (DE) 0.00 km FOUND
S3210845 RS41 2021-07-22 18:57:00 49.4211 11.9402 127 ° 9 km/h 757 m -8.3 m/s 402.70 MHz Amberg (DE) 0.00 km FOUND
S3140189 RS41 2021-07-22 12:57:35 49.4983 11.925 351 ° 19 km/h 768 m -10.9 m/s 402.70 MHz Amberg (DE) 0.00 km FOUND
S3140199 RS41 2021-07-22 06:50:30 49.391 11.894 324 ° 19 km/h 753 m -10.5 m/s 404.900 MHz Amberg (DE) 0.00 km FOUND
S3210820 RS41 2021-07-22 01:17:25 49.3774 11.8894 292 ° 19 km/h 872 m -7.0 m/s 402.70 MHz Amberg (DE) 0.00 km FOUND
S3210818 RS41 2021-07-21 19:00:55 49.3503 12.0505 221 ° 15 km/h 527 m -9.2 m/s 402.701 MHz Schwandorf (DE) 0.00 km FOUND
S3210878 RS41 2021-07-21 13:11:09 49.3927 12.0268 194 ° 6 km/h 492 m -8.0 m/s 402.700 MHz Schwandorf (DE) 0.00 km FOUND
S3210819 RS41 2021-07-21 07:20:35 49.228 12.275 275 ° 13 km/h 754 m -8.3 m/s 404.90 MHz Schwandorf (DE) 0.00 km FOUND
S3210809 RS41 2021-07-21 01:43:20 49.0344 12.3009 323 ° 7 km/h 912 m -5.9 m/s 402.70 MHz Regensburg (DE) 0.00 km UNKNOWN
S3210810 RS41 2021-07-20 19:23:30 48.9694 12.2561 157 ° 17 km/h 1118 m -6.0 m/s 402.70 MHz Regensburg (DE) 0.00 km UNKNOWN
S3120722 RS41 2021-07-20 12:44:31 49.118 12.3473 162 ° 13 km/h 1175 m -10.0 m/s 402.70 MHz Regensburg (DE) 0.00 km FOUND
S3210829 RS41 2021-07-20 07:16:07 49.0126 12.2435 248 ° 4 km/h 1022 m -13.0 m/s 402.700 MHz Regensburg (DE) 0.00 km FOUND
S3131697 RS41 2021-07-20 01:34:00 49.423 12.8512 320 ° 4 km/h 550 m -9.4 m/s 402.70 MHz Domažlice (CZ) 0.00 km LOST
S3131687 RS41 2021-07-19 19:28:30 49.3567 12.7045 218 ° 17 km/h 771 m -6.9 m/s 402.70 MHz Domažlice (CZ) 0.00 km FOUND
S3131686 RS41 2021-07-19 13:02:30 49.3283 12.3052 146 ° 17 km/h 897 m -12.6 m/s 402.70 MHz Schwandorf (DE) 0.00 km FOUND
S3120723 RS41 2021-07-19 07:10:30 49.1754 12.2296 217 ° 13 km/h 794 m -8.4 m/s 402.70 MHz Schwandorf (DE) 0.00 km FOUND
S3210807 RS41 2021-07-19 01:08:00 49.1464 12.0268 215 ° 15 km/h 732 m -11.2 m/s 402.701 MHz Regensburg (DE) 0.00 km FOUND
S3210808 RS41 2021-07-18 19:09:00 49.1307 11.9232 190 ° 24 km/h 629 m -12.7 m/s 402.70 MHz Regensburg (DE) 0.00 km FOUND
S3210877 RS41 2021-07-18 13:17:00 49.1437 11.6667 194 ° 19 km/h 854 m -8.9 m/s 402.70 MHz Neumarkt in der Oberpfalz (DE) 0.00 km FOUND
S3210831 RS41 2021-07-18 06:58:44 49.0736 11.4494 220 ° 30 km/h 1001 m -9.2 m/s 402.70 MHz Neumarkt in der Oberpfalz (DE) 0.00 km FOUND
S3210817 RS41 2021-07-18 01:26:55 48.9071 11.2556 174 ° 24 km/h 592 m -9.5 m/s 402.70 MHz Ingolstadt (DE) 0.00 km FOUND
S3210670 RS41 2021-07-17 19:06:54 49.0381 11.2224 189 ° 43 km/h 940 m -11.1 m/s 402.70 MHz Roth bei Nürnberg (DE) 0.00 km FOUND
S3130708 RS41 2021-07-17 13:12:14 49.144 11.2767 171 ° 28 km/h 1111 m -5.2 m/s 402.70 MHz Roth bei Nürnberg (DE) 0.00 km FOUND
S3210833 RS41 2021-07-17 07:06:30 49.2561 11.1992 189 ° 26 km/h 991 m -10.7 m/s 402.701 MHz Roth bei Nürnberg (DE) 0.00 km FOUND
S3140191 RS41 2021-07-17 01:43:30 49.2645 10.7886 179 ° 24 km/h 598 m -5.7 m/s 402.700 MHz Ansbach (DE) 0.00 km FOUND
S3130672 RS41 2021-07-16 19:24:00 49.3097 10.9046 183 ° 20 km/h 561 m -10.9 m/s 402.70 MHz Schwabach (DE) 0.00 km FOUND
S3131699 RS41 2021-07-16 13:09:30 49.6462 10.9985 194 ° 9 km/h 413 m -10.0 m/s 402.70 MHz Erlangen (DE) 0.00 km FOUND
S3131685 RS41 2021-07-16 07:04:30 49.4709 11.0321 124 ° 4 km/h 383 m -10.5 m/s 402.700 MHz Fürth (DE) 0.00 km UNKNOWN
S3130704 RS41 2021-07-16 01:23:30 49.5052 11.0763 273 ° 4 km/h 489 m -6.9 m/s 402.700 MHz Nürnberg (DE) 0.00 km FOUND
S3120726 RS41 2021-07-15 19:19:00 49.483 11.089 10 ° 4 km/h 390 m -6.2 m/s 402.70 MHz Nürnberg (DE) 0.00 km LOST
S3131683 RS41 2021-07-15 13:19:30 49.6125 11.2553 13 ° 4 km/h 493 m -5.3 m/s 402.70 MHz Lauf an der Pegnitz (DE) 0.00 km FOUND
S3120724 RS41 2021-07-15 07:23:00 49.5202 11.233 320 ° 9 km/h 510 m -12.3 m/s 402.70 MHz Lauf an der Pegnitz (DE) 0.00 km FOUND
S3140724 RS41 2021-07-15 01:35:00 49.5505 11.1671 34 ° 7 km/h 484 m -4.9 m/s 402.701 MHz Lauf an der Pegnitz (DE) 0.00 km FOUND
S3131684 RS41 2021-07-14 19:18:00 49.6457 11.1363 208 ° 4 km/h 479 m -9.6 m/s 402.700 MHz Erlangen (DE) 0.00 km FOUND
S3120721 RS41 2021-07-14 13:12:55 49.8886 11.1576 65 ° 22 km/h 832 m -11.9 m/s 402.70 MHz Bamberg (DE) 0.00 km FOUND
S3130707 RS41 2021-07-14 07:12:17 49.8028 10.8322 101 ° 11 km/h 553 m -12.9 m/s 402.70 MHz Bamberg (DE) 0.00 km NEED ATTENTION
S3130670 RS41 2021-07-14 01:40:18 49.966 10.8677 82 ° 15 km/h 470 m -5.6 m/s 402.70 MHz Bamberg (DE) 0.00 km LOST
S3140621 RS41 2021-07-13 19:18:11 49.9546 11.2898 96 ° 15 km/h 922 m -12.9 m/s 402.70 MHz Kulmbach (DE) 0.00 km FOUND
S3130705 RS41 2021-07-13 13:20:58 50.2397 11.4264 239 ° 13 km/h 730 m -4.5 m/s 402.70 MHz Kulmbach (DE) 0.00 km FOUND
S3141081 RS41 2021-07-13 07:21:30 50.0238 11.543 284 ° 41 km/h 1036 m -10.3 m/s 402.70 MHz Bayreuth (DE) 0.00 km FOUND
S3210839 RS41 2021-07-13 01:40:34 49.9604 11.6502 292 ° 22 km/h 894 m -5.4 m/s 402.70 MHz Bayreuth (DE) 0.00 km FOUND
S3210837 RS41 2021-07-12 19:09:23 49.7078 12.0783 249 ° 17 km/h 555 m -9.7 m/s 402.70 MHz Weiden in der Oberpfalz (DE) 0.00 km FOUND
S3210694 RS41 2021-07-12 13:06:59 49.5409 12.2269 267 ° 13 km/h 651 m -6.8 m/s 402.70 MHz Weiden in der Oberpfalz (DE) 0.00 km FOUND
S3210691 RS41 2021-07-12 07:09:45 49.3922 11.9782 14 ° 11 km/h 669 m -12.7 m/s 402.70 MHz Amberg (DE) 0.00 km FOUND
S3210836 RS41 2021-07-12 01:26:00 49.2073 12.151 35 ° 15 km/h 780 m -7.7 m/s 402.70 MHz Schwandorf (DE) 0.00 km FOUND
S3130821 RS41 2021-07-11 19:14:30 49.4764 11.661 32 ° 6 km/h 821 m -7.5 m/s 402.70 MHz Sulzbach-Rosenberg (DE) 0.00 km FOUND
S3210822 RS41 2021-07-11 13:45:55 49.8473 11.338 5 ° 11 km/h 769 m -4.0 m/s 402.70 MHz Bayreuth (DE) 0.00 km FOUND
S3210821 RS41 2021-07-11 07:26:52 49.865 11.3962 93 ° 20 km/h 900 m -8.6 m/s 402.70 MHz Bayreuth (DE) 0.00 km FOUND
S3210731 RS41 2021-07-11 01:40:15 49.852 11.5332 328 ° 31 km/h 819 m -6.1 m/s 402.70 MHz Bayreuth (DE) 0.00 km FOUND
S3210727 RS41 2021-07-10 19:44:00 49.8808 11.917 291 ° 20 km/h 668 m -3.4 m/s 402.70 MHz Bayreuth (DE) 0.00 km FOUND
S3210880 RS41 2021-07-10 13:11:11 49.61 12.022 283 ° 11 km/h 543 m -14.7 m/s 402.70 MHz Weiden in der Oberpfalz (DE) 0.00 km FOUND
S3210693 RS41 2021-07-10 07:36:55 49.3802 12.2318 291 ° 11 km/h 694 m -5.3 m/s 402.700 MHz Schwandorf (DE) 0.00 km FOUND
S3210834 RS41 2021-07-10 01:43:00 49.4894 12.4428 87 ° 15 km/h 870 m -11.3 m/s 402.70 MHz Weiden in der Oberpfalz (DE) 0.00 km LOST
S3210882 RS41 2021-07-09 19:13:05 49.4716 12.0335 108 ° 28 km/h 768 m -11.9 m/s 402.70 MHz Amberg (DE) 0.00 km UNKNOWN
S3130820 RS41 2021-07-09 14:18:04 49.6857 11.9407 89 ° 30 km/h 594 m -6.7 m/s 402.70 MHz Weiden in der Oberpfalz (DE) 0.00 km UNKNOWN
S3210717 RS41 2021-07-09 07:24:56 50.0221 11.1354 131 ° 26 km/h 735 m -8.3 m/s 402.70 MHz Lichtenfels (DE) 0.00 km NEED ATTENTION
S3210881 RS41 2021-07-09 04:07:30 52.0708 11.0025 338 ° 26 km/h 20179 m -6.5 m/s 402.70 MHz Helmstedt (DE) 0.00 km UNKNOWN
S3210730 RS41 2021-07-09 03:13:47 50.1209 11.0515 192 ° 13 km/h 423 m -6.4 m/s 404.90 MHz Lichtenfels (DE) 0.00 km FOUND
S3210835 RS41 2021-07-08 19:03:29 50.1453 11.6843 337 ° 11 km/h 1337 m -15.3 m/s 402.700 MHz Kulmbach (DE) 0.00 km LOST
S3210729 RS41 2021-07-08 13:35:47 50.6278 11.8012 244 ° 19 km/h 640 m -11.0 m/s 402.70 MHz Plauen (DE) 0.00 km FOUND
S3210716 RS41 2021-07-08 07:38:30 50.4967 11.8545 258 ° 17 km/h 764 m -3.3 m/s 402.70 MHz Plauen (DE) 0.00 km FOUND
S3210879 RS41 2021-07-08 01:14:00 50.3764 12.0935 326 ° 20 km/h 708 m -6.5 m/s 402.70 MHz Plauen (DE) 0.00 km FOUND
S3210832 RS41 2021-07-07 19:24:30 50.3774 12.3857 319 ° 6 km/h 877 m -5.8 m/s 402.70 MHz Kraslice (CZ) 0.00 km FOUND
S3210830 RS41 2021-07-07 13:16:57 50.5194 12.5935 67 ° 11 km/h 724 m -11.9 m/s 402.70 MHz Kraslice (CZ) 0.00 km NEED ATTENTION
S3210840 RS41 2021-07-07 07:10:00 50.3619 12.7178 225 ° 4 km/h 973 m -11.7 m/s 402.70 MHz Nejdek (CZ) 0.00 km UNKNOWN
S3140202 RS41 2021-07-07 02:22:54 51.0701 14.0741 127 ° 26 km/h 843 m -3.8 m/s 402.70 MHz Pirna (DE) 0.00 km UNKNOWN
S3140187 RS41 2021-07-06 19:08:00 50.1106 12.5192 107 ° 20 km/h 669 m -13.0 m/s 402.70 MHz Cheb (CZ) 0.00 km UNKNOWN
S3140192 RS41 2021-07-06 14:24:19 50.5847 13.2917 3 ° 20 km/h 1016 m -4.3 m/s 402.70 MHz Jirkov (CZ) 0.00 km UNKNOWN
S3140188 RS41 2021-07-06 07:28:34 49.8477 12.4712 310 ° 13 km/h 817 m -5.2 m/s 402.70 MHz Tachov (CZ) 0.00 km NEED ATTENTION
S3110317 RS41 2021-07-06 01:27:34 49.538 12.6164 12 ° 17 km/h 852 m -9.0 m/s 402.70 MHz Domažlice (CZ) 0.00 km FOUND
S3110314 RS41 2021-07-05 18:55:30 49.276 12.8043 15 ° 13 km/h 577 m -10.2 m/s 402.70 MHz Domažlice (CZ) 0.00 km FOUND
S3110319 RS41 2021-07-05 13:14:57 49.4337 13.1623 62 ° 20 km/h 578 m -6.8 m/s 402.70 MHz Kdyně (CZ) 0.00 km FOUND
S3110315 RS41 2021-07-05 07:24:00 49.3084 12.8141 54 ° 9 km/h 513 m -6.4 m/s 402.700 MHz Domažlice (CZ) 0.00 km NEED ATTENTION
S3050042 RS41 2021-07-05 01:35:23 49.757 12.0994 55 ° 19 km/h 544 m -2.3 m/s 402.70 MHz Weiden in der Oberpfalz (DE) 0.00 km FOUND
S3110313 RS41 2021-07-04 19:02:23 49.6542 11.8934 97 ° 39 km/h 632 m -14.2 m/s 402.70 MHz Weiden in der Oberpfalz (DE) 0.00 km NEED ATTENTION
S3110331 RS41 2021-07-04 13:12:50 49.7305 11.943 44 ° 19 km/h 542 m -7.3 m/s 402.70 MHz Weiden in der Oberpfalz (DE) 0.00 km FOUND
S3140203 RS41 2021-07-04 07:12:26 49.6398 11.9394 14 ° 6 km/h 563 m -8.4 m/s 402.70 MHz Weiden in der Oberpfalz (DE) 0.00 km FOUND
S3050064 RS41 2021-07-04 00:58:57 49.5968 12.4663 19 ° 9 km/h 730 m -3.8 m/s 402.70 MHz Weiden in der Oberpfalz (DE) 0.00 km UNKNOWN
S3140201 RS41 2021-07-03 19:22:00 49.3772 12.1397 183 ° 6 km/h 438 m -8.9 m/s 402.70 MHz Schwandorf (DE) 0.00 km FOUND
S3140190 RS41 2021-07-03 13:07:10 49.3041 12.2273 93 ° 13 km/h 628 m -9.2 m/s 402.70 MHz Schwandorf (DE) 0.00 km FOUND
S3110322 RS41 2021-07-03 07:09:30 49.1971 12.0158 52 ° 13 km/h 735 m -13.5 m/s 402.700 MHz Schwandorf (DE) 0.00 km FOUND
S3110335 RS41 2021-07-03 01:24:35 49.1449 11.9705 40 ° 15 km/h 756 m -7.2 m/s 402.70 MHz Regensburg (DE) 0.00 km FOUND
S3050039 RS41 2021-07-02 19:26:00 49.2384 11.6892 105 ° 15 km/h 1161 m -6.6 m/s 402.70 MHz Neumarkt in der Oberpfalz (DE) 0.00 km FOUND
S3140222 RS41 2021-07-02 13:12:43 49.4462 11.6793 107 ° 19 km/h 785 m -10.1 m/s 404.90 MHz Sulzbach-Rosenberg (DE) 0.00 km FOUND
S3110333 RS41 2021-07-02 07:58:30 49.4766 11.5375 94 ° 22 km/h 760 m -10.2 m/s 402.700 MHz Sulzbach-Rosenberg (DE) 0.00 km FOUND
S3110316 RS41 2021-07-02 01:19:30 49.3213 11.7614 97 ° 28 km/h 951 m -13.2 m/s 402.70 MHz Amberg (DE) 0.00 km FOUND
S3050061 RS41 2021-07-01 19:46:30 49.0996 11.777 92 ° 24 km/h 652 m -11.7 m/s 402.70 MHz Regensburg (DE) 0.00 km FOUND
S3050065 RS41 2021-07-01 13:11:30 49.2856 11.6378 92 ° 43 km/h 1032 m -11.6 m/s 404.901 MHz Neumarkt in der Oberpfalz (DE) 0.00 km FOUND
D503219 DFM 2021-07-01 10:48:35 49.2671 12.068 59 ° 19 km/h 554 m -11.0 m/s 402.709 MHz Schwandorf (DE) 0.00 km FOUND
S3140204 RS41 2021-07-01 07:07:59 49.4492 11.6952 90 ° 41 km/h 742 m -11.7 m/s 402.70 MHz Sulzbach-Rosenberg (DE) 0.00 km FOUND
S3050063 RS41 2021-07-01 01:32:37 49.6581 11.9259 75 ° 28 km/h 738 m -10.8 m/s 402.700 MHz Weiden in der Oberpfalz (DE) 0.00 km UNKNOWN
S3050038 RS41 2021-06-30 19:24:14 49.8436 11.6233 54 ° 22 km/h 707 m -12.8 m/s 402.70 MHz Bayreuth (DE) 0.00 km FOUND
S3050041 RS41 2021-06-30 13:14:32 49.9738 11.7834 68 ° 31 km/h 921 m -8.9 m/s 402.70 MHz Bayreuth (DE) 0.00 km UNKNOWN
S3110320 RS41 2021-06-30 07:18:30 49.8607 11.6651 86 ° 24 km/h 663 m -10.2 m/s 402.70 MHz Bayreuth (DE) 0.00 km FOUND
S3050326 RS41 2021-06-30 01:32:55 49.9034 11.6162 87 ° 28 km/h 828 m -5.8 m/s 402.70 MHz Bayreuth (DE) 0.00 km FOUND
S3110332 RS41 2021-06-29 22:27:30 50.4322 12.2976 43 ° 20 km/h 778 m -9.6 m/s 402.700 MHz Plauen (DE) 0.00 km UNKNOWN
S3110334 RS41 2021-06-29 21:10:00 49.8682 11.5582 88 ° 35 km/h 784 m -15.7 m/s 404.90 MHz Bayreuth (DE) 0.00 km LOST
S3110318 RS41 2021-06-29 13:01:30 49.9149 12.081 334 ° 6 km/h 923 m -11.9 m/s 402.70 MHz Weiden in der Oberpfalz (DE) 0.00 km FOUND
S3130420 RS41 2021-06-29 07:07:39 49.928 11.7224 52 ° 19 km/h 881 m -6.6 m/s 402.70 MHz Bayreuth (DE) 0.00 km FOUND
S3050487 RS41 2021-06-29 01:32:30 49.8925 11.8692 187 ° 4 km/h 685 m -5.7 m/s 402.70 MHz Bayreuth (DE) 0.00 km FOUND
S3110321 RS41 2021-06-28 19:15:47 49.6948 11.9675 240 ° 26 km/h 549 m -12.7 m/s 402.700 MHz Weiden in der Oberpfalz (DE) 0.00 km FOUND
S3130630 RS41 2021-06-28 13:22:30 49.6807 12.2895 269 ° 4 km/h 593 m -10.7 m/s 402.70 MHz Weiden in der Oberpfalz (DE) 0.00 km FOUND
S3130628 RS41 2021-06-28 07:30:30 49.624 12.3374 280 ° 13 km/h 735 m -11.1 m/s 402.70 MHz Weiden in der Oberpfalz (DE) 0.00 km FOUND
S3130463 RS41 2021-06-28 02:20:30 49.5302 12.1508 269 ° 13 km/h 624 m -6.6 m/s 402.70 MHz Weiden in der Oberpfalz (DE) 0.00 km FOUND
S3130415 RS41 2021-06-27 19:12:12 49.4993 12.3713 279 ° 17 km/h 879 m -12.8 m/s 402.70 MHz Weiden in der Oberpfalz (DE) 0.00 km UNKNOWN
S3130635 RS41 2021-06-27 13:03:30 49.5242 12.0885 275 ° 15 km/h 612 m -13.3 m/s 402.70 MHz Weiden in der Oberpfalz (DE) 0.00 km FOUND
S3130417 RS41 2021-06-27 07:22:00 49.4449 11.9467 263 ° 4 km/h 787 m -7.8 m/s 402.70 MHz Amberg (DE) 0.00 km FOUND
S3130636 RS41 2021-06-27 01:38:40 49.3785 12.0669 261 ° 7 km/h 467 m -3.9 m/s 402.70 MHz Schwandorf (DE) 0.00 km FOUND
S3131606 RS41 2021-06-26 19:27:54 49.5426 11.8556 242 ° 19 km/h 864 m -5.6 m/s 402.70 MHz Sulzbach-Rosenberg (DE) 0.00 km FOUND
S3131616 RS41 2021-06-26 13:04:53 49.5885 11.7728 206 ° 9 km/h 928 m -10.3 m/s 402.70 MHz Sulzbach-Rosenberg (DE) 0.00 km FOUND
S3131617 RS41 2021-06-26 07:27:14 49.5185 11.7132 259 ° 13 km/h 908 m -4.6 m/s 402.70 MHz Sulzbach-Rosenberg (DE) 0.00 km FOUND
S3140354 RS41 2021-06-26 01:25:00 49.3723 11.7594 160 ° 13 km/h 1025 m -11.8 m/s 402.70 MHz Amberg (DE) 0.00 km FOUND
S3131156 RS41 2021-06-25 19:05:59 49.4245 11.6958 114 ° 19 km/h 658 m -10.4 m/s 402.70 MHz Sulzbach-Rosenberg (DE) 0.00 km FOUND
S3210849 RS41 2021-06-25 13:05:00 49.6408 11.7314 131 ° 19 km/h 899 m -11.2 m/s 402.70 MHz Sulzbach-Rosenberg (DE) 0.00 km UNKNOWN
S3210848 RS41 2021-06-25 07:27:55 49.6279 11.6985 73 ° 28 km/h 974 m -6.0 m/s 402.70 MHz Sulzbach-Rosenberg (DE) 0.00 km UNKNOWN
S3210671 RS41 2021-06-25 01:49:30 49.7299 11.6447 58 ° 13 km/h 686 m -6.6 m/s 402.70 MHz Bayreuth (DE) 0.00 km FOUND
S3130629 RS41 2021-06-24 19:20:30 49.9351 12.037 248 ° 6 km/h 682 m -7.4 m/s 402.70 MHz Cheb (CZ) 0.00 km FOUND
S3130419 RS41 2021-06-24 13:04:30 50.1328 12.0361 153 ° 13 km/h 664 m -14.9 m/s 402.70 MHz Aš (CZ) 0.00 km FOUND
S3140350 RS41 2021-06-24 07:20:00 50.0532 11.957 191 ° 6 km/h 707 m -10.6 m/s 402.70 MHz Aš (CZ) 0.00 km FOUND
S3140093 RS41 2021-06-24 01:34:23 50.0791 11.4706 258 ° 7 km/h 1160 m -5.5 m/s 402.700 MHz Kulmbach (DE) 0.00 km FOUND
S3210852 RS41 2021-06-23 19:20:00 50.1474 12.1098 193 ° 17 km/h 638 m -10.7 m/s 404.90 MHz Aš (CZ) 0.00 km FOUND
S3131679 RS41 2021-06-23 13:21:30 50.1377 12.1048 189 ° 15 km/h 629 m -8.1 m/s 402.700 MHz Aš (CZ) 0.00 km FOUND
S3131600 RS41 2021-06-23 07:20:00 50.1336 11.7486 243 ° 7 km/h 703 m -6.7 m/s 402.70 MHz Kulmbach (DE) 0.00 km FOUND
S3140349 RS41 2021-06-23 01:44:30 50.2267 12.012 238 ° 11 km/h 738 m -8.5 m/s 402.70 MHz Hof (DE) 0.00 km FOUND
S3140310 RS41 2021-06-22 19:08:00 49.9925 12.094 225 ° 22 km/h 779 m -6.2 m/s 402.70 MHz Cheb (CZ) 0.00 km FOUND
S3131135 RS41 2021-06-22 13:05:00 50.084 11.8885 213 ° 11 km/h 753 m -12.6 m/s 402.70 MHz Hof (DE) 0.00 km FOUND
S3131130 RS41 2021-06-22 07:12:00 49.9148 11.794 236 ° 7 km/h 753 m -12.5 m/s 402.70 MHz Bayreuth (DE) 0.00 km FOUND
S3131618 RS41 2021-06-22 03:41:30 50.3709 11.6721 187 ° 22 km/h 836 m -10.8 m/s 402.70 MHz Hof (DE) 0.00 km FOUND
S3131129 RS41 2021-06-22 02:36:59 50.0952 11.6746 247 ° 17 km/h 970 m -11.5 m/s 404.901 MHz Kulmbach (DE) 0.00 km FOUND
S3140352 RS41 2021-06-21 19:15:00 50.073 12.0864 152 ° 11 km/h 671 m -6.5 m/s 402.70 MHz Aš (CZ) 0.00 km FOUND
S3131136 RS41 2021-06-21 12:49:00 50.0248 12.2656 75 ° 19 km/h 672 m -10.1 m/s 402.70 MHz Cheb (CZ) 0.00 km FOUND
S3210847 RS41 2021-06-21 07:25:30 50.0172 11.6742 52 ° 11 km/h 920 m -6.0 m/s 402.70 MHz Bayreuth (DE) 0.00 km FOUND
S3210858 RS41 2021-06-21 02:05:33 50.0936 11.4262 55 ° 13 km/h 963 m -6.8 m/s 404.90 MHz Kulmbach (DE) 0.00 km FOUND
S3210854 RS41 2021-06-21 01:21:00 50.1153 11.6255 68 ° 22 km/h 1070 m -5.2 m/s 402.70 MHz Kulmbach (DE) 0.00 km FOUND
S3210851 RS41 2021-06-20 19:09:04 49.8951 11.6934 242 ° 22 km/h 664 m -12.4 m/s 402.70 MHz Bayreuth (DE) 0.00 km FOUND
S3131604 RS41 2021-06-20 13:16:58 49.9094 11.8492 297 ° 7 km/h 734 m -7.0 m/s 402.70 MHz Bayreuth (DE) 0.00 km FOUND
S3131605 RS41 2021-06-20 07:07:14 49.5511 12.0151 51 ° 9 km/h 557 m -10.3 m/s 402.70 MHz Amberg (DE) 0.00 km FOUND
S3210856 RS41 2021-06-20 01:30:42 49.5201 11.9503 332 ° 28 km/h 672 m -6.1 m/s 402.70 MHz Amberg (DE) 0.00 km FOUND
S3131615 RS41 2021-06-19 19:24:13 49.5424 11.9813 276 ° 20 km/h 632 m -11.9 m/s 402.70 MHz Amberg (DE) 0.00 km FOUND
S3131153 RS41 2021-06-19 13:03:32 49.6231 11.9721 82 ° 11 km/h 551 m -5.8 m/s 402.70 MHz Weiden in der Oberpfalz (DE) 0.00 km FOUND
S3131620 RS41 2021-06-19 07:23:42 49.5359 11.6516 131 ° 17 km/h 810 m -11.6 m/s 402.70 MHz Sulzbach-Rosenberg (DE) 0.00 km FOUND
S3131603 RS41 2021-06-19 01:35:48 49.5013 11.6913 63 ° 17 km/h 760 m -4.8 m/s 402.70 MHz Sulzbach-Rosenberg (DE) 0.00 km FOUND
S3140353 RS41 2021-06-18 19:02:30 49.6033 11.5756 8 ° 4 km/h 924 m -13.1 m/s 402.70 MHz Sulzbach-Rosenberg (DE) 0.00 km FOUND
S3131143 RS41 2021-06-18 13:13:00 49.7532 11.3103 101 ° 9 km/h 760 m -11.0 m/s 402.700 MHz Lauf an der Pegnitz (DE) 0.00 km FOUND
S3131141 RS41 2021-06-18 07:37:30 49.7067 11.0889 289 ° 6 km/h 425 m -4.0 m/s 402.70 MHz Erlangen (DE) 0.00 km FOUND
S3131619 RS41 2021-06-18 01:45:00 49.5288 11.0697 317 ° 11 km/h 385 m -4.0 m/s 402.70 MHz Erlangen (DE) 0.00 km FOUND
S3131218 RS41 2021-06-17 19:19:58 49.489 11.2966 294 ° 4 km/h 478 m -5.7 m/s 402.70 MHz Lauf an der Pegnitz (DE) 0.00 km FOUND
S3131157 RS41 2021-06-17 12:57:28 49.6567 11.3727 313 ° 11 km/h 798 m -12.5 m/s 402.70 MHz Lauf an der Pegnitz (DE) 0.00 km FOUND
S3131154 RS41 2021-06-17 01:14:00 49.6054 11.2562 313 ° 17 km/h 458 m -8.8 m/s 402.70 MHz Lauf an der Pegnitz (DE) 0.00 km FOUND
S3131146 RS41 2021-06-16 19:29:43 49.5203 11.221 249 ° 4 km/h 468 m -3.9 m/s 402.70 MHz Lauf an der Pegnitz (DE) 0.00 km FOUND
S3131142 RS41 2021-06-16 12:58:58 49.3931 11.3193 292 ° 20 km/h 691 m -11.5 m/s 402.70 MHz Lauf an der Pegnitz (DE) 0.00 km FOUND
S3131134 RS41 2021-06-16 07:31:30 49.0438 11.1635 346 ° 11 km/h 1471 m -5.8 m/s 402.70 MHz Roth bei Nürnberg (DE) 0.00 km UNKNOWN
S3131155 RS41 2021-06-16 01:44:29 48.7806 11.3443 243 ° 6 km/h 467 m -6.2 m/s 402.70 MHz Ingolstadt (DE) 0.00 km FOUND
S3131148 RS41 2021-06-15 19:20:00 48.7931 11.8782 21 ° 2 km/h 807 m -11.7 m/s 402.700 MHz Regensburg (DE) 0.00 km FOUND
S3131131 RS41 2021-06-15 13:23:00 49.0942 12.1315 88 ° 13 km/h 794 m -3.0 m/s 402.70 MHz Regensburg (DE) 0.00 km FOUND
S3131356 RS41 2021-06-15 07:19:00 49.1004 11.8725 334 ° 2 km/h 627 m -10.0 m/s 402.70 MHz Regensburg (DE) 0.00 km FOUND
S3131144 RS41 2021-06-15 01:41:30 49.009 11.6608 7 ° 7 km/h 664 m -11.3 m/s 402.70 MHz Ingolstadt (DE) 0.00 km LOST
S3131158 RS41 2021-06-14 19:11:00 48.9899 11.8724 341 ° 6 km/h 595 m -9.0 m/s 402.70 MHz Regensburg (DE) 0.00 km FOUND
S3130418 RS41 2021-06-14 13:10:30 48.9191 11.8919 280 ° 7 km/h 617 m -7.1 m/s 402.70 MHz Regensburg (DE) 0.00 km FOUND
S3120848 RS41 2021-06-14 07:22:05 48.7382 11.6336 306 ° 15 km/h 487 m -10.6 m/s 402.70 MHz Ingolstadt (DE) 0.00 km FOUND
S3140091 RS41 2021-06-14 01:24:35 48.649 11.8244 258 ° 22 km/h 604 m -5.8 m/s 402.70 MHz Landshut (DE) 0.00 km UNKNOWN
S3130276 RS41 2021-06-13 19:14:31 48.4983 11.8705 170 ° 26 km/h 711 m -6.6 m/s 402.700 MHz Freising (DE) 0.00 km UNKNOWN
S3141015 RS41 2021-06-13 13:03:01 48.523 11.931 126 ° 26 km/h 676 m -8.1 m/s 404.90 MHz Landshut (DE) 0.00 km FOUND
S3130436 RS41 2021-06-13 07:17:32 48.3607 12.184 133 ° 19 km/h 739 m -5.9 m/s 402.70 MHz Erding (DE) 0.00 km UNKNOWN
S3130939 RS41 2021-06-13 00:58:12 48.5494 12.4852 128 ° 30 km/h 672 m -12.8 m/s 402.701 MHz Landshut (DE) 0.00 km FOUND
S3120849 RS41 2021-06-12 19:22:22 48.6483 12.6337 134 ° 30 km/h 523 m -6.9 m/s 402.70 MHz Straubing (DE) 0.00 km FOUND
S3131055 RS41 2021-06-12 13:18:12 48.8169 12.3872 99 ° 28 km/h 633 m -8.3 m/s 402.70 MHz Straubing (DE) 0.00 km UNKNOWN
S3131052 RS41 2021-06-12 07:36:39 48.8071 11.8974 93 ° 22 km/h 712 m -7.1 m/s 402.70 MHz Regensburg (DE) 0.00 km FOUND
S3210857 RS41 2021-06-12 01:37:02 48.7822 11.6992 69 ° 11 km/h 490 m -6.9 m/s 402.70 MHz Ingolstadt (DE) 0.00 km FOUND
S3140032 RS41 2021-06-11 19:11:31 48.8327 11.3591 133 ° 13 km/h 480 m -6.1 m/s 402.70 MHz Ingolstadt (DE) 0.00 km FOUND
S3130271 RS41 2021-06-11 13:04:19 48.8771 11.1876 145 ° 11 km/h 646 m -10.7 m/s 402.70 MHz Neuburg an der Donau (DE) 0.00 km FOUND
S3130274 RS41 2021-06-11 07:07:16 48.8357 11.2276 216 ° 4 km/h 584 m -6.4 m/s 402.70 MHz Neuburg an der Donau (DE) 0.00 km FOUND
S3140092 RS41 2021-06-11 01:46:15 48.9539 11.4354 178 ° 4 km/h 708 m -10.9 m/s 402.70 MHz Ingolstadt (DE) 0.00 km FOUND
S3140035 RS41 2021-06-10 19:07:00 48.9586 11.7038 157 ° 15 km/h 649 m -7.4 m/s 402.70 MHz Ingolstadt (DE) 0.00 km FOUND
S3140034 RS41 2021-06-10 12:52:31 48.9239 11.7692 69 ° 7 km/h 700 m -9.3 m/s 402.70 MHz Regensburg (DE) 0.00 km UNKNOWN
S3140033 RS41 2021-06-10 07:33:02 48.7141 11.5328 353 ° 4 km/h 442 m -4.9 m/s 402.700 MHz Ingolstadt (DE) 0.00 km FOUND
S3130443 RS41 2021-06-10 01:22:30 48.8441 11.6513 91 ° 6 km/h 506 m -12.0 m/s 402.70 MHz Ingolstadt (DE) 0.00 km FOUND
S3140036 RS41 2021-06-09 19:09:00 49.0246 11.9073 118 ° 7 km/h 522 m -10.2 m/s 402.70 MHz Regensburg (DE) 0.00 km FOUND
S3141058 RS41 2021-06-09 13:25:55 49.2788 12.0252 196 ° 22 km/h 593 m -4.7 m/s 402.70 MHz Schwandorf (DE) 0.00 km FOUND
S3141085 RS41 2021-06-09 07:21:43 49.2088 11.7423 185 ° 20 km/h 911 m -8.4 m/s 402.70 MHz Neumarkt in der Oberpfalz (DE) 0.00 km FOUND
S3141084 RS41 2021-06-09 01:43:00 49.2244 11.7114 255 ° 28 km/h 723 m -4.3 m/s 402.70 MHz Neumarkt in der Oberpfalz (DE) 0.00 km FOUND
S3141062 RS41 2021-06-08 19:13:00 49.2751 11.7196 206 ° 22 km/h 808 m -12.7 m/s 402.70 MHz Neumarkt in der Oberpfalz (DE) 0.00 km LOST
S3141086 RS41 2021-06-08 13:04:00 49.384 11.7133 256 ° 13 km/h 1056 m -13.2 m/s 402.70 MHz Amberg (DE) 0.00 km FOUND
S3141030 RS41 2021-06-08 07:15:05 49.338 11.565 290 ° 24 km/h 896 m -8.8 m/s 402.70 MHz Neumarkt in der Oberpfalz (DE) 0.00 km NEED ATTENTION
S3141061 RS41 2021-06-08 01:33:30 49.3483 11.5389 276 ° 44 km/h 1066 m -17.0 m/s 402.70 MHz Neumarkt in der Oberpfalz (DE) 0.00 km FOUND
S3141059 RS41 2021-06-07 19:33:49 49.377 11.5141 230 ° 31 km/h 817 m -7.2 m/s 402.70 MHz Neumarkt in der Oberpfalz (DE) 0.00 km FOUND
S3141057 RS41 2021-06-07 07:14:30 49.4071 11.3819 275 ° 11 km/h 696 m -8.0 m/s 402.70 MHz Lauf an der Pegnitz (DE) 0.00 km NEED ATTENTION
S3141029 RS41 2021-06-07 01:16:00 49.4063 11.4852 253 ° 24 km/h 802 m -8.7 m/s 402.70 MHz Neumarkt in der Oberpfalz (DE) 0.00 km FOUND
S3140617 RS41 2021-06-06 19:24:17 49.3759 11.5813 263 ° 19 km/h 831 m -10.5 m/s 402.70 MHz Neumarkt in der Oberpfalz (DE) 0.00 km FOUND
S3140632 RS41 2021-06-06 13:18:57 49.4224 11.472 140 ° 19 km/h 782 m -12.3 m/s 402.700 MHz Neumarkt in der Oberpfalz (DE) 0.00 km FOUND
S3140629 RS41 2021-06-06 07:09:44 49.2986 11.4682 205 ° 7 km/h 924 m -6.5 m/s 402.70 MHz Neumarkt in der Oberpfalz (DE) 0.00 km FOUND
S3141016 RS41 2021-06-06 01:36:00 49.3448 11.5548 128 ° 15 km/h 916 m -6.3 m/s 402.70 MHz Neumarkt in der Oberpfalz (DE) 0.00 km FOUND
S3140940 RS41 2021-06-05 19:34:20 49.3912 11.8052 190 ° 13 km/h 1428 m -10.0 m/s 402.70 MHz Amberg (DE) 0.00 km FOUND
S3140941 RS41 2021-06-05 13:15:15 49.5102 11.8852 69 ° 22 km/h 645 m -14.5 m/s 404.90 MHz Amberg (DE) 0.00 km FOUND
S3140942 RS41 2021-06-05 07:02:00 49.4117 11.7844 87 ° 15 km/h 828 m -12.7 m/s 402.70 MHz Amberg (DE) 0.00 km FOUND
S3140616 RS41 2021-06-05 01:19:00 49.3804 11.8298 93 ° 11 km/h 748 m -11.6 m/s 402.70 MHz Amberg (DE) 0.00 km FOUND
S3140615 RS41 2021-06-04 19:16:35 49.3703 12.027 284 ° 11 km/h 552 m -7.0 m/s 402.70 MHz Schwandorf (DE) 0.00 km FOUND
S3141028 RS41 2021-06-04 13:28:53 49.4637 12.1671 309 ° 4 km/h 631 m -5.3 m/s 402.70 MHz Schwandorf (DE) 0.00 km FOUND
S3130703 RS41 2021-06-04 07:15:00 49.3898 12.0428 112 ° 2 km/h 472 m -7.5 m/s 402.70 MHz Schwandorf (DE) 0.00 km FOUND
S3120725 RS41 2021-06-04 01:16:45 49.3531 12.1847 328 ° 20 km/h 634 m -12.9 m/s 402.70 MHz Schwandorf (DE) 0.00 km FOUND
S3140939 RS41 2021-06-03 19:40:30 49.1203 12.2743 312 ° 7 km/h 927 m -4.7 m/s 402.70 MHz Regensburg (DE) 0.00 km FOUND
S3140891 RS41 2021-06-03 13:09:25 49.155 12.1824 319 ° 6 km/h 923 m -4.5 m/s 402.70 MHz Regensburg (DE) 0.00 km FOUND
S3140890 RS41 2021-06-03 07:16:30 48.9786 12.1092 305 ° 24 km/h 703 m -5.5 m/s 402.700 MHz Regensburg (DE) 0.00 km FOUND
S3140863 RS41 2021-06-03 01:20:00 49.0632 12.1142 320 ° 28 km/h 716 m -11.8 m/s 402.70 MHz Regensburg (DE) 0.00 km FOUND
S3140862 RS41 2021-06-02 19:14:30 49.0719 12.2161 246 ° 9 km/h 877 m -5.5 m/s 402.70 MHz Regensburg (DE) 0.00 km FOUND
S3140864 RS41 2021-06-02 13:08:25 49.2775 12.1217 271 ° 19 km/h 649 m -15.7 m/s 402.70 MHz Schwandorf (DE) 0.00 km FOUND
S3140894 RS41 2021-06-02 07:08:00 49.2561 11.9905 276 ° 7 km/h 595 m -9.0 m/s 402.70 MHz Schwandorf (DE) 0.00 km FOUND
S3140937 RS41 2021-06-02 01:39:30 49.1254 12.0108 291 ° 13 km/h 541 m -6.7 m/s 402.70 MHz Regensburg (DE) 0.00 km NEED ATTENTION
S3140230 RS41 2021-06-01 19:22:38 49.0507 11.9821 252 ° 24 km/h 544 m -6.4 m/s 402.70 MHz Regensburg (DE) 0.00 km FOUND
S3130724 RS41 2021-06-01 12:57:30 49.1525 11.8256 288 ° 17 km/h 738 m -8.6 m/s 404.900 MHz Regensburg (DE) 0.00 km FOUND
S3120860 RS41 2021-06-01 07:14:30 49.0321 11.6533 297 ° 7 km/h 720 m -9.8 m/s 402.70 MHz Neumarkt in der Oberpfalz (DE) 0.00 km FOUND
S3120846 RS41 2021-06-01 01:22:30 49.0008 11.6583 277 ° 26 km/h 658 m -8.9 m/s 402.70 MHz Ingolstadt (DE) 0.00 km FOUND
S3140938 RS41 2021-05-31 19:08:00 49.0996 11.6289 263 ° 13 km/h 783 m -12.0 m/s 402.70 MHz Neumarkt in der Oberpfalz (DE) 0.00 km FOUND
S3140893 RS41 2021-05-31 12:59:23 49.1478 11.6172 262 ° 13 km/h 1033 m -7.3 m/s 402.70 MHz Neumarkt in der Oberpfalz (DE) 0.00 km FOUND
S3140892 RS41 2021-05-31 06:57:30 49.0158 11.4691 304 ° 6 km/h 715 m -8.5 m/s 402.70 MHz Ingolstadt (DE) 0.00 km FOUND
S3140861 RS41 2021-05-31 01:33:34 48.8553 11.5055 220 ° 11 km/h 514 m -6.6 m/s 402.70 MHz Ingolstadt (DE) 0.00 km FOUND
S3140278 RS41 2021-05-30 19:19:06 48.7683 11.5107 274 ° 19 km/h 427 m -5.8 m/s 402.70 MHz Ingolstadt (DE) 0.00 km FOUND
S3141027 RS41 2021-05-30 13:18:50 48.7568 11.6109 203 ° 17 km/h 462 m -7.2 m/s 402.70 MHz Ingolstadt (DE) 0.00 km FOUND
S3141017 RS41 2021-05-30 07:21:19 48.6864 11.5329 176 ° 9 km/h 485 m -9.9 m/s 402.70 MHz Ingolstadt (DE) 0.00 km FOUND
S3140819 RS41 2021-05-30 02:51:22 48.5521 11.5031 222 ° 22 km/h 587 m -5.2 m/s 402.70 MHz Pfaffenhofen an der Ilm (DE) 0.00 km FOUND
S3140818 RS41 2021-05-29 19:10:53 48.8475 11.7844 173 ° 15 km/h 557 m -7.4 m/s 402.70 MHz Ingolstadt (DE) 0.00 km FOUND
S3131365 RS41 2021-05-29 13:05:30 49.0908 12.1239 132 ° 22 km/h 606 m -13.5 m/s 402.70 MHz Regensburg (DE) 0.00 km LOST
S3120842 RS41 2021-05-29 07:12:59 49.0294 12.9614 169 ° 6 km/h 1445 m -10.9 m/s 402.70 MHz Deggendorf (DE) 0.00 km FOUND
S3140013 RS41 2021-05-29 01:24:03 49.0504 13.2274 180 ° 22 km/h 1443 m -5.4 m/s 402.70 MHz Sušice (CZ) 0.00 km UNKNOWN
S3130468 RS41 2021-05-28 19:25:54 49.0195 13.1784 178 ° 15 km/h 1521 m -4.8 m/s 402.70 MHz Deggendorf (DE) 0.00 km UNKNOWN
S3140016 RS41 2021-05-28 13:17:24 49.0731 12.8902 96 ° 9 km/h 1369 m -6.6 m/s 402.70 MHz Deggendorf (DE) 0.00 km UNKNOWN
S3120867 RS41 2021-05-28 07:12:58 48.7963 12.8027 114 ° 22 km/h 1310 m -10.7 m/s 402.70 MHz Deggendorf (DE) 0.00 km FOUND
S3120859 RS41 2021-05-28 01:12:00 48.9253 12.5164 89 ° 20 km/h 601 m -13.5 m/s 402.700 MHz Straubing (DE) 0.00 km FOUND
S3130466 RS41 2021-05-27 19:07:30 49.1559 12.5701 102 ° 35 km/h 847 m -12.2 m/s 402.70 MHz Straubing (DE) 0.00 km NEED ATTENTION
S3140015 RS41 2021-05-27 13:09:30 49.4896 12.8123 62 ° 28 km/h 736 m -9.3 m/s 402.70 MHz Domažlice (CZ) 0.00 km FOUND
S3130726 RS41 2021-05-27 07:15:44 49.6193 13.0625 56 ° 20 km/h 555 m -4.4 m/s 402.70 MHz Holýšov (CZ) 0.00 km FOUND
S3130722 RS41 2021-05-27 01:32:05 49.7407 13.7574 63 ° 39 km/h 705 m -5.5 m/s 402.70 MHz Rokycany (CZ) 0.00 km UNKNOWN
S3120851 RS41 2021-05-26 19:22:30 49.651 13.4853 45 ° 37 km/h 636 m -9.6 m/s 402.70 MHz Starý Plzenec (CZ) 0.00 km UNKNOWN
S3130721 RS41 2021-05-26 13:26:19 49.7907 13.8557 45 ° 24 km/h 599 m -3.2 m/s 402.70 MHz Hořovice (CZ) 0.00 km FOUND
S3140229 RS41 2021-05-26 07:17:22 49.6353 13.4124 44 ° 28 km/h 531 m -8.7 m/s 402.70 MHz Starý Plzenec (CZ) 0.00 km FOUND
S3130725 RS41 2021-05-26 01:11:45 49.5769 13.2843 47 ° 31 km/h 537 m -7.1 m/s 402.70 MHz Přeštice (CZ) 0.00 km UNKNOWN
S3130465 RS41 2021-05-25 19:24:30 49.53 13.1663 54 ° 17 km/h 600 m -9.1 m/s 402.70 MHz Holýšov (CZ) 0.00 km FOUND
S3120866 RS41 2021-05-25 13:03:39 49.9654 12.9392 58 ° 30 km/h 788 m -6.9 m/s 402.70 MHz Mariánské Lázně (CZ) 0.00 km UNKNOWN
S3140018 RS41 2021-05-25 07:13:00 50.2885 13.0038 61 ° 54 km/h 913 m -7.9 m/s 402.700 MHz Ostrov (CZ) 0.00 km UNKNOWN
S3140043 RS41 2021-05-25 01:27:30 50.4356 12.9401 67 ° 24 km/h 1144 m -5.2 m/s 402.70 MHz Ostrov (CZ) 0.00 km UNKNOWN
S3140017 RS41 2021-05-24 19:58:18 50.6123 12.9359 35 ° 30 km/h 875 m -4.4 m/s 402.700 MHz Annaberg-Buchholz (DE) 0.00 km UNKNOWN
S3130097 RS41 2021-05-24 13:12:30 50.3782 13.0076 297 ° 17 km/h 1055 m -9.4 m/s 402.70 MHz Ostrov (CZ) 0.00 km FOUND
S3130091 RS41 2021-05-24 07:38:54 50.1673 13.3244 232 ° 4 km/h 678 m -7.5 m/s 402.70 MHz Podbořany (CZ) 0.00 km UNKNOWN
S3140231 RS41 2021-05-24 01:17:39 49.7544 13.1365 348 ° 11 km/h 593 m -11.0 m/s 402.70 MHz Nýřany (CZ) 0.00 km FOUND
S3130723 RS41 2021-05-23 19:25:25 49.3778 13.2652 42 ° 17 km/h 547 m -5.7 m/s 402.70 MHz Klatovy (CZ) 0.00 km FOUND
S2950455 RS41 2021-05-23 13:29:45 49.6349 13.2139 24 ° 24 km/h 591 m -9.2 m/s 402.700 MHz Dobřany (CZ) 0.00 km FOUND
S3130317 RS41 2021-05-23 07:14:55 49.8591 13.1886 87 ° 35 km/h 853 m -8.8 m/s 402.699 MHz Třemošná (CZ) 0.00 km UNKNOWN
S3120865 RS41 2021-05-23 01:25:49 49.7893 13.7887 55 ° 13 km/h 627 m -5.9 m/s 402.70 MHz Hořovice (CZ) 0.00 km FOUND
S3130709 RS41 2021-05-22 19:41:29 49.6463 14.1949 68 ° 31 km/h 733 m -12.2 m/s 402.70 MHz Příbram (CZ) 0.00 km UNKNOWN
S3140050 RS41 2021-05-22 13:09:50 49.7538 13.4312 68 ° 43 km/h 664 m -8.7 m/s 402.700 MHz Plzeň (CZ) 0.00 km UNKNOWN
S3140094 RS41 2021-05-22 07:24:11 49.9572 13.4883 56 ° 37 km/h 603 m -4.9 m/s 402.70 MHz Třemošná (CZ) 0.00 km UNKNOWN
S3140095 RS41 2021-05-22 01:29:20 49.905 13.5559 38 ° 43 km/h 745 m -4.0 m/s 402.70 MHz Třemošná (CZ) 0.00 km UNKNOWN
S3130710 RS41 2021-05-21 19:19:26 49.5713 13.5306 53 ° 43 km/h 653 m -8.2 m/s 402.70 MHz Přeštice (CZ) 0.00 km UNKNOWN
S3140056 RS41 2021-05-21 13:28:29 49.7063 13.444 51 ° 46 km/h 632 m -4.9 m/s 402.70 MHz Starý Plzenec (CZ) 0.00 km FOUND
S3130137 RS41 2021-05-21 07:27:51 49.2537 13.4457 15 ° 24 km/h 826 m -7.3 m/s 402.70 MHz Sušice (CZ) 0.00 km UNKNOWN
S3130720 RS41 2021-05-21 01:23:56 49.0633 13.1799 41 ° 30 km/h 1476 m -10.7 m/s 402.70 MHz Deggendorf (DE) 0.00 km UNKNOWN
S3120868 RS41 2021-05-20 19:18:51 48.8192 12.5059 99 ° 15 km/h 1595 m -7.4 m/s 402.70 MHz Straubing (DE) 0.00 km FOUND
S3120870 RS41 2021-05-20 13:18:00 48.9204 12.2137 71 ° 9 km/h 601 m -10.8 m/s 402.70 MHz Regensburg (DE) 0.00 km FOUND
S3130713 RS41 2021-05-20 07:05:30 49.1905 12.0103 122 ° 19 km/h 637 m -12.0 m/s 402.70 MHz Schwandorf (DE) 0.00 km FOUND
S3140044 RS41 2021-05-20 01:12:30 49.2295 11.9497 120 ° 15 km/h 559 m -12.5 m/s 402.70 MHz Schwandorf (DE) 0.00 km FOUND
S3120869 RS41 2021-05-19 18:58:30 49.2667 12.1001 146 ° 30 km/h 1335 m -8.9 m/s 402.70 MHz Schwandorf (DE) 0.00 km FOUND
S3130980 RS41 2021-05-19 13:13:23 49.4359 12.1509 103 ° 26 km/h 780 m -2.9 m/s 402.70 MHz Schwandorf (DE) 0.00 km FOUND
S3130138 RS41 2021-05-19 07:31:19 49.4897 12.3022 123 ° 19 km/h 729 m -5.8 m/s 402.70 MHz Weiden in der Oberpfalz (DE) 0.00 km FOUND
S3130095 RS41 2021-05-19 01:21:24 49.538 12.4033 117 ° 26 km/h 843 m -10.0 m/s 402.70 MHz Weiden in der Oberpfalz (DE) 0.00 km FOUND
S2840095 RS41 2021-05-18 19:25:49 49.5463 12.6228 121 ° 26 km/h 898 m -3.0 m/s 402.70 MHz Domažlice (CZ) 0.00 km FOUND
S3120922 RS41 2021-05-18 13:18:35 49.6825 12.5471 104 ° 56 km/h 929 m -8.0 m/s 402.70 MHz Tachov (CZ) 0.00 km UNKNOWN
S3050074 RS41 2021-05-18 07:33:07 49.512 12.6097 94 ° 24 km/h 948 m -3.9 m/s 402.70 MHz Domažlice (CZ) 0.00 km UNKNOWN
S3130978 RS41 2021-05-18 01:35:15 49.4356 12.7892 65 ° 41 km/h 877 m -11.5 m/s 402.70 MHz Domažlice (CZ) 0.00 km FOUND
S2940329 RS41 2021-05-17 19:11:10 49.4944 12.7008 61 ° 33 km/h 830 m -6.3 m/s 402.70 MHz Domažlice (CZ) 0.00 km FOUND
S3120957 RS41 2021-05-17 13:20:44 49.671 12.5826 89 ° 24 km/h 861 m -12.4 m/s 402.70 MHz Tachov (CZ) 0.00 km UNKNOWN
S3130988 RS41 2021-05-17 07:37:00 49.7369 12.4121 74 ° 17 km/h 903 m -11.1 m/s 402.70 MHz Tachov (CZ) 0.00 km UNKNOWN
S3130916 RS41 2021-05-17 01:26:38 49.7332 12.6481 77 ° 30 km/h 772 m -10.4 m/s 402.700 MHz Tachov (CZ) 0.00 km LOST
S3130901 RS41 2021-05-16 19:26:23 49.6274 13.0874 342 ° 6 km/h 522 m -4.9 m/s 402.70 MHz Holýšov (CZ) 0.00 km FOUND
S3130905 RS41 2021-05-16 13:23:26 49.6276 13.1228 27 ° 20 km/h 567 m -5.1 m/s 402.70 MHz Holýšov (CZ) 0.00 km FOUND
S3130904 RS41 2021-05-16 07:33:09 49.4721 12.9526 75 ° 24 km/h 678 m -12.2 m/s 402.70 MHz Domažlice (CZ) 0.00 km FOUND
S3130915 RS41 2021-05-16 01:27:05 49.5826 12.6676 73 ° 48 km/h 807 m -6.2 m/s 402.70 MHz Tachov (CZ) 0.00 km UNKNOWN
S3130903 RS41 2021-05-15 19:00:00 49.5716 12.734 27 ° 28 km/h 1230 m -6.2 m/s 404.90 MHz Domažlice (CZ) 0.00 km UNKNOWN
S3130913 RS41 2021-05-15 13:14:31 49.7459 12.4635 354 ° 28 km/h 867 m -7.1 m/s 402.70 MHz Tachov (CZ) 0.00 km UNKNOWN
S3130917 RS41 2021-05-15 07:04:00 49.788 12.2474 14 ° 17 km/h 706 m -8.5 m/s 402.70 MHz Weiden in der Oberpfalz (DE) 0.00 km FOUND
S3130981 RS41 2021-05-15 01:13:58 49.6546 11.9984 90 ° 30 km/h 662 m -11.7 m/s 402.699 MHz Weiden in der Oberpfalz (DE) 0.00 km FOUND
S3130914 RS41 2021-05-14 19:13:00 49.6335 11.865 114 ° 17 km/h 767 m -6.3 m/s 402.70 MHz Sulzbach-Rosenberg (DE) 0.00 km FOUND
S3120959 RS41 2021-05-14 13:32:30 49.849 11.7797 91 ° 20 km/h 569 m -4.1 m/s 402.70 MHz Bayreuth (DE) 0.00 km FOUND
S3120933 RS41 2021-05-14 07:16:00 49.7108 11.5534 91 ° 22 km/h 749 m -12.6 m/s 402.70 MHz Bayreuth (DE) 0.00 km FOUND
S3120273 RS41 2021-05-14 02:01:30 49.6051 11.3565 90 ° 17 km/h 595 m -3.8 m/s 404.899 MHz Lauf an der Pegnitz (DE) 0.00 km NEED ATTENTION
S3130902 RS41 2021-05-13 19:11:30 49.5184 11.4087 44 ° 9 km/h 569 m -14.0 m/s 402.70 MHz Lauf an der Pegnitz (DE) 0.00 km FOUND
S3120971 RS41 2021-05-13 13:19:30 49.6419 11.2534 133 ° 9 km/h 510 m -5.8 m/s 404.90 MHz Lauf an der Pegnitz (DE) 0.00 km FOUND
S3110694 RS41 2021-05-13 07:19:30 49.6274 11.1038 132 ° 9 km/h 438 m -14.7 m/s 402.70 MHz Erlangen (DE) 0.00 km FOUND
S3110693 RS41 2021-05-13 00:48:22 49.911 11.3167 165 ° 26 km/h 913 m -3.6 m/s 402.700 MHz Bayreuth (DE) 0.00 km FOUND
S3120914 RS41 2021-05-12 19:34:37 49.7416 11.1279 174 ° 33 km/h 722 m -9.5 m/s 402.70 MHz Erlangen (DE) 0.00 km NEED ATTENTION
S3140205 RS41 2021-05-12 13:39:11 49.9824 11.0978 137 ° 20 km/h 667 m -3.7 m/s 402.70 MHz Bamberg (DE) 0.00 km FOUND
S3120754 RS41 2021-05-12 07:20:07 49.9018 11.3128 136 ° 33 km/h 894 m -12.8 m/s 402.70 MHz Bayreuth (DE) 0.00 km FOUND
S3120577 RS41 2021-05-12 01:45:13 50.2106 11.4099 105 ° 20 km/h 640 m -6.3 m/s 402.70 MHz Kulmbach (DE) 0.00 km FOUND
S3120824 RS41 2021-05-11 19:05:56 50.0602 11.6288 151 ° 26 km/h 1104 m -14.0 m/s 402.70 MHz Bayreuth (DE) 0.00 km FOUND
S2930582 RS41 2021-05-11 13:19:30 50.2408 11.699 103 ° 19 km/h 819 m -10.1 m/s 402.70 MHz Hof (DE) 0.00 km LOST
S3120752 RS41 2021-05-11 07:35:30 50.2323 11.9718 218 ° 13 km/h 643 m -6.7 m/s 404.90 MHz Hof (DE) 0.00 km FOUND
S3050577 RS41 2021-05-11 07:25:00 50.2016 11.9197 222 ° 13 km/h 725 m -8.3 m/s 402.70 MHz Hof (DE) 0.00 km FOUND
S3120828 RS41 2021-05-11 01:30:00 50.1937 11.9123 213 ° 11 km/h 747 m -7.0 m/s 402.70 MHz Hof (DE) 0.00 km FOUND
S3120826 RS41 2021-05-10 18:59:00 49.9821 12.1318 207 ° 6 km/h 632 m -9.2 m/s 402.70 MHz Cheb (CZ) 0.00 km LOST
S3130096 RS41 2021-05-10 13:11:49 49.9768 12.4396 76 ° 6 km/h 580 m -1.7 m/s 402.70 MHz Cheb (CZ) 0.00 km FOUND
S3130092 RS41 2021-05-10 07:04:30 49.9221 12.2287 17 ° 11 km/h 604 m -13.0 m/s 402.70 MHz Cheb (CZ) 0.00 km FOUND
S3120945 RS41 2021-05-10 01:26:53 49.9635 12.2297 286 ° 20 km/h 679 m -3.8 m/s 402.70 MHz Cheb (CZ) 0.00 km FOUND
S3120935 RS41 2021-05-09 19:25:30 49.7588 12.3508 295 ° 37 km/h 793 m -7.1 m/s 402.70 MHz Weiden in der Oberpfalz (DE) 0.00 km FOUND
S3120751 RS41 2021-05-09 13:12:31 49.7718 12.7498 328 ° 22 km/h 1117 m -10.5 m/s 402.70 MHz Tachov (CZ) 0.00 km UNKNOWN
S3120834 RS41 2021-05-09 07:33:00 49.4268 13.0081 5 ° 2 km/h 542 m -13.0 m/s 402.70 MHz Kdyně (CZ) 0.00 km FOUND
S3120829 RS41 2021-05-09 01:15:01 49.1936 13.1493 15 ° 19 km/h 1086 m -5.1 m/s 402.700 MHz Kdyně (CZ) 0.00 km UNKNOWN
S3120786 RS41 2021-05-08 19:21:17 48.9823 13.4109 76 ° 35 km/h 1494 m -6.2 m/s 402.70 MHz Vimperk (CZ) 0.00 km UNKNOWN
S3140180 RS41 2021-05-08 12:59:04 48.8265 13.4371 349 ° 11 km/h 979 m -11.3 m/s 402.70 MHz Passau (DE) 0.00 km UNKNOWN
S3131484 RS41 2021-05-08 06:55:11 48.657 13.3973 76 ° 15 km/h 1141 m -13.0 m/s 402.70 MHz Passau (DE) 0.00 km UNKNOWN
S3120832 RS41 2021-05-08 01:38:01 48.9584 14.0302 118 ° 19 km/h 1251 m -5.4 m/s 402.70 MHz Prachatice (CZ) 0.00 km UNKNOWN
S3120825 RS41 2021-05-07 19:22:09 49.095 14.0466 119 ° 56 km/h 1057 m -5.7 m/s 402.70 MHz Prachatice (CZ) 0.00 km FOUND
S3140208 RS41 2021-05-07 13:12:51 49.755 14.2112 158 ° 37 km/h 482 m -7.5 m/s 402.70 MHz Dobříš (CZ) 0.00 km UNKNOWN
S3120831 RS41 2021-05-07 07:29:46 49.7224 14.3045 107 ° 31 km/h 509 m -10.9 m/s 402.700 MHz Sedlčany (CZ) 0.00 km UNKNOWN
S3120835 RS41 2021-05-07 01:39:04 49.7387 14.6356 39 ° 28 km/h 477 m -7.7 m/s 402.70 MHz Benešov (CZ) 0.00 km UNKNOWN
S3120823 RS41 2021-05-06 19:37:06 49.8008 14.4179 49 ° 2 km/h 375 m -7.0 m/s 402.70 MHz Týnec nad Sázavou (CZ) 0.00 km UNKNOWN
S3120830 RS41 2021-05-06 13:32:26 49.6785 14.56 58 ° 26 km/h 587 m -5.6 m/s 402.70 MHz Sedlčany (CZ) 0.00 km UNKNOWN
S3120756 RS41 2021-05-06 07:33:52 49.6385 14.301 53 ° 26 km/h 463 m -6.7 m/s 402.70 MHz Sedlčany (CZ) 0.00 km UNKNOWN
S3131483 RS41 2021-05-06 01:22:45 49.5916 14.4161 57 ° 41 km/h 568 m -8.1 m/s 402.70 MHz Sedlčany (CZ) 0.00 km UNKNOWN
S3140209 RS41 2021-05-05 19:17:07 49.5216 14.0003 87 ° 65 km/h 826 m -7.5 m/s 402.70 MHz Blatná (CZ) 0.00 km UNKNOWN
S3120833 RS41 2021-05-05 13:00:38 50.1403 13.9304 73 ° 46 km/h 525 m -13.0 m/s 404.90 MHz Stochov (CZ) 0.00 km FOUND
S3131486 RS41 2021-05-05 07:18:39 50.0705 13.8926 49 ° 22 km/h 533 m -3.1 m/s 402.70 MHz Nové Strašecí (CZ) 0.00 km UNKNOWN
S3140210 RS41 2021-05-05 00:56:11 49.8835 13.9407 65 ° 30 km/h 474 m -10.5 m/s 402.70 MHz Hořovice (CZ) 0.00 km FOUND
S3140175 RS41 2021-05-04 19:00:23 49.7264 13.9975 55 ° 41 km/h 744 m -6.6 m/s 402.70 MHz Příbram (CZ) 0.00 km UNKNOWN
S3140177 RS41 2021-05-04 13:08:29 49.7684 13.762 57 ° 61 km/h 710 m -11.4 m/s 402.70 MHz Rokycany (CZ) 0.00 km UNKNOWN
S3131487 RS41 2021-05-04 07:00:49 49.5667 13.6778 35 ° 20 km/h 804 m -7.1 m/s 402.70 MHz Rokycany (CZ) 0.00 km UNKNOWN
S3140176 RS41 2021-05-04 01:18:03 49.4066 13.6265 25 ° 39 km/h 834 m -4.7 m/s 402.70 MHz Horažďovice (CZ) 0.00 km UNKNOWN
S3140115 RS41 2021-05-03 19:31:35 49.271 13.7608 64 ° 15 km/h 1056 m -7.6 m/s 402.70 MHz Horažďovice (CZ) 0.00 km UNKNOWN
S3140178 RS41 2021-05-03 13:17:37 49.4801 13.6571 88 ° 41 km/h 821 m -6.2 m/s 402.700 MHz Blatná (CZ) 0.00 km UNKNOWN
S3140125 RS41 2021-05-03 07:12:18 49.5619 13.4365 97 ° 22 km/h 728 m -14.0 m/s 402.700 MHz Přeštice (CZ) 0.00 km UNKNOWN
S3120753 RS41 2021-05-03 01:39:30 49.6913 13.6778 118 ° 28 km/h 890 m -5.5 m/s 402.70 MHz Rokycany (CZ) 0.00 km UNKNOWN
S3131485 RS41 2021-05-02 19:17:59 49.8931 13.6707 119 ° 28 km/h 693 m -5.3 m/s 402.70 MHz Rokycany (CZ) 0.00 km UNKNOWN
S3131680 RS41 2021-05-02 13:07:21 49.9629 13.2865 121 ° 41 km/h 809 m -8.0 m/s 402.70 MHz Třemošná (CZ) 0.00 km UNKNOWN
S3131176 RS41 2021-05-02 07:28:00 49.846 13.1397 125 ° 31 km/h 668 m -7.0 m/s 402.70 MHz Stříbro (CZ) 0.00 km UNKNOWN
S3131531 RS41 2021-05-02 01:32:04 50.2218 13.5442 185 ° 52 km/h 670 m -13.7 m/s 402.70 MHz Podbořany (CZ) 0.00 km UNKNOWN
S3140179 RS41 2021-05-01 19:33:17 50.0674 13.7044 225 ° 22 km/h 543 m -5.0 m/s 402.70 MHz Rakovník (CZ) 0.00 km UNKNOWN
S3131677 RS41 2021-05-01 13:05:48 50.1118 13.9146 218 ° 11 km/h 552 m -5.2 m/s 402.70 MHz Nové Strašecí (CZ) 0.00 km UNKNOWN
S3131463 RS41 2021-05-01 07:11:15 49.951 13.8323 183 ° 2 km/h 604 m -9.5 m/s 402.70 MHz Hořovice (CZ) 0.00 km UNKNOWN
S3140207 RS41 2021-05-01 01:25:57 49.9007 13.6841 273 ° 9 km/h 678 m -7.0 m/s 402.70 MHz Hořovice (CZ) 0.00 km UNKNOWN
S3050601 RS41 2021-04-30 19:25:24 49.8257 14.0118 199 ° 22 km/h 460 m -7.2 m/s 402.70 MHz Hořovice (CZ) 0.00 km UNKNOWN
S3131178 RS41 2021-04-30 13:20:37 49.9406 14.1228 49 ° 11 km/h 457 m -8.2 m/s 402.70 MHz Beroun (CZ) 0.00 km UNKNOWN
S3131110 RS41 2021-04-30 07:14:26 49.8076 14.001 61 ° 4 km/h 580 m -7.3 m/s 402.70 MHz Hořovice (CZ) 0.00 km FOUND
S3131668 RS41 2021-04-30 01:29:17 49.9672 14.2935 127 ° 22 km/h 403 m -12.7 m/s 402.70 MHz Černošice (CZ) 0.00 km FOUND
S3131166 RS41 2021-04-29 19:17:48 49.9921 14.0779 59 ° 20 km/h 545 m -12.4 m/s 402.70 MHz Beroun (CZ) 0.00 km UNKNOWN
S3131180 RS41 2021-04-29 13:16:23 50.1133 13.9352 57 ° 33 km/h 558 m -12.0 m/s 402.70 MHz Stochov (CZ) 0.00 km UNKNOWN
S3131462 RS41 2021-04-29 07:26:20 49.9652 13.853 48 ° 9 km/h 529 m -9.3 m/s 402.70 MHz Králŭv Dvŭr (CZ) 0.00 km UNKNOWN
S3131667 RS41 2021-04-29 01:31:45 50.0185 13.7642 306 ° 13 km/h 574 m -11.2 m/s 402.70 MHz Rakovník (CZ) 0.00 km UNKNOWN
S3131105 RS41 2021-04-28 19:15:15 49.8034 13.6928 317 ° 26 km/h 686 m -7.7 m/s 402.70 MHz Rokycany (CZ) 0.00 km FOUND
S3131660 RS41 2021-04-28 13:01:22 49.761 13.4998 299 ° 9 km/h 759 m -12.8 m/s 402.70 MHz Rokycany (CZ) 0.00 km FOUND
S3131597 RS41 2021-04-28 07:15:01 49.6767 13.586 268 ° 6 km/h 841 m -6.9 m/s 402.70 MHz Rokycany (CZ) 0.00 km FOUND
S3131460 RS41 2021-04-28 01:22:41 49.5255 13.8038 321 ° 24 km/h 949 m -14.4 m/s 402.70 MHz Blatná (CZ) 0.00 km UNKNOWN
S3131177 RS41 2021-04-27 19:34:04 49.2815 14.0672 305 ° 41 km/h 829 m -8.6 m/s 402.70 MHz Písek (CZ) 0.00 km UNKNOWN
S3131165 RS41 2021-04-27 13:04:25 49.4489 13.7051 293 ° 24 km/h 845 m -12.7 m/s 404.900 MHz Blatná (CZ) 0.00 km UNKNOWN
S3131181 RS41 2021-04-27 07:06:39 49.3106 13.7452 301 ° 37 km/h 1074 m -10.1 m/s 402.70 MHz Horažďovice (CZ) 0.00 km UNKNOWN
S3131170 RS41 2021-04-27 02:22:51 49.1809 14.2594 315 ° 26 km/h 942 m -8.8 m/s 404.90 MHz Vodňany (CZ) 0.00 km UNKNOWN
S3131676 RS41 2021-04-26 23:32:00 49.2293 12.6505 292 ° 28 km/h 1123 m -14.0 m/s 402.70 MHz Domažlice (CZ) 0.00 km LOST
S3131100 RS41 2021-04-26 19:07:55 49.0499 13.8332 252 ° 20 km/h 1246 m -9.3 m/s 402.70 MHz Vimperk (CZ) 0.00 km LOST
S3131107 RS41 2021-04-26 13:05:27 49.2443 13.8411 180 ° 6 km/h 1119 m -9.1 m/s 402.70 MHz Strakonice (CZ) 0.00 km FOUND
S3131085 RS41 2021-04-26 07:05:59 49.1799 13.9649 272 ° 15 km/h 1106 m -9.2 m/s 402.70 MHz Strakonice (CZ) 0.00 km FOUND
S3131076 RS41 2021-04-26 01:29:57 49.0028 14.3969 224 ° 13 km/h 1067 m -8.9 m/s 402.70 MHz Hluboká nad Vltavou (CZ) 0.00 km FOUND
S3131678 RS41 2021-04-25 19:07:21 48.8821 13.8692 221 ° 15 km/h 1158 m -6.9 m/s 402.70 MHz Prachatice (CZ) 0.00 km FOUND
S3131109 RS41 2021-04-25 12:58:06 48.8968 13.701 217 ° 9 km/h 1540 m -5.3 m/s 402.70 MHz Vimperk (CZ) 0.00 km UNKNOWN
S2930633 RS41 2021-04-25 07:16:39 48.9171 13.8798 214 ° 11 km/h 1367 m -3.9 m/s 402.70 MHz Prachatice (CZ) 0.00 km UNKNOWN
S3131598 RS41 2021-04-25 01:33:51 49.0498 14.3425 223 ° 19 km/h 893 m -4.5 m/s 402.70 MHz Hluboká nad Vltavou (CZ) 0.00 km FOUND
S3131602 RS41 2021-04-24 19:16:07 48.9641 13.7833 163 ° 13 km/h 1378 m -10.3 m/s 402.70 MHz Vimperk (CZ) 0.00 km UNKNOWN
S3131675 RS41 2021-04-24 13:15:14 49.0448 13.5607 184 ° 13 km/h 1337 m -6.6 m/s 402.70 MHz Vimperk (CZ) 0.00 km UNKNOWN
S3131239 RS41 2021-04-24 07:01:15 48.9602 13.2668 104 ° 19 km/h 1597 m -6.3 m/s 402.70 MHz Deggendorf (DE) 0.00 km UNKNOWN
S3131662 RS41 2021-04-24 01:08:06 49.0886 13.3784 101 ° 19 km/h 1349 m -13.2 m/s 402.70 MHz Sušice (CZ) 0.00 km UNKNOWN
S3131599 RS41 2021-04-23 19:32:07 48.7799 13.3123 139 ° 19 km/h 1261 m -5.8 m/s 402.70 MHz Passau (DE) 0.00 km UNKNOWN
S3131106 RS41 2021-04-23 13:05:50 48.8439 12.9961 107 ° 17 km/h 1389 m -7.4 m/s 402.70 MHz Deggendorf (DE) 0.00 km FOUND
S3131075 RS41 2021-04-23 06:58:59 48.894 12.9202 132 ° 19 km/h 1303 m -10.6 m/s 402.70 MHz Deggendorf (DE) 0.00 km FOUND
S3131086 RS41 2021-04-23 01:29:52 48.7313 13.2536 138 ° 19 km/h 1381 m -6.7 m/s 402.70 MHz Passau (DE) 0.00 km UNKNOWN
S3120733 RS41 2021-04-22 19:24:56 48.6793 13.3273 159 ° 28 km/h 577 m -9.4 m/s 402.70 MHz Passau (DE) 0.00 km UNKNOWN
S3131242 RS41 2021-04-22 13:23:05 49.0411 13.3999 129 ° 24 km/h 1457 m -7.4 m/s 402.70 MHz Sušice (CZ) 0.00 km UNKNOWN
S3131182 RS41 2021-04-22 07:09:16 49.1177 13.2903 131 ° 17 km/h 1387 m -12.3 m/s 402.70 MHz Sušice (CZ) 0.00 km UNKNOWN
S3131461 RS41 2021-04-22 01:20:09 49.2769 13.3403 121 ° 11 km/h 789 m -11.9 m/s 402.70 MHz Klatovy (CZ) 0.00 km UNKNOWN
S3131169 RS41 2021-04-21 19:28:30 49.2064 13.1963 88 ° 6 km/h 1021 m -6.0 m/s 402.70 MHz Klatovy (CZ) 0.00 km FOUND
S2930636 RS41 2021-04-21 12:57:16 49.3218 12.6794 110 ° 43 km/h 1260 m -5.9 m/s 402.70 MHz Domažlice (CZ) 0.00 km FOUND
S2930635 RS41 2021-04-21 07:16:30 49.2223 12.7242 29 ° 9 km/h 626 m -10.0 m/s 402.70 MHz Domažlice (CZ) 0.00 km FOUND
S3131719 RS41 2021-04-21 01:43:00 49.2515 13.0215 237 ° 2 km/h 651 m -8.1 m/s 402.70 MHz Kdyně (CZ) 0.00 km FOUND
S3131168 RS41 2021-04-20 19:35:00 49.1796 12.6716 16 ° 4 km/h 620 m -5.1 m/s 402.70 MHz Straubing (DE) 0.00 km FOUND
S3120740 RS41 2021-04-20 13:20:30 49.2556 12.2578 109 ° 11 km/h 892 m -5.7 m/s 402.70 MHz Schwandorf (DE) 0.00 km FOUND
S3131084 RS41 2021-04-20 07:18:30 49.155 12.1604 185 ° 9 km/h 710 m -5.7 m/s 402.70 MHz Regensburg (DE) 0.00 km FOUND
S3120739 RS41 2021-04-20 01:40:30 49.1714 12.2193 155 ° 9 km/h 802 m -6.0 m/s 402.70 MHz Schwandorf (DE) 0.00 km FOUND
S3120736 RS41 2021-04-19 19:05:36 49.2129 12.0989 250 ° 17 km/h 961 m -13.1 m/s 402.70 MHz Schwandorf (DE) 0.00 km FOUND
S3120738 RS41 2021-04-19 13:02:49 49.3297 11.9469 171 ° 6 km/h 761 m -7.6 m/s 402.70 MHz Schwandorf (DE) 0.00 km FOUND
S3120742 RS41 2021-04-19 07:28:27 49.2363 12.0387 180 ° 15 km/h 638 m -11.2 m/s 402.70 MHz Schwandorf (DE) 0.00 km FOUND
S3210786 RS41 2021-04-19 01:21:30 49.3116 12.4508 161 ° 4 km/h 656 m -8.3 m/s 402.70 MHz Schwandorf (DE) 0.00 km FOUND
S3120735 RS41 2021-04-18 19:27:30 49.3285 12.3759 133 ° 7 km/h 929 m -6.5 m/s 402.70 MHz Schwandorf (DE) 0.00 km FOUND
S3210781 RS41 2021-04-18 13:11:01 49.4217 12.2033 7 ° 2 km/h 750 m -7.1 m/s 402.70 MHz Schwandorf (DE) 0.00 km FOUND
S3210715 RS41 2021-04-18 07:09:22 49.3485 12.0723 233 ° 15 km/h 843 m -11.1 m/s 402.70 MHz Schwandorf (DE) 0.00 km FOUND
S3130279 RS41 2021-04-18 01:22:00 49.3778 12.4249 264 ° 17 km/h 928 m -14.9 m/s 402.70 MHz Schwandorf (DE) 0.00 km UNKNOWN
S3210787 RS41 2021-04-17 19:10:39 49.3555 12.3737 245 ° 11 km/h 885 m -7.4 m/s 402.70 MHz Schwandorf (DE) 0.00 km FOUND
S3210790 RS41 2021-04-17 13:00:38 49.3939 12.2821 177 ° 11 km/h 729 m -10.2 m/s 402.70 MHz Schwandorf (DE) 0.00 km FOUND
S3110228 RS41 2021-04-17 07:04:00 49.3163 12.0727 172 ° 9 km/h 658 m -10.5 m/s 402.70 MHz Schwandorf (DE) 0.00 km FOUND
S3041065 RS41 2021-04-17 01:21:15 49.3523 12.2459 169 ° 15 km/h 544 m -5.3 m/s 402.70 MHz Schwandorf (DE) 0.00 km FOUND
S3210784 RS41 2021-04-16 19:21:09 49.3784 12.2393 225 ° 19 km/h 839 m -6.2 m/s 402.70 MHz Schwandorf (DE) 0.00 km LOST
S3120744 RS41 2021-04-16 12:59:54 49.4832 11.7822 156 ° 15 km/h 752 m -5.1 m/s 402.70 MHz Sulzbach-Rosenberg (DE) 0.00 km FOUND
S3120780 RS41 2021-04-16 07:17:30 49.3045 12.0191 205 ° 9 km/h 608 m -7.6 m/s 402.70 MHz Schwandorf (DE) 0.00 km FOUND
S3120743 RS41 2021-04-16 01:25:13 49.2954 12.048 176 ° 20 km/h 614 m -3.4 m/s 402.70 MHz Schwandorf (DE) 0.00 km NEED ATTENTION
S3120730 RS41 2021-04-15 19:11:26 49.2851 12.3392 182 ° 24 km/h 630 m -10.7 m/s 402.70 MHz Schwandorf (DE) 0.00 km FOUND
S3120741 RS41 2021-04-15 14:00:00 49.429 12.291 154 ° 28 km/h 687 m -8.3 m/s 402.70 MHz Schwandorf (DE) 0.00 km FOUND
S3120727 RS41 2021-04-15 07:21:01 49.3476 12.4329 148 ° 2 km/h 599 m -5.8 m/s 402.70 MHz Schwandorf (DE) 0.00 km FOUND
S3210788 RS41 2021-04-15 01:18:00 49.3802 12.8165 154 ° 15 km/h 780 m -13.8 m/s 402.700 MHz Domažlice (CZ) 0.00 km FOUND
S3210719 RS41 2021-04-14 19:38:51 49.2869 13.277 346 ° 4 km/h 678 m -6.2 m/s 402.70 MHz Klatovy (CZ) 0.00 km UNKNOWN
S3210792 RS41 2021-04-14 13:01:30 49.4477 12.9269 194 ° 7 km/h 529 m -9.5 m/s 402.70 MHz Domažlice (CZ) 0.00 km FOUND
S3210789 RS41 2021-04-14 07:26:30 49.333 13.1649 347 ° 6 km/h 519 m -10.1 m/s 402.70 MHz Kdyně (CZ) 0.00 km UNKNOWN
S3050056 RS41 2021-04-14 01:19:46 49.4316 13.2069 67 ° 9 km/h 698 m -10.7 m/s 402.70 MHz Klatovy (CZ) 0.00 km UNKNOWN
S3050052 RS41 2021-04-13 19:28:39 49.5809 13.3681 165 ° 11 km/h 523 m -6.3 m/s 402.70 MHz Přeštice (CZ) 0.00 km UNKNOWN
S3050047 RS41 2021-04-13 13:05:01 49.7649 13.2164 239 ° 4 km/h 554 m -6.8 m/s 402.70 MHz Nýřany (CZ) 0.00 km UNKNOWN
S3130212 RS41 2021-04-13 07:28:17 49.886 13.4161 170 ° 15 km/h 832 m -5.5 m/s 402.70 MHz Třemošná (CZ) 0.00 km FOUND
S3050055 RS41 2021-04-13 01:25:04 50.0396 13.5194 146 ° 22 km/h 617 m -4.2 m/s 402.70 MHz Rakovník (CZ) 0.00 km UNKNOWN
S3041066 RS41 2021-04-12 19:28:53 49.9645 13.9286 114 ° 15 km/h 657 m -8.7 m/s 402.70 MHz Králŭv Dvŭr (CZ) 0.00 km UNKNOWN
S3130214 RS41 2021-04-12 13:15:18 50.108 13.6524 129 ° 22 km/h 559 m -4.5 m/s 402.70 MHz Rakovník (CZ) 0.00 km UNKNOWN
S3130898 RS41 2021-04-12 07:36:39 50.03 13.9792 153 ° 17 km/h 493 m -6.2 m/s 402.70 MHz Králŭv Dvŭr (CZ) 0.00 km UNKNOWN
S3041064 RS41 2021-04-12 01:21:02 50.0334 13.7073 170 ° 39 km/h 539 m -8.0 m/s 402.70 MHz Rakovník (CZ) 0.00 km UNKNOWN
S2930634 RS41 2021-04-11 19:42:01 49.9062 14.0779 342 ° 19 km/h 514 m -9.6 m/s 402.70 MHz Králŭv Dvŭr (CZ) 0.00 km UNKNOWN
S3210718 RS41 2021-04-11 13:19:46 49.975 13.6873 271 ° 2 km/h 599 m -3.4 m/s 402.70 MHz Rakovník (CZ) 0.00 km UNKNOWN
S3210783 RS41 2021-04-11 07:02:49 49.9212 13.6788 82 ° 9 km/h 693 m -12.1 m/s 404.90 MHz Hořovice (CZ) 0.00 km UNKNOWN
S3210782 RS41 2021-04-11 01:24:11 49.9911 14.1796 307 ° 9 km/h 474 m -6.4 m/s 402.70 MHz Rudná (CZ) 0.00 km FOUND
S3210720 RS41 2021-04-10 19:06:20 49.7718 13.9213 296 ° 11 km/h 693 m -9.6 m/s 402.70 MHz Hořovice (CZ) 0.00 km UNKNOWN
S3131019 RS41 2021-04-10 13:20:20 49.8926 14.1946 76 ° 20 km/h 374 m -8.2 m/s 402.70 MHz Mníšek pod Brdy (CZ) 0.00 km FOUND
S3210791 RS41 2021-04-10 07:04:35 49.7339 14.2762 31 ° 30 km/h 574 m -8.4 m/s 402.70 MHz Dobříš (CZ) 0.00 km FOUND
S3130897 RS41 2021-04-10 01:15:54 49.5958 14.5139 26 ° 15 km/h 600 m -5.5 m/s 402.70 MHz Sedlčany (CZ) 0.00 km FOUND
S3130895 RS41 2021-04-09 19:51:03 49.6749 15.1676 36 ° 35 km/h 714 m -3.1 m/s 402.70 MHz Světlá nad Sázavou (CZ) 0.00 km UNKNOWN
S3210785 RS41 2021-04-09 13:19:29 49.7105 14.8094 8 ° 24 km/h 676 m -7.2 m/s 402.70 MHz Vlašim (CZ) 0.00 km UNKNOWN
S3210725 RS41 2021-04-09 07:16:52 49.2684 14.4378 21 ° 15 km/h 851 m -6.3 m/s 402.700 MHz Týn nad Vltavou (CZ) 0.00 km UNKNOWN
S3130253 RS41 2021-04-09 01:07:52 49.2732 14.3882 36 ° 17 km/h 879 m -11.8 m/s 402.70 MHz Týn nad Vltavou (CZ) 0.00 km UNKNOWN
S3131016 RS41 2021-04-08 19:17:33 48.9806 14.4 115 ° 19 km/h 928 m -5.2 m/s 402.70 MHz České Budějovice (CZ) 0.00 km UNKNOWN
S3130970 RS41 2021-04-08 13:11:23 48.9233 14.207 112 ° 30 km/h 1321 m -5.5 m/s 402.70 MHz Český Krumlov (CZ) 0.00 km UNKNOWN
S3130213 RS41 2021-04-08 07:32:56 48.5864 14.6581 105 ° 28 km/h 1118 m -4.0 m/s 402.70 MHz Sankt Oswald bei Freistadt (AT) 0.00 km UNKNOWN
S3120351 RS41 2021-04-08 01:43:23 48.9978 15.1952 116 ° 35 km/h 753 m -4.3 m/s 402.70 MHz Litschau (AT) 0.00 km UNKNOWN
S3120353 RS41 2021-04-07 19:09:03 49.0274 14.3869 88 ° 35 km/h 725 m -11.0 m/s 402.70 MHz Hluboká nad Vltavou (CZ) 0.00 km FOUND
S3120349 RS41 2021-04-07 12:58:29 49.2114 14.0126 104 ° 54 km/h 1089 m -8.2 m/s 402.70 MHz Strakonice (CZ) 0.00 km FOUND
S3120343 RS41 2021-04-07 07:23:21 49.3955 14.5423 105 ° 26 km/h 804 m -10.2 m/s 402.70 MHz Tábor (CZ) 0.00 km UNKNOWN
S3050678 RS41 2021-04-07 01:31:25 49.5167 14.7027 86 ° 9 km/h 646 m -5.6 m/s 402.70 MHz Tábor (CZ) 0.00 km UNKNOWN
S3120596 RS41 2021-04-06 19:18:44 49.3581 14.396 94 ° 39 km/h 766 m -5.8 m/s 402.70 MHz Milevsko (CZ) 0.00 km FOUND
S3120354 RS41 2021-04-06 13:01:45 49.273 13.8899 98 ° 41 km/h 1018 m -5.0 m/s 402.70 MHz Strakonice (CZ) 0.00 km FOUND
S3120595 RS41 2021-04-06 07:22:35 49.3266 14.2506 79 ° 48 km/h 875 m -9.0 m/s 402.70 MHz Písek (CZ) 0.00 km UNKNOWN
S3050737 RS41 2021-04-06 01:19:08 49.507 14.8077 92 ° 37 km/h 747 m -11.9 m/s 402.70 MHz Tábor (CZ) 0.00 km UNKNOWN
S3120355 RS41 2021-04-05 19:01:18 49.4759 14.5385 160 ° 33 km/h 702 m -10.1 m/s 402.70 MHz Tábor (CZ) 0.00 km UNKNOWN
S3130900 RS41 2021-04-05 12:54:48 49.4624 14.2112 79 ° 54 km/h 932 m -11.9 m/s 402.70 MHz Milevsko (CZ) 0.00 km UNKNOWN
S3050689 RS41 2021-04-05 07:00:06 49.1675 13.4759 73 ° 65 km/h 1247 m -11.5 m/s 402.70 MHz Sušice (CZ) 0.00 km UNKNOWN
S3120356 RS41 2021-04-05 01:07:00 49.132 13.0125 69 ° 37 km/h 1128 m -13.9 m/s 402.70 MHz Kdyně (CZ) 0.00 km LOST
S3120350 RS41 2021-04-04 19:08:30 49.1559 12.9122 74 ° 9 km/h 782 m -8.7 m/s 402.70 MHz Kdyně (CZ) 0.00 km LOST
S3050690 RS41 2021-04-04 13:13:00 49.059 12.5486 129 ° 19 km/h 1363 m -10.2 m/s 402.70 MHz Straubing (DE) 0.00 km FOUND
S3050688 RS41 2021-04-04 07:29:10 48.6956 12.1419 164 ° 11 km/h 607 m -4.2 m/s 402.70 MHz Landshut (DE) 0.00 km UNKNOWN
S3120591 RS41 2021-04-04 01:47:21 48.5068 12.0631 220 ° 6 km/h 522 m -3.4 m/s 402.70 MHz Landshut (DE) 0.00 km UNKNOWN
S3050675 RS41 2021-04-03 19:14:37 48.719 12.2157 111 ° 17 km/h 706 m -6.0 m/s 402.70 MHz Landshut (DE) 0.00 km UNKNOWN
S3120590 RS41 2021-04-03 13:05:43 48.8574 12.2345 162 ° 22 km/h 1037 m -14.8 m/s 402.70 MHz Regensburg (DE) 0.00 km FOUND
S3120589 RS41 2021-04-03 07:21:40 48.6051 12.7778 154 ° 35 km/h 949 m -8.4 m/s 402.70 MHz Deggendorf (DE) 0.00 km FOUND
S3130899 RS41 2021-04-03 01:14:07 48.8537 12.8537 161 ° 33 km/h 1036 m -9.5 m/s 402.70 MHz Deggendorf (DE) 0.00 km FOUND
S3050044 RS41 2021-04-02 19:04:43 49.032 13.0603 138 ° 30 km/h 1519 m -12.1 m/s 402.70 MHz Deggendorf (DE) 0.00 km FOUND
S3050738 RS41 2021-04-02 13:00:31 49.0995 12.6456 208 ° 13 km/h 1111 m -5.7 m/s 402.70 MHz Straubing (DE) 0.00 km FOUND
S3050735 RS41 2021-04-02 08:32:27 48.8261 13.2679 48 ° 9 km/h 1371 m -10.6 m/s 402.70 MHz Deggendorf (DE) 0.00 km UNKNOWN
S3050673 RS41 2021-04-02 01:06:11 48.967 12.7472 115 ° 31 km/h 1521 m -13.5 m/s 402.70 MHz Straubing (DE) 0.00 km UNKNOWN
S3120599 RS41 2021-04-01 19:02:54 48.9932 12.4494 130 ° 28 km/h 1105 m -12.1 m/s 402.70 MHz Straubing (DE) 0.00 km UNKNOWN
R3330604 RS41 2021-04-01 13:22:30 49.2161 12.8825 136 ° 17 km/h 694 m -5.0 m/s 402.70 MHz Kdyně (CZ) 0.00 km FOUND
R3330566 RS41 2021-04-01 07:18:30 49.2786 12.677 12 ° 13 km/h 633 m -8.8 m/s 402.70 MHz Domažlice (CZ) 0.00 km FOUND
R3340942 RS41 2021-04-01 01:37:30 49.4267 12.7176 90 ° 15 km/h 792 m -5.7 m/s 402.70 MHz Domažlice (CZ) 0.00 km FOUND
R3330567 RS41 2021-03-31 19:09:00 49.4022 12.4098 39 ° 7 km/h 804 m -8.6 m/s 402.700 MHz Schwandorf (DE) 0.00 km FOUND
R3330513 RS41 2021-03-31 12:56:38 49.4691 12.1285 360 ° 6 km/h 720 m -12.3 m/s 402.70 MHz Schwandorf (DE) 0.00 km FOUND
R3330575 RS41 2021-03-31 07:19:42 49.3912 12.0504 305 ° 9 km/h 487 m -5.6 m/s 402.70 MHz Schwandorf (DE) 0.00 km FOUND
R3330516 RS41 2021-03-31 01:19:07 49.3835 12.0265 276 ° 6 km/h 555 m -12.3 m/s 402.70 MHz Schwandorf (DE) 0.00 km FOUND
R3330485 RS41 2021-03-30 19:16:00 49.24 12.0074 258 ° 4 km/h 900 m -11.2 m/s 402.70 MHz Schwandorf (DE) 0.00 km FOUND
R3330727 RS41 2021-03-30 13:00:58 49.2192 11.8831 293 ° 7 km/h 888 m -10.0 m/s 402.70 MHz Schwandorf (DE) 0.00 km LOST
R3320682 RS41 2021-03-30 07:11:30 49.0109 11.9669 290 ° 7 km/h 572 m -10.1 m/s 402.70 MHz Regensburg (DE) 0.00 km FOUND
R3330509 RS41 2021-03-30 01:29:08 48.8134 12.156 131 ° 9 km/h 678 m -8.9 m/s 402.70 MHz Regensburg (DE) 0.00 km FOUND
R3330508 RS41 2021-03-29 19:21:13 48.7393 12.5026 106 ° 19 km/h 600 m -6.5 m/s 402.70 MHz Straubing (DE) 0.00 km FOUND
R3330481 RS41 2021-03-29 13:02:36 48.8707 12.4502 89 ° 24 km/h 819 m -8.5 m/s 402.70 MHz Straubing (DE) 0.00 km FOUND
R3330730 RS41 2021-03-29 07:16:06 48.6566 12.7387 41 ° 11 km/h 590 m -6.4 m/s 402.70 MHz Deggendorf (DE) 0.00 km FOUND
R3330571 RS41 2021-03-29 01:21:23 48.5359 13.0201 115 ° 31 km/h 671 m -11.6 m/s 402.70 MHz Passau (DE) 0.00 km UNKNOWN
R3340939 RS41 2021-03-28 19:23:27 48.5723 13.4373 85 ° 22 km/h 1087 m -5.2 m/s 402.70 MHz Passau (DE) 0.00 km NEED ATTENTION
R3330576 RS41 2021-03-28 13:06:29 48.8599 13.3617 89 ° 28 km/h 1500 m -11.5 m/s 402.70 MHz Deggendorf (DE) 0.00 km UNKNOWN
R3330735 RS41 2021-03-28 07:11:23 48.9617 13.5601 83 ° 41 km/h 1690 m -10.3 m/s 402.70 MHz Vimperk (CZ) 0.00 km UNKNOWN
R3330574 RS41 2021-03-28 01:17:05 48.868 13.6752 108 ° 35 km/h 1419 m -12.0 m/s 402.70 MHz Vimperk (CZ) 0.00 km UNKNOWN
R3330483 RS41 2021-03-27 19:18:36 49.1758 14.1454 98 ° 37 km/h 767 m -9.2 m/s 402.70 MHz Vodňany (CZ) 0.00 km FOUND
R3330510 RS41 2021-03-27 13:07:49 49.7241 13.8212 71 ° 41 km/h 840 m -9.7 m/s 402.70 MHz Hořovice (CZ) 0.00 km UNKNOWN
R3330738 RS41 2021-03-27 07:10:45 49.7813 13.4813 62 ° 63 km/h 846 m -7.4 m/s 402.70 MHz Třemošná (CZ) 0.00 km UNKNOWN
R3330733 RS41 2021-03-27 01:22:16 49.6945 13.2883 45 ° 24 km/h 472 m -2.2 m/s 402.70 MHz Dobřany (CZ) 0.00 km FOUND
R3330572 RS41 2021-03-26 19:38:44 49.5857 13.3242 346 ° 6 km/h 461 m -5.8 m/s 402.70 MHz Přeštice (CZ) 0.00 km UNKNOWN
R3320681 RS41 2021-03-26 13:26:09 49.473 13.1824 69 ° 22 km/h 571 m -5.4 m/s 402.70 MHz Klatovy (CZ) 0.00 km UNKNOWN
R3330568 RS41 2021-03-26 07:30:00 49.2076 13.0591 53 ° 6 km/h 880 m -10.1 m/s 402.70 MHz Kdyně (CZ) 0.00 km UNKNOWN
R3330734 RS41 2021-03-26 01:18:00 49.3515 12.9995 72 ° 13 km/h 751 m -11.0 m/s 402.70 MHz Kdyně (CZ) 0.00 km UNKNOWN
R3330484 RS41 2021-03-25 19:12:30 49.409 12.9695 11 ° 26 km/h 614 m -8.9 m/s 402.70 MHz Domažlice (CZ) 0.00 km FOUND
R3320649 RS41 2021-03-25 13:02:00 49.4459 12.8764 117 ° 13 km/h 626 m -11.5 m/s 402.70 MHz Domažlice (CZ) 0.00 km LOST
R3320210 RS41 2021-03-25 07:09:00 49.1524 12.7079 79 ° 9 km/h 744 m -5.1 m/s 402.70 MHz Straubing (DE) 0.00 km FOUND
R3320651 RS41 2021-03-25 01:05:04 49.0646 12.6626 78 ° 22 km/h 999 m -6.9 m/s 402.70 MHz Straubing (DE) 0.00 km UNKNOWN
R3320489 RS41 2021-03-24 19:13:34 48.9182 12.6524 114 ° 13 km/h 1091 m -12.0 m/s 402.70 MHz Straubing (DE) 0.00 km LOST
R3321060 RS41 2021-03-24 13:05:12 49.083 12.3362 32 ° 11 km/h 1300 m -7.1 m/s 402.70 MHz Regensburg (DE) 0.00 km FOUND
R3330694 RS41 2021-03-24 07:09:28 49.03 12.3213 142 ° 7 km/h 1055 m -12.8 m/s 402.70 MHz Regensburg (DE) 0.00 km FOUND
R3340771 RS41 2021-03-24 01:17:00 49.0917 12.5159 118 ° 15 km/h 949 m -6.0 m/s 402.70 MHz Straubing (DE) 0.00 km LOST
R3340770 RS41 2021-03-23 19:06:59 48.9967 12.3208 118 ° 17 km/h 956 m -14.1 m/s 402.70 MHz Regensburg (DE) 0.00 km FOUND
R3330729 RS41 2021-03-23 13:02:30 49.0497 12.2534 113 ° 19 km/h 1019 m -9.5 m/s 402.70 MHz Regensburg (DE) 0.00 km FOUND
R3330728 RS41 2021-03-23 07:06:05 48.7964 12.1019 120 ° 24 km/h 907 m -7.2 m/s 402.70 MHz Regensburg (DE) 0.00 km FOUND
R3340780 RS41 2021-03-23 01:27:52 48.6627 12.2395 115 ° 20 km/h 568 m -4.9 m/s 402.70 MHz Landshut (DE) 0.00 km UNKNOWN
R3321061 RS41 2021-03-22 19:20:44 48.5632 12.6813 147 ° 31 km/h 927 m -10.0 m/s 402.70 MHz Straubing (DE) 0.00 km FOUND
R3321090 RS41 2021-03-22 13:24:39 48.2635 11.7566 93 ° 22 km/h 576 m -4.9 m/s 402.70 MHz Erding (DE) 0.00 km FOUND
R3320502 RS41 2021-03-22 07:08:36 48.2778 11.772 121 ° 15 km/h 550 m -5.7 m/s 402.70 MHz Erding (DE) 0.00 km FOUND
R3340777 RS41 2021-03-22 01:13:15 48.4428 12.1989 122 ° 28 km/h 699 m -5.6 m/s 402.70 MHz Landshut (DE) 0.00 km FOUND
R3340778 RS41 2021-03-21 19:25:40 48.4568 12.4463 114 ° 48 km/h 887 m -11.7 m/s 402.70 MHz Landshut (DE) 0.00 km FOUND
R3340938 RS41 2021-03-21 13:06:51 48.7778 12.6241 86 ° 33 km/h 725 m -7.5 m/s 402.70 MHz Straubing (DE) 0.00 km FOUND
R3320503 RS41 2021-03-21 07:22:00 48.6896 12.6081 57 ° 28 km/h 467 m -11.9 m/s 402.70 MHz Straubing (DE) 0.00 km FOUND
R3320914 RS41 2021-03-21 01:14:17 48.6563 12.1019 91 ° 17 km/h 583 m -7.7 m/s 402.70 MHz Landshut (DE) 0.00 km UNKNOWN
R3330692 RS41 2021-03-20 19:11:35 48.4471 11.621 76 ° 13 km/h 593 m -9.6 m/s 402.70 MHz Freising (DE) 0.00 km FOUND
R3330737 RS41 2021-03-20 13:17:37 48.2989 11.1727 203 ° 9 km/h 635 m -5.9 m/s 402.70 MHz Fürstenfeldbruck (DE) 0.00 km FOUND
R3330486 RS41 2021-03-20 07:15:21 48.2703 11.1439 208 ° 13 km/h 721 m -6.0 m/s 402.70 MHz Fürstenfeldbruck (DE) 0.00 km FOUND
R3330137 RS41 2021-03-20 01:36:37 48.1156 11.1106 202 ° 24 km/h 801 m -6.5 m/s 402.70 MHz Fürstenfeldbruck (DE) 0.00 km FOUND
R3330124 RS41 2021-03-19 19:29:25 48.2869 11.5237 195 ° 26 km/h 671 m -9.3 m/s 402.70 MHz Unterschleißheim (DE) 0.00 km FOUND
R3330731 RS41 2021-03-19 12:59:47 48.7962 11.8438 192 ° 17 km/h 670 m -11.5 m/s 402.70 MHz Regensburg (DE) 0.00 km LOST
R3330515 RS41 2021-03-19 07:27:32 48.5856 11.8976 184 ° 7 km/h 713 m -3.6 m/s 402.70 MHz Landshut (DE) 0.00 km NEED ATTENTION
R3330501 RS41 2021-03-19 01:06:33 48.8569 12.2023 179 ° 7 km/h 738 m -5.0 m/s 402.70 MHz Regensburg (DE) 0.00 km FOUND
R3330482 RS41 2021-03-18 19:23:22 48.7385 12.4715 54 ° 7 km/h 647 m -9.7 m/s 402.70 MHz Straubing (DE) 0.00 km FOUND
R3330514 RS41 2021-03-18 13:04:15 48.8397 12.1209 140 ° 19 km/h 860 m -9.2 m/s 402.70 MHz Regensburg (DE) 0.00 km FOUND
R3320683 RS41 2021-03-18 07:19:01 48.6344 12.1384 168 ° 17 km/h 573 m -5.1 m/s 402.70 MHz Landshut (DE) 0.00 km UNKNOWN
R3320500 RS41 2021-03-18 01:07:47 48.6125 11.9925 166 ° 19 km/h 620 m -11.1 m/s 402.70 MHz Landshut (DE) 0.00 km UNKNOWN
R3320488 RS41 2021-03-17 19:34:42 48.6579 12.4933 157 ° 15 km/h 452 m -4.1 m/s 402.70 MHz Straubing (DE) 0.00 km FOUND
R3340921 RS41 2021-03-17 13:21:21 48.6624 12.5533 111 ° 13 km/h 472 m -6.5 m/s 402.70 MHz Straubing (DE) 0.00 km FOUND
R3330466 RS41 2021-03-17 08:04:19 48.2405 12.869 127 ° 17 km/h 456 m -6.3 m/s 402.70 MHz Hochburg-Ach (AT) 0.00 km UNKNOWN
R3330679 RS41 2021-03-17 01:44:45 48.3788 13.0638 112 ° 26 km/h 656 m -8.2 m/s 402.70 MHz Braunau am Inn (AT) 0.00 km FOUND
R3321091 RS41 2021-03-16 19:17:58 48.4713 12.8968 102 ° 37 km/h 693 m -4.6 m/s 402.70 MHz Braunau am Inn (AT) 0.00 km FOUND
R3320487 RS41 2021-03-16 13:00:57 48.5776 12.3791 118 ° 31 km/h 562 m -10.5 m/s 402.70 MHz Landshut (DE) 0.00 km UNKNOWN
R3320437 RS41 2021-03-16 07:09:49 48.593 12.6895 120 ° 35 km/h 662 m -11.5 m/s 402.70 MHz Straubing (DE) 0.00 km UNKNOWN
R3320491 RS41 2021-03-16 01:02:06 48.7756 12.6854 123 ° 54 km/h 681 m -7.7 m/s 402.70 MHz Straubing (DE) 0.00 km FOUND
R3320490 RS41 2021-03-15 19:28:53 48.7335 13.2206 123 ° 50 km/h 1096 m -4.0 m/s 402.70 MHz Deggendorf (DE) 0.00 km UNKNOWN
R3320463 RS41 2021-03-15 13:17:24 48.9991 13.2467 77 ° 26 km/h 1496 m -7.2 m/s 402.70 MHz Deggendorf (DE) 0.00 km UNKNOWN
R3321087 RS41 2021-03-15 07:17:32 48.9493 13.2609 78 ° 24 km/h 1327 m -6.6 m/s 402.70 MHz Deggendorf (DE) 0.00 km UNKNOWN
R3321059 RS41 2021-03-15 00:55:43 49.0181 12.9791 116 ° 35 km/h 1564 m -7.6 m/s 402.70 MHz Deggendorf (DE) 0.00 km UNKNOWN
R3320436 RS41 2021-03-14 19:17:30 49.0815 13.4409 105 ° 35 km/h 1275 m -8.0 m/s 402.70 MHz Sušice (CZ) 0.00 km UNKNOWN
R3330693 RS41 2021-03-14 13:27:03 49.4333 13.9129 101 ° 44 km/h 879 m -5.6 m/s 402.70 MHz Blatná (CZ) 0.00 km FOUND
R3330054 RS41 2021-03-14 07:01:48 49.4023 13.9466 102 ° 46 km/h 871 m -10.1 m/s 402.70 MHz Blatná (CZ) 0.00 km FOUND
R3330053 RS41 2021-03-14 01:09:51 49.6177 14.4356 50 ° 30 km/h 472 m -6.5 m/s 402.70 MHz Sedlčany (CZ) 0.00 km UNKNOWN
R3330050 RS41 2021-03-13 19:29:51 49.5288 15.4581 77 ° 69 km/h 1033 m -9.8 m/s 402.70 MHz Humpolec (CZ) 0.00 km UNKNOWN
R3321089 RS41 2021-03-13 13:22:17 49.4962 15.5022 53 ° 50 km/h 1015 m -13.7 m/s 402.70 MHz Humpolec (CZ) 0.00 km UNKNOWN
R3321058 RS41 2021-03-13 07:22:25 49.1588 14.841 57 ° 33 km/h 624 m -8.8 m/s 402.70 MHz Veselí nad Lužnicí (CZ) 0.00 km FOUND
R3251248 RS41 2021-03-13 01:41:36 49.1014 15.108 50 ° 31 km/h 685 m -4.3 m/s 402.70 MHz Jindřichŭv Hradec (CZ) 0.00 km UNKNOWN
R3330696 RS41 2021-03-12 19:20:26 49.291 15.0372 63 ° 30 km/h 773 m -11.8 m/s 402.70 MHz Jindřichŭv Hradec (CZ) 0.00 km FOUND
R3330749 RS41 2021-03-12 13:28:06 49.3843 15.2644 96 ° 35 km/h 670 m -4.8 m/s 402.70 MHz Pelhřimov (CZ) 0.00 km FOUND
R3321088 RS41 2021-03-12 07:21:16 49.0541 15.6538 97 ° 52 km/h 623 m -7.4 m/s 402.70 MHz Moravské Budějovice (CZ) 0.00 km UNKNOWN
R3330052 RS41 2021-03-12 00:34:04 49.5333 14.4756 77 ° 44 km/h 760 m -4.8 m/s 402.70 MHz Milevsko (CZ) 0.00 km UNKNOWN
R3330033 RS41 2021-03-11 19:21:02 49.2976 15.6557 30 ° 41 km/h 867 m -6.5 m/s 402.70 MHz Jihlava (CZ) 0.00 km UNKNOWN
R3330034 RS41 2021-03-11 12:38:53 49.16 14.4025 44 ° 20 km/h 635 m -10.7 m/s 402.70 MHz Týn nad Vltavou (CZ) 0.00 km FOUND
R3330001 RS41 2021-03-11 07:17:52 48.4851 14.7821 19 ° 26 km/h 1013 m -4.7 m/s 402.70 MHz Unterweissenbach (AT) 0.00 km FOUND
R3321092 RS41 2021-03-11 00:52:08 48.3532 13.4402 296 ° 20 km/h 453 m -12.0 m/s 402.70 MHz Andorf (AT) 0.00 km FOUND
R3320473 RS41 2021-03-10 18:56:42 48.2735 13.4654 7 ° 15 km/h 554 m -8.3 m/s 402.70 MHz Aurolzmünster (AT) 0.00 km UNKNOWN
R3320546 RS41 2021-03-10 12:52:15 48.3672 13.1944 136 ° 13 km/h 535 m -8.8 m/s 402.70 MHz Altheim (AT) 0.00 km UNKNOWN
R3320541 RS41 2021-03-10 07:16:11 48.466 13.9912 76 ° 13 km/h 671 m -6.2 m/s 402.70 MHz Altenfelden (AT) 0.00 km FOUND
R3321057 RS41 2021-03-10 01:35:33 48.5564 14.0362 26 ° 9 km/h 769 m -10.4 m/s 402.70 MHz Haslach an der Mühl (AT) 0.00 km UNKNOWN
R3330049 RS41 2021-03-09 19:25:11 48.8785 13.8265 24 ° 7 km/h 1359 m -4.1 m/s 402.70 MHz Prachatice (CZ) 0.00 km UNKNOWN
R3330135 RS41 2021-03-09 13:27:55 49.0921 14.4822 321 ° 9 km/h 930 m -8.4 m/s 402.70 MHz Hluboká nad Vltavou (CZ) 0.00 km UNKNOWN
R3330133 RS41 2021-03-09 07:15:40 48.9527 14.1327 306 ° 9 km/h 901 m -6.8 m/s 402.70 MHz Prachatice (CZ) 0.00 km LOST
R3340936 RS41 2021-03-09 01:39:48 48.7738 14.4633 290 ° 9 km/h 756 m -11.7 m/s 402.70 MHz Kaplice (CZ) 0.00 km FOUND
R3340920 RS41 2021-03-08 19:20:28 48.7101 14.0453 198 ° 15 km/h 1031 m -6.4 m/s 402.70 MHz Ulrichsberg (AT) 0.00 km UNKNOWN
R3420433 RS41 2021-03-08 13:10:40 48.7887 13.7632 164 ° 4 km/h 1415 m -6.7 m/s 402.70 MHz Ulrichsberg (AT) 0.00 km UNKNOWN
R3330464 RS41 2021-03-08 07:12:04 48.6676 13.8839 132 ° 17 km/h 960 m -4.8 m/s 402.70 MHz Ulrichsberg (AT) 0.00 km FOUND
R3340941 RS41 2021-03-08 01:06:44 48.861 13.9657 163 ° 17 km/h 1291 m -11.7 m/s 402.70 MHz Prachatice (CZ) 0.00 km UNKNOWN
R3340776 RS41 2021-03-07 19:05:28 48.9456 13.8729 85 ° 19 km/h 1231 m -13.7 m/s 402.70 MHz Prachatice (CZ) 0.00 km UNKNOWN
R3330460 RS41 2021-03-07 13:07:47 49.1107 13.7657 71 ° 13 km/h 1288 m -7.6 m/s 402.70 MHz Vimperk (CZ) 0.00 km UNKNOWN
R3330138 RS41 2021-03-07 07:06:44 48.9005 13.4848 359 ° 15 km/h 1287 m -6.1 m/s 402.70 MHz Vimperk (CZ) 0.00 km UNKNOWN
R3330459 RS41 2021-03-07 00:59:34 48.8723 13.7624 117 ° 9 km/h 1445 m -12.5 m/s 402.70 MHz Vimperk (CZ) 0.00 km UNKNOWN
R3330695 RS41 2021-03-06 19:18:04 48.7173 14.1941 302 ° 9 km/h 963 m -4.6 m/s 402.70 MHz Český Krumlov (CZ) 0.00 km UNKNOWN
R3330674 RS41 2021-03-06 13:03:57 48.7635 13.8078 322 ° 6 km/h 1221 m -13.3 m/s 402.70 MHz Ulrichsberg (AT) 0.00 km FOUND
R3330463 RS41 2021-03-06 07:27:22 48.5726 13.8242 269 ° 17 km/h 876 m -2.4 m/s 402.70 MHz Sarleinsbach (AT) 0.00 km LOST
R3330474 RS41 2021-03-06 01:07:05 48.6897 13.4292 247 ° 13 km/h 645 m -11.6 m/s 402.70 MHz Passau (DE) 0.00 km LOST
R3330123 RS41 2021-03-05 19:13:03 48.686 13.6704 214 ° 24 km/h 977 m -10.4 m/s 402.70 MHz Esternberg (AT) 0.00 km UNKNOWN
R3320507 RS41 2021-03-05 13:01:29 49.0737 14.0855 179 ° 20 km/h 911 m -9.9 m/s 402.70 MHz Prachatice (CZ) 0.00 km FOUND
R3330473 RS41 2021-03-05 07:24:23 49.0477 14.4685 162 ° 30 km/h 608 m -7.4 m/s 402.70 MHz Hluboká nad Vltavou (CZ) 0.00 km FOUND
R3330472 RS41 2021-03-05 02:01:04 49.3716 13.788 205 ° 33 km/h 999 m -8.6 m/s 404.90 MHz Horažďovice (CZ) 0.00 km UNKNOWN
R3320492 RS41 2021-03-05 00:41:37 49.4298 13.4844 208 ° 7 km/h 699 m -8.1 m/s 402.70 MHz Klatovy (CZ) 0.00 km UNKNOWN
R3330691 RS41 2021-03-04 19:22:22 49.2958 14.535 99 ° 39 km/h 881 m -5.7 m/s 402.70 MHz Týn nad Vltavou (CZ) 0.00 km FOUND
R3330437 RS41 2021-03-04 13:12:29 49.4206 13.9898 91 ° 33 km/h 806 m -8.0 m/s 402.70 MHz Blatná (CZ) 0.00 km FOUND
R3330134 RS41 2021-03-04 07:28:44 49.2897 13.9377 99 ° 35 km/h 1080 m -7.0 m/s 402.70 MHz Strakonice (CZ) 0.00 km FOUND
R3330676 RS41 2021-03-04 00:13:30 49.3578 12.8021 44 ° 4 km/h 637 m -12.9 m/s 402.70 MHz Domažlice (CZ) 0.00 km FOUND
R3330678 RS41 2021-03-03 18:47:30 49.3017 12.9047 62 ° 15 km/h 484 m -6.9 m/s 402.70 MHz Kdyně (CZ) 0.00 km FOUND
R3330126 RS41 2021-03-03 13:30:00 49.2908 13.1852 91 ° 15 km/h 662 m -4.8 m/s 402.70 MHz Klatovy (CZ) 0.00 km UNKNOWN
R3330125 RS41 2021-03-03 07:26:01 49.2387 12.8092 350 ° 4 km/h 572 m -6.9 m/s 402.70 MHz Kdyně (CZ) 0.00 km FOUND
R3330468 RS41 2021-03-03 01:20:30 49.3892 12.6235 352 ° 6 km/h 543 m -5.5 m/s 402.70 MHz Domažlice (CZ) 0.00 km FOUND
R3330122 RS41 2021-03-02 19:07:30 49.3271 12.4062 295 ° 9 km/h 742 m -11.3 m/s 402.70 MHz Schwandorf (DE) 0.00 km FOUND
R3330455 RS41 2021-03-02 12:58:30 49.431 11.9334 295 ° 7 km/h 788 m -12.6 m/s 402.70 MHz Amberg (DE) 0.00 km FOUND
R3330440 RS41 2021-03-02 07:14:52 49.2736 12.2214 275 ° 13 km/h 594 m -10.0 m/s 402.70 MHz Schwandorf (DE) 0.00 km FOUND
R3330462 RS41 2021-03-02 01:29:15 49.2698 12.1704 261 ° 13 km/h 596 m -5.7 m/s 402.70 MHz Schwandorf (DE) 0.00 km FOUND
R3330458 RS41 2021-03-01 19:05:00 49.2462 11.8911 282 ° 22 km/h 1036 m -5.2 m/s 404.90 MHz Schwandorf (DE) 0.00 km LOST
R3330465 RS41 2021-03-01 13:18:33 49.2007 11.7677 261 ° 13 km/h 919 m -10.0 m/s 402.70 MHz Neumarkt in der Oberpfalz (DE) 0.00 km FOUND
R3330439 RS41 2021-03-01 07:24:00 48.9908 11.9795 235 ° 17 km/h 616 m -6.0 m/s 402.70 MHz Regensburg (DE) 0.00 km FOUND
R3330469 RS41 2021-03-01 01:31:14 48.9786 12.1757 253 ° 7 km/h 894 m -5.9 m/s 402.70 MHz Regensburg (DE) 0.00 km NEED ATTENTION
R3330457 RS41 2021-02-28 19:11:00 48.9539 12.1211 270 ° 15 km/h 945 m -11.8 m/s 402.70 MHz Regensburg (DE) 0.00 km FOUND
R3330461 RS41 2021-02-28 12:58:30 48.9997 12.2679 217 ° 13 km/h 876 m -8.9 m/s 402.70 MHz Regensburg (DE) 0.00 km FOUND
R3330456 RS41 2021-02-28 07:12:25 48.9112 12.3609 294 ° 26 km/h 972 m -5.9 m/s 402.70 MHz Straubing (DE) 0.00 km LOST
R3320501 RS41 2021-02-28 01:29:13 48.9057 11.9315 253 ° 26 km/h 610 m -3.7 m/s 402.70 MHz Regensburg (DE) 0.00 km FOUND
R3330471 RS41 2021-02-27 19:12:11 48.769 12.0598 219 ° 28 km/h 738 m -5.7 m/s 402.70 MHz Landshut (DE) 0.00 km FOUND
R3340919 RS41 2021-02-27 13:08:36 48.7369 11.7693 218 ° 11 km/h 696 m -7.6 m/s 402.70 MHz Ingolstadt (DE) 0.00 km UNKNOWN
R3340775 RS41 2021-02-27 07:12:55 48.7383 12.4177 221 ° 9 km/h 1144 m -6.9 m/s 402.70 MHz Straubing (DE) 0.00 km FOUND
R3340779 RS41 2021-02-27 01:38:39 49.0617 13.7975 209 ° 35 km/h 1417 m -5.4 m/s 402.70 MHz Vimperk (CZ) 0.00 km UNKNOWN
R3340769 RS41 2021-02-26 19:44:41 49.4221 14.581 182 ° 28 km/h 590 m -6.3 m/s 402.70 MHz Tábor (CZ) 0.00 km UNKNOWN
R3330317 RS41 2021-02-26 13:30:20 49.6238 14.0453 109 ° 19 km/h 684 m -4.5 m/s 402.70 MHz Příbram (CZ) 0.00 km UNKNOWN
R3330237 RS41 2021-02-26 07:34:14 49.5924 13.9047 105 ° 39 km/h 866 m -5.8 m/s 402.70 MHz Příbram (CZ) 0.00 km UNKNOWN
R3340940 RS41 2021-02-26 01:36:21 49.7269 13.6004 85 ° 15 km/h 679 m -4.7 m/s 402.70 MHz Rokycany (CZ) 0.00 km UNKNOWN
R3330832 RS41 2021-02-25 19:11:30 49.6067 12.923 40 ° 11 km/h 554 m -6.7 m/s 402.70 MHz Holýšov (CZ) 0.00 km FOUND
R3330828 RS41 2021-02-25 13:07:00 49.624 12.6513 62 ° 15 km/h 829 m -14.1 m/s 402.70 MHz Tachov (CZ) 0.00 km UNKNOWN
R3330238 RS41 2021-02-25 07:01:27 49.5245 12.3981 9 ° 22 km/h 875 m -12.2 m/s 402.70 MHz Weiden in der Oberpfalz (DE) 0.00 km FOUND
R3420467 RS41 2021-02-25 01:24:53 49.5835 12.1689 43 ° 9 km/h 509 m -3.9 m/s 402.70 MHz Weiden in der Oberpfalz (DE) 0.00 km FOUND
R3420458 RS41 2021-02-24 19:30:16 49.4088 12.0963 349 ° 9 km/h 545 m -6.1 m/s 402.70 MHz Schwandorf (DE) 0.00 km FOUND
R3340792 RS41 2021-02-24 13:18:29 49.28 12.0698 349 ° 7 km/h 706 m -7.0 m/s 402.70 MHz Schwandorf (DE) 0.00 km FOUND
R3330240 RS41 2021-02-24 07:04:30 48.9247 12.0772 359 ° 11 km/h 818 m -13.4 m/s 402.70 MHz Regensburg (DE) 0.00 km FOUND
R3340937 RS41 2021-02-24 01:38:09 48.7007 12.2396 47 ° 9 km/h 589 m -3.6 m/s 402.70 MHz Landshut (DE) 0.00 km UNKNOWN
R3340935 RS41 2021-02-23 19:17:08 48.8065 12.7633 286 ° 19 km/h 776 m -8.7 m/s 402.70 MHz Deggendorf (DE) 0.00 km FOUND
R3420435 RS41 2021-02-23 13:20:31 49.2288 12.9906 2 ° 7 km/h 670 m -6.4 m/s 402.70 MHz Kdyně (CZ) 0.00 km FOUND
R3330236 RS41 2021-02-23 07:05:30 49.2564 12.9177 236 ° 2 km/h 642 m -15.3 m/s 402.70 MHz Kdyně (CZ) 0.00 km FOUND
R3340809 RS41 2021-02-23 01:30:00 49.2684 13.0999 122 ° 4 km/h 756 m -11.7 m/s 404.90 MHz Kdyně (CZ) 0.00 km FOUND
R3340932 RS41 2021-02-22 19:20:30 49.3746 13.0888 73 ° 24 km/h 689 m -5.2 m/s 402.70 MHz Kdyně (CZ) 0.00 km UNKNOWN
R3340934 RS41 2021-02-22 12:56:30 49.7139 12.8018 48 ° 17 km/h 893 m -11.2 m/s 402.70 MHz Tachov (CZ) 0.00 km UNKNOWN
R3340933 RS41 2021-02-22 06:52:39 49.8776 12.493 252 ° 11 km/h 777 m -7.9 m/s 402.70 MHz Tachov (CZ) 0.00 km FOUND
R3330209 RS41 2021-02-22 00:58:00 49.5848 12.7429 276 ° 7 km/h 614 m -11.5 m/s 402.70 MHz Domažlice (CZ) 0.00 km FOUND
R3330190 RS41 2021-02-21 19:32:30 49.5068 12.8528 252 ° 17 km/h 635 m -4.8 m/s 402.70 MHz Domažlice (CZ) 0.00 km FOUND
R3420508 RS41 2021-02-21 13:13:00 49.4842 12.8189 246 ° 7 km/h 563 m -12.7 m/s 404.90 MHz Domažlice (CZ) 0.00 km FOUND
R3330193 RS41 2021-02-21 07:15:00 49.2902 12.9528 251 ° 7 km/h 530 m -10.1 m/s 402.70 MHz Kdyně (CZ) 0.00 km FOUND
R3330239 RS41 2021-02-21 01:20:39 49.1247 13.3676 38 ° 2 km/h 1214 m -7.5 m/s 402.70 MHz Sušice (CZ) 0.00 km UNKNOWN
R3330817 RS41 2021-02-20 19:07:02 49.0684 13.5136 333 ° 4 km/h 1556 m -13.2 m/s 402.70 MHz Sušice (CZ) 0.00 km UNKNOWN
R3340773 RS41 2021-02-20 13:11:33 49.1687 13.52 35 ° 7 km/h 1286 m -6.8 m/s 402.70 MHz Sušice (CZ) 0.00 km UNKNOWN
R3330200 RS41 2021-02-20 07:18:47 49.0934 13.4231 37 ° 11 km/h 1237 m -4.8 m/s 402.70 MHz Sušice (CZ) 0.00 km UNKNOWN
R3330818 RS41 2021-02-20 01:20:05 48.9285 13.7653 100 ° 28 km/h 1366 m -5.5 m/s 402.70 MHz Vimperk (CZ) 0.00 km UNKNOWN
R3330819 RS41 2021-02-19 19:36:55 48.7569 13.9906 108 ° 17 km/h 1023 m -7.3 m/s 402.70 MHz Ulrichsberg (AT) 0.00 km UNKNOWN
R3340772 RS41 2021-02-19 12:59:02 48.9831 13.6204 75 ° 26 km/h 1486 m -10.0 m/s 402.70 MHz Vimperk (CZ) 0.00 km UNKNOWN
R3330191 RS41 2021-02-19 07:15:56 49.1362 14.1886 89 ° 35 km/h 755 m -9.5 m/s 402.70 MHz Vodňany (CZ) 0.00 km FOUND
R3420506 RS41 2021-02-19 01:04:47 49.7383 13.8013 54 ° 39 km/h 946 m -9.1 m/s 402.70 MHz Hořovice (CZ) 0.00 km UNKNOWN
R3330203 RS41 2021-02-18 19:08:21 49.4475 13.783 356 ° 24 km/h 958 m -12.5 m/s 402.70 MHz Blatná (CZ) 0.00 km LOST
R3330202 RS41 2021-02-18 13:02:27 49.4287 13.5856 309 ° 15 km/h 839 m -7.0 m/s 402.70 MHz Horažďovice (CZ) 0.00 km UNKNOWN
R3330195 RS41 2021-02-18 07:14:30 49.2408 13.6275 285 ° 2 km/h 982 m -6.2 m/s 402.70 MHz Sušice (CZ) 0.00 km UNKNOWN
R3420507 RS41 2021-02-18 01:25:49 48.9319 13.8791 117 ° 24 km/h 1299 m -5.0 m/s 402.70 MHz Prachatice (CZ) 0.00 km UNKNOWN
R3330408 RS41 2021-02-17 19:12:11 48.8898 13.6615 115 ° 39 km/h 1365 m -13.4 m/s 402.70 MHz Vimperk (CZ) 0.00 km UNKNOWN
R3420532 RS41 2021-02-17 13:08:00 49.2089 13.6009 100 ° 59 km/h 1216 m -14.3 m/s 402.70 MHz Sušice (CZ) 0.00 km FOUND
R3420509 RS41 2021-02-17 07:24:56 49.4387 13.9761 99 ° 61 km/h 810 m -9.8 m/s 402.70 MHz Blatná (CZ) 0.00 km FOUND
R3330196 RS41 2021-02-17 01:10:52 49.5597 13.8373 71 ° 37 km/h 842 m -8.4 m/s 402.70 MHz Blatná (CZ) 0.00 km UNKNOWN
R3330189 RS41 2021-02-16 19:13:15 49.1266 13.6746 107 ° 22 km/h 1293 m -5.3 m/s 402.70 MHz Vimperk (CZ) 0.00 km UNKNOWN
R3340788 RS41 2021-02-16 12:59:39 48.8926 13.2435 96 ° 35 km/h 1268 m -9.6 m/s 402.70 MHz Deggendorf (DE) 0.00 km UNKNOWN
R3330197 RS41 2021-02-16 06:38:50 48.6169 12.9671 116 ° 37 km/h 960 m -10.9 m/s 402.70 MHz Deggendorf (DE) 0.00 km UNKNOWN
R3330367 RS41 2021-02-16 01:30:28 48.3648 13.9067 66 ° 9 km/h 633 m -4.3 m/s 402.70 MHz Waizenkirchen (AT) 0.00 km FOUND
R3340787 RS41 2021-02-15 19:03:09 48.6987 13.4027 70 ° 20 km/h 975 m -12.0 m/s 402.70 MHz Passau (DE) 0.00 km FOUND
R3340797 RS41 2021-02-15 13:03:55 48.6635 13.1206 23 ° 17 km/h 1214 m -11.5 m/s 402.70 MHz Deggendorf (DE) 0.00 km UNKNOWN
R3340790 RS41 2021-02-15 07:17:22 48.3537 12.8678 294 ° 19 km/h 558 m -5.2 m/s 402.70 MHz Braunau am Inn (AT) 0.00 km FOUND
R3330306 RS41 2021-02-15 01:09:08 48.4847 12.8194 307 ° 26 km/h 750 m -11.6 m/s 402.70 MHz Braunau am Inn (AT) 0.00 km FOUND
R3330194 RS41 2021-02-14 19:22:41 48.297 12.8686 282 ° 6 km/h 603 m -7.5 m/s 402.70 MHz Braunau am Inn (AT) 0.00 km FOUND
R3330349 RS41 2021-02-14 12:51:20 48.4768 12.226 284 ° 9 km/h 962 m -7.1 m/s 402.70 MHz Landshut (DE) 0.00 km UNKNOWN
R3330303 RS41 2021-02-14 07:09:00 48.2956 12.1228 300 ° 24 km/h 622 m -4.9 m/s 402.70 MHz Erding (DE) 0.00 km FOUND
R3330304 RS41 2021-02-14 01:22:12 48.5306 12.5937 313 ° 9 km/h 1006 m -7.8 m/s 402.70 MHz Landshut (DE) 0.00 km UNKNOWN
R3330416 RS41 2021-02-13 19:26:52 48.5742 12.7656 302 ° 22 km/h 1236 m -6.8 m/s 402.70 MHz Deggendorf (DE) 0.00 km UNKNOWN
R3330293 RS41 2021-02-13 13:23:09 48.7568 12.7294 254 ° 9 km/h 740 m -5.6 m/s 402.70 MHz Straubing (DE) 0.00 km FOUND
R3341002 RS41 2021-02-13 07:23:35 48.8075 13.0549 271 ° 35 km/h 994 m -7.6 m/s 402.70 MHz Deggendorf (DE) 0.00 km UNKNOWN
R3320444 RS41 2021-02-13 01:15:03 48.9396 13.4544 237 ° 46 km/h 1248 m -11.7 m/s 402.70 MHz Vimperk (CZ) 0.00 km UNKNOWN
R3330305 RS41 2021-02-12 19:15:29 48.8589 14.0466 217 ° 31 km/h 1309 m -10.7 m/s 402.70 MHz Prachatice (CZ) 0.00 km UNKNOWN
R3340798 RS41 2021-02-12 13:10:37 48.9108 14.1512 222 ° 13 km/h 914 m -4.8 m/s 402.70 MHz Prachatice (CZ) 0.00 km FOUND
R3320543 RS41 2021-02-12 07:18:40 48.8602 14.3487 175 ° 6 km/h 725 m -11.1 m/s 402.70 MHz Český Krumlov (CZ) 0.00 km FOUND
R3320551 RS41 2021-02-12 01:36:19 48.8316 14.4529 152 ° 15 km/h 718 m -10.3 m/s 402.70 MHz Český Krumlov (CZ) 0.00 km FOUND
R3320545 RS41 2021-02-11 19:05:17 48.9172 14.1317 167 ° 26 km/h 943 m -12.6 m/s 402.70 MHz Prachatice (CZ) 0.00 km FOUND
R3330292 RS41 2021-02-11 13:26:07 48.9729 14.3463 118 ° 33 km/h 668 m -3.8 m/s 402.70 MHz České Budějovice (CZ) 0.00 km UNKNOWN
R3330323 RS41 2021-02-11 07:22:24 49.178 14.3855 164 ° 37 km/h 964 m -5.5 m/s 402.70 MHz Týn nad Vltavou (CZ) 0.00 km FOUND
R3320547 RS41 2021-02-11 01:37:05 49.7025 14.7842 152 ° 26 km/h 667 m -10.5 m/s 402.70 MHz Vlašim (CZ) 0.00 km FOUND
R3321103 RS41 2021-02-10 19:25:51 49.5961 14.3788 179 ° 24 km/h 602 m -8.1 m/s 402.70 MHz Sedlčany (CZ) 0.00 km UNKNOWN
R3330324 RS41 2021-02-10 13:24:48 49.8214 14.3707 190 ° 13 km/h 443 m -3.1 m/s 402.70 MHz Mníšek pod Brdy (CZ) 0.00 km UNKNOWN
R3330417 RS41 2021-02-10 08:30:12 50.1074 16.0023 262 ° 4 km/h 620 m -9.1 m/s 402.70 MHz Holice (CZ) 0.00 km FOUND
R3340789 RS41 2021-02-10 01:07:41 49.6911 14.5798 222 ° 11 km/h 566 m -10.9 m/s 402.70 MHz Sedlčany (CZ) 0.00 km UNKNOWN
R3340791 RS41 2021-02-09 19:30:48 49.4584 14.7648 39 ° 7 km/h 586 m -7.8 m/s 402.70 MHz Tábor (CZ) 0.00 km UNKNOWN
R3320549 RS41 2021-02-09 13:14:38 49.802 14.2258 200 ° 9 km/h 527 m -5.9 m/s 402.70 MHz Dobříš (CZ) 0.00 km NEED ATTENTION
R3320469 RS41 2021-02-09 07:06:41 49.7117 14.18 206 ° 2 km/h 566 m -10.2 m/s 402.70 MHz Dobříš (CZ) 0.00 km FOUND
R3320552 RS41 2021-02-09 01:23:00 49.9551 14.4996 204 ° 11 km/h 413 m -3.4 m/s 402.70 MHz Jesenice (CZ) 0.00 km FOUND
R3320550 RS41 2021-02-08 19:21:31 49.795 14.1781 241 ° 11 km/h 517 m -7.2 m/s 402.70 MHz Dobříš (CZ) 0.00 km UNKNOWN
R3320862 RS41 2021-02-08 13:27:00 49.9488 13.7757 348 ° 2 km/h 610 m -5.1 m/s 402.70 MHz Hořovice (CZ) 0.00 km UNKNOWN
R3310929 RS41 2021-02-08 07:38:07 49.7707 13.8101 192 ° 4 km/h 640 m -6.0 m/s 402.70 MHz Hořovice (CZ) 0.00 km UNKNOWN
R3320542 RS41 2021-02-08 01:01:55 50.002 12.7401 249 ° 17 km/h 987 m -6.6 m/s 402.70 MHz Mariánské Lázně (CZ) 0.00 km UNKNOWN
R3310928 RS41 2021-02-07 19:12:33 49.9903 13.1564 253 ° 30 km/h 747 m -6.6 m/s 402.70 MHz Třemošná (CZ) 0.00 km UNKNOWN
R3320950 RS41 2021-02-07 13:04:25 50.0202 13.5648 243 ° 26 km/h 621 m -12.4 m/s 402.70 MHz Rakovník (CZ) 0.00 km UNKNOWN
R3320472 RS41 2021-02-07 06:43:40 49.9912 13.6522 249 ° 33 km/h 656 m -9.0 m/s 402.70 MHz Rakovník (CZ) 0.00 km FOUND
R3330025 RS41 2021-02-07 00:41:21 49.7918 13.4665 270 ° 35 km/h 811 m -12.9 m/s 402.70 MHz Třemošná (CZ) 0.00 km FOUND
R3320850 RS41 2021-02-06 18:27:52 49.611 13.687 291 ° 46 km/h 1014 m -13.6 m/s 402.70 MHz Rokycany (CZ) 0.00 km FOUND
R3320443 RS41 2021-02-06 13:04:59 49.5465 14.2672 253 ° 17 km/h 648 m -12.2 m/s 402.70 MHz Milevsko (CZ) 0.00 km LOST
R3320474 RS41 2021-02-06 07:22:54 49.4548 14.7171 307 ° 17 km/h 835 m -9.4 m/s 402.70 MHz Tábor (CZ) 0.00 km FOUND
R3330090 RS41 2021-02-06 01:14:39 49.4828 14.3899 332 ° 6 km/h 671 m -3.5 m/s 402.70 MHz Milevsko (CZ) 0.00 km LOST
R3321070 RS41 2021-02-05 19:22:49 49.4696 14.9731 348 ° 26 km/h 905 m -4.5 m/s 402.70 MHz Pelhřimov (CZ) 0.00 km LOST
R3320548 RS41 2021-02-05 13:41:16 49.4906 15.3151 354 ° 20 km/h 977 m -4.5 m/s 402.70 MHz Humpolec (CZ) 0.00 km UNKNOWN
R3320849 RS41 2021-02-05 07:34:04 49.4611 15.0405 314 ° 31 km/h 897 m -6.0 m/s 402.70 MHz Pelhřimov (CZ) 0.00 km LOST
R3310926 RS41 2021-02-05 01:15:32 49.4234 14.5761 296 ° 9 km/h 582 m -9.2 m/s 402.70 MHz Tábor (CZ) 0.00 km FOUND
R3310927 RS41 2021-02-04 19:22:33 49.2527 14.7323 144 ° 11 km/h 783 m -10.0 m/s 404.90 MHz Soběslav (CZ) 0.00 km UNKNOWN
R3321104 RS41 2021-02-04 13:03:52 49.2061 14.4569 122 ° 37 km/h 587 m -8.8 m/s 402.70 MHz Týn nad Vltavou (CZ) 0.00 km FOUND
R3321069 RS41 2021-02-04 07:30:50 49.0384 14.9223 97 ° 31 km/h 558 m -5.6 m/s 402.70 MHz Třeboň (CZ) 0.00 km UNKNOWN
R3320847 RS41 2021-02-04 01:32:15 49.3077 14.8933 68 ° 37 km/h 671 m -13.7 m/s 402.70 MHz Soběslav (CZ) 0.00 km UNKNOWN
R3310925 RS41 2021-02-03 19:16:47 49.5401 14.8845 58 ° 61 km/h 803 m -5.2 m/s 402.70 MHz Vlašim (CZ) 0.00 km UNKNOWN
R3320471 RS41 2021-02-03 13:28:28 49.5274 14.7895 24 ° 41 km/h 785 m -9.2 m/s 402.70 MHz Tábor (CZ) 0.00 km FOUND
R3320470 RS41 2021-02-03 07:17:57 49.2089 14.5365 72 ° 46 km/h 1026 m -11.8 m/s 402.70 MHz Týn nad Vltavou (CZ) 0.00 km FOUND
R3251261 RS41 2021-02-03 01:34:56 49.1697 14.6402 357 ° 17 km/h 499 m -8.3 m/s 402.70 MHz Veselí nad Lužnicí (CZ) 0.00 km UNKNOWN
R3251255 RS41 2021-02-02 19:17:44 48.9597 14.5265 80 ° 59 km/h 1091 m -7.8 m/s 402.70 MHz České Budějovice (CZ) 0.00 km NEED ATTENTION
R3310972 RS41 2021-02-02 13:09:04 49.0206 13.9411 66 ° 54 km/h 1219 m -7.3 m/s 404.90 MHz Prachatice (CZ) 0.00 km NEED ATTENTION
R3310930 RS41 2021-02-02 07:30:31 48.7195 13.9176 80 ° 35 km/h 1135 m -5.4 m/s 402.70 MHz Ulrichsberg (AT) 0.00 km UNKNOWN
R3320848 RS41 2021-02-02 01:31:03 48.8943 13.4965 89 ° 46 km/h 1667 m -6.0 m/s 404.90 MHz Vimperk (CZ) 0.00 km UNKNOWN
R3251266 RS41 2021-02-02 00:13:11 48.9076 13.229 91 ° 41 km/h 1238 m -4.8 m/s 402.70 MHz Deggendorf (DE) 0.00 km UNKNOWN
R3251224 RS41 2021-02-01 19:07:51 49.0546 13.1429 52 ° 41 km/h 1559 m -6.1 m/s 402.70 MHz Deggendorf (DE) 0.00 km UNKNOWN
R3330826 RS41 2021-02-01 13:33:36 49.3919 13.3681 57 ° 6 km/h 575 m -7.5 m/s 402.70 MHz Klatovy (CZ) 0.00 km UNKNOWN
D505920 DFM 2021-02-01 13:33:33 49.3918 13.368 27 ° 6 km/h 564 m -7.3 m/s 404.910 MHz Klatovy (CZ) 0.00 km UNKNOWN
R3251208 RS41 2021-02-01 06:54:24 49.1797 13.1408 326 ° 17 km/h 1128 m -11.8 m/s 402.70 MHz Kdyně (CZ) 0.00 km UNKNOWN
R3330825 RS41 2021-02-01 01:07:21 48.9533 13.1767 46 ° 7 km/h 1305 m -3.9 m/s 402.700 MHz Deggendorf (DE) 0.00 km UNKNOWN
R3330827 RS41 2021-01-31 19:09:33 48.7958 13.2153 300 ° 24 km/h 986 m -11.0 m/s 402.70 MHz Deggendorf (DE) 0.00 km UNKNOWN
R3330829 RS41 2021-01-31 13:25:23 48.8522 13.4163 308 ° 19 km/h 1478 m -5.0 m/s 402.70 MHz Passau (DE) 0.00 km UNKNOWN
R3330062 RS41 2021-01-31 06:28:20 49.0384 13.0603 298 ° 24 km/h 1462 m -9.0 m/s 402.70 MHz Deggendorf (DE) 0.00 km UNKNOWN
R3330838 RS41 2021-01-31 01:20:37 48.9617 13.7411 266 ° 31 km/h 1446 m -4.8 m/s 402.70 MHz Vimperk (CZ) 0.00 km UNKNOWN
R3330837 RS41 2021-01-30 19:13:51 48.8857 13.9286 254 ° 26 km/h 1165 m -9.7 m/s 402.70 MHz Prachatice (CZ) 0.00 km UNKNOWN
R3330836 RS41 2021-01-30 13:04:09 48.6951 13.9879 100 ° 17 km/h 1085 m -13.1 m/s 402.70 MHz Ulrichsberg (AT) 0.00 km FOUND
R3330839 RS41 2021-01-30 07:29:52 48.132 14.5108 71 ° 33 km/h 399 m -6.9 m/s 402.70 MHz Ernsthofen (AT) 0.00 km FOUND
R3330834 RS41 2021-01-30 01:25:00 48.2058 13.728 82 ° 39 km/h 482 m -8.2 m/s 402.70 MHz Gallspach (AT) 0.00 km FOUND
R3330830 RS41 2021-01-29 19:20:14 48.6798 13.5334 85 ° 31 km/h 682 m -6.3 m/s 402.70 MHz Passau (DE) 0.00 km UNKNOWN
R3330845 RS41 2021-01-29 13:17:47 48.7949 13.7195 81 ° 76 km/h 1218 m -9.0 m/s 402.70 MHz Ulrichsberg (AT) 0.00 km UNKNOWN
R3330227 RS41 2021-01-29 07:30:24 48.5692 14.0702 87 ° 24 km/h 733 m -10.7 m/s 402.70 MHz Haslach an der Mühl (AT) 0.00 km FOUND
R3330831 RS41 2021-01-29 01:03:39 48.2188 13.7003 90 ° 61 km/h 519 m -11.0 m/s 402.701 MHz Haag am Hausruck (AT) 0.00 km UNKNOWN
R3330833 RS41 2021-01-28 19:25:21 47.9288 13.8351 59 ° 54 km/h 674 m -10.3 m/s 402.701 MHz Gschwandt (AT) 0.00 km FOUND
R3330225 RS41 2021-01-28 13:30:06 48.2766 14.0137 339 ° 2 km/h 422 m -5.2 m/s 402.70 MHz Fraham (AT) 0.00 km FOUND
R3330217 RS41 2021-01-28 07:20:48 47.3737 13.4974 136 ° 63 km/h 3434 m -11.0 m/s 402.70 MHz Radstadt (AT) 0.00 km UNKNOWN
R3330835 RS41 2021-01-28 02:03:16 46.5727 13.5895 136 ° 56 km/h 2695 m -6.0 m/s 402.700 MHz Arnoldstein (AT) 0.00 km UNKNOWN
R3330578 RS41 2021-01-27 19:05:35 47.7644 12.9226 44 ° 11 km/h 580 m -4.1 m/s 402.70 MHz Grossgmain (AT) 0.00 km FOUND
R3330581 RS41 2021-01-27 13:05:23 47.6919 12.8331 60 ° 19 km/h 1169 m -13.8 m/s 402.70 MHz Grossgmain (AT) 0.00 km UNKNOWN
R3330229 RS41 2021-01-27 06:58:54 47.5507 12.6528 65 ° 24 km/h 2103 m -11.3 m/s 402.70 MHz Fieberbrunn (AT) 0.00 km UNKNOWN
R3330593 RS41 2021-01-27 01:29:00 46.9856 12.8433 163 ° 69 km/h 4222 m -7.5 m/s 402.70 MHz Dölsach (AT) 0.00 km UNKNOWN
R3330577 RS41 2021-01-26 19:15:49 47.5846 13.1284 94 ° 20 km/h 1771 m -3.4 m/s 402.70 MHz Golling an der Salzach (AT) 0.00 km UNKNOWN
R3330579 RS41 2021-01-26 13:22:40 47.9904 13.4538 81 ° 56 km/h 682 m -6.0 m/s 402.70 MHz Frankenmarkt (AT) 0.00 km UNKNOWN
R3330580 RS41 2021-01-26 07:17:41 48.3271 13.5988 92 ° 28 km/h 536 m -4.8 m/s 402.70 MHz Raab (AT) 0.00 km UNKNOWN
R3330982 RS41 2021-01-26 01:26:31 48.5907 13.8099 120 ° 15 km/h 870 m -6.8 m/s 402.70 MHz Sarleinsbach (AT) 0.00 km UNKNOWN
R3330585 RS41 2021-01-25 19:12:53 48.713 13.5031 114 ° 20 km/h 1069 m -5.0 m/s 402.70 MHz Passau (DE) 0.00 km UNKNOWN
R3330981 RS41 2021-01-25 13:21:49 49.0819 13.584 177 ° 6 km/h 1579 m -4.5 m/s 402.70 MHz Vimperk (CZ) 0.00 km UNKNOWN
R3330218 RS41 2021-01-25 07:06:09 49.2562 13.4628 123 ° 6 km/h 1004 m -6.7 m/s 402.70 MHz Sušice (CZ) 0.00 km UNKNOWN
R3330592 RS41 2021-01-25 01:35:40 49.4184 14.1118 107 ° 30 km/h 794 m -5.9 m/s 402.70 MHz Písek (CZ) 0.00 km FOUND
R3320629 RS41 2021-01-24 19:26:11 49.4956 14.0362 88 ° 50 km/h 741 m -4.0 m/s 402.70 MHz Blatná (CZ) 0.00 km FOUND
R3310172 RS41 2021-01-24 13:04:50 49.8138 14.0472 20 ° 35 km/h 576 m -9.7 m/s 402.70 MHz Dobříš (CZ) 0.00 km FOUND
R3320632 RS41 2021-01-24 07:23:30 50.0475 14.1987 322 ° 11 km/h 446 m -5.9 m/s 402.70 MHz Rudná (CZ) 0.00 km FOUND
R3330980 RS41 2021-01-24 01:09:34 50.2521 13.7087 10 ° 15 km/h 628 m -6.6 m/s 402.70 MHz Louny (CZ) 0.00 km UNKNOWN
R3330590 RS41 2021-01-23 19:14:12 50.1967 13.6936 90 ° 9 km/h 629 m -3.9 m/s 402.70 MHz Rakovník (CZ) 0.00 km FOUND
R3330589 RS41 2021-01-23 12:53:37 49.9669 13.0968 108 ° 37 km/h 765 m -5.4 m/s 402.70 MHz Stříbro (CZ) 0.00 km UNKNOWN
R3330219 RS41 2021-01-23 06:12:40 49.9564 12.346 157 ° 22 km/h 694 m -8.3 m/s 402.70 MHz Cheb (CZ) 0.00 km FOUND
R3330220 RS41 2021-01-23 01:21:40 50.1144 12.6297 259 ° 9 km/h 732 m -5.3 m/s 404.90 MHz Sokolov (CZ) 0.00 km UNKNOWN
R3330205 RS41 2021-01-22 23:55:41 49.9876 12.4504 185 ° 20 km/h 682 m -12.5 m/s 402.70 MHz Cheb (CZ) 0.00 km FOUND
R3420786 RS41 2021-01-22 18:16:20 49.9024 13.2176 347 ° 33 km/h 1115 m -6.9 m/s 402.70 MHz Třemošná (CZ) 0.00 km UNKNOWN
R3420782 RS41 2021-01-22 13:05:59 50.1312 14.6199 57 ° 26 km/h 323 m